<?xml version="1.0" encoding="UTF-8" standalone="no" ?>
<gpx xmlns="http://www.topografix.com/GPX/1/1" xmlns:xsi="http://www.w3.org/2001/XMLSchema-instance" xsi:schemaLocation="http://www.topografix.com/GPX/1/1 http://www.topografix.com/GPX/1/1/gpx.xsd" version="1.1" creator="VisuGPX - https://www.visugpx.com">
  <metadata>
    <name>Lambesc Cyclisme</name>
  </metadata>
  <trk>
    <name><![CDATA[Lambesc Cyclisme]]></name>
    <trkseg>
      <trkpt lat="43.64453" lon="5.2654">
        <ele>221.39999389648</ele>
        <time>2022-03-19T12:53:39.000Z</time>
      </trkpt>
      <trkpt lat="43.6447" lon="5.26534">
        <ele>221.19999694824</ele>
        <time>2022-03-19T12:53:43.000Z</time>
      </trkpt>
      <trkpt lat="43.64474" lon="5.26532">
        <ele>221.39999389648</ele>
        <time>2022-03-19T12:53:44.000Z</time>
      </trkpt>
      <trkpt lat="43.64479" lon="5.2653">
        <ele>221.39999389648</ele>
        <time>2022-03-19T12:53:45.000Z</time>
      </trkpt>
      <trkpt lat="43.64484" lon="5.26529">
        <ele>221.19999694824</ele>
        <time>2022-03-19T12:53:46.000Z</time>
      </trkpt>
      <trkpt lat="43.64489" lon="5.26527">
        <ele>221.19999694824</ele>
        <time>2022-03-19T12:53:47.000Z</time>
      </trkpt>
      <trkpt lat="43.64512" lon="5.2652">
        <ele>221.19999694824</ele>
        <time>2022-03-19T12:53:51.000Z</time>
      </trkpt>
      <trkpt lat="43.64518" lon="5.26518">
        <ele>221.39999389648</ele>
        <time>2022-03-19T12:53:52.000Z</time>
      </trkpt>
      <trkpt lat="43.64542" lon="5.26508">
        <ele>222</ele>
        <time>2022-03-19T12:53:57.000Z</time>
      </trkpt>
      <trkpt lat="43.6456" lon="5.26503">
        <ele>222.60000610352</ele>
        <time>2022-03-19T12:54:00.000Z</time>
      </trkpt>
      <trkpt lat="43.64566" lon="5.26501">
        <ele>222.80000305176</ele>
        <time>2022-03-19T12:54:01.000Z</time>
      </trkpt>
      <trkpt lat="43.64571" lon="5.26499">
        <ele>222.80000305176</ele>
        <time>2022-03-19T12:54:02.000Z</time>
      </trkpt>
      <trkpt lat="43.64576" lon="5.26496">
        <ele>223</ele>
        <time>2022-03-19T12:54:03.000Z</time>
      </trkpt>
      <trkpt lat="43.64582" lon="5.26495">
        <ele>223</ele>
        <time>2022-03-19T12:54:04.000Z</time>
      </trkpt>
      <trkpt lat="43.64616" lon="5.26485">
        <ele>224.39999389648</ele>
        <time>2022-03-19T12:54:10.000Z</time>
      </trkpt>
      <trkpt lat="43.64655" lon="5.26473">
        <ele>225</ele>
        <time>2022-03-19T12:54:17.000Z</time>
      </trkpt>
      <trkpt lat="43.64666" lon="5.26471">
        <ele>225</ele>
        <time>2022-03-19T12:54:19.000Z</time>
      </trkpt>
      <trkpt lat="43.64671" lon="5.26469">
        <ele>225</ele>
        <time>2022-03-19T12:54:20.000Z</time>
      </trkpt>
      <trkpt lat="43.64677" lon="5.26466">
        <ele>225.39999389648</ele>
        <time>2022-03-19T12:54:21.000Z</time>
      </trkpt>
      <trkpt lat="43.64683" lon="5.26464">
        <ele>226</ele>
        <time>2022-03-19T12:54:22.000Z</time>
      </trkpt>
      <trkpt lat="43.64689" lon="5.26462">
        <ele>226.39999389648</ele>
        <time>2022-03-19T12:54:23.000Z</time>
      </trkpt>
      <trkpt lat="43.64694" lon="5.2646">
        <ele>226.80000305176</ele>
        <time>2022-03-19T12:54:24.000Z</time>
      </trkpt>
      <trkpt lat="43.6472" lon="5.26449">
        <ele>229</ele>
        <time>2022-03-19T12:54:29.000Z</time>
      </trkpt>
      <trkpt lat="43.64725" lon="5.26448">
        <ele>229.39999389648</ele>
        <time>2022-03-19T12:54:30.000Z</time>
      </trkpt>
      <trkpt lat="43.6473" lon="5.26447">
        <ele>230</ele>
        <time>2022-03-19T12:54:31.000Z</time>
      </trkpt>
      <trkpt lat="43.64735" lon="5.26445">
        <ele>230.39999389648</ele>
        <time>2022-03-19T12:54:32.000Z</time>
      </trkpt>
      <trkpt lat="43.6474" lon="5.26443">
        <ele>230.80000305176</ele>
        <time>2022-03-19T12:54:33.000Z</time>
      </trkpt>
      <trkpt lat="43.64751" lon="5.26439">
        <ele>231.60000610352</ele>
        <time>2022-03-19T12:54:34.000Z</time>
      </trkpt>
      <trkpt lat="43.64759" lon="5.26436">
        <ele>232.19999694824</ele>
        <time>2022-03-19T12:54:37.000Z</time>
      </trkpt>
      <trkpt lat="43.64764" lon="5.26437">
        <ele>232.39999389648</ele>
        <time>2022-03-19T12:54:38.000Z</time>
      </trkpt>
      <trkpt lat="43.64768" lon="5.26435">
        <ele>232.39999389648</ele>
        <time>2022-03-19T12:54:39.000Z</time>
      </trkpt>
      <trkpt lat="43.64774" lon="5.26434">
        <ele>232.60000610352</ele>
        <time>2022-03-19T12:54:40.000Z</time>
      </trkpt>
      <trkpt lat="43.64778" lon="5.26433">
        <ele>232.80000305176</ele>
        <time>2022-03-19T12:54:41.000Z</time>
      </trkpt>
      <trkpt lat="43.64783" lon="5.26432">
        <ele>232.80000305176</ele>
        <time>2022-03-19T12:54:42.000Z</time>
      </trkpt>
      <trkpt lat="43.64798" lon="5.26427">
        <ele>232.60000610352</ele>
        <time>2022-03-19T12:54:45.000Z</time>
      </trkpt>
      <trkpt lat="43.64826" lon="5.26422">
        <ele>233</ele>
        <time>2022-03-19T12:54:50.000Z</time>
      </trkpt>
      <trkpt lat="43.64842" lon="5.26422">
        <ele>232.60000610352</ele>
        <time>2022-03-19T12:54:53.000Z</time>
      </trkpt>
      <trkpt lat="43.64847" lon="5.26425">
        <ele>232.39999389648</ele>
        <time>2022-03-19T12:54:54.000Z</time>
      </trkpt>
      <trkpt lat="43.64851" lon="5.26428">
        <ele>232</ele>
        <time>2022-03-19T12:54:55.000Z</time>
      </trkpt>
      <trkpt lat="43.64855" lon="5.26431">
        <ele>231.80000305176</ele>
        <time>2022-03-19T12:54:56.000Z</time>
      </trkpt>
      <trkpt lat="43.64858" lon="5.26433">
        <ele>231.60000610352</ele>
        <time>2022-03-19T12:54:57.000Z</time>
      </trkpt>
      <trkpt lat="43.64861" lon="5.26438">
        <ele>231.19999694824</ele>
        <time>2022-03-19T12:54:59.000Z</time>
      </trkpt>
      <trkpt lat="43.64871" lon="5.26462">
        <ele>230.80000305176</ele>
        <time>2022-03-19T12:55:04.000Z</time>
      </trkpt>
      <trkpt lat="43.64873" lon="5.26485">
        <ele>230.80000305176</ele>
        <time>2022-03-19T12:55:07.000Z</time>
      </trkpt>
      <trkpt lat="43.64889" lon="5.26498">
        <ele>230.19999694824</ele>
        <time>2022-03-19T12:55:10.000Z</time>
      </trkpt>
      <trkpt lat="43.64907" lon="5.26487">
        <ele>230</ele>
        <time>2022-03-19T12:55:13.000Z</time>
      </trkpt>
      <trkpt lat="43.64912" lon="5.26482">
        <ele>230.19999694824</ele>
        <time>2022-03-19T12:55:14.000Z</time>
      </trkpt>
      <trkpt lat="43.64924" lon="5.26475">
        <ele>230.80000305176</ele>
        <time>2022-03-19T12:55:16.000Z</time>
      </trkpt>
      <trkpt lat="43.6493" lon="5.26472">
        <ele>231</ele>
        <time>2022-03-19T12:55:17.000Z</time>
      </trkpt>
      <trkpt lat="43.64936" lon="5.26469">
        <ele>231</ele>
        <time>2022-03-19T12:55:18.000Z</time>
      </trkpt>
      <trkpt lat="43.64942" lon="5.26466">
        <ele>231</ele>
        <time>2022-03-19T12:55:19.000Z</time>
      </trkpt>
      <trkpt lat="43.64948" lon="5.26463">
        <ele>231</ele>
        <time>2022-03-19T12:55:20.000Z</time>
      </trkpt>
      <trkpt lat="43.64954" lon="5.26461">
        <ele>230.80000305176</ele>
        <time>2022-03-19T12:55:21.000Z</time>
      </trkpt>
      <trkpt lat="43.64981" lon="5.26453">
        <ele>230</ele>
        <time>2022-03-19T12:55:25.000Z</time>
      </trkpt>
      <trkpt lat="43.64988" lon="5.2645">
        <ele>229.39999389648</ele>
        <time>2022-03-19T12:55:26.000Z</time>
      </trkpt>
      <trkpt lat="43.64995" lon="5.26448">
        <ele>229.39999389648</ele>
        <time>2022-03-19T12:55:27.000Z</time>
      </trkpt>
      <trkpt lat="43.65003" lon="5.26445">
        <ele>229.19999694824</ele>
        <time>2022-03-19T12:55:28.000Z</time>
      </trkpt>
      <trkpt lat="43.65019" lon="5.26439">
        <ele>229.60000610352</ele>
        <time>2022-03-19T12:55:30.000Z</time>
      </trkpt>
      <trkpt lat="43.65028" lon="5.26436">
        <ele>229.80000305176</ele>
        <time>2022-03-19T12:55:31.000Z</time>
      </trkpt>
      <trkpt lat="43.65036" lon="5.26433">
        <ele>229.80000305176</ele>
        <time>2022-03-19T12:55:32.000Z</time>
      </trkpt>
      <trkpt lat="43.65045" lon="5.2643">
        <ele>229.80000305176</ele>
        <time>2022-03-19T12:55:33.000Z</time>
      </trkpt>
      <trkpt lat="43.65054" lon="5.26427">
        <ele>229.39999389648</ele>
        <time>2022-03-19T12:55:34.000Z</time>
      </trkpt>
      <trkpt lat="43.65064" lon="5.26423">
        <ele>228.60000610352</ele>
        <time>2022-03-19T12:55:35.000Z</time>
      </trkpt>
      <trkpt lat="43.65073" lon="5.2642">
        <ele>227.60000610352</ele>
        <time>2022-03-19T12:55:36.000Z</time>
      </trkpt>
      <trkpt lat="43.65083" lon="5.26417">
        <ele>226.19999694824</ele>
        <time>2022-03-19T12:55:37.000Z</time>
      </trkpt>
      <trkpt lat="43.65093" lon="5.26413">
        <ele>224.60000610352</ele>
        <time>2022-03-19T12:55:38.000Z</time>
      </trkpt>
      <trkpt lat="43.65103" lon="5.26409">
        <ele>222.80000305176</ele>
        <time>2022-03-19T12:55:39.000Z</time>
      </trkpt>
      <trkpt lat="43.65113" lon="5.26406">
        <ele>221</ele>
        <time>2022-03-19T12:55:40.000Z</time>
      </trkpt>
      <trkpt lat="43.65123" lon="5.26403">
        <ele>219.60000610352</ele>
        <time>2022-03-19T12:55:41.000Z</time>
      </trkpt>
      <trkpt lat="43.65133" lon="5.26399">
        <ele>218.39999389648</ele>
        <time>2022-03-19T12:55:42.000Z</time>
      </trkpt>
      <trkpt lat="43.65143" lon="5.26396">
        <ele>217.39999389648</ele>
        <time>2022-03-19T12:55:43.000Z</time>
      </trkpt>
      <trkpt lat="43.65153" lon="5.26392">
        <ele>216.60000610352</ele>
        <time>2022-03-19T12:55:44.000Z</time>
      </trkpt>
      <trkpt lat="43.65163" lon="5.26389">
        <ele>216.19999694824</ele>
        <time>2022-03-19T12:55:45.000Z</time>
      </trkpt>
      <trkpt lat="43.65173" lon="5.26385">
        <ele>215.80000305176</ele>
        <time>2022-03-19T12:55:46.000Z</time>
      </trkpt>
      <trkpt lat="43.65183" lon="5.26382">
        <ele>215</ele>
        <time>2022-03-19T12:55:47.000Z</time>
      </trkpt>
      <trkpt lat="43.65192" lon="5.26379">
        <ele>214.19999694824</ele>
        <time>2022-03-19T12:55:48.000Z</time>
      </trkpt>
      <trkpt lat="43.65201" lon="5.26375">
        <ele>213.60000610352</ele>
        <time>2022-03-19T12:55:49.000Z</time>
      </trkpt>
      <trkpt lat="43.6521" lon="5.26372">
        <ele>213.19999694824</ele>
        <time>2022-03-19T12:55:50.000Z</time>
      </trkpt>
      <trkpt lat="43.65219" lon="5.26366">
        <ele>212.60000610352</ele>
        <time>2022-03-19T12:55:51.000Z</time>
      </trkpt>
      <trkpt lat="43.65227" lon="5.2636">
        <ele>212.19999694824</ele>
        <time>2022-03-19T12:55:52.000Z</time>
      </trkpt>
      <trkpt lat="43.65234" lon="5.26354">
        <ele>211.60000610352</ele>
        <time>2022-03-19T12:55:53.000Z</time>
      </trkpt>
      <trkpt lat="43.65241" lon="5.26349">
        <ele>211.19999694824</ele>
        <time>2022-03-19T12:55:54.000Z</time>
      </trkpt>
      <trkpt lat="43.65245" lon="5.26346">
        <ele>210.60000610352</ele>
        <time>2022-03-19T12:55:55.000Z</time>
      </trkpt>
      <trkpt lat="43.65249" lon="5.26343">
        <ele>210.19999694824</ele>
        <time>2022-03-19T12:55:56.000Z</time>
      </trkpt>
      <trkpt lat="43.65252" lon="5.2634">
        <ele>209.60000610352</ele>
        <time>2022-03-19T12:55:57.000Z</time>
      </trkpt>
      <trkpt lat="43.65259" lon="5.26331">
        <ele>208.39999389648</ele>
        <time>2022-03-19T12:56:00.000Z</time>
      </trkpt>
      <trkpt lat="43.65274" lon="5.26316">
        <ele>208.39999389648</ele>
        <time>2022-03-19T12:56:04.000Z</time>
      </trkpt>
      <trkpt lat="43.65282" lon="5.26305">
        <ele>208.19999694824</ele>
        <time>2022-03-19T12:56:06.000Z</time>
      </trkpt>
      <trkpt lat="43.65286" lon="5.26299">
        <ele>208.19999694824</ele>
        <time>2022-03-19T12:56:07.000Z</time>
      </trkpt>
      <trkpt lat="43.6529" lon="5.26293">
        <ele>208</ele>
        <time>2022-03-19T12:56:08.000Z</time>
      </trkpt>
      <trkpt lat="43.65294" lon="5.26288">
        <ele>208</ele>
        <time>2022-03-19T12:56:09.000Z</time>
      </trkpt>
      <trkpt lat="43.65298" lon="5.26282">
        <ele>208.19999694824</ele>
        <time>2022-03-19T12:56:10.000Z</time>
      </trkpt>
      <trkpt lat="43.65312" lon="5.26261">
        <ele>209.19999694824</ele>
        <time>2022-03-19T12:56:14.000Z</time>
      </trkpt>
      <trkpt lat="43.65315" lon="5.26256">
        <ele>209.39999389648</ele>
        <time>2022-03-19T12:56:15.000Z</time>
      </trkpt>
      <trkpt lat="43.65322" lon="5.26247">
        <ele>210.19999694824</ele>
        <time>2022-03-19T12:56:17.000Z</time>
      </trkpt>
      <trkpt lat="43.65333" lon="5.26235">
        <ele>211.19999694824</ele>
        <time>2022-03-19T12:56:20.000Z</time>
      </trkpt>
      <trkpt lat="43.65336" lon="5.2623">
        <ele>211.39999389648</ele>
        <time>2022-03-19T12:56:21.000Z</time>
      </trkpt>
      <trkpt lat="43.65355" lon="5.26208">
        <ele>210.39999389648</ele>
        <time>2022-03-19T12:56:26.000Z</time>
      </trkpt>
      <trkpt lat="43.6538" lon="5.26181">
        <ele>208</ele>
        <time>2022-03-19T12:56:32.000Z</time>
      </trkpt>
      <trkpt lat="43.65385" lon="5.26177">
        <ele>207.39999389648</ele>
        <time>2022-03-19T12:56:33.000Z</time>
      </trkpt>
      <trkpt lat="43.65391" lon="5.26177">
        <ele>207.39999389648</ele>
        <time>2022-03-19T12:56:34.000Z</time>
      </trkpt>
      <trkpt lat="43.65396" lon="5.2618">
        <ele>207.19999694824</ele>
        <time>2022-03-19T12:56:35.000Z</time>
      </trkpt>
      <trkpt lat="43.654" lon="5.26184">
        <ele>207.19999694824</ele>
        <time>2022-03-19T12:56:36.000Z</time>
      </trkpt>
      <trkpt lat="43.65408" lon="5.26189">
        <ele>207</ele>
        <time>2022-03-19T12:56:38.000Z</time>
      </trkpt>
      <trkpt lat="43.65417" lon="5.26192">
        <ele>206.39999389648</ele>
        <time>2022-03-19T12:56:40.000Z</time>
      </trkpt>
      <trkpt lat="43.65423" lon="5.26201">
        <ele>206.39999389648</ele>
        <time>2022-03-19T12:56:42.000Z</time>
      </trkpt>
      <trkpt lat="43.65426" lon="5.26222">
        <ele>206.80000305176</ele>
        <time>2022-03-19T12:56:45.000Z</time>
      </trkpt>
      <trkpt lat="43.65434" lon="5.26247">
        <ele>206.60000610352</ele>
        <time>2022-03-19T12:56:49.000Z</time>
      </trkpt>
      <trkpt lat="43.65438" lon="5.26253">
        <ele>206.19999694824</ele>
        <time>2022-03-19T12:56:50.000Z</time>
      </trkpt>
      <trkpt lat="43.65455" lon="5.26251">
        <ele>204.80000305176</ele>
        <time>2022-03-19T12:56:53.000Z</time>
      </trkpt>
      <trkpt lat="43.6546" lon="5.26243">
        <ele>205</ele>
        <time>2022-03-19T12:56:54.000Z</time>
      </trkpt>
      <trkpt lat="43.65462" lon="5.26234">
        <ele>205</ele>
        <time>2022-03-19T12:56:55.000Z</time>
      </trkpt>
      <trkpt lat="43.65463" lon="5.26228">
        <ele>205</ele>
        <time>2022-03-19T12:56:56.000Z</time>
      </trkpt>
      <trkpt lat="43.65467" lon="5.26224">
        <ele>205</ele>
        <time>2022-03-19T12:56:57.000Z</time>
      </trkpt>
      <trkpt lat="43.65472" lon="5.26224">
        <ele>205</ele>
        <time>2022-03-19T12:56:58.000Z</time>
      </trkpt>
      <trkpt lat="43.6549" lon="5.26226">
        <ele>204.60000610352</ele>
        <time>2022-03-19T12:57:02.000Z</time>
      </trkpt>
      <trkpt lat="43.65501" lon="5.26242">
        <ele>204.19999694824</ele>
        <time>2022-03-19T12:57:05.000Z</time>
      </trkpt>
      <trkpt lat="43.65505" lon="5.26245">
        <ele>204</ele>
        <time>2022-03-19T12:57:06.000Z</time>
      </trkpt>
      <trkpt lat="43.65509" lon="5.26247">
        <ele>203.60000610352</ele>
        <time>2022-03-19T12:57:07.000Z</time>
      </trkpt>
      <trkpt lat="43.65513" lon="5.26251">
        <ele>203.39999389648</ele>
        <time>2022-03-19T12:57:08.000Z</time>
      </trkpt>
      <trkpt lat="43.65517" lon="5.26254">
        <ele>203.19999694824</ele>
        <time>2022-03-19T12:57:09.000Z</time>
      </trkpt>
      <trkpt lat="43.6552" lon="5.26258">
        <ele>203</ele>
        <time>2022-03-19T12:57:10.000Z</time>
      </trkpt>
      <trkpt lat="43.65523" lon="5.26262">
        <ele>202.60000610352</ele>
        <time>2022-03-19T12:57:12.000Z</time>
      </trkpt>
      <trkpt lat="43.65523" lon="5.26266">
        <ele>202.60000610352</ele>
        <time>2022-03-19T12:57:13.000Z</time>
      </trkpt>
      <trkpt lat="43.65532" lon="5.2627">
        <ele>202</ele>
        <time>2022-03-19T12:57:16.000Z</time>
      </trkpt>
      <trkpt lat="43.65539" lon="5.26274">
        <ele>201.60000610352</ele>
        <time>2022-03-19T12:57:18.000Z</time>
      </trkpt>
      <trkpt lat="43.65542" lon="5.26273">
        <ele>201.60000610352</ele>
        <time>2022-03-19T12:57:19.000Z</time>
      </trkpt>
      <trkpt lat="43.65545" lon="5.26275">
        <ele>201.39999389648</ele>
        <time>2022-03-19T12:57:20.000Z</time>
      </trkpt>
      <trkpt lat="43.65551" lon="5.26278">
        <ele>201</ele>
        <time>2022-03-19T12:57:25.000Z</time>
      </trkpt>
      <trkpt lat="43.65552" lon="5.26277">
        <ele>201</ele>
        <time>2022-03-19T12:57:30.000Z</time>
      </trkpt>
      <trkpt lat="43.65552" lon="5.26277">
        <ele>201</ele>
        <time>2022-03-19T12:57:35.000Z</time>
      </trkpt>
      <trkpt lat="43.65552" lon="5.26277">
        <ele>201</ele>
        <time>2022-03-19T12:57:36.000Z</time>
      </trkpt>
      <trkpt lat="43.65552" lon="5.26277">
        <ele>201</ele>
        <time>2022-03-19T12:57:37.000Z</time>
      </trkpt>
      <trkpt lat="43.65552" lon="5.26277">
        <ele>201</ele>
        <time>2022-03-19T12:57:38.000Z</time>
      </trkpt>
      <trkpt lat="43.65552" lon="5.26277">
        <ele>201</ele>
        <time>2022-03-19T12:57:39.000Z</time>
      </trkpt>
      <trkpt lat="43.65552" lon="5.26277">
        <ele>201</ele>
        <time>2022-03-19T12:57:47.000Z</time>
      </trkpt>
      <trkpt lat="43.65552" lon="5.26277">
        <ele>201</ele>
        <time>2022-03-19T12:57:57.000Z</time>
      </trkpt>
      <trkpt lat="43.65552" lon="5.26278">
        <ele>201</ele>
        <time>2022-03-19T12:58:09.000Z</time>
      </trkpt>
      <trkpt lat="43.65552" lon="5.26278">
        <ele>201</ele>
        <time>2022-03-19T12:58:21.000Z</time>
      </trkpt>
      <trkpt lat="43.65552" lon="5.26278">
        <ele>201</ele>
        <time>2022-03-19T12:58:31.000Z</time>
      </trkpt>
      <trkpt lat="43.65552" lon="5.26278">
        <ele>201</ele>
        <time>2022-03-19T12:58:44.000Z</time>
      </trkpt>
      <trkpt lat="43.65552" lon="5.26278">
        <ele>201</ele>
        <time>2022-03-19T12:58:57.000Z</time>
      </trkpt>
      <trkpt lat="43.65552" lon="5.26278">
        <ele>201</ele>
        <time>2022-03-19T12:59:10.000Z</time>
      </trkpt>
      <trkpt lat="43.65552" lon="5.26278">
        <ele>201</ele>
        <time>2022-03-19T12:59:29.000Z</time>
      </trkpt>
      <trkpt lat="43.65552" lon="5.26278">
        <ele>201</ele>
        <time>2022-03-19T12:59:44.000Z</time>
      </trkpt>
      <trkpt lat="43.65552" lon="5.26278">
        <ele>201</ele>
        <time>2022-03-19T12:59:56.000Z</time>
      </trkpt>
      <trkpt lat="43.65552" lon="5.26278">
        <ele>201</ele>
        <time>2022-03-19T13:00:04.000Z</time>
      </trkpt>
      <trkpt lat="43.65552" lon="5.26278">
        <ele>201</ele>
        <time>2022-03-19T13:00:13.000Z</time>
      </trkpt>
      <trkpt lat="43.65552" lon="5.26278">
        <ele>201</ele>
        <time>2022-03-19T13:00:23.000Z</time>
      </trkpt>
      <trkpt lat="43.65552" lon="5.26278">
        <ele>201</ele>
        <time>2022-03-19T13:00:41.000Z</time>
      </trkpt>
      <trkpt lat="43.65552" lon="5.26278">
        <ele>201</ele>
        <time>2022-03-19T13:00:54.000Z</time>
      </trkpt>
      <trkpt lat="43.65552" lon="5.26278">
        <ele>201</ele>
        <time>2022-03-19T13:01:04.000Z</time>
      </trkpt>
      <trkpt lat="43.65552" lon="5.26278">
        <ele>201</ele>
        <time>2022-03-19T13:01:16.000Z</time>
      </trkpt>
      <trkpt lat="43.65551" lon="5.26277">
        <ele>201</ele>
        <time>2022-03-19T13:01:26.000Z</time>
      </trkpt>
      <trkpt lat="43.65551" lon="5.26277">
        <ele>201</ele>
        <time>2022-03-19T13:01:36.000Z</time>
      </trkpt>
      <trkpt lat="43.65551" lon="5.26277">
        <ele>201</ele>
        <time>2022-03-19T13:01:44.000Z</time>
      </trkpt>
      <trkpt lat="43.65551" lon="5.26277">
        <ele>201</ele>
        <time>2022-03-19T13:01:56.000Z</time>
      </trkpt>
      <trkpt lat="43.65552" lon="5.26278">
        <ele>201</ele>
        <time>2022-03-19T13:02:09.000Z</time>
      </trkpt>
      <trkpt lat="43.65552" lon="5.26278">
        <ele>201</ele>
        <time>2022-03-19T13:02:23.000Z</time>
      </trkpt>
      <trkpt lat="43.65552" lon="5.26278">
        <ele>201</ele>
        <time>2022-03-19T13:02:34.000Z</time>
      </trkpt>
      <trkpt lat="43.65552" lon="5.26278">
        <ele>201</ele>
        <time>2022-03-19T13:02:43.000Z</time>
      </trkpt>
      <trkpt lat="43.65552" lon="5.26277">
        <ele>201</ele>
        <time>2022-03-19T13:02:55.000Z</time>
      </trkpt>
      <trkpt lat="43.65552" lon="5.26277">
        <ele>201</ele>
        <time>2022-03-19T13:03:08.000Z</time>
      </trkpt>
      <trkpt lat="43.65552" lon="5.26277">
        <ele>201</ele>
        <time>2022-03-19T13:03:21.000Z</time>
      </trkpt>
      <trkpt lat="43.65552" lon="5.26276">
        <ele>201.19999694824</ele>
        <time>2022-03-19T13:03:30.000Z</time>
      </trkpt>
      <trkpt lat="43.65552" lon="5.26276">
        <ele>201.19999694824</ele>
        <time>2022-03-19T13:03:43.000Z</time>
      </trkpt>
      <trkpt lat="43.65552" lon="5.26276">
        <ele>201.19999694824</ele>
        <time>2022-03-19T13:03:55.000Z</time>
      </trkpt>
      <trkpt lat="43.65552" lon="5.26276">
        <ele>201</ele>
        <time>2022-03-19T13:04:06.000Z</time>
      </trkpt>
      <trkpt lat="43.65552" lon="5.26276">
        <ele>201</ele>
        <time>2022-03-19T13:04:15.000Z</time>
      </trkpt>
      <trkpt lat="43.65552" lon="5.26276">
        <ele>201</ele>
        <time>2022-03-19T13:04:21.000Z</time>
      </trkpt>
      <trkpt lat="43.65552" lon="5.26276">
        <ele>201</ele>
        <time>2022-03-19T13:04:28.000Z</time>
      </trkpt>
      <trkpt lat="43.65553" lon="5.26279">
        <ele>201</ele>
        <time>2022-03-19T13:04:34.000Z</time>
      </trkpt>
      <trkpt lat="43.65554" lon="5.26281">
        <ele>200.80000305176</ele>
        <time>2022-03-19T13:04:35.000Z</time>
      </trkpt>
      <trkpt lat="43.65558" lon="5.26287">
        <ele>200.60000610352</ele>
        <time>2022-03-19T13:04:38.000Z</time>
      </trkpt>
      <trkpt lat="43.65558" lon="5.26294">
        <ele>200.19999694824</ele>
        <time>2022-03-19T13:04:40.000Z</time>
      </trkpt>
      <trkpt lat="43.65556" lon="5.26303">
        <ele>200.19999694824</ele>
        <time>2022-03-19T13:04:43.000Z</time>
      </trkpt>
      <trkpt lat="43.65553" lon="5.26329">
        <ele>200</ele>
        <time>2022-03-19T13:04:49.000Z</time>
      </trkpt>
      <trkpt lat="43.65552" lon="5.26357">
        <ele>200.80000305176</ele>
        <time>2022-03-19T13:04:56.000Z</time>
      </trkpt>
      <trkpt lat="43.6555" lon="5.2638">
        <ele>201.80000305176</ele>
        <time>2022-03-19T13:05:02.000Z</time>
      </trkpt>
      <trkpt lat="43.6555" lon="5.26389">
        <ele>202.39999389648</ele>
        <time>2022-03-19T13:05:04.000Z</time>
      </trkpt>
      <trkpt lat="43.6555" lon="5.26393">
        <ele>202.80000305176</ele>
        <time>2022-03-19T13:05:05.000Z</time>
      </trkpt>
      <trkpt lat="43.65551" lon="5.26396">
        <ele>203</ele>
        <time>2022-03-19T13:05:06.000Z</time>
      </trkpt>
      <trkpt lat="43.65551" lon="5.264">
        <ele>203.19999694824</ele>
        <time>2022-03-19T13:05:07.000Z</time>
      </trkpt>
      <trkpt lat="43.65552" lon="5.26404">
        <ele>203.60000610352</ele>
        <time>2022-03-19T13:05:08.000Z</time>
      </trkpt>
      <trkpt lat="43.65553" lon="5.2642">
        <ele>204.39999389648</ele>
        <time>2022-03-19T13:05:12.000Z</time>
      </trkpt>
      <trkpt lat="43.65552" lon="5.26446">
        <ele>205.60000610352</ele>
        <time>2022-03-19T13:05:20.000Z</time>
      </trkpt>
      <trkpt lat="43.65552" lon="5.26448">
        <ele>205.60000610352</ele>
        <time>2022-03-19T13:05:21.000Z</time>
      </trkpt>
      <trkpt lat="43.65552" lon="5.26449">
        <ele>205.60000610352</ele>
        <time>2022-03-19T13:05:22.000Z</time>
      </trkpt>
      <trkpt lat="43.65551" lon="5.2645">
        <ele>205.80000305176</ele>
        <time>2022-03-19T13:05:23.000Z</time>
      </trkpt>
      <trkpt lat="43.65551" lon="5.26454">
        <ele>205.80000305176</ele>
        <time>2022-03-19T13:05:25.000Z</time>
      </trkpt>
      <trkpt lat="43.6555" lon="5.26467">
        <ele>206.39999389648</ele>
        <time>2022-03-19T13:05:29.000Z</time>
      </trkpt>
      <trkpt lat="43.65549" lon="5.26485">
        <ele>207.80000305176</ele>
        <time>2022-03-19T13:05:34.000Z</time>
      </trkpt>
      <trkpt lat="43.65545" lon="5.26504">
        <ele>208.80000305176</ele>
        <time>2022-03-19T13:05:40.000Z</time>
      </trkpt>
      <trkpt lat="43.65545" lon="5.26508">
        <ele>208.80000305176</ele>
        <time>2022-03-19T13:05:41.000Z</time>
      </trkpt>
      <trkpt lat="43.65544" lon="5.26511">
        <ele>208.80000305176</ele>
        <time>2022-03-19T13:05:42.000Z</time>
      </trkpt>
      <trkpt lat="43.65543" lon="5.26514">
        <ele>208.80000305176</ele>
        <time>2022-03-19T13:05:43.000Z</time>
      </trkpt>
      <trkpt lat="43.65542" lon="5.26516">
        <ele>208.80000305176</ele>
        <time>2022-03-19T13:05:44.000Z</time>
      </trkpt>
      <trkpt lat="43.65541" lon="5.26521">
        <ele>208.60000610352</ele>
        <time>2022-03-19T13:05:46.000Z</time>
      </trkpt>
      <trkpt lat="43.6554" lon="5.26528">
        <ele>208.80000305176</ele>
        <time>2022-03-19T13:05:48.000Z</time>
      </trkpt>
      <trkpt lat="43.65539" lon="5.26532">
        <ele>208.80000305176</ele>
        <time>2022-03-19T13:05:49.000Z</time>
      </trkpt>
      <trkpt lat="43.65539" lon="5.26535">
        <ele>209</ele>
        <time>2022-03-19T13:05:50.000Z</time>
      </trkpt>
      <trkpt lat="43.65538" lon="5.26538">
        <ele>209</ele>
        <time>2022-03-19T13:05:51.000Z</time>
      </trkpt>
      <trkpt lat="43.65538" lon="5.26541">
        <ele>209.19999694824</ele>
        <time>2022-03-19T13:05:52.000Z</time>
      </trkpt>
      <trkpt lat="43.65536" lon="5.26555">
        <ele>209.39999389648</ele>
        <time>2022-03-19T13:05:57.000Z</time>
      </trkpt>
      <trkpt lat="43.65535" lon="5.26559">
        <ele>209.60000610352</ele>
        <time>2022-03-19T13:05:58.000Z</time>
      </trkpt>
      <trkpt lat="43.65535" lon="5.26563">
        <ele>209.60000610352</ele>
        <time>2022-03-19T13:05:59.000Z</time>
      </trkpt>
      <trkpt lat="43.65534" lon="5.26566">
        <ele>209.80000305176</ele>
        <time>2022-03-19T13:06:00.000Z</time>
      </trkpt>
      <trkpt lat="43.65534" lon="5.26571">
        <ele>209.80000305176</ele>
        <time>2022-03-19T13:06:01.000Z</time>
      </trkpt>
      <trkpt lat="43.65533" lon="5.26578">
        <ele>210</ele>
        <time>2022-03-19T13:06:03.000Z</time>
      </trkpt>
      <trkpt lat="43.65531" lon="5.266">
        <ele>210</ele>
        <time>2022-03-19T13:06:09.000Z</time>
      </trkpt>
      <trkpt lat="43.6553" lon="5.26631">
        <ele>210.80000305176</ele>
        <time>2022-03-19T13:06:17.000Z</time>
      </trkpt>
      <trkpt lat="43.65527" lon="5.26655">
        <ele>211.39999389648</ele>
        <time>2022-03-19T13:06:23.000Z</time>
      </trkpt>
      <trkpt lat="43.65526" lon="5.26659">
        <ele>211.60000610352</ele>
        <time>2022-03-19T13:06:24.000Z</time>
      </trkpt>
      <trkpt lat="43.65525" lon="5.26664">
        <ele>211.39999389648</ele>
        <time>2022-03-19T13:06:25.000Z</time>
      </trkpt>
      <trkpt lat="43.65525" lon="5.26667">
        <ele>211.19999694824</ele>
        <time>2022-03-19T13:06:26.000Z</time>
      </trkpt>
      <trkpt lat="43.65524" lon="5.26671">
        <ele>211</ele>
        <time>2022-03-19T13:06:27.000Z</time>
      </trkpt>
      <trkpt lat="43.65523" lon="5.26675">
        <ele>210.80000305176</ele>
        <time>2022-03-19T13:06:28.000Z</time>
      </trkpt>
      <trkpt lat="43.65521" lon="5.26683">
        <ele>210.60000610352</ele>
        <time>2022-03-19T13:06:30.000Z</time>
      </trkpt>
      <trkpt lat="43.65515" lon="5.26707">
        <ele>210.39999389648</ele>
        <time>2022-03-19T13:06:36.000Z</time>
      </trkpt>
      <trkpt lat="43.65507" lon="5.26734">
        <ele>210.60000610352</ele>
        <time>2022-03-19T13:06:43.000Z</time>
      </trkpt>
      <trkpt lat="43.65496" lon="5.26761">
        <ele>210.39999389648</ele>
        <time>2022-03-19T13:06:50.000Z</time>
      </trkpt>
      <trkpt lat="43.6548" lon="5.26789">
        <ele>210.60000610352</ele>
        <time>2022-03-19T13:06:58.000Z</time>
      </trkpt>
      <trkpt lat="43.65461" lon="5.2682">
        <ele>211.60000610352</ele>
        <time>2022-03-19T13:07:07.000Z</time>
      </trkpt>
      <trkpt lat="43.65444" lon="5.26849">
        <ele>212.60000610352</ele>
        <time>2022-03-19T13:07:15.000Z</time>
      </trkpt>
      <trkpt lat="43.65429" lon="5.26871">
        <ele>213.60000610352</ele>
        <time>2022-03-19T13:07:21.000Z</time>
      </trkpt>
      <trkpt lat="43.6542" lon="5.26892">
        <ele>214</ele>
        <time>2022-03-19T13:07:27.000Z</time>
      </trkpt>
      <trkpt lat="43.65424" lon="5.26907">
        <ele>214</ele>
        <time>2022-03-19T13:07:31.000Z</time>
      </trkpt>
      <trkpt lat="43.6543" lon="5.26919">
        <ele>213.39999389648</ele>
        <time>2022-03-19T13:07:35.000Z</time>
      </trkpt>
      <trkpt lat="43.6543" lon="5.26923">
        <ele>213.19999694824</ele>
        <time>2022-03-19T13:07:36.000Z</time>
      </trkpt>
      <trkpt lat="43.65431" lon="5.26938">
        <ele>212</ele>
        <time>2022-03-19T13:07:40.000Z</time>
      </trkpt>
      <trkpt lat="43.65429" lon="5.26947">
        <ele>211.60000610352</ele>
        <time>2022-03-19T13:07:43.000Z</time>
      </trkpt>
      <trkpt lat="43.65429" lon="5.26964">
        <ele>211</ele>
        <time>2022-03-19T13:07:48.000Z</time>
      </trkpt>
      <trkpt lat="43.65426" lon="5.26984">
        <ele>211</ele>
        <time>2022-03-19T13:07:53.000Z</time>
      </trkpt>
      <trkpt lat="43.65425" lon="5.27001">
        <ele>211.19999694824</ele>
        <time>2022-03-19T13:07:57.000Z</time>
      </trkpt>
      <trkpt lat="43.65425" lon="5.27016">
        <ele>211.80000305176</ele>
        <time>2022-03-19T13:08:02.000Z</time>
      </trkpt>
      <trkpt lat="43.65421" lon="5.27031">
        <ele>212</ele>
        <time>2022-03-19T13:08:09.000Z</time>
      </trkpt>
      <trkpt lat="43.65416" lon="5.27044">
        <ele>212.19999694824</ele>
        <time>2022-03-19T13:08:16.000Z</time>
      </trkpt>
      <trkpt lat="43.65408" lon="5.27063">
        <ele>213</ele>
        <time>2022-03-19T13:08:23.000Z</time>
      </trkpt>
      <trkpt lat="43.65401" lon="5.27087">
        <ele>213.19999694824</ele>
        <time>2022-03-19T13:08:29.000Z</time>
      </trkpt>
      <trkpt lat="43.654" lon="5.27127">
        <ele>215</ele>
        <time>2022-03-19T13:08:37.000Z</time>
      </trkpt>
      <trkpt lat="43.654" lon="5.27132">
        <ele>215.19999694824</ele>
        <time>2022-03-19T13:08:38.000Z</time>
      </trkpt>
      <trkpt lat="43.65401" lon="5.27137">
        <ele>215.39999389648</ele>
        <time>2022-03-19T13:08:39.000Z</time>
      </trkpt>
      <trkpt lat="43.654" lon="5.27143">
        <ele>215.60000610352</ele>
        <time>2022-03-19T13:08:40.000Z</time>
      </trkpt>
      <trkpt lat="43.65399" lon="5.27171">
        <ele>216.60000610352</ele>
        <time>2022-03-19T13:08:45.000Z</time>
      </trkpt>
      <trkpt lat="43.65398" lon="5.27199">
        <ele>216.60000610352</ele>
        <time>2022-03-19T13:08:50.000Z</time>
      </trkpt>
      <trkpt lat="43.65397" lon="5.2721">
        <ele>216.80000305176</ele>
        <time>2022-03-19T13:08:52.000Z</time>
      </trkpt>
      <trkpt lat="43.654" lon="5.2726">
        <ele>216.80000305176</ele>
        <time>2022-03-19T13:09:01.000Z</time>
      </trkpt>
      <trkpt lat="43.65401" lon="5.27266">
        <ele>216.80000305176</ele>
        <time>2022-03-19T13:09:02.000Z</time>
      </trkpt>
      <trkpt lat="43.65402" lon="5.27272">
        <ele>216.60000610352</ele>
        <time>2022-03-19T13:09:03.000Z</time>
      </trkpt>
      <trkpt lat="43.65403" lon="5.27278">
        <ele>216.60000610352</ele>
        <time>2022-03-19T13:09:04.000Z</time>
      </trkpt>
      <trkpt lat="43.65404" lon="5.27283">
        <ele>216.60000610352</ele>
        <time>2022-03-19T13:09:05.000Z</time>
      </trkpt>
      <trkpt lat="43.65408" lon="5.27304">
        <ele>216.19999694824</ele>
        <time>2022-03-19T13:09:09.000Z</time>
      </trkpt>
      <trkpt lat="43.65417" lon="5.27341">
        <ele>214.60000610352</ele>
        <time>2022-03-19T13:09:16.000Z</time>
      </trkpt>
      <trkpt lat="43.65424" lon="5.27372">
        <ele>214.19999694824</ele>
        <time>2022-03-19T13:09:22.000Z</time>
      </trkpt>
      <trkpt lat="43.6543" lon="5.27397">
        <ele>214.80000305176</ele>
        <time>2022-03-19T13:09:28.000Z</time>
      </trkpt>
      <trkpt lat="43.65427" lon="5.27415">
        <ele>215.19999694824</ele>
        <time>2022-03-19T13:09:33.000Z</time>
      </trkpt>
      <trkpt lat="43.65426" lon="5.27433">
        <ele>215.80000305176</ele>
        <time>2022-03-19T13:09:37.000Z</time>
      </trkpt>
      <trkpt lat="43.65427" lon="5.27461">
        <ele>216</ele>
        <time>2022-03-19T13:09:43.000Z</time>
      </trkpt>
      <trkpt lat="43.65427" lon="5.27465">
        <ele>216</ele>
        <time>2022-03-19T13:09:44.000Z</time>
      </trkpt>
      <trkpt lat="43.65427" lon="5.27469">
        <ele>216</ele>
        <time>2022-03-19T13:09:45.000Z</time>
      </trkpt>
      <trkpt lat="43.65426" lon="5.27472">
        <ele>216</ele>
        <time>2022-03-19T13:09:46.000Z</time>
      </trkpt>
      <trkpt lat="43.65426" lon="5.27474">
        <ele>216.19999694824</ele>
        <time>2022-03-19T13:09:47.000Z</time>
      </trkpt>
      <trkpt lat="43.65424" lon="5.27477">
        <ele>216.19999694824</ele>
        <time>2022-03-19T13:09:48.000Z</time>
      </trkpt>
      <trkpt lat="43.65421" lon="5.27478">
        <ele>216.39999389648</ele>
        <time>2022-03-19T13:09:49.000Z</time>
      </trkpt>
      <trkpt lat="43.65406" lon="5.27477">
        <ele>217</ele>
        <time>2022-03-19T13:09:53.000Z</time>
      </trkpt>
      <trkpt lat="43.65387" lon="5.27472">
        <ele>217.19999694824</ele>
        <time>2022-03-19T13:09:58.000Z</time>
      </trkpt>
      <trkpt lat="43.65383" lon="5.27471">
        <ele>217.39999389648</ele>
        <time>2022-03-19T13:09:59.000Z</time>
      </trkpt>
      <trkpt lat="43.65371" lon="5.27472">
        <ele>217.80000305176</ele>
        <time>2022-03-19T13:10:02.000Z</time>
      </trkpt>
      <trkpt lat="43.65362" lon="5.27477">
        <ele>217.39999389648</ele>
        <time>2022-03-19T13:10:04.000Z</time>
      </trkpt>
      <trkpt lat="43.65358" lon="5.27481">
        <ele>217</ele>
        <time>2022-03-19T13:10:05.000Z</time>
      </trkpt>
      <trkpt lat="43.65354" lon="5.27484">
        <ele>216.60000610352</ele>
        <time>2022-03-19T13:10:06.000Z</time>
      </trkpt>
      <trkpt lat="43.6535" lon="5.27488">
        <ele>216.39999389648</ele>
        <time>2022-03-19T13:10:07.000Z</time>
      </trkpt>
      <trkpt lat="43.65345" lon="5.27491">
        <ele>216.19999694824</ele>
        <time>2022-03-19T13:10:08.000Z</time>
      </trkpt>
      <trkpt lat="43.65341" lon="5.27495">
        <ele>216.19999694824</ele>
        <time>2022-03-19T13:10:09.000Z</time>
      </trkpt>
      <trkpt lat="43.65333" lon="5.27502">
        <ele>215.39999389648</ele>
        <time>2022-03-19T13:10:11.000Z</time>
      </trkpt>
      <trkpt lat="43.65309" lon="5.27527">
        <ele>214</ele>
        <time>2022-03-19T13:10:17.000Z</time>
      </trkpt>
      <trkpt lat="43.65305" lon="5.27531">
        <ele>214</ele>
        <time>2022-03-19T13:10:18.000Z</time>
      </trkpt>
      <trkpt lat="43.65301" lon="5.27535">
        <ele>214</ele>
        <time>2022-03-19T13:10:19.000Z</time>
      </trkpt>
      <trkpt lat="43.65296" lon="5.27539">
        <ele>214.19999694824</ele>
        <time>2022-03-19T13:10:20.000Z</time>
      </trkpt>
      <trkpt lat="43.65284" lon="5.27549">
        <ele>215</ele>
        <time>2022-03-19T13:10:23.000Z</time>
      </trkpt>
      <trkpt lat="43.6527" lon="5.27562">
        <ele>216.19999694824</ele>
        <time>2022-03-19T13:10:28.000Z</time>
      </trkpt>
      <trkpt lat="43.6526" lon="5.27572">
        <ele>217.39999389648</ele>
        <time>2022-03-19T13:10:32.000Z</time>
      </trkpt>
      <trkpt lat="43.65258" lon="5.27575">
        <ele>217.60000610352</ele>
        <time>2022-03-19T13:10:33.000Z</time>
      </trkpt>
      <trkpt lat="43.65255" lon="5.27578">
        <ele>218</ele>
        <time>2022-03-19T13:10:34.000Z</time>
      </trkpt>
      <trkpt lat="43.65252" lon="5.27582">
        <ele>218</ele>
        <time>2022-03-19T13:10:35.000Z</time>
      </trkpt>
      <trkpt lat="43.6525" lon="5.27585">
        <ele>218.39999389648</ele>
        <time>2022-03-19T13:10:36.000Z</time>
      </trkpt>
      <trkpt lat="43.65242" lon="5.27593">
        <ele>219.19999694824</ele>
        <time>2022-03-19T13:10:39.000Z</time>
      </trkpt>
      <trkpt lat="43.65235" lon="5.27605">
        <ele>219</ele>
        <time>2022-03-19T13:10:44.000Z</time>
      </trkpt>
      <trkpt lat="43.65241" lon="5.27622">
        <ele>218.80000305176</ele>
        <time>2022-03-19T13:10:49.000Z</time>
      </trkpt>
      <trkpt lat="43.65253" lon="5.27641">
        <ele>217.80000305176</ele>
        <time>2022-03-19T13:10:54.000Z</time>
      </trkpt>
      <trkpt lat="43.65254" lon="5.27653">
        <ele>217.39999389648</ele>
        <time>2022-03-19T13:10:57.000Z</time>
      </trkpt>
      <trkpt lat="43.65253" lon="5.27657">
        <ele>217.19999694824</ele>
        <time>2022-03-19T13:10:58.000Z</time>
      </trkpt>
      <trkpt lat="43.65253" lon="5.2766">
        <ele>217</ele>
        <time>2022-03-19T13:10:59.000Z</time>
      </trkpt>
      <trkpt lat="43.65252" lon="5.27663">
        <ele>217</ele>
        <time>2022-03-19T13:11:00.000Z</time>
      </trkpt>
      <trkpt lat="43.65251" lon="5.27666">
        <ele>217.19999694824</ele>
        <time>2022-03-19T13:11:01.000Z</time>
      </trkpt>
      <trkpt lat="43.65249" lon="5.27672">
        <ele>217.19999694824</ele>
        <time>2022-03-19T13:11:03.000Z</time>
      </trkpt>
      <trkpt lat="43.65248" lon="5.27676">
        <ele>217.19999694824</ele>
        <time>2022-03-19T13:11:04.000Z</time>
      </trkpt>
      <trkpt lat="43.65246" lon="5.27679">
        <ele>217.19999694824</ele>
        <time>2022-03-19T13:11:05.000Z</time>
      </trkpt>
      <trkpt lat="43.65245" lon="5.27683">
        <ele>217.19999694824</ele>
        <time>2022-03-19T13:11:06.000Z</time>
      </trkpt>
      <trkpt lat="43.65243" lon="5.27701">
        <ele>217</ele>
        <time>2022-03-19T13:11:11.000Z</time>
      </trkpt>
      <trkpt lat="43.65244" lon="5.27711">
        <ele>217.19999694824</ele>
        <time>2022-03-19T13:11:14.000Z</time>
      </trkpt>
      <trkpt lat="43.65245" lon="5.27714">
        <ele>217.19999694824</ele>
        <time>2022-03-19T13:11:15.000Z</time>
      </trkpt>
      <trkpt lat="43.65245" lon="5.27717">
        <ele>217.39999389648</ele>
        <time>2022-03-19T13:11:16.000Z</time>
      </trkpt>
      <trkpt lat="43.65246" lon="5.27721">
        <ele>217.60000610352</ele>
        <time>2022-03-19T13:11:17.000Z</time>
      </trkpt>
      <trkpt lat="43.65247" lon="5.27725">
        <ele>218</ele>
        <time>2022-03-19T13:11:18.000Z</time>
      </trkpt>
      <trkpt lat="43.65249" lon="5.27736">
        <ele>218.60000610352</ele>
        <time>2022-03-19T13:11:21.000Z</time>
      </trkpt>
      <trkpt lat="43.65251" lon="5.27749">
        <ele>219.39999389648</ele>
        <time>2022-03-19T13:11:25.000Z</time>
      </trkpt>
      <trkpt lat="43.65252" lon="5.27753">
        <ele>219.60000610352</ele>
        <time>2022-03-19T13:11:26.000Z</time>
      </trkpt>
      <trkpt lat="43.65252" lon="5.27756">
        <ele>219.80000305176</ele>
        <time>2022-03-19T13:11:27.000Z</time>
      </trkpt>
      <trkpt lat="43.65253" lon="5.2776">
        <ele>220.19999694824</ele>
        <time>2022-03-19T13:11:28.000Z</time>
      </trkpt>
      <trkpt lat="43.65253" lon="5.27764">
        <ele>220.39999389648</ele>
        <time>2022-03-19T13:11:29.000Z</time>
      </trkpt>
      <trkpt lat="43.65256" lon="5.27783">
        <ele>221.60000610352</ele>
        <time>2022-03-19T13:11:34.000Z</time>
      </trkpt>
      <trkpt lat="43.65257" lon="5.2779">
        <ele>221.80000305176</ele>
        <time>2022-03-19T13:11:36.000Z</time>
      </trkpt>
      <trkpt lat="43.65258" lon="5.27794">
        <ele>222</ele>
        <time>2022-03-19T13:11:37.000Z</time>
      </trkpt>
      <trkpt lat="43.65258" lon="5.27797">
        <ele>222.19999694824</ele>
        <time>2022-03-19T13:11:38.000Z</time>
      </trkpt>
      <trkpt lat="43.65259" lon="5.27801">
        <ele>222.39999389648</ele>
        <time>2022-03-19T13:11:39.000Z</time>
      </trkpt>
      <trkpt lat="43.65259" lon="5.27804">
        <ele>222.60000610352</ele>
        <time>2022-03-19T13:11:40.000Z</time>
      </trkpt>
      <trkpt lat="43.6526" lon="5.27807">
        <ele>222.80000305176</ele>
        <time>2022-03-19T13:11:41.000Z</time>
      </trkpt>
      <trkpt lat="43.65264" lon="5.27827">
        <ele>224.39999389648</ele>
        <time>2022-03-19T13:11:47.000Z</time>
      </trkpt>
      <trkpt lat="43.65265" lon="5.2783">
        <ele>224.60000610352</ele>
        <time>2022-03-19T13:11:48.000Z</time>
      </trkpt>
      <trkpt lat="43.65266" lon="5.27834">
        <ele>224.80000305176</ele>
        <time>2022-03-19T13:11:49.000Z</time>
      </trkpt>
      <trkpt lat="43.65267" lon="5.27837">
        <ele>225.19999694824</ele>
        <time>2022-03-19T13:11:50.000Z</time>
      </trkpt>
      <trkpt lat="43.65268" lon="5.27841">
        <ele>225.39999389648</ele>
        <time>2022-03-19T13:11:51.000Z</time>
      </trkpt>
      <trkpt lat="43.65269" lon="5.27847">
        <ele>225.80000305176</ele>
        <time>2022-03-19T13:11:53.000Z</time>
      </trkpt>
      <trkpt lat="43.65271" lon="5.27856">
        <ele>226.39999389648</ele>
        <time>2022-03-19T13:11:56.000Z</time>
      </trkpt>
      <trkpt lat="43.65272" lon="5.27868">
        <ele>227.19999694824</ele>
        <time>2022-03-19T13:11:59.000Z</time>
      </trkpt>
      <trkpt lat="43.65273" lon="5.27887">
        <ele>228.60000610352</ele>
        <time>2022-03-19T13:12:04.000Z</time>
      </trkpt>
      <trkpt lat="43.65273" lon="5.27891">
        <ele>228.60000610352</ele>
        <time>2022-03-19T13:12:05.000Z</time>
      </trkpt>
      <trkpt lat="43.65273" lon="5.27895">
        <ele>228.80000305176</ele>
        <time>2022-03-19T13:12:06.000Z</time>
      </trkpt>
      <trkpt lat="43.65273" lon="5.27899">
        <ele>229</ele>
        <time>2022-03-19T13:12:07.000Z</time>
      </trkpt>
      <trkpt lat="43.65273" lon="5.27903">
        <ele>229</ele>
        <time>2022-03-19T13:12:08.000Z</time>
      </trkpt>
      <trkpt lat="43.65273" lon="5.27907">
        <ele>229.19999694824</ele>
        <time>2022-03-19T13:12:09.000Z</time>
      </trkpt>
      <trkpt lat="43.6527" lon="5.27927">
        <ele>229.80000305176</ele>
        <time>2022-03-19T13:12:15.000Z</time>
      </trkpt>
      <trkpt lat="43.65272" lon="5.27942">
        <ele>229.80000305176</ele>
        <time>2022-03-19T13:12:20.000Z</time>
      </trkpt>
      <trkpt lat="43.65278" lon="5.27955">
        <ele>230</ele>
        <time>2022-03-19T13:12:25.000Z</time>
      </trkpt>
      <trkpt lat="43.6528" lon="5.27957">
        <ele>230.19999694824</ele>
        <time>2022-03-19T13:12:26.000Z</time>
      </trkpt>
      <trkpt lat="43.65282" lon="5.27959">
        <ele>230.19999694824</ele>
        <time>2022-03-19T13:12:27.000Z</time>
      </trkpt>
      <trkpt lat="43.65284" lon="5.2796">
        <ele>230.39999389648</ele>
        <time>2022-03-19T13:12:28.000Z</time>
      </trkpt>
      <trkpt lat="43.65286" lon="5.27963">
        <ele>230.39999389648</ele>
        <time>2022-03-19T13:12:29.000Z</time>
      </trkpt>
      <trkpt lat="43.6529" lon="5.27972">
        <ele>230.60000610352</ele>
        <time>2022-03-19T13:12:32.000Z</time>
      </trkpt>
      <trkpt lat="43.65293" lon="5.27986">
        <ele>230.80000305176</ele>
        <time>2022-03-19T13:12:37.000Z</time>
      </trkpt>
      <trkpt lat="43.65298" lon="5.27993">
        <ele>231.19999694824</ele>
        <time>2022-03-19T13:12:41.000Z</time>
      </trkpt>
      <trkpt lat="43.65299" lon="5.27995">
        <ele>231.19999694824</ele>
        <time>2022-03-19T13:12:43.000Z</time>
      </trkpt>
      <trkpt lat="43.65299" lon="5.27995">
        <ele>231.19999694824</ele>
        <time>2022-03-19T13:12:48.000Z</time>
      </trkpt>
      <trkpt lat="43.65299" lon="5.27995">
        <ele>231.19999694824</ele>
        <time>2022-03-19T13:12:54.000Z</time>
      </trkpt>
      <trkpt lat="43.653" lon="5.27996">
        <ele>231.39999389648</ele>
        <time>2022-03-19T13:13:03.000Z</time>
      </trkpt>
      <trkpt lat="43.65301" lon="5.27997">
        <ele>231.39999389648</ele>
        <time>2022-03-19T13:13:09.000Z</time>
      </trkpt>
      <trkpt lat="43.65302" lon="5.27997">
        <ele>231.39999389648</ele>
        <time>2022-03-19T13:13:16.000Z</time>
      </trkpt>
      <trkpt lat="43.65302" lon="5.27997">
        <ele>231.39999389648</ele>
        <time>2022-03-19T13:13:25.000Z</time>
      </trkpt>
      <trkpt lat="43.65303" lon="5.27999">
        <ele>231.60000610352</ele>
        <time>2022-03-19T13:13:35.000Z</time>
      </trkpt>
      <trkpt lat="43.65303" lon="5.27999">
        <ele>231.60000610352</ele>
        <time>2022-03-19T13:13:42.000Z</time>
      </trkpt>
      <trkpt lat="43.65304" lon="5.27999">
        <ele>231.60000610352</ele>
        <time>2022-03-19T13:13:52.000Z</time>
      </trkpt>
      <trkpt lat="43.65306" lon="5.28">
        <ele>231.80000305176</ele>
        <time>2022-03-19T13:13:59.000Z</time>
      </trkpt>
      <trkpt lat="43.6531" lon="5.28002">
        <ele>232</ele>
        <time>2022-03-19T13:14:04.000Z</time>
      </trkpt>
      <trkpt lat="43.65311" lon="5.28002">
        <ele>232</ele>
        <time>2022-03-19T13:14:11.000Z</time>
      </trkpt>
      <trkpt lat="43.65311" lon="5.28002">
        <ele>232</ele>
        <time>2022-03-19T13:14:17.000Z</time>
      </trkpt>
      <trkpt lat="43.65311" lon="5.28002">
        <ele>232</ele>
        <time>2022-03-19T13:14:26.000Z</time>
      </trkpt>
      <trkpt lat="43.65313" lon="5.28003">
        <ele>232.19999694824</ele>
        <time>2022-03-19T13:14:33.000Z</time>
      </trkpt>
      <trkpt lat="43.65314" lon="5.28003">
        <ele>232.19999694824</ele>
        <time>2022-03-19T13:14:34.000Z</time>
      </trkpt>
      <trkpt lat="43.65321" lon="5.28006">
        <ele>232.39999389648</ele>
        <time>2022-03-19T13:14:37.000Z</time>
      </trkpt>
      <trkpt lat="43.65324" lon="5.28011">
        <ele>232.60000610352</ele>
        <time>2022-03-19T13:14:39.000Z</time>
      </trkpt>
      <trkpt lat="43.65327" lon="5.2802">
        <ele>232.60000610352</ele>
        <time>2022-03-19T13:14:41.000Z</time>
      </trkpt>
      <trkpt lat="43.65328" lon="5.28037">
        <ele>232.60000610352</ele>
        <time>2022-03-19T13:14:45.000Z</time>
      </trkpt>
      <trkpt lat="43.65328" lon="5.2804">
        <ele>232.60000610352</ele>
        <time>2022-03-19T13:14:46.000Z</time>
      </trkpt>
      <trkpt lat="43.65325" lon="5.28046">
        <ele>232.60000610352</ele>
        <time>2022-03-19T13:14:48.000Z</time>
      </trkpt>
      <trkpt lat="43.65325" lon="5.28053">
        <ele>232.60000610352</ele>
        <time>2022-03-19T13:14:51.000Z</time>
      </trkpt>
      <trkpt lat="43.65326" lon="5.28056">
        <ele>232.60000610352</ele>
        <time>2022-03-19T13:14:52.000Z</time>
      </trkpt>
      <trkpt lat="43.65338" lon="5.28068">
        <ele>233</ele>
        <time>2022-03-19T13:14:57.000Z</time>
      </trkpt>
      <trkpt lat="43.65351" lon="5.28087">
        <ele>233.39999389648</ele>
        <time>2022-03-19T13:15:03.000Z</time>
      </trkpt>
      <trkpt lat="43.65358" lon="5.28104">
        <ele>233.80000305176</ele>
        <time>2022-03-19T13:15:08.000Z</time>
      </trkpt>
      <trkpt lat="43.65358" lon="5.28107">
        <ele>233.60000610352</ele>
        <time>2022-03-19T13:15:09.000Z</time>
      </trkpt>
      <trkpt lat="43.65358" lon="5.28111">
        <ele>233.60000610352</ele>
        <time>2022-03-19T13:15:10.000Z</time>
      </trkpt>
      <trkpt lat="43.65357" lon="5.28114">
        <ele>233.39999389648</ele>
        <time>2022-03-19T13:15:11.000Z</time>
      </trkpt>
      <trkpt lat="43.65356" lon="5.28117">
        <ele>233.19999694824</ele>
        <time>2022-03-19T13:15:12.000Z</time>
      </trkpt>
      <trkpt lat="43.6535" lon="5.28138">
        <ele>232.60000610352</ele>
        <time>2022-03-19T13:15:19.000Z</time>
      </trkpt>
      <trkpt lat="43.65349" lon="5.28161">
        <ele>231.60000610352</ele>
        <time>2022-03-19T13:15:27.000Z</time>
      </trkpt>
      <trkpt lat="43.6535" lon="5.28164">
        <ele>231.19999694824</ele>
        <time>2022-03-19T13:15:31.000Z</time>
      </trkpt>
      <trkpt lat="43.6535" lon="5.28164">
        <ele>231.19999694824</ele>
        <time>2022-03-19T13:15:36.000Z</time>
      </trkpt>
      <trkpt lat="43.65356" lon="5.28161">
        <ele>231.39999389648</ele>
        <time>2022-03-19T13:15:41.000Z</time>
      </trkpt>
      <trkpt lat="43.65368" lon="5.28153">
        <ele>231.39999389648</ele>
        <time>2022-03-19T13:15:46.000Z</time>
      </trkpt>
      <trkpt lat="43.6539" lon="5.28152">
        <ele>230.80000305176</ele>
        <time>2022-03-19T13:15:52.000Z</time>
      </trkpt>
      <trkpt lat="43.65404" lon="5.28157">
        <ele>230.19999694824</ele>
        <time>2022-03-19T13:15:55.000Z</time>
      </trkpt>
      <trkpt lat="43.65408" lon="5.2816">
        <ele>230</ele>
        <time>2022-03-19T13:15:56.000Z</time>
      </trkpt>
      <trkpt lat="43.65413" lon="5.28162">
        <ele>230</ele>
        <time>2022-03-19T13:15:57.000Z</time>
      </trkpt>
      <trkpt lat="43.65417" lon="5.28165">
        <ele>229.60000610352</ele>
        <time>2022-03-19T13:15:58.000Z</time>
      </trkpt>
      <trkpt lat="43.65421" lon="5.28171">
        <ele>229.19999694824</ele>
        <time>2022-03-19T13:15:59.000Z</time>
      </trkpt>
      <trkpt lat="43.65421" lon="5.28177">
        <ele>228.80000305176</ele>
        <time>2022-03-19T13:16:00.000Z</time>
      </trkpt>
      <trkpt lat="43.65418" lon="5.28191">
        <ele>227.80000305176</ele>
        <time>2022-03-19T13:16:02.000Z</time>
      </trkpt>
      <trkpt lat="43.65417" lon="5.28198">
        <ele>227</ele>
        <time>2022-03-19T13:16:03.000Z</time>
      </trkpt>
      <trkpt lat="43.65417" lon="5.28206">
        <ele>226.19999694824</ele>
        <time>2022-03-19T13:16:04.000Z</time>
      </trkpt>
      <trkpt lat="43.65416" lon="5.28214">
        <ele>225.19999694824</ele>
        <time>2022-03-19T13:16:05.000Z</time>
      </trkpt>
      <trkpt lat="43.65416" lon="5.28223">
        <ele>224.60000610352</ele>
        <time>2022-03-19T13:16:06.000Z</time>
      </trkpt>
      <trkpt lat="43.65416" lon="5.2823">
        <ele>224</ele>
        <time>2022-03-19T13:16:07.000Z</time>
      </trkpt>
      <trkpt lat="43.65416" lon="5.28236">
        <ele>223.60000610352</ele>
        <time>2022-03-19T13:16:08.000Z</time>
      </trkpt>
      <trkpt lat="43.65414" lon="5.28239">
        <ele>223.39999389648</ele>
        <time>2022-03-19T13:16:09.000Z</time>
      </trkpt>
      <trkpt lat="43.65411" lon="5.2824">
        <ele>223.39999389648</ele>
        <time>2022-03-19T13:16:10.000Z</time>
      </trkpt>
      <trkpt lat="43.65407" lon="5.28239">
        <ele>223.60000610352</ele>
        <time>2022-03-19T13:16:11.000Z</time>
      </trkpt>
      <trkpt lat="43.65401" lon="5.28235">
        <ele>224</ele>
        <time>2022-03-19T13:16:13.000Z</time>
      </trkpt>
      <trkpt lat="43.65378" lon="5.28225">
        <ele>225.80000305176</ele>
        <time>2022-03-19T13:16:19.000Z</time>
      </trkpt>
      <trkpt lat="43.65368" lon="5.28236">
        <ele>226.19999694824</ele>
        <time>2022-03-19T13:16:23.000Z</time>
      </trkpt>
      <trkpt lat="43.65369" lon="5.28248">
        <ele>225.60000610352</ele>
        <time>2022-03-19T13:16:25.000Z</time>
      </trkpt>
      <trkpt lat="43.65371" lon="5.28259">
        <ele>225.39999389648</ele>
        <time>2022-03-19T13:16:27.000Z</time>
      </trkpt>
      <trkpt lat="43.65377" lon="5.2828">
        <ele>224.60000610352</ele>
        <time>2022-03-19T13:16:32.000Z</time>
      </trkpt>
      <trkpt lat="43.65386" lon="5.2831">
        <ele>223.80000305176</ele>
        <time>2022-03-19T13:16:38.000Z</time>
      </trkpt>
      <trkpt lat="43.65391" lon="5.28328">
        <ele>223.19999694824</ele>
        <time>2022-03-19T13:16:41.000Z</time>
      </trkpt>
      <trkpt lat="43.65394" lon="5.28333">
        <ele>223.19999694824</ele>
        <time>2022-03-19T13:16:42.000Z</time>
      </trkpt>
      <trkpt lat="43.65397" lon="5.28338">
        <ele>223.39999389648</ele>
        <time>2022-03-19T13:16:43.000Z</time>
      </trkpt>
      <trkpt lat="43.65401" lon="5.28343">
        <ele>223.80000305176</ele>
        <time>2022-03-19T13:16:44.000Z</time>
      </trkpt>
      <trkpt lat="43.65404" lon="5.28347">
        <ele>224.19999694824</ele>
        <time>2022-03-19T13:16:45.000Z</time>
      </trkpt>
      <trkpt lat="43.65407" lon="5.28352">
        <ele>224.39999389648</ele>
        <time>2022-03-19T13:16:46.000Z</time>
      </trkpt>
      <trkpt lat="43.6542" lon="5.28365">
        <ele>226.60000610352</ele>
        <time>2022-03-19T13:16:50.000Z</time>
      </trkpt>
      <trkpt lat="43.65426" lon="5.28382">
        <ele>229</ele>
        <time>2022-03-19T13:16:54.000Z</time>
      </trkpt>
      <trkpt lat="43.65417" lon="5.28399">
        <ele>229.80000305176</ele>
        <time>2022-03-19T13:16:58.000Z</time>
      </trkpt>
      <trkpt lat="43.65403" lon="5.28423">
        <ele>230.60000610352</ele>
        <time>2022-03-19T13:17:05.000Z</time>
      </trkpt>
      <trkpt lat="43.65389" lon="5.2844">
        <ele>228.80000305176</ele>
        <time>2022-03-19T13:17:11.000Z</time>
      </trkpt>
      <trkpt lat="43.65375" lon="5.28453">
        <ele>229.19999694824</ele>
        <time>2022-03-19T13:17:16.000Z</time>
      </trkpt>
      <trkpt lat="43.65349" lon="5.28473">
        <ele>228.80000305176</ele>
        <time>2022-03-19T13:17:24.000Z</time>
      </trkpt>
      <trkpt lat="43.65331" lon="5.28491">
        <ele>229.60000610352</ele>
        <time>2022-03-19T13:17:30.000Z</time>
      </trkpt>
      <trkpt lat="43.65314" lon="5.28508">
        <ele>229</ele>
        <time>2022-03-19T13:17:35.000Z</time>
      </trkpt>
      <trkpt lat="43.6531" lon="5.28519">
        <ele>229</ele>
        <time>2022-03-19T13:17:37.000Z</time>
      </trkpt>
      <trkpt lat="43.65309" lon="5.28528">
        <ele>229.39999389648</ele>
        <time>2022-03-19T13:17:39.000Z</time>
      </trkpt>
      <trkpt lat="43.65311" lon="5.28532">
        <ele>229.80000305176</ele>
        <time>2022-03-19T13:17:40.000Z</time>
      </trkpt>
      <trkpt lat="43.65313" lon="5.28535">
        <ele>230.19999694824</ele>
        <time>2022-03-19T13:17:41.000Z</time>
      </trkpt>
      <trkpt lat="43.65317" lon="5.28538">
        <ele>230.80000305176</ele>
        <time>2022-03-19T13:17:42.000Z</time>
      </trkpt>
      <trkpt lat="43.65321" lon="5.28541">
        <ele>231.19999694824</ele>
        <time>2022-03-19T13:17:43.000Z</time>
      </trkpt>
      <trkpt lat="43.65325" lon="5.28544">
        <ele>231.60000610352</ele>
        <time>2022-03-19T13:17:44.000Z</time>
      </trkpt>
      <trkpt lat="43.6534" lon="5.28561">
        <ele>234.39999389648</ele>
        <time>2022-03-19T13:17:49.000Z</time>
      </trkpt>
      <trkpt lat="43.65343" lon="5.28565">
        <ele>235</ele>
        <time>2022-03-19T13:17:50.000Z</time>
      </trkpt>
      <trkpt lat="43.6535" lon="5.28585">
        <ele>237.19999694824</ele>
        <time>2022-03-19T13:17:54.000Z</time>
      </trkpt>
      <trkpt lat="43.65352" lon="5.28596">
        <ele>237.80000305176</ele>
        <time>2022-03-19T13:17:56.000Z</time>
      </trkpt>
      <trkpt lat="43.65357" lon="5.28611">
        <ele>238.60000610352</ele>
        <time>2022-03-19T13:17:59.000Z</time>
      </trkpt>
      <trkpt lat="43.65359" lon="5.28616">
        <ele>238.60000610352</ele>
        <time>2022-03-19T13:18:00.000Z</time>
      </trkpt>
      <trkpt lat="43.6536" lon="5.2862">
        <ele>238.60000610352</ele>
        <time>2022-03-19T13:18:01.000Z</time>
      </trkpt>
      <trkpt lat="43.65362" lon="5.28625">
        <ele>238.80000305176</ele>
        <time>2022-03-19T13:18:02.000Z</time>
      </trkpt>
      <trkpt lat="43.65363" lon="5.28628">
        <ele>238.80000305176</ele>
        <time>2022-03-19T13:18:03.000Z</time>
      </trkpt>
      <trkpt lat="43.65367" lon="5.2864">
        <ele>239.19999694824</ele>
        <time>2022-03-19T13:18:07.000Z</time>
      </trkpt>
      <trkpt lat="43.65368" lon="5.28644">
        <ele>239.19999694824</ele>
        <time>2022-03-19T13:18:08.000Z</time>
      </trkpt>
      <trkpt lat="43.65368" lon="5.28647">
        <ele>239.39999389648</ele>
        <time>2022-03-19T13:18:09.000Z</time>
      </trkpt>
      <trkpt lat="43.65369" lon="5.2865">
        <ele>239.39999389648</ele>
        <time>2022-03-19T13:18:10.000Z</time>
      </trkpt>
      <trkpt lat="43.6537" lon="5.28664">
        <ele>239.39999389648</ele>
        <time>2022-03-19T13:18:14.000Z</time>
      </trkpt>
      <trkpt lat="43.65369" lon="5.28667">
        <ele>239.60000610352</ele>
        <time>2022-03-19T13:18:15.000Z</time>
      </trkpt>
      <trkpt lat="43.65369" lon="5.28671">
        <ele>239.80000305176</ele>
        <time>2022-03-19T13:18:16.000Z</time>
      </trkpt>
      <trkpt lat="43.65368" lon="5.28674">
        <ele>239.80000305176</ele>
        <time>2022-03-19T13:18:17.000Z</time>
      </trkpt>
      <trkpt lat="43.65367" lon="5.28678">
        <ele>239.80000305176</ele>
        <time>2022-03-19T13:18:18.000Z</time>
      </trkpt>
      <trkpt lat="43.65366" lon="5.28686">
        <ele>240</ele>
        <time>2022-03-19T13:18:20.000Z</time>
      </trkpt>
      <trkpt lat="43.65361" lon="5.28705">
        <ele>241.19999694824</ele>
        <time>2022-03-19T13:18:25.000Z</time>
      </trkpt>
      <trkpt lat="43.65352" lon="5.2872">
        <ele>242.39999389648</ele>
        <time>2022-03-19T13:18:30.000Z</time>
      </trkpt>
      <trkpt lat="43.65339" lon="5.28734">
        <ele>242.80000305176</ele>
        <time>2022-03-19T13:18:35.000Z</time>
      </trkpt>
      <trkpt lat="43.65336" lon="5.28736">
        <ele>242.80000305176</ele>
        <time>2022-03-19T13:18:36.000Z</time>
      </trkpt>
      <trkpt lat="43.65334" lon="5.28738">
        <ele>243</ele>
        <time>2022-03-19T13:18:37.000Z</time>
      </trkpt>
      <trkpt lat="43.65331" lon="5.28741">
        <ele>243.19999694824</ele>
        <time>2022-03-19T13:18:38.000Z</time>
      </trkpt>
      <trkpt lat="43.65329" lon="5.28744">
        <ele>243</ele>
        <time>2022-03-19T13:18:39.000Z</time>
      </trkpt>
      <trkpt lat="43.65326" lon="5.28746">
        <ele>243.19999694824</ele>
        <time>2022-03-19T13:18:40.000Z</time>
      </trkpt>
      <trkpt lat="43.65304" lon="5.28761">
        <ele>242.19999694824</ele>
        <time>2022-03-19T13:18:47.000Z</time>
      </trkpt>
      <trkpt lat="43.65287" lon="5.28773">
        <ele>239.19999694824</ele>
        <time>2022-03-19T13:18:53.000Z</time>
      </trkpt>
      <trkpt lat="43.65267" lon="5.28794">
        <ele>239.60000610352</ele>
        <time>2022-03-19T13:19:01.000Z</time>
      </trkpt>
      <trkpt lat="43.65253" lon="5.2882">
        <ele>240.60000610352</ele>
        <time>2022-03-19T13:19:08.000Z</time>
      </trkpt>
      <trkpt lat="43.6525" lon="5.28853">
        <ele>242.19999694824</ele>
        <time>2022-03-19T13:19:16.000Z</time>
      </trkpt>
      <trkpt lat="43.65251" lon="5.28861">
        <ele>242.39999389648</ele>
        <time>2022-03-19T13:19:18.000Z</time>
      </trkpt>
      <trkpt lat="43.65252" lon="5.28864">
        <ele>242.39999389648</ele>
        <time>2022-03-19T13:19:19.000Z</time>
      </trkpt>
      <trkpt lat="43.65253" lon="5.28867">
        <ele>242.39999389648</ele>
        <time>2022-03-19T13:19:20.000Z</time>
      </trkpt>
      <trkpt lat="43.65255" lon="5.28869">
        <ele>242.60000610352</ele>
        <time>2022-03-19T13:19:21.000Z</time>
      </trkpt>
      <trkpt lat="43.65257" lon="5.28872">
        <ele>242.80000305176</ele>
        <time>2022-03-19T13:19:22.000Z</time>
      </trkpt>
      <trkpt lat="43.65268" lon="5.28882">
        <ele>244</ele>
        <time>2022-03-19T13:19:27.000Z</time>
      </trkpt>
      <trkpt lat="43.65274" lon="5.28887">
        <ele>244.39999389648</ele>
        <time>2022-03-19T13:19:30.000Z</time>
      </trkpt>
      <trkpt lat="43.65276" lon="5.28889">
        <ele>244.60000610352</ele>
        <time>2022-03-19T13:19:31.000Z</time>
      </trkpt>
      <trkpt lat="43.65277" lon="5.2889">
        <ele>244.60000610352</ele>
        <time>2022-03-19T13:19:32.000Z</time>
      </trkpt>
      <trkpt lat="43.65279" lon="5.28892">
        <ele>244.80000305176</ele>
        <time>2022-03-19T13:19:33.000Z</time>
      </trkpt>
      <trkpt lat="43.65279" lon="5.28894">
        <ele>244.80000305176</ele>
        <time>2022-03-19T13:19:34.000Z</time>
      </trkpt>
      <trkpt lat="43.65282" lon="5.289">
        <ele>245</ele>
        <time>2022-03-19T13:19:37.000Z</time>
      </trkpt>
      <trkpt lat="43.65283" lon="5.28905">
        <ele>245.19999694824</ele>
        <time>2022-03-19T13:19:39.000Z</time>
      </trkpt>
      <trkpt lat="43.65283" lon="5.28909">
        <ele>245.19999694824</ele>
        <time>2022-03-19T13:19:40.000Z</time>
      </trkpt>
      <trkpt lat="43.65283" lon="5.28912">
        <ele>245.39999389648</ele>
        <time>2022-03-19T13:19:41.000Z</time>
      </trkpt>
      <trkpt lat="43.65284" lon="5.28916">
        <ele>245.39999389648</ele>
        <time>2022-03-19T13:19:42.000Z</time>
      </trkpt>
      <trkpt lat="43.65283" lon="5.28921">
        <ele>245.60000610352</ele>
        <time>2022-03-19T13:19:43.000Z</time>
      </trkpt>
      <trkpt lat="43.65282" lon="5.28936">
        <ele>245.80000305176</ele>
        <time>2022-03-19T13:19:47.000Z</time>
      </trkpt>
      <trkpt lat="43.65282" lon="5.2896">
        <ele>246.80000305176</ele>
        <time>2022-03-19T13:19:53.000Z</time>
      </trkpt>
      <trkpt lat="43.6528" lon="5.28976">
        <ele>247.19999694824</ele>
        <time>2022-03-19T13:19:58.000Z</time>
      </trkpt>
      <trkpt lat="43.65279" lon="5.28983">
        <ele>247.39999389648</ele>
        <time>2022-03-19T13:20:00.000Z</time>
      </trkpt>
      <trkpt lat="43.65279" lon="5.28985">
        <ele>247.60000610352</ele>
        <time>2022-03-19T13:20:01.000Z</time>
      </trkpt>
      <trkpt lat="43.65279" lon="5.28988">
        <ele>247.60000610352</ele>
        <time>2022-03-19T13:20:02.000Z</time>
      </trkpt>
      <trkpt lat="43.65279" lon="5.28992">
        <ele>247.80000305176</ele>
        <time>2022-03-19T13:20:03.000Z</time>
      </trkpt>
      <trkpt lat="43.65279" lon="5.28995">
        <ele>247.80000305176</ele>
        <time>2022-03-19T13:20:04.000Z</time>
      </trkpt>
      <trkpt lat="43.65279" lon="5.29015">
        <ele>247.80000305176</ele>
        <time>2022-03-19T13:20:09.000Z</time>
      </trkpt>
      <trkpt lat="43.65279" lon="5.29031">
        <ele>247.80000305176</ele>
        <time>2022-03-19T13:20:12.000Z</time>
      </trkpt>
      <trkpt lat="43.65278" lon="5.29037">
        <ele>247.80000305176</ele>
        <time>2022-03-19T13:20:13.000Z</time>
      </trkpt>
      <trkpt lat="43.65277" lon="5.2906">
        <ele>247.80000305176</ele>
        <time>2022-03-19T13:20:18.000Z</time>
      </trkpt>
      <trkpt lat="43.65276" lon="5.29079">
        <ele>248</ele>
        <time>2022-03-19T13:20:23.000Z</time>
      </trkpt>
      <trkpt lat="43.65278" lon="5.29082">
        <ele>248</ele>
        <time>2022-03-19T13:20:24.000Z</time>
      </trkpt>
      <trkpt lat="43.65283" lon="5.2909">
        <ele>248</ele>
        <time>2022-03-19T13:20:27.000Z</time>
      </trkpt>
      <trkpt lat="43.6529" lon="5.29106">
        <ele>248.39999389648</ele>
        <time>2022-03-19T13:20:33.000Z</time>
      </trkpt>
      <trkpt lat="43.65291" lon="5.29114">
        <ele>249</ele>
        <time>2022-03-19T13:20:36.000Z</time>
      </trkpt>
      <trkpt lat="43.6529" lon="5.29117">
        <ele>249</ele>
        <time>2022-03-19T13:20:37.000Z</time>
      </trkpt>
      <trkpt lat="43.6529" lon="5.2912">
        <ele>249</ele>
        <time>2022-03-19T13:20:38.000Z</time>
      </trkpt>
      <trkpt lat="43.6529" lon="5.29124">
        <ele>248.80000305176</ele>
        <time>2022-03-19T13:20:39.000Z</time>
      </trkpt>
      <trkpt lat="43.65293" lon="5.29139">
        <ele>249.60000610352</ele>
        <time>2022-03-19T13:20:44.000Z</time>
      </trkpt>
      <trkpt lat="43.65299" lon="5.29152">
        <ele>251.19999694824</ele>
        <time>2022-03-19T13:20:48.000Z</time>
      </trkpt>
      <trkpt lat="43.65301" lon="5.29155">
        <ele>251.80000305176</ele>
        <time>2022-03-19T13:20:49.000Z</time>
      </trkpt>
      <trkpt lat="43.65304" lon="5.29158">
        <ele>252.19999694824</ele>
        <time>2022-03-19T13:20:50.000Z</time>
      </trkpt>
      <trkpt lat="43.65306" lon="5.2916">
        <ele>252.60000610352</ele>
        <time>2022-03-19T13:20:51.000Z</time>
      </trkpt>
      <trkpt lat="43.65308" lon="5.29162">
        <ele>253</ele>
        <time>2022-03-19T13:20:52.000Z</time>
      </trkpt>
      <trkpt lat="43.65311" lon="5.29166">
        <ele>253.39999389648</ele>
        <time>2022-03-19T13:20:54.000Z</time>
      </trkpt>
      <trkpt lat="43.65312" lon="5.29169">
        <ele>253.60000610352</ele>
        <time>2022-03-19T13:20:55.000Z</time>
      </trkpt>
      <trkpt lat="43.65321" lon="5.29176">
        <ele>254</ele>
        <time>2022-03-19T13:21:00.000Z</time>
      </trkpt>
      <trkpt lat="43.65325" lon="5.29179">
        <ele>254.39999389648</ele>
        <time>2022-03-19T13:21:02.000Z</time>
      </trkpt>
      <trkpt lat="43.65328" lon="5.2918">
        <ele>254.39999389648</ele>
        <time>2022-03-19T13:21:03.000Z</time>
      </trkpt>
      <trkpt lat="43.6533" lon="5.29182">
        <ele>254.39999389648</ele>
        <time>2022-03-19T13:21:04.000Z</time>
      </trkpt>
      <trkpt lat="43.65331" lon="5.29183">
        <ele>254.60000610352</ele>
        <time>2022-03-19T13:21:05.000Z</time>
      </trkpt>
      <trkpt lat="43.65333" lon="5.29184">
        <ele>254.60000610352</ele>
        <time>2022-03-19T13:21:06.000Z</time>
      </trkpt>
      <trkpt lat="43.65333" lon="5.29186">
        <ele>254.80000305176</ele>
        <time>2022-03-19T13:21:07.000Z</time>
      </trkpt>
      <trkpt lat="43.65336" lon="5.29197">
        <ele>255.60000610352</ele>
        <time>2022-03-19T13:21:10.000Z</time>
      </trkpt>
      <trkpt lat="43.65342" lon="5.29212">
        <ele>256.39999389648</ele>
        <time>2022-03-19T13:21:15.000Z</time>
      </trkpt>
      <trkpt lat="43.65344" lon="5.29215">
        <ele>256.39999389648</ele>
        <time>2022-03-19T13:21:16.000Z</time>
      </trkpt>
      <trkpt lat="43.65348" lon="5.29216">
        <ele>256.20001220703</ele>
        <time>2022-03-19T13:21:17.000Z</time>
      </trkpt>
      <trkpt lat="43.65352" lon="5.29218">
        <ele>256</ele>
        <time>2022-03-19T13:21:18.000Z</time>
      </trkpt>
      <trkpt lat="43.65356" lon="5.2922">
        <ele>255.80000305176</ele>
        <time>2022-03-19T13:21:19.000Z</time>
      </trkpt>
      <trkpt lat="43.65364" lon="5.29237">
        <ele>255.80000305176</ele>
        <time>2022-03-19T13:21:24.000Z</time>
      </trkpt>
      <trkpt lat="43.65369" lon="5.29263">
        <ele>256</ele>
        <time>2022-03-19T13:21:29.000Z</time>
      </trkpt>
      <trkpt lat="43.65367" lon="5.29273">
        <ele>256.60000610352</ele>
        <time>2022-03-19T13:21:31.000Z</time>
      </trkpt>
      <trkpt lat="43.65365" lon="5.29286">
        <ele>256.60000610352</ele>
        <time>2022-03-19T13:21:34.000Z</time>
      </trkpt>
      <trkpt lat="43.65365" lon="5.29303">
        <ele>256</ele>
        <time>2022-03-19T13:21:37.000Z</time>
      </trkpt>
      <trkpt lat="43.65365" lon="5.29307">
        <ele>255.80000305176</ele>
        <time>2022-03-19T13:21:38.000Z</time>
      </trkpt>
      <trkpt lat="43.65366" lon="5.29312">
        <ele>255.39999389648</ele>
        <time>2022-03-19T13:21:39.000Z</time>
      </trkpt>
      <trkpt lat="43.65368" lon="5.29318">
        <ele>255</ele>
        <time>2022-03-19T13:21:40.000Z</time>
      </trkpt>
      <trkpt lat="43.6537" lon="5.29326">
        <ele>254.39999389648</ele>
        <time>2022-03-19T13:21:41.000Z</time>
      </trkpt>
      <trkpt lat="43.65372" lon="5.29333">
        <ele>253.80000305176</ele>
        <time>2022-03-19T13:21:42.000Z</time>
      </trkpt>
      <trkpt lat="43.65373" lon="5.29341">
        <ele>253.39999389648</ele>
        <time>2022-03-19T13:21:43.000Z</time>
      </trkpt>
      <trkpt lat="43.65373" lon="5.29349">
        <ele>253.19999694824</ele>
        <time>2022-03-19T13:21:44.000Z</time>
      </trkpt>
      <trkpt lat="43.65373" lon="5.29357">
        <ele>252.80000305176</ele>
        <time>2022-03-19T13:21:45.000Z</time>
      </trkpt>
      <trkpt lat="43.65374" lon="5.29364">
        <ele>252.80000305176</ele>
        <time>2022-03-19T13:21:46.000Z</time>
      </trkpt>
      <trkpt lat="43.65373" lon="5.29398">
        <ele>252</ele>
        <time>2022-03-19T13:21:51.000Z</time>
      </trkpt>
      <trkpt lat="43.65367" lon="5.29436">
        <ele>251</ele>
        <time>2022-03-19T13:21:57.000Z</time>
      </trkpt>
      <trkpt lat="43.65366" lon="5.29469">
        <ele>250.80000305176</ele>
        <time>2022-03-19T13:22:03.000Z</time>
      </trkpt>
      <trkpt lat="43.65367" lon="5.295">
        <ele>249.60000610352</ele>
        <time>2022-03-19T13:22:09.000Z</time>
      </trkpt>
      <trkpt lat="43.65365" lon="5.29536">
        <ele>249</ele>
        <time>2022-03-19T13:22:16.000Z</time>
      </trkpt>
      <trkpt lat="43.65357" lon="5.29553">
        <ele>250.60000610352</ele>
        <time>2022-03-19T13:22:21.000Z</time>
      </trkpt>
      <trkpt lat="43.65353" lon="5.29558">
        <ele>251.19999694824</ele>
        <time>2022-03-19T13:22:23.000Z</time>
      </trkpt>
      <trkpt lat="43.65351" lon="5.29561">
        <ele>251.60000610352</ele>
        <time>2022-03-19T13:22:24.000Z</time>
      </trkpt>
      <trkpt lat="43.65349" lon="5.29564">
        <ele>251.80000305176</ele>
        <time>2022-03-19T13:22:25.000Z</time>
      </trkpt>
      <trkpt lat="43.65347" lon="5.29566">
        <ele>252.19999694824</ele>
        <time>2022-03-19T13:22:26.000Z</time>
      </trkpt>
      <trkpt lat="43.65345" lon="5.29569">
        <ele>252.60000610352</ele>
        <time>2022-03-19T13:22:27.000Z</time>
      </trkpt>
      <trkpt lat="43.65338" lon="5.29586">
        <ele>253.60000610352</ele>
        <time>2022-03-19T13:22:31.000Z</time>
      </trkpt>
      <trkpt lat="43.65332" lon="5.29599">
        <ele>253.80000305176</ele>
        <time>2022-03-19T13:22:34.000Z</time>
      </trkpt>
      <trkpt lat="43.65328" lon="5.29605">
        <ele>254.39999389648</ele>
        <time>2022-03-19T13:22:36.000Z</time>
      </trkpt>
      <trkpt lat="43.65316" lon="5.29622">
        <ele>255.60000610352</ele>
        <time>2022-03-19T13:22:41.000Z</time>
      </trkpt>
      <trkpt lat="43.65312" lon="5.29626">
        <ele>256</ele>
        <time>2022-03-19T13:22:42.000Z</time>
      </trkpt>
      <trkpt lat="43.65305" lon="5.29634">
        <ele>256</ele>
        <time>2022-03-19T13:22:44.000Z</time>
      </trkpt>
      <trkpt lat="43.65302" lon="5.29643">
        <ele>255.60000610352</ele>
        <time>2022-03-19T13:22:46.000Z</time>
      </trkpt>
      <trkpt lat="43.65294" lon="5.29655">
        <ele>255</ele>
        <time>2022-03-19T13:22:50.000Z</time>
      </trkpt>
      <trkpt lat="43.65277" lon="5.29673">
        <ele>254.39999389648</ele>
        <time>2022-03-19T13:22:56.000Z</time>
      </trkpt>
      <trkpt lat="43.65275" lon="5.29676">
        <ele>254.39999389648</ele>
        <time>2022-03-19T13:22:57.000Z</time>
      </trkpt>
      <trkpt lat="43.65272" lon="5.29678">
        <ele>254.60000610352</ele>
        <time>2022-03-19T13:22:58.000Z</time>
      </trkpt>
      <trkpt lat="43.6527" lon="5.29678">
        <ele>254.60000610352</ele>
        <time>2022-03-19T13:22:59.000Z</time>
      </trkpt>
      <trkpt lat="43.65268" lon="5.29679">
        <ele>254.60000610352</ele>
        <time>2022-03-19T13:23:00.000Z</time>
      </trkpt>
      <trkpt lat="43.65266" lon="5.2968">
        <ele>254.80000305176</ele>
        <time>2022-03-19T13:23:01.000Z</time>
      </trkpt>
      <trkpt lat="43.65265" lon="5.29679">
        <ele>255</ele>
        <time>2022-03-19T13:23:02.000Z</time>
      </trkpt>
      <trkpt lat="43.65259" lon="5.2968">
        <ele>255.19999694824</ele>
        <time>2022-03-19T13:23:04.000Z</time>
      </trkpt>
      <trkpt lat="43.65254" lon="5.29682">
        <ele>255.60000610352</ele>
        <time>2022-03-19T13:23:06.000Z</time>
      </trkpt>
      <trkpt lat="43.65252" lon="5.29682">
        <ele>255.80000305176</ele>
        <time>2022-03-19T13:23:07.000Z</time>
      </trkpt>
      <trkpt lat="43.6525" lon="5.29683">
        <ele>256</ele>
        <time>2022-03-19T13:23:08.000Z</time>
      </trkpt>
      <trkpt lat="43.65247" lon="5.29684">
        <ele>256</ele>
        <time>2022-03-19T13:23:09.000Z</time>
      </trkpt>
      <trkpt lat="43.65245" lon="5.29686">
        <ele>256</ele>
        <time>2022-03-19T13:23:10.000Z</time>
      </trkpt>
      <trkpt lat="43.65238" lon="5.29689">
        <ele>256.20001220703</ele>
        <time>2022-03-19T13:23:13.000Z</time>
      </trkpt>
      <trkpt lat="43.65236" lon="5.29688">
        <ele>256.39999389648</ele>
        <time>2022-03-19T13:23:14.000Z</time>
      </trkpt>
      <trkpt lat="43.65234" lon="5.29687">
        <ele>256.60000610352</ele>
        <time>2022-03-19T13:23:15.000Z</time>
      </trkpt>
      <trkpt lat="43.65232" lon="5.29685">
        <ele>257</ele>
        <time>2022-03-19T13:23:16.000Z</time>
      </trkpt>
      <trkpt lat="43.65228" lon="5.29685">
        <ele>257.39999389648</ele>
        <time>2022-03-19T13:23:17.000Z</time>
      </trkpt>
      <trkpt lat="43.65225" lon="5.29685">
        <ele>257.60000610352</ele>
        <time>2022-03-19T13:23:18.000Z</time>
      </trkpt>
      <trkpt lat="43.6522" lon="5.29685">
        <ele>258.20001220703</ele>
        <time>2022-03-19T13:23:20.000Z</time>
      </trkpt>
      <trkpt lat="43.65217" lon="5.29686">
        <ele>258.39999389648</ele>
        <time>2022-03-19T13:23:21.000Z</time>
      </trkpt>
      <trkpt lat="43.65213" lon="5.29689">
        <ele>259</ele>
        <time>2022-03-19T13:23:23.000Z</time>
      </trkpt>
      <trkpt lat="43.65196" lon="5.29696">
        <ele>260.20001220703</ele>
        <time>2022-03-19T13:23:28.000Z</time>
      </trkpt>
      <trkpt lat="43.65193" lon="5.29697">
        <ele>260.60000610352</ele>
        <time>2022-03-19T13:23:29.000Z</time>
      </trkpt>
      <trkpt lat="43.6519" lon="5.29697">
        <ele>260.79998779297</ele>
        <time>2022-03-19T13:23:30.000Z</time>
      </trkpt>
      <trkpt lat="43.65186" lon="5.29698">
        <ele>261</ele>
        <time>2022-03-19T13:23:31.000Z</time>
      </trkpt>
      <trkpt lat="43.65183" lon="5.29698">
        <ele>261.39999389648</ele>
        <time>2022-03-19T13:23:32.000Z</time>
      </trkpt>
      <trkpt lat="43.6518" lon="5.29699">
        <ele>261.60000610352</ele>
        <time>2022-03-19T13:23:33.000Z</time>
      </trkpt>
      <trkpt lat="43.65177" lon="5.297">
        <ele>262</ele>
        <time>2022-03-19T13:23:34.000Z</time>
      </trkpt>
      <trkpt lat="43.65161" lon="5.2971">
        <ele>262</ele>
        <time>2022-03-19T13:23:39.000Z</time>
      </trkpt>
      <trkpt lat="43.65145" lon="5.29723">
        <ele>261.20001220703</ele>
        <time>2022-03-19T13:23:45.000Z</time>
      </trkpt>
      <trkpt lat="43.65142" lon="5.29725">
        <ele>261.20001220703</ele>
        <time>2022-03-19T13:23:46.000Z</time>
      </trkpt>
      <trkpt lat="43.65139" lon="5.29726">
        <ele>261.20001220703</ele>
        <time>2022-03-19T13:23:47.000Z</time>
      </trkpt>
      <trkpt lat="43.65135" lon="5.29728">
        <ele>261.39999389648</ele>
        <time>2022-03-19T13:23:48.000Z</time>
      </trkpt>
      <trkpt lat="43.65132" lon="5.29729">
        <ele>261.39999389648</ele>
        <time>2022-03-19T13:23:49.000Z</time>
      </trkpt>
      <trkpt lat="43.65126" lon="5.29733">
        <ele>261.60000610352</ele>
        <time>2022-03-19T13:23:51.000Z</time>
      </trkpt>
      <trkpt lat="43.65112" lon="5.29743">
        <ele>262.20001220703</ele>
        <time>2022-03-19T13:23:56.000Z</time>
      </trkpt>
      <trkpt lat="43.65097" lon="5.29746">
        <ele>262.39999389648</ele>
        <time>2022-03-19T13:24:00.000Z</time>
      </trkpt>
      <trkpt lat="43.65078" lon="5.29743">
        <ele>262.20001220703</ele>
        <time>2022-03-19T13:24:05.000Z</time>
      </trkpt>
      <trkpt lat="43.65052" lon="5.29743">
        <ele>260.20001220703</ele>
        <time>2022-03-19T13:24:11.000Z</time>
      </trkpt>
      <trkpt lat="43.65047" lon="5.29742">
        <ele>259.79998779297</ele>
        <time>2022-03-19T13:24:12.000Z</time>
      </trkpt>
      <trkpt lat="43.65041" lon="5.2974">
        <ele>259.20001220703</ele>
        <time>2022-03-19T13:24:13.000Z</time>
      </trkpt>
      <trkpt lat="43.65035" lon="5.29741">
        <ele>258.39999389648</ele>
        <time>2022-03-19T13:24:14.000Z</time>
      </trkpt>
      <trkpt lat="43.65031" lon="5.29739">
        <ele>258.20001220703</ele>
        <time>2022-03-19T13:24:15.000Z</time>
      </trkpt>
      <trkpt lat="43.65028" lon="5.29735">
        <ele>258</ele>
        <time>2022-03-19T13:24:16.000Z</time>
      </trkpt>
      <trkpt lat="43.65025" lon="5.29731">
        <ele>258</ele>
        <time>2022-03-19T13:24:17.000Z</time>
      </trkpt>
      <trkpt lat="43.65022" lon="5.29728">
        <ele>257.79998779297</ele>
        <time>2022-03-19T13:24:18.000Z</time>
      </trkpt>
      <trkpt lat="43.65018" lon="5.29725">
        <ele>257.60000610352</ele>
        <time>2022-03-19T13:24:19.000Z</time>
      </trkpt>
      <trkpt lat="43.65014" lon="5.29723">
        <ele>257.39999389648</ele>
        <time>2022-03-19T13:24:20.000Z</time>
      </trkpt>
      <trkpt lat="43.65004" lon="5.29719">
        <ele>257</ele>
        <time>2022-03-19T13:24:22.000Z</time>
      </trkpt>
      <trkpt lat="43.65" lon="5.2972">
        <ele>256.60000610352</ele>
        <time>2022-03-19T13:24:23.000Z</time>
      </trkpt>
      <trkpt lat="43.64995" lon="5.29721">
        <ele>256</ele>
        <time>2022-03-19T13:24:24.000Z</time>
      </trkpt>
      <trkpt lat="43.64991" lon="5.29722">
        <ele>255.60000610352</ele>
        <time>2022-03-19T13:24:25.000Z</time>
      </trkpt>
      <trkpt lat="43.64986" lon="5.29724">
        <ele>255</ele>
        <time>2022-03-19T13:24:26.000Z</time>
      </trkpt>
      <trkpt lat="43.64981" lon="5.29727">
        <ele>254.60000610352</ele>
        <time>2022-03-19T13:24:27.000Z</time>
      </trkpt>
      <trkpt lat="43.64976" lon="5.29728">
        <ele>254</ele>
        <time>2022-03-19T13:24:28.000Z</time>
      </trkpt>
      <trkpt lat="43.64971" lon="5.29727">
        <ele>253.60000610352</ele>
        <time>2022-03-19T13:24:29.000Z</time>
      </trkpt>
      <trkpt lat="43.64966" lon="5.29728">
        <ele>253.19999694824</ele>
        <time>2022-03-19T13:24:30.000Z</time>
      </trkpt>
      <trkpt lat="43.64962" lon="5.29729">
        <ele>253</ele>
        <time>2022-03-19T13:24:31.000Z</time>
      </trkpt>
      <trkpt lat="43.64956" lon="5.2973">
        <ele>252.39999389648</ele>
        <time>2022-03-19T13:24:33.000Z</time>
      </trkpt>
      <trkpt lat="43.64949" lon="5.29735">
        <ele>251.39999389648</ele>
        <time>2022-03-19T13:24:36.000Z</time>
      </trkpt>
      <trkpt lat="43.64947" lon="5.2974">
        <ele>250.80000305176</ele>
        <time>2022-03-19T13:24:37.000Z</time>
      </trkpt>
      <trkpt lat="43.64944" lon="5.29744">
        <ele>250.60000610352</ele>
        <time>2022-03-19T13:24:38.000Z</time>
      </trkpt>
      <trkpt lat="43.64941" lon="5.29747">
        <ele>250</ele>
        <time>2022-03-19T13:24:39.000Z</time>
      </trkpt>
      <trkpt lat="43.64937" lon="5.29749">
        <ele>249.39999389648</ele>
        <time>2022-03-19T13:24:40.000Z</time>
      </trkpt>
      <trkpt lat="43.64934" lon="5.29749">
        <ele>249.19999694824</ele>
        <time>2022-03-19T13:24:41.000Z</time>
      </trkpt>
      <trkpt lat="43.64924" lon="5.29747">
        <ele>248.19999694824</ele>
        <time>2022-03-19T13:24:44.000Z</time>
      </trkpt>
      <trkpt lat="43.6492" lon="5.29746">
        <ele>247.80000305176</ele>
        <time>2022-03-19T13:24:45.000Z</time>
      </trkpt>
      <trkpt lat="43.64917" lon="5.29747">
        <ele>247.39999389648</ele>
        <time>2022-03-19T13:24:46.000Z</time>
      </trkpt>
      <trkpt lat="43.64914" lon="5.29749">
        <ele>246.80000305176</ele>
        <time>2022-03-19T13:24:47.000Z</time>
      </trkpt>
      <trkpt lat="43.64911" lon="5.29752">
        <ele>246</ele>
        <time>2022-03-19T13:24:48.000Z</time>
      </trkpt>
      <trkpt lat="43.64909" lon="5.29757">
        <ele>245.39999389648</ele>
        <time>2022-03-19T13:24:49.000Z</time>
      </trkpt>
      <trkpt lat="43.64907" lon="5.29764">
        <ele>244.80000305176</ele>
        <time>2022-03-19T13:24:50.000Z</time>
      </trkpt>
      <trkpt lat="43.64906" lon="5.29772">
        <ele>244.39999389648</ele>
        <time>2022-03-19T13:24:51.000Z</time>
      </trkpt>
      <trkpt lat="43.64905" lon="5.29779">
        <ele>244</ele>
        <time>2022-03-19T13:24:52.000Z</time>
      </trkpt>
      <trkpt lat="43.64905" lon="5.29787">
        <ele>243.80000305176</ele>
        <time>2022-03-19T13:24:53.000Z</time>
      </trkpt>
      <trkpt lat="43.64905" lon="5.29794">
        <ele>243.39999389648</ele>
        <time>2022-03-19T13:24:54.000Z</time>
      </trkpt>
      <trkpt lat="43.64904" lon="5.29808">
        <ele>243</ele>
        <time>2022-03-19T13:24:56.000Z</time>
      </trkpt>
      <trkpt lat="43.64903" lon="5.29822">
        <ele>242.19999694824</ele>
        <time>2022-03-19T13:24:58.000Z</time>
      </trkpt>
      <trkpt lat="43.64896" lon="5.29863">
        <ele>242.39999389648</ele>
        <time>2022-03-19T13:25:04.000Z</time>
      </trkpt>
      <trkpt lat="43.64894" lon="5.29876">
        <ele>242.19999694824</ele>
        <time>2022-03-19T13:25:06.000Z</time>
      </trkpt>
      <trkpt lat="43.64894" lon="5.29894">
        <ele>242.60000610352</ele>
        <time>2022-03-19T13:25:09.000Z</time>
      </trkpt>
      <trkpt lat="43.64894" lon="5.29906">
        <ele>243</ele>
        <time>2022-03-19T13:25:11.000Z</time>
      </trkpt>
      <trkpt lat="43.64894" lon="5.29932">
        <ele>244</ele>
        <time>2022-03-19T13:25:15.000Z</time>
      </trkpt>
      <trkpt lat="43.64896" lon="5.29976">
        <ele>244.60000610352</ele>
        <time>2022-03-19T13:25:22.000Z</time>
      </trkpt>
      <trkpt lat="43.64896" lon="5.29986">
        <ele>245</ele>
        <time>2022-03-19T13:25:24.000Z</time>
      </trkpt>
      <trkpt lat="43.64897" lon="5.30014">
        <ele>245.39999389648</ele>
        <time>2022-03-19T13:25:29.000Z</time>
      </trkpt>
      <trkpt lat="43.64897" lon="5.30024">
        <ele>245.39999389648</ele>
        <time>2022-03-19T13:25:31.000Z</time>
      </trkpt>
      <trkpt lat="43.64896" lon="5.30029">
        <ele>245.39999389648</ele>
        <time>2022-03-19T13:25:32.000Z</time>
      </trkpt>
      <trkpt lat="43.64896" lon="5.30034">
        <ele>245.60000610352</ele>
        <time>2022-03-19T13:25:33.000Z</time>
      </trkpt>
      <trkpt lat="43.64895" lon="5.30039">
        <ele>245.80000305176</ele>
        <time>2022-03-19T13:25:34.000Z</time>
      </trkpt>
      <trkpt lat="43.64894" lon="5.30044">
        <ele>245.80000305176</ele>
        <time>2022-03-19T13:25:35.000Z</time>
      </trkpt>
      <trkpt lat="43.64891" lon="5.30067">
        <ele>247.80000305176</ele>
        <time>2022-03-19T13:25:40.000Z</time>
      </trkpt>
      <trkpt lat="43.64889" lon="5.30085">
        <ele>249</ele>
        <time>2022-03-19T13:25:44.000Z</time>
      </trkpt>
      <trkpt lat="43.64887" lon="5.3009">
        <ele>249.19999694824</ele>
        <time>2022-03-19T13:25:45.000Z</time>
      </trkpt>
      <trkpt lat="43.64886" lon="5.30094">
        <ele>249.39999389648</ele>
        <time>2022-03-19T13:25:46.000Z</time>
      </trkpt>
      <trkpt lat="43.64885" lon="5.30098">
        <ele>249.60000610352</ele>
        <time>2022-03-19T13:25:47.000Z</time>
      </trkpt>
      <trkpt lat="43.64884" lon="5.30101">
        <ele>249.60000610352</ele>
        <time>2022-03-19T13:25:48.000Z</time>
      </trkpt>
      <trkpt lat="43.64876" lon="5.30108">
        <ele>249.19999694824</ele>
        <time>2022-03-19T13:25:51.000Z</time>
      </trkpt>
      <trkpt lat="43.64872" lon="5.30109">
        <ele>248.80000305176</ele>
        <time>2022-03-19T13:25:52.000Z</time>
      </trkpt>
      <trkpt lat="43.64858" lon="5.3011">
        <ele>247.19999694824</ele>
        <time>2022-03-19T13:25:55.000Z</time>
      </trkpt>
      <trkpt lat="43.64852" lon="5.30108">
        <ele>246.60000610352</ele>
        <time>2022-03-19T13:25:56.000Z</time>
      </trkpt>
      <trkpt lat="43.64847" lon="5.30107">
        <ele>246</ele>
        <time>2022-03-19T13:25:57.000Z</time>
      </trkpt>
      <trkpt lat="43.64841" lon="5.30105">
        <ele>245.39999389648</ele>
        <time>2022-03-19T13:25:58.000Z</time>
      </trkpt>
      <trkpt lat="43.64834" lon="5.30105">
        <ele>244.60000610352</ele>
        <time>2022-03-19T13:25:59.000Z</time>
      </trkpt>
      <trkpt lat="43.64828" lon="5.30104">
        <ele>244</ele>
        <time>2022-03-19T13:26:00.000Z</time>
      </trkpt>
      <trkpt lat="43.64822" lon="5.30103">
        <ele>243.19999694824</ele>
        <time>2022-03-19T13:26:01.000Z</time>
      </trkpt>
      <trkpt lat="43.64816" lon="5.30102">
        <ele>242.60000610352</ele>
        <time>2022-03-19T13:26:02.000Z</time>
      </trkpt>
      <trkpt lat="43.6481" lon="5.301">
        <ele>241.80000305176</ele>
        <time>2022-03-19T13:26:03.000Z</time>
      </trkpt>
      <trkpt lat="43.64804" lon="5.30099">
        <ele>241.60000610352</ele>
        <time>2022-03-19T13:26:04.000Z</time>
      </trkpt>
      <trkpt lat="43.64791" lon="5.30096">
        <ele>240.60000610352</ele>
        <time>2022-03-19T13:26:06.000Z</time>
      </trkpt>
      <trkpt lat="43.64749" lon="5.30087">
        <ele>239.80000305176</ele>
        <time>2022-03-19T13:26:13.000Z</time>
      </trkpt>
      <trkpt lat="43.64722" lon="5.3008">
        <ele>239.19999694824</ele>
        <time>2022-03-19T13:26:18.000Z</time>
      </trkpt>
      <trkpt lat="43.64717" lon="5.30079">
        <ele>239.39999389648</ele>
        <time>2022-03-19T13:26:19.000Z</time>
      </trkpt>
      <trkpt lat="43.64682" lon="5.30069">
        <ele>240.19999694824</ele>
        <time>2022-03-19T13:26:27.000Z</time>
      </trkpt>
      <trkpt lat="43.64657" lon="5.30064">
        <ele>241</ele>
        <time>2022-03-19T13:26:33.000Z</time>
      </trkpt>
      <trkpt lat="43.64624" lon="5.30056">
        <ele>241.39999389648</ele>
        <time>2022-03-19T13:26:40.000Z</time>
      </trkpt>
      <trkpt lat="43.64611" lon="5.30052">
        <ele>241</ele>
        <time>2022-03-19T13:26:43.000Z</time>
      </trkpt>
      <trkpt lat="43.64604" lon="5.3005">
        <ele>241</ele>
        <time>2022-03-19T13:26:45.000Z</time>
      </trkpt>
      <trkpt lat="43.64586" lon="5.30039">
        <ele>240.60000610352</ele>
        <time>2022-03-19T13:26:51.000Z</time>
      </trkpt>
      <trkpt lat="43.64585" lon="5.30037">
        <ele>240.60000610352</ele>
        <time>2022-03-19T13:26:52.000Z</time>
      </trkpt>
      <trkpt lat="43.64584" lon="5.30026">
        <ele>240.19999694824</ele>
        <time>2022-03-19T13:26:55.000Z</time>
      </trkpt>
      <trkpt lat="43.64585" lon="5.30001">
        <ele>239.39999389648</ele>
        <time>2022-03-19T13:27:00.000Z</time>
      </trkpt>
      <trkpt lat="43.64591" lon="5.29972">
        <ele>238.80000305176</ele>
        <time>2022-03-19T13:27:06.000Z</time>
      </trkpt>
      <trkpt lat="43.64593" lon="5.29953">
        <ele>239.19999694824</ele>
        <time>2022-03-19T13:27:11.000Z</time>
      </trkpt>
      <trkpt lat="43.64591" lon="5.29951">
        <ele>239.39999389648</ele>
        <time>2022-03-19T13:27:12.000Z</time>
      </trkpt>
      <trkpt lat="43.64584" lon="5.29951">
        <ele>239.60000610352</ele>
        <time>2022-03-19T13:27:14.000Z</time>
      </trkpt>
      <trkpt lat="43.64579" lon="5.29964">
        <ele>239.60000610352</ele>
        <time>2022-03-19T13:27:17.000Z</time>
      </trkpt>
      <trkpt lat="43.64577" lon="5.29968">
        <ele>239.80000305176</ele>
        <time>2022-03-19T13:27:18.000Z</time>
      </trkpt>
      <trkpt lat="43.64572" lon="5.29986">
        <ele>240.19999694824</ele>
        <time>2022-03-19T13:27:22.000Z</time>
      </trkpt>
      <trkpt lat="43.64568" lon="5.30012">
        <ele>240.39999389648</ele>
        <time>2022-03-19T13:27:27.000Z</time>
      </trkpt>
      <trkpt lat="43.64566" lon="5.30039">
        <ele>240.60000610352</ele>
        <time>2022-03-19T13:27:32.000Z</time>
      </trkpt>
      <trkpt lat="43.64569" lon="5.30069">
        <ele>241.60000610352</ele>
        <time>2022-03-19T13:27:38.000Z</time>
      </trkpt>
      <trkpt lat="43.64564" lon="5.3009">
        <ele>242.39999389648</ele>
        <time>2022-03-19T13:27:43.000Z</time>
      </trkpt>
      <trkpt lat="43.64561" lon="5.30093">
        <ele>242.60000610352</ele>
        <time>2022-03-19T13:27:44.000Z</time>
      </trkpt>
      <trkpt lat="43.64549" lon="5.301">
        <ele>242.60000610352</ele>
        <time>2022-03-19T13:27:47.000Z</time>
      </trkpt>
      <trkpt lat="43.64527" lon="5.30117">
        <ele>242.80000305176</ele>
        <time>2022-03-19T13:27:54.000Z</time>
      </trkpt>
      <trkpt lat="43.64516" lon="5.30125">
        <ele>244.39999389648</ele>
        <time>2022-03-19T13:27:58.000Z</time>
      </trkpt>
      <trkpt lat="43.64513" lon="5.30128">
        <ele>245</ele>
        <time>2022-03-19T13:27:59.000Z</time>
      </trkpt>
      <trkpt lat="43.64511" lon="5.3013">
        <ele>245.60000610352</ele>
        <time>2022-03-19T13:28:00.000Z</time>
      </trkpt>
      <trkpt lat="43.64508" lon="5.30131">
        <ele>246.19999694824</ele>
        <time>2022-03-19T13:28:01.000Z</time>
      </trkpt>
      <trkpt lat="43.64501" lon="5.30137">
        <ele>247.80000305176</ele>
        <time>2022-03-19T13:28:04.000Z</time>
      </trkpt>
      <trkpt lat="43.64486" lon="5.30143">
        <ele>250.39999389648</ele>
        <time>2022-03-19T13:28:09.000Z</time>
      </trkpt>
      <trkpt lat="43.64484" lon="5.30144">
        <ele>250.80000305176</ele>
        <time>2022-03-19T13:28:10.000Z</time>
      </trkpt>
      <trkpt lat="43.64482" lon="5.30146">
        <ele>251.19999694824</ele>
        <time>2022-03-19T13:28:11.000Z</time>
      </trkpt>
      <trkpt lat="43.64478" lon="5.30148">
        <ele>251.80000305176</ele>
        <time>2022-03-19T13:28:12.000Z</time>
      </trkpt>
      <trkpt lat="43.64476" lon="5.3015">
        <ele>252.39999389648</ele>
        <time>2022-03-19T13:28:13.000Z</time>
      </trkpt>
      <trkpt lat="43.64465" lon="5.30165">
        <ele>254</ele>
        <time>2022-03-19T13:28:18.000Z</time>
      </trkpt>
      <trkpt lat="43.64464" lon="5.30168">
        <ele>254.60000610352</ele>
        <time>2022-03-19T13:28:19.000Z</time>
      </trkpt>
      <trkpt lat="43.64462" lon="5.30171">
        <ele>255</ele>
        <time>2022-03-19T13:28:20.000Z</time>
      </trkpt>
      <trkpt lat="43.64461" lon="5.30174">
        <ele>255.39999389648</ele>
        <time>2022-03-19T13:28:21.000Z</time>
      </trkpt>
      <trkpt lat="43.6446" lon="5.30178">
        <ele>256</ele>
        <time>2022-03-19T13:28:22.000Z</time>
      </trkpt>
      <trkpt lat="43.6446" lon="5.3018">
        <ele>256.39999389648</ele>
        <time>2022-03-19T13:28:23.000Z</time>
      </trkpt>
      <trkpt lat="43.6446" lon="5.30184">
        <ele>257</ele>
        <time>2022-03-19T13:28:24.000Z</time>
      </trkpt>
      <trkpt lat="43.64459" lon="5.30187">
        <ele>257.60000610352</ele>
        <time>2022-03-19T13:28:25.000Z</time>
      </trkpt>
      <trkpt lat="43.64459" lon="5.30189">
        <ele>258</ele>
        <time>2022-03-19T13:28:26.000Z</time>
      </trkpt>
      <trkpt lat="43.64458" lon="5.30192">
        <ele>258.20001220703</ele>
        <time>2022-03-19T13:28:27.000Z</time>
      </trkpt>
      <trkpt lat="43.64458" lon="5.30196">
        <ele>258.60000610352</ele>
        <time>2022-03-19T13:28:28.000Z</time>
      </trkpt>
      <trkpt lat="43.64457" lon="5.30203">
        <ele>259.20001220703</ele>
        <time>2022-03-19T13:28:30.000Z</time>
      </trkpt>
      <trkpt lat="43.64455" lon="5.30205">
        <ele>259.60000610352</ele>
        <time>2022-03-19T13:28:31.000Z</time>
      </trkpt>
      <trkpt lat="43.64454" lon="5.30209">
        <ele>260</ele>
        <time>2022-03-19T13:28:32.000Z</time>
      </trkpt>
      <trkpt lat="43.64455" lon="5.30212">
        <ele>260.20001220703</ele>
        <time>2022-03-19T13:28:33.000Z</time>
      </trkpt>
      <trkpt lat="43.64455" lon="5.30216">
        <ele>260.60000610352</ele>
        <time>2022-03-19T13:28:34.000Z</time>
      </trkpt>
      <trkpt lat="43.64455" lon="5.30223">
        <ele>260.60000610352</ele>
        <time>2022-03-19T13:28:36.000Z</time>
      </trkpt>
      <trkpt lat="43.64454" lon="5.30227">
        <ele>260.79998779297</ele>
        <time>2022-03-19T13:28:37.000Z</time>
      </trkpt>
      <trkpt lat="43.64452" lon="5.30231">
        <ele>261</ele>
        <time>2022-03-19T13:28:38.000Z</time>
      </trkpt>
      <trkpt lat="43.64451" lon="5.30236">
        <ele>261.39999389648</ele>
        <time>2022-03-19T13:28:39.000Z</time>
      </trkpt>
      <trkpt lat="43.6445" lon="5.3024">
        <ele>261.60000610352</ele>
        <time>2022-03-19T13:28:40.000Z</time>
      </trkpt>
      <trkpt lat="43.64443" lon="5.30261">
        <ele>262</ele>
        <time>2022-03-19T13:28:45.000Z</time>
      </trkpt>
      <trkpt lat="43.64434" lon="5.30283">
        <ele>262.60000610352</ele>
        <time>2022-03-19T13:28:50.000Z</time>
      </trkpt>
      <trkpt lat="43.64427" lon="5.30296">
        <ele>264</ele>
        <time>2022-03-19T13:28:54.000Z</time>
      </trkpt>
      <trkpt lat="43.64425" lon="5.30303">
        <ele>264.39999389648</ele>
        <time>2022-03-19T13:28:56.000Z</time>
      </trkpt>
      <trkpt lat="43.64424" lon="5.30307">
        <ele>264.60000610352</ele>
        <time>2022-03-19T13:28:57.000Z</time>
      </trkpt>
      <trkpt lat="43.64423" lon="5.30312">
        <ele>264.60000610352</ele>
        <time>2022-03-19T13:28:58.000Z</time>
      </trkpt>
      <trkpt lat="43.64423" lon="5.30317">
        <ele>264.60000610352</ele>
        <time>2022-03-19T13:28:59.000Z</time>
      </trkpt>
      <trkpt lat="43.64423" lon="5.30321">
        <ele>264.60000610352</ele>
        <time>2022-03-19T13:29:00.000Z</time>
      </trkpt>
      <trkpt lat="43.64422" lon="5.30334">
        <ele>265</ele>
        <time>2022-03-19T13:29:03.000Z</time>
      </trkpt>
      <trkpt lat="43.64422" lon="5.3035">
        <ele>265.60000610352</ele>
        <time>2022-03-19T13:29:07.000Z</time>
      </trkpt>
      <trkpt lat="43.64421" lon="5.30366">
        <ele>266.20001220703</ele>
        <time>2022-03-19T13:29:11.000Z</time>
      </trkpt>
      <trkpt lat="43.64421" lon="5.30371">
        <ele>266.39999389648</ele>
        <time>2022-03-19T13:29:12.000Z</time>
      </trkpt>
      <trkpt lat="43.64422" lon="5.30377">
        <ele>266.60000610352</ele>
        <time>2022-03-19T13:29:13.000Z</time>
      </trkpt>
      <trkpt lat="43.64421" lon="5.30382">
        <ele>266.79998779297</ele>
        <time>2022-03-19T13:29:14.000Z</time>
      </trkpt>
      <trkpt lat="43.64421" lon="5.30388">
        <ele>267</ele>
        <time>2022-03-19T13:29:15.000Z</time>
      </trkpt>
      <trkpt lat="43.64421" lon="5.30398">
        <ele>267.39999389648</ele>
        <time>2022-03-19T13:29:17.000Z</time>
      </trkpt>
      <trkpt lat="43.64421" lon="5.30403">
        <ele>267.60000610352</ele>
        <time>2022-03-19T13:29:18.000Z</time>
      </trkpt>
      <trkpt lat="43.64421" lon="5.30407">
        <ele>267.79998779297</ele>
        <time>2022-03-19T13:29:19.000Z</time>
      </trkpt>
      <trkpt lat="43.64421" lon="5.30412">
        <ele>268</ele>
        <time>2022-03-19T13:29:20.000Z</time>
      </trkpt>
      <trkpt lat="43.64421" lon="5.30416">
        <ele>268</ele>
        <time>2022-03-19T13:29:21.000Z</time>
      </trkpt>
      <trkpt lat="43.64421" lon="5.3042">
        <ele>268</ele>
        <time>2022-03-19T13:29:22.000Z</time>
      </trkpt>
      <trkpt lat="43.6442" lon="5.30425">
        <ele>268</ele>
        <time>2022-03-19T13:29:23.000Z</time>
      </trkpt>
      <trkpt lat="43.6442" lon="5.30431">
        <ele>268</ele>
        <time>2022-03-19T13:29:24.000Z</time>
      </trkpt>
      <trkpt lat="43.64418" lon="5.30455">
        <ele>268</ele>
        <time>2022-03-19T13:29:29.000Z</time>
      </trkpt>
      <trkpt lat="43.64422" lon="5.30473">
        <ele>267.60000610352</ele>
        <time>2022-03-19T13:29:33.000Z</time>
      </trkpt>
      <trkpt lat="43.64434" lon="5.30495">
        <ele>265.60000610352</ele>
        <time>2022-03-19T13:29:37.000Z</time>
      </trkpt>
      <trkpt lat="43.64451" lon="5.30516">
        <ele>263.39999389648</ele>
        <time>2022-03-19T13:29:41.000Z</time>
      </trkpt>
      <trkpt lat="43.64454" lon="5.30524">
        <ele>262.79998779297</ele>
        <time>2022-03-19T13:29:42.000Z</time>
      </trkpt>
      <trkpt lat="43.64454" lon="5.30531">
        <ele>262.79998779297</ele>
        <time>2022-03-19T13:29:43.000Z</time>
      </trkpt>
      <trkpt lat="43.64454" lon="5.30538">
        <ele>262.39999389648</ele>
        <time>2022-03-19T13:29:44.000Z</time>
      </trkpt>
      <trkpt lat="43.64453" lon="5.30543">
        <ele>262.39999389648</ele>
        <time>2022-03-19T13:29:45.000Z</time>
      </trkpt>
      <trkpt lat="43.6445" lon="5.30566">
        <ele>262.20001220703</ele>
        <time>2022-03-19T13:29:48.000Z</time>
      </trkpt>
      <trkpt lat="43.6445" lon="5.30572">
        <ele>262</ele>
        <time>2022-03-19T13:29:49.000Z</time>
      </trkpt>
      <trkpt lat="43.64452" lon="5.30578">
        <ele>261.60000610352</ele>
        <time>2022-03-19T13:29:50.000Z</time>
      </trkpt>
      <trkpt lat="43.64452" lon="5.30584">
        <ele>261</ele>
        <time>2022-03-19T13:29:51.000Z</time>
      </trkpt>
      <trkpt lat="43.64452" lon="5.3059">
        <ele>260.39999389648</ele>
        <time>2022-03-19T13:29:52.000Z</time>
      </trkpt>
      <trkpt lat="43.64452" lon="5.30598">
        <ele>259.39999389648</ele>
        <time>2022-03-19T13:29:53.000Z</time>
      </trkpt>
      <trkpt lat="43.64451" lon="5.30606">
        <ele>258.79998779297</ele>
        <time>2022-03-19T13:29:54.000Z</time>
      </trkpt>
      <trkpt lat="43.6445" lon="5.30613">
        <ele>258</ele>
        <time>2022-03-19T13:29:55.000Z</time>
      </trkpt>
      <trkpt lat="43.64449" lon="5.30622">
        <ele>257.20001220703</ele>
        <time>2022-03-19T13:29:56.000Z</time>
      </trkpt>
      <trkpt lat="43.64447" lon="5.30628">
        <ele>256.79998779297</ele>
        <time>2022-03-19T13:29:57.000Z</time>
      </trkpt>
      <trkpt lat="43.64444" lon="5.30632">
        <ele>256.79998779297</ele>
        <time>2022-03-19T13:29:58.000Z</time>
      </trkpt>
      <trkpt lat="43.64441" lon="5.30636">
        <ele>257</ele>
        <time>2022-03-19T13:29:59.000Z</time>
      </trkpt>
      <trkpt lat="43.64439" lon="5.30638">
        <ele>257.20001220703</ele>
        <time>2022-03-19T13:30:00.000Z</time>
      </trkpt>
      <trkpt lat="43.64432" lon="5.30644">
        <ele>258</ele>
        <time>2022-03-19T13:30:02.000Z</time>
      </trkpt>
      <trkpt lat="43.64424" lon="5.30649">
        <ele>258.60000610352</ele>
        <time>2022-03-19T13:30:04.000Z</time>
      </trkpt>
      <trkpt lat="43.6442" lon="5.30651">
        <ele>258.79998779297</ele>
        <time>2022-03-19T13:30:05.000Z</time>
      </trkpt>
      <trkpt lat="43.64416" lon="5.3065">
        <ele>259.39999389648</ele>
        <time>2022-03-19T13:30:06.000Z</time>
      </trkpt>
      <trkpt lat="43.64413" lon="5.30649">
        <ele>260</ele>
        <time>2022-03-19T13:30:07.000Z</time>
      </trkpt>
      <trkpt lat="43.64409" lon="5.30649">
        <ele>260.60000610352</ele>
        <time>2022-03-19T13:30:08.000Z</time>
      </trkpt>
      <trkpt lat="43.64406" lon="5.30648">
        <ele>261.20001220703</ele>
        <time>2022-03-19T13:30:09.000Z</time>
      </trkpt>
      <trkpt lat="43.64403" lon="5.30646">
        <ele>261.79998779297</ele>
        <time>2022-03-19T13:30:10.000Z</time>
      </trkpt>
      <trkpt lat="43.64399" lon="5.30645">
        <ele>262.60000610352</ele>
        <time>2022-03-19T13:30:11.000Z</time>
      </trkpt>
      <trkpt lat="43.64394" lon="5.30645">
        <ele>263.39999389648</ele>
        <time>2022-03-19T13:30:12.000Z</time>
      </trkpt>
      <trkpt lat="43.64391" lon="5.30645">
        <ele>263.60000610352</ele>
        <time>2022-03-19T13:30:13.000Z</time>
      </trkpt>
      <trkpt lat="43.64381" lon="5.30645">
        <ele>264</ele>
        <time>2022-03-19T13:30:16.000Z</time>
      </trkpt>
      <trkpt lat="43.64378" lon="5.30645">
        <ele>264.20001220703</ele>
        <time>2022-03-19T13:30:17.000Z</time>
      </trkpt>
      <trkpt lat="43.64375" lon="5.30648">
        <ele>264.20001220703</ele>
        <time>2022-03-19T13:30:18.000Z</time>
      </trkpt>
      <trkpt lat="43.64372" lon="5.30651">
        <ele>264.20001220703</ele>
        <time>2022-03-19T13:30:19.000Z</time>
      </trkpt>
      <trkpt lat="43.6437" lon="5.30655">
        <ele>264</ele>
        <time>2022-03-19T13:30:20.000Z</time>
      </trkpt>
      <trkpt lat="43.64365" lon="5.30659">
        <ele>264</ele>
        <time>2022-03-19T13:30:22.000Z</time>
      </trkpt>
      <trkpt lat="43.64363" lon="5.30661">
        <ele>264.20001220703</ele>
        <time>2022-03-19T13:30:23.000Z</time>
      </trkpt>
      <trkpt lat="43.64361" lon="5.30664">
        <ele>264.60000610352</ele>
        <time>2022-03-19T13:30:24.000Z</time>
      </trkpt>
      <trkpt lat="43.64359" lon="5.30667">
        <ele>264.79998779297</ele>
        <time>2022-03-19T13:30:25.000Z</time>
      </trkpt>
      <trkpt lat="43.64358" lon="5.30673">
        <ele>265.20001220703</ele>
        <time>2022-03-19T13:30:26.000Z</time>
      </trkpt>
      <trkpt lat="43.64357" lon="5.30676">
        <ele>265.39999389648</ele>
        <time>2022-03-19T13:30:27.000Z</time>
      </trkpt>
      <trkpt lat="43.64357" lon="5.30687">
        <ele>265.79998779297</ele>
        <time>2022-03-19T13:30:30.000Z</time>
      </trkpt>
      <trkpt lat="43.64355" lon="5.30693">
        <ele>266</ele>
        <time>2022-03-19T13:30:32.000Z</time>
      </trkpt>
      <trkpt lat="43.64352" lon="5.30702">
        <ele>266.39999389648</ele>
        <time>2022-03-19T13:30:36.000Z</time>
      </trkpt>
      <trkpt lat="43.64352" lon="5.30704">
        <ele>266.39999389648</ele>
        <time>2022-03-19T13:30:37.000Z</time>
      </trkpt>
      <trkpt lat="43.64352" lon="5.30703">
        <ele>266.39999389648</ele>
        <time>2022-03-19T13:30:38.000Z</time>
      </trkpt>
      <trkpt lat="43.64352" lon="5.30703">
        <ele>266.39999389648</ele>
        <time>2022-03-19T13:30:39.000Z</time>
      </trkpt>
      <trkpt lat="43.64352" lon="5.30703">
        <ele>266.39999389648</ele>
        <time>2022-03-19T13:30:40.000Z</time>
      </trkpt>
      <trkpt lat="43.64352" lon="5.30703">
        <ele>266.39999389648</ele>
        <time>2022-03-19T13:30:42.000Z</time>
      </trkpt>
      <trkpt lat="43.64352" lon="5.30703">
        <ele>266.39999389648</ele>
        <time>2022-03-19T13:30:52.000Z</time>
      </trkpt>
      <trkpt lat="43.64351" lon="5.30711">
        <ele>266.79998779297</ele>
        <time>2022-03-19T13:31:01.000Z</time>
      </trkpt>
      <trkpt lat="43.6435" lon="5.30728">
        <ele>267.60000610352</ele>
        <time>2022-03-19T13:31:06.000Z</time>
      </trkpt>
      <trkpt lat="43.64349" lon="5.3075">
        <ele>268.39999389648</ele>
        <time>2022-03-19T13:31:11.000Z</time>
      </trkpt>
      <trkpt lat="43.64356" lon="5.30773">
        <ele>267.20001220703</ele>
        <time>2022-03-19T13:31:15.000Z</time>
      </trkpt>
      <trkpt lat="43.64354" lon="5.30794">
        <ele>266.79998779297</ele>
        <time>2022-03-19T13:31:18.000Z</time>
      </trkpt>
      <trkpt lat="43.64353" lon="5.30801">
        <ele>266.60000610352</ele>
        <time>2022-03-19T13:31:19.000Z</time>
      </trkpt>
      <trkpt lat="43.6435" lon="5.30831">
        <ele>265.79998779297</ele>
        <time>2022-03-19T13:31:23.000Z</time>
      </trkpt>
      <trkpt lat="43.64346" lon="5.30876">
        <ele>262.60000610352</ele>
        <time>2022-03-19T13:31:29.000Z</time>
      </trkpt>
      <trkpt lat="43.6434" lon="5.30899">
        <ele>262</ele>
        <time>2022-03-19T13:31:32.000Z</time>
      </trkpt>
      <trkpt lat="43.64337" lon="5.30906">
        <ele>262.20001220703</ele>
        <time>2022-03-19T13:31:33.000Z</time>
      </trkpt>
      <trkpt lat="43.64334" lon="5.30912">
        <ele>262.39999389648</ele>
        <time>2022-03-19T13:31:34.000Z</time>
      </trkpt>
      <trkpt lat="43.6433" lon="5.30916">
        <ele>263</ele>
        <time>2022-03-19T13:31:35.000Z</time>
      </trkpt>
      <trkpt lat="43.64328" lon="5.30918">
        <ele>263.20001220703</ele>
        <time>2022-03-19T13:31:36.000Z</time>
      </trkpt>
      <trkpt lat="43.64326" lon="5.30921">
        <ele>263.20001220703</ele>
        <time>2022-03-19T13:31:37.000Z</time>
      </trkpt>
      <trkpt lat="43.64325" lon="5.30924">
        <ele>263.39999389648</ele>
        <time>2022-03-19T13:31:38.000Z</time>
      </trkpt>
      <trkpt lat="43.64324" lon="5.30944">
        <ele>262.20001220703</ele>
        <time>2022-03-19T13:31:42.000Z</time>
      </trkpt>
      <trkpt lat="43.64321" lon="5.30946">
        <ele>262.39999389648</ele>
        <time>2022-03-19T13:31:43.000Z</time>
      </trkpt>
      <trkpt lat="43.64313" lon="5.30948">
        <ele>263</ele>
        <time>2022-03-19T13:31:45.000Z</time>
      </trkpt>
      <trkpt lat="43.64306" lon="5.30952">
        <ele>263.20001220703</ele>
        <time>2022-03-19T13:31:47.000Z</time>
      </trkpt>
      <trkpt lat="43.64295" lon="5.30959">
        <ele>263.60000610352</ele>
        <time>2022-03-19T13:31:51.000Z</time>
      </trkpt>
      <trkpt lat="43.64287" lon="5.30964">
        <ele>263.79998779297</ele>
        <time>2022-03-19T13:31:54.000Z</time>
      </trkpt>
      <trkpt lat="43.64284" lon="5.30965">
        <ele>264</ele>
        <time>2022-03-19T13:31:55.000Z</time>
      </trkpt>
      <trkpt lat="43.64281" lon="5.30967">
        <ele>264</ele>
        <time>2022-03-19T13:31:56.000Z</time>
      </trkpt>
      <trkpt lat="43.64278" lon="5.30969">
        <ele>264.20001220703</ele>
        <time>2022-03-19T13:31:57.000Z</time>
      </trkpt>
      <trkpt lat="43.64274" lon="5.30971">
        <ele>264.39999389648</ele>
        <time>2022-03-19T13:31:58.000Z</time>
      </trkpt>
      <trkpt lat="43.64258" lon="5.3098">
        <ele>264.79998779297</ele>
        <time>2022-03-19T13:32:03.000Z</time>
      </trkpt>
      <trkpt lat="43.64246" lon="5.30986">
        <ele>265.79998779297</ele>
        <time>2022-03-19T13:32:07.000Z</time>
      </trkpt>
      <trkpt lat="43.64243" lon="5.30988">
        <ele>266</ele>
        <time>2022-03-19T13:32:08.000Z</time>
      </trkpt>
      <trkpt lat="43.6424" lon="5.30989">
        <ele>266.20001220703</ele>
        <time>2022-03-19T13:32:09.000Z</time>
      </trkpt>
      <trkpt lat="43.64236" lon="5.30991">
        <ele>266.20001220703</ele>
        <time>2022-03-19T13:32:10.000Z</time>
      </trkpt>
      <trkpt lat="43.64216" lon="5.31001">
        <ele>267.79998779297</ele>
        <time>2022-03-19T13:32:16.000Z</time>
      </trkpt>
      <trkpt lat="43.64209" lon="5.31004">
        <ele>268.39999389648</ele>
        <time>2022-03-19T13:32:18.000Z</time>
      </trkpt>
      <trkpt lat="43.64206" lon="5.31006">
        <ele>268.60000610352</ele>
        <time>2022-03-19T13:32:19.000Z</time>
      </trkpt>
      <trkpt lat="43.64203" lon="5.31007">
        <ele>268.39999389648</ele>
        <time>2022-03-19T13:32:20.000Z</time>
      </trkpt>
      <trkpt lat="43.642" lon="5.31008">
        <ele>268.39999389648</ele>
        <time>2022-03-19T13:32:21.000Z</time>
      </trkpt>
      <trkpt lat="43.64197" lon="5.3101">
        <ele>268.39999389648</ele>
        <time>2022-03-19T13:32:22.000Z</time>
      </trkpt>
      <trkpt lat="43.64181" lon="5.31013">
        <ele>269.39999389648</ele>
        <time>2022-03-19T13:32:27.000Z</time>
      </trkpt>
      <trkpt lat="43.64176" lon="5.31014">
        <ele>270.20001220703</ele>
        <time>2022-03-19T13:32:29.000Z</time>
      </trkpt>
      <trkpt lat="43.64172" lon="5.31013">
        <ele>270.79998779297</ele>
        <time>2022-03-19T13:32:30.000Z</time>
      </trkpt>
      <trkpt lat="43.64169" lon="5.31013">
        <ele>271.20001220703</ele>
        <time>2022-03-19T13:32:31.000Z</time>
      </trkpt>
      <trkpt lat="43.64167" lon="5.31013">
        <ele>271.20001220703</ele>
        <time>2022-03-19T13:32:32.000Z</time>
      </trkpt>
      <trkpt lat="43.64148" lon="5.31011">
        <ele>272</ele>
        <time>2022-03-19T13:32:38.000Z</time>
      </trkpt>
      <trkpt lat="43.64145" lon="5.3101">
        <ele>272.20001220703</ele>
        <time>2022-03-19T13:32:39.000Z</time>
      </trkpt>
      <trkpt lat="43.64142" lon="5.3101">
        <ele>272.39999389648</ele>
        <time>2022-03-19T13:32:40.000Z</time>
      </trkpt>
      <trkpt lat="43.64138" lon="5.3101">
        <ele>272.60000610352</ele>
        <time>2022-03-19T13:32:41.000Z</time>
      </trkpt>
      <trkpt lat="43.64134" lon="5.31009">
        <ele>272.79998779297</ele>
        <time>2022-03-19T13:32:42.000Z</time>
      </trkpt>
      <trkpt lat="43.64131" lon="5.31009">
        <ele>273</ele>
        <time>2022-03-19T13:32:43.000Z</time>
      </trkpt>
      <trkpt lat="43.64119" lon="5.31006">
        <ele>273.79998779297</ele>
        <time>2022-03-19T13:32:47.000Z</time>
      </trkpt>
      <trkpt lat="43.64116" lon="5.31006">
        <ele>273.79998779297</ele>
        <time>2022-03-19T13:32:48.000Z</time>
      </trkpt>
      <trkpt lat="43.64112" lon="5.31005">
        <ele>274.20001220703</ele>
        <time>2022-03-19T13:32:49.000Z</time>
      </trkpt>
      <trkpt lat="43.64109" lon="5.31003">
        <ele>274.79998779297</ele>
        <time>2022-03-19T13:32:50.000Z</time>
      </trkpt>
      <trkpt lat="43.64106" lon="5.31003">
        <ele>275</ele>
        <time>2022-03-19T13:32:51.000Z</time>
      </trkpt>
      <trkpt lat="43.641" lon="5.31003">
        <ele>275.79998779297</ele>
        <time>2022-03-19T13:32:53.000Z</time>
      </trkpt>
      <trkpt lat="43.64091" lon="5.31002">
        <ele>276.79998779297</ele>
        <time>2022-03-19T13:32:56.000Z</time>
      </trkpt>
      <trkpt lat="43.64088" lon="5.31001">
        <ele>277.20001220703</ele>
        <time>2022-03-19T13:32:57.000Z</time>
      </trkpt>
      <trkpt lat="43.64086" lon="5.31">
        <ele>277.60000610352</ele>
        <time>2022-03-19T13:32:58.000Z</time>
      </trkpt>
      <trkpt lat="43.64084" lon="5.30999">
        <ele>278</ele>
        <time>2022-03-19T13:32:59.000Z</time>
      </trkpt>
      <trkpt lat="43.64081" lon="5.30999">
        <ele>278.39999389648</ele>
        <time>2022-03-19T13:33:00.000Z</time>
      </trkpt>
      <trkpt lat="43.6407" lon="5.30995">
        <ele>280.39999389648</ele>
        <time>2022-03-19T13:33:05.000Z</time>
      </trkpt>
      <trkpt lat="43.64055" lon="5.30989">
        <ele>282.39999389648</ele>
        <time>2022-03-19T13:33:11.000Z</time>
      </trkpt>
      <trkpt lat="43.64051" lon="5.30985">
        <ele>282.60000610352</ele>
        <time>2022-03-19T13:33:13.000Z</time>
      </trkpt>
      <trkpt lat="43.64049" lon="5.30983">
        <ele>282.79998779297</ele>
        <time>2022-03-19T13:33:14.000Z</time>
      </trkpt>
      <trkpt lat="43.64048" lon="5.30981">
        <ele>283</ele>
        <time>2022-03-19T13:33:15.000Z</time>
      </trkpt>
      <trkpt lat="43.64046" lon="5.3098">
        <ele>283</ele>
        <time>2022-03-19T13:33:16.000Z</time>
      </trkpt>
      <trkpt lat="43.64044" lon="5.30978">
        <ele>283.20001220703</ele>
        <time>2022-03-19T13:33:17.000Z</time>
      </trkpt>
      <trkpt lat="43.64034" lon="5.30975">
        <ele>283.60000610352</ele>
        <time>2022-03-19T13:33:21.000Z</time>
      </trkpt>
      <trkpt lat="43.64027" lon="5.30973">
        <ele>284</ele>
        <time>2022-03-19T13:33:24.000Z</time>
      </trkpt>
      <trkpt lat="43.64024" lon="5.30972">
        <ele>284</ele>
        <time>2022-03-19T13:33:25.000Z</time>
      </trkpt>
      <trkpt lat="43.6402" lon="5.30972">
        <ele>284.20001220703</ele>
        <time>2022-03-19T13:33:26.000Z</time>
      </trkpt>
      <trkpt lat="43.64017" lon="5.30972">
        <ele>284.39999389648</ele>
        <time>2022-03-19T13:33:27.000Z</time>
      </trkpt>
      <trkpt lat="43.64013" lon="5.30971">
        <ele>284.60000610352</ele>
        <time>2022-03-19T13:33:28.000Z</time>
      </trkpt>
      <trkpt lat="43.64001" lon="5.30969">
        <ele>284.79998779297</ele>
        <time>2022-03-19T13:33:32.000Z</time>
      </trkpt>
      <trkpt lat="43.63985" lon="5.30967">
        <ele>285</ele>
        <time>2022-03-19T13:33:38.000Z</time>
      </trkpt>
      <trkpt lat="43.63981" lon="5.30966">
        <ele>285</ele>
        <time>2022-03-19T13:33:39.000Z</time>
      </trkpt>
      <trkpt lat="43.63978" lon="5.30965">
        <ele>285</ele>
        <time>2022-03-19T13:33:40.000Z</time>
      </trkpt>
      <trkpt lat="43.63975" lon="5.30964">
        <ele>285</ele>
        <time>2022-03-19T13:33:41.000Z</time>
      </trkpt>
      <trkpt lat="43.63973" lon="5.30962">
        <ele>285.20001220703</ele>
        <time>2022-03-19T13:33:42.000Z</time>
      </trkpt>
      <trkpt lat="43.6397" lon="5.3096">
        <ele>285.20001220703</ele>
        <time>2022-03-19T13:33:43.000Z</time>
      </trkpt>
      <trkpt lat="43.63958" lon="5.30946">
        <ele>285.60000610352</ele>
        <time>2022-03-19T13:33:48.000Z</time>
      </trkpt>
      <trkpt lat="43.63952" lon="5.30941">
        <ele>285.79998779297</ele>
        <time>2022-03-19T13:33:50.000Z</time>
      </trkpt>
      <trkpt lat="43.63948" lon="5.30939">
        <ele>286</ele>
        <time>2022-03-19T13:33:51.000Z</time>
      </trkpt>
      <trkpt lat="43.63945" lon="5.30936">
        <ele>286</ele>
        <time>2022-03-19T13:33:52.000Z</time>
      </trkpt>
      <trkpt lat="43.63942" lon="5.30934">
        <ele>286.20001220703</ele>
        <time>2022-03-19T13:33:53.000Z</time>
      </trkpt>
      <trkpt lat="43.63939" lon="5.30931">
        <ele>286.20001220703</ele>
        <time>2022-03-19T13:33:54.000Z</time>
      </trkpt>
      <trkpt lat="43.6392" lon="5.30919">
        <ele>286.60000610352</ele>
        <time>2022-03-19T13:34:00.000Z</time>
      </trkpt>
      <trkpt lat="43.63909" lon="5.30924">
        <ele>288.20001220703</ele>
        <time>2022-03-19T13:34:04.000Z</time>
      </trkpt>
      <trkpt lat="43.63898" lon="5.30922">
        <ele>289</ele>
        <time>2022-03-19T13:34:08.000Z</time>
      </trkpt>
      <trkpt lat="43.63895" lon="5.30921">
        <ele>289.20001220703</ele>
        <time>2022-03-19T13:34:09.000Z</time>
      </trkpt>
      <trkpt lat="43.63893" lon="5.3092">
        <ele>289.20001220703</ele>
        <time>2022-03-19T13:34:10.000Z</time>
      </trkpt>
      <trkpt lat="43.63891" lon="5.30917">
        <ele>289.39999389648</ele>
        <time>2022-03-19T13:34:11.000Z</time>
      </trkpt>
      <trkpt lat="43.63889" lon="5.30916">
        <ele>289.39999389648</ele>
        <time>2022-03-19T13:34:12.000Z</time>
      </trkpt>
      <trkpt lat="43.63887" lon="5.30915">
        <ele>289.60000610352</ele>
        <time>2022-03-19T13:34:13.000Z</time>
      </trkpt>
      <trkpt lat="43.63872" lon="5.30902">
        <ele>290.20001220703</ele>
        <time>2022-03-19T13:34:20.000Z</time>
      </trkpt>
      <trkpt lat="43.63862" lon="5.30892">
        <ele>290.60000610352</ele>
        <time>2022-03-19T13:34:24.000Z</time>
      </trkpt>
      <trkpt lat="43.63846" lon="5.30875">
        <ele>291.79998779297</ele>
        <time>2022-03-19T13:34:31.000Z</time>
      </trkpt>
      <trkpt lat="43.63834" lon="5.3086">
        <ele>292.39999389648</ele>
        <time>2022-03-19T13:34:37.000Z</time>
      </trkpt>
      <trkpt lat="43.6382" lon="5.30839">
        <ele>293.20001220703</ele>
        <time>2022-03-19T13:34:44.000Z</time>
      </trkpt>
      <trkpt lat="43.63809" lon="5.3083">
        <ele>294</ele>
        <time>2022-03-19T13:34:48.000Z</time>
      </trkpt>
      <trkpt lat="43.63807" lon="5.30828">
        <ele>294</ele>
        <time>2022-03-19T13:34:49.000Z</time>
      </trkpt>
      <trkpt lat="43.63803" lon="5.30826">
        <ele>294.20001220703</ele>
        <time>2022-03-19T13:34:50.000Z</time>
      </trkpt>
      <trkpt lat="43.638" lon="5.30825">
        <ele>294.20001220703</ele>
        <time>2022-03-19T13:34:51.000Z</time>
      </trkpt>
      <trkpt lat="43.63797" lon="5.30823">
        <ele>294.20001220703</ele>
        <time>2022-03-19T13:34:52.000Z</time>
      </trkpt>
      <trkpt lat="43.63795" lon="5.3082">
        <ele>294.20001220703</ele>
        <time>2022-03-19T13:34:53.000Z</time>
      </trkpt>
      <trkpt lat="43.63785" lon="5.30813">
        <ele>294.39999389648</ele>
        <time>2022-03-19T13:34:57.000Z</time>
      </trkpt>
      <trkpt lat="43.63782" lon="5.30812">
        <ele>294.39999389648</ele>
        <time>2022-03-19T13:34:58.000Z</time>
      </trkpt>
      <trkpt lat="43.63778" lon="5.30811">
        <ele>294.79998779297</ele>
        <time>2022-03-19T13:34:59.000Z</time>
      </trkpt>
      <trkpt lat="43.63774" lon="5.30812">
        <ele>295.20001220703</ele>
        <time>2022-03-19T13:35:00.000Z</time>
      </trkpt>
      <trkpt lat="43.63767" lon="5.30815">
        <ele>296</ele>
        <time>2022-03-19T13:35:03.000Z</time>
      </trkpt>
      <trkpt lat="43.63765" lon="5.30816">
        <ele>296.20001220703</ele>
        <time>2022-03-19T13:35:04.000Z</time>
      </trkpt>
      <trkpt lat="43.63752" lon="5.30821">
        <ele>297.20001220703</ele>
        <time>2022-03-19T13:35:09.000Z</time>
      </trkpt>
      <trkpt lat="43.63748" lon="5.30825">
        <ele>297.60000610352</ele>
        <time>2022-03-19T13:35:11.000Z</time>
      </trkpt>
      <trkpt lat="43.63747" lon="5.30828">
        <ele>297.79998779297</ele>
        <time>2022-03-19T13:35:12.000Z</time>
      </trkpt>
      <trkpt lat="43.63746" lon="5.30831">
        <ele>297.60000610352</ele>
        <time>2022-03-19T13:35:13.000Z</time>
      </trkpt>
      <trkpt lat="43.63744" lon="5.30835">
        <ele>297.79998779297</ele>
        <time>2022-03-19T13:35:14.000Z</time>
      </trkpt>
      <trkpt lat="43.63743" lon="5.30838">
        <ele>297.79998779297</ele>
        <time>2022-03-19T13:35:15.000Z</time>
      </trkpt>
      <trkpt lat="43.63741" lon="5.30842">
        <ele>297.79998779297</ele>
        <time>2022-03-19T13:35:16.000Z</time>
      </trkpt>
      <trkpt lat="43.63739" lon="5.3085">
        <ele>298</ele>
        <time>2022-03-19T13:35:18.000Z</time>
      </trkpt>
      <trkpt lat="43.63736" lon="5.30869">
        <ele>298.20001220703</ele>
        <time>2022-03-19T13:35:23.000Z</time>
      </trkpt>
      <trkpt lat="43.63728" lon="5.30888">
        <ele>298.60000610352</ele>
        <time>2022-03-19T13:35:28.000Z</time>
      </trkpt>
      <trkpt lat="43.63722" lon="5.30908">
        <ele>298.39999389648</ele>
        <time>2022-03-19T13:35:33.000Z</time>
      </trkpt>
      <trkpt lat="43.63716" lon="5.30923">
        <ele>298.20001220703</ele>
        <time>2022-03-19T13:35:37.000Z</time>
      </trkpt>
      <trkpt lat="43.63712" lon="5.30939">
        <ele>298</ele>
        <time>2022-03-19T13:35:41.000Z</time>
      </trkpt>
      <trkpt lat="43.6371" lon="5.30941">
        <ele>298.20001220703</ele>
        <time>2022-03-19T13:35:42.000Z</time>
      </trkpt>
      <trkpt lat="43.63703" lon="5.30949">
        <ele>299</ele>
        <time>2022-03-19T13:35:45.000Z</time>
      </trkpt>
      <trkpt lat="43.63702" lon="5.30952">
        <ele>298.79998779297</ele>
        <time>2022-03-19T13:35:46.000Z</time>
      </trkpt>
      <trkpt lat="43.637" lon="5.30955">
        <ele>298.60000610352</ele>
        <time>2022-03-19T13:35:47.000Z</time>
      </trkpt>
      <trkpt lat="43.63693" lon="5.30978">
        <ele>298.20001220703</ele>
        <time>2022-03-19T13:35:52.000Z</time>
      </trkpt>
      <trkpt lat="43.63687" lon="5.31">
        <ele>297.79998779297</ele>
        <time>2022-03-19T13:35:56.000Z</time>
      </trkpt>
      <trkpt lat="43.63684" lon="5.31012">
        <ele>297.39999389648</ele>
        <time>2022-03-19T13:35:58.000Z</time>
      </trkpt>
      <trkpt lat="43.63679" lon="5.3104">
        <ele>296.79998779297</ele>
        <time>2022-03-19T13:36:03.000Z</time>
      </trkpt>
      <trkpt lat="43.6367" lon="5.31069">
        <ele>296.39999389648</ele>
        <time>2022-03-19T13:36:09.000Z</time>
      </trkpt>
      <trkpt lat="43.63655" lon="5.31072">
        <ele>296.39999389648</ele>
        <time>2022-03-19T13:36:14.000Z</time>
      </trkpt>
      <trkpt lat="43.63643" lon="5.3107">
        <ele>296.60000610352</ele>
        <time>2022-03-19T13:36:18.000Z</time>
      </trkpt>
      <trkpt lat="43.6364" lon="5.31069">
        <ele>296.79998779297</ele>
        <time>2022-03-19T13:36:19.000Z</time>
      </trkpt>
      <trkpt lat="43.63621" lon="5.31068">
        <ele>297</ele>
        <time>2022-03-19T13:36:25.000Z</time>
      </trkpt>
      <trkpt lat="43.63601" lon="5.31066">
        <ele>297</ele>
        <time>2022-03-19T13:36:30.000Z</time>
      </trkpt>
      <trkpt lat="43.63589" lon="5.31063">
        <ele>297.39999389648</ele>
        <time>2022-03-19T13:36:34.000Z</time>
      </trkpt>
      <trkpt lat="43.63587" lon="5.31063">
        <ele>297.39999389648</ele>
        <time>2022-03-19T13:36:35.000Z</time>
      </trkpt>
      <trkpt lat="43.63584" lon="5.31062">
        <ele>297.39999389648</ele>
        <time>2022-03-19T13:36:36.000Z</time>
      </trkpt>
      <trkpt lat="43.63582" lon="5.31061">
        <ele>297.39999389648</ele>
        <time>2022-03-19T13:36:37.000Z</time>
      </trkpt>
      <trkpt lat="43.6358" lon="5.31058">
        <ele>297.20001220703</ele>
        <time>2022-03-19T13:36:38.000Z</time>
      </trkpt>
      <trkpt lat="43.6357" lon="5.31047">
        <ele>296.79998779297</ele>
        <time>2022-03-19T13:36:42.000Z</time>
      </trkpt>
      <trkpt lat="43.63549" lon="5.31038">
        <ele>296.20001220703</ele>
        <time>2022-03-19T13:36:48.000Z</time>
      </trkpt>
      <trkpt lat="43.63539" lon="5.31035">
        <ele>295.79998779297</ele>
        <time>2022-03-19T13:36:51.000Z</time>
      </trkpt>
      <trkpt lat="43.63534" lon="5.31039">
        <ele>295.60000610352</ele>
        <time>2022-03-19T13:36:53.000Z</time>
      </trkpt>
      <trkpt lat="43.63527" lon="5.31048">
        <ele>296</ele>
        <time>2022-03-19T13:36:56.000Z</time>
      </trkpt>
      <trkpt lat="43.63521" lon="5.31052">
        <ele>295.60000610352</ele>
        <time>2022-03-19T13:36:58.000Z</time>
      </trkpt>
      <trkpt lat="43.63509" lon="5.31047">
        <ele>295.20001220703</ele>
        <time>2022-03-19T13:37:02.000Z</time>
      </trkpt>
      <trkpt lat="43.63504" lon="5.31041">
        <ele>295.39999389648</ele>
        <time>2022-03-19T13:37:04.000Z</time>
      </trkpt>
      <trkpt lat="43.63497" lon="5.31035">
        <ele>295.60000610352</ele>
        <time>2022-03-19T13:37:07.000Z</time>
      </trkpt>
      <trkpt lat="43.63485" lon="5.31032">
        <ele>295.60000610352</ele>
        <time>2022-03-19T13:37:12.000Z</time>
      </trkpt>
      <trkpt lat="43.63474" lon="5.31031">
        <ele>296</ele>
        <time>2022-03-19T13:37:16.000Z</time>
      </trkpt>
      <trkpt lat="43.63472" lon="5.31033">
        <ele>296.20001220703</ele>
        <time>2022-03-19T13:37:17.000Z</time>
      </trkpt>
      <trkpt lat="43.63462" lon="5.31041">
        <ele>296.39999389648</ele>
        <time>2022-03-19T13:37:22.000Z</time>
      </trkpt>
      <trkpt lat="43.6346" lon="5.31041">
        <ele>296.39999389648</ele>
        <time>2022-03-19T13:37:23.000Z</time>
      </trkpt>
      <trkpt lat="43.63446" lon="5.31042">
        <ele>296.20001220703</ele>
        <time>2022-03-19T13:37:28.000Z</time>
      </trkpt>
      <trkpt lat="43.63437" lon="5.3104">
        <ele>296.39999389648</ele>
        <time>2022-03-19T13:37:32.000Z</time>
      </trkpt>
      <trkpt lat="43.63434" lon="5.31038">
        <ele>296.39999389648</ele>
        <time>2022-03-19T13:37:33.000Z</time>
      </trkpt>
      <trkpt lat="43.63421" lon="5.31033">
        <ele>297</ele>
        <time>2022-03-19T13:37:38.000Z</time>
      </trkpt>
      <trkpt lat="43.63411" lon="5.31041">
        <ele>297</ele>
        <time>2022-03-19T13:37:43.000Z</time>
      </trkpt>
      <trkpt lat="43.63406" lon="5.31045">
        <ele>297</ele>
        <time>2022-03-19T13:37:45.000Z</time>
      </trkpt>
      <trkpt lat="43.63402" lon="5.31045">
        <ele>297</ele>
        <time>2022-03-19T13:37:47.000Z</time>
      </trkpt>
      <trkpt lat="43.63394" lon="5.3104">
        <ele>297</ele>
        <time>2022-03-19T13:37:50.000Z</time>
      </trkpt>
      <trkpt lat="43.63391" lon="5.31038">
        <ele>296.79998779297</ele>
        <time>2022-03-19T13:37:51.000Z</time>
      </trkpt>
      <trkpt lat="43.63388" lon="5.31036">
        <ele>296.39999389648</ele>
        <time>2022-03-19T13:37:52.000Z</time>
      </trkpt>
      <trkpt lat="43.63384" lon="5.31035">
        <ele>296</ele>
        <time>2022-03-19T13:37:53.000Z</time>
      </trkpt>
      <trkpt lat="43.63375" lon="5.31033">
        <ele>295</ele>
        <time>2022-03-19T13:37:55.000Z</time>
      </trkpt>
      <trkpt lat="43.63361" lon="5.31031">
        <ele>293.20001220703</ele>
        <time>2022-03-19T13:37:58.000Z</time>
      </trkpt>
      <trkpt lat="43.63356" lon="5.31031">
        <ele>292.39999389648</ele>
        <time>2022-03-19T13:37:59.000Z</time>
      </trkpt>
      <trkpt lat="43.63351" lon="5.31032">
        <ele>291.60000610352</ele>
        <time>2022-03-19T13:38:00.000Z</time>
      </trkpt>
      <trkpt lat="43.63348" lon="5.31035">
        <ele>290.79998779297</ele>
        <time>2022-03-19T13:38:01.000Z</time>
      </trkpt>
      <trkpt lat="43.63344" lon="5.31039">
        <ele>290.39999389648</ele>
        <time>2022-03-19T13:38:02.000Z</time>
      </trkpt>
      <trkpt lat="43.63342" lon="5.31043">
        <ele>289.79998779297</ele>
        <time>2022-03-19T13:38:03.000Z</time>
      </trkpt>
      <trkpt lat="43.63339" lon="5.31046">
        <ele>289.20001220703</ele>
        <time>2022-03-19T13:38:04.000Z</time>
      </trkpt>
      <trkpt lat="43.63331" lon="5.3106">
        <ele>288.20001220703</ele>
        <time>2022-03-19T13:38:07.000Z</time>
      </trkpt>
      <trkpt lat="43.63328" lon="5.31065">
        <ele>288</ele>
        <time>2022-03-19T13:38:08.000Z</time>
      </trkpt>
      <trkpt lat="43.63326" lon="5.31068">
        <ele>287.79998779297</ele>
        <time>2022-03-19T13:38:09.000Z</time>
      </trkpt>
      <trkpt lat="43.63324" lon="5.31072">
        <ele>287.60000610352</ele>
        <time>2022-03-19T13:38:10.000Z</time>
      </trkpt>
      <trkpt lat="43.63322" lon="5.31075">
        <ele>287.60000610352</ele>
        <time>2022-03-19T13:38:11.000Z</time>
      </trkpt>
      <trkpt lat="43.63319" lon="5.31079">
        <ele>287.39999389648</ele>
        <time>2022-03-19T13:38:13.000Z</time>
      </trkpt>
      <trkpt lat="43.63311" lon="5.31087">
        <ele>286.20001220703</ele>
        <time>2022-03-19T13:38:18.000Z</time>
      </trkpt>
      <trkpt lat="43.6331" lon="5.31089">
        <ele>286</ele>
        <time>2022-03-19T13:38:19.000Z</time>
      </trkpt>
      <trkpt lat="43.63308" lon="5.3109">
        <ele>285.79998779297</ele>
        <time>2022-03-19T13:38:20.000Z</time>
      </trkpt>
      <trkpt lat="43.63306" lon="5.31091">
        <ele>285.39999389648</ele>
        <time>2022-03-19T13:38:21.000Z</time>
      </trkpt>
      <trkpt lat="43.63305" lon="5.31092">
        <ele>285.20001220703</ele>
        <time>2022-03-19T13:38:22.000Z</time>
      </trkpt>
      <trkpt lat="43.63304" lon="5.31093">
        <ele>285</ele>
        <time>2022-03-19T13:38:26.000Z</time>
      </trkpt>
      <trkpt lat="43.63304" lon="5.31093">
        <ele>285</ele>
        <time>2022-03-19T13:38:36.000Z</time>
      </trkpt>
      <trkpt lat="43.63304" lon="5.31093">
        <ele>285</ele>
        <time>2022-03-19T13:38:44.000Z</time>
      </trkpt>
      <trkpt lat="43.63304" lon="5.31093">
        <ele>285</ele>
        <time>2022-03-19T13:38:45.000Z</time>
      </trkpt>
      <trkpt lat="43.63305" lon="5.31091">
        <ele>285.20001220703</ele>
        <time>2022-03-19T13:38:48.000Z</time>
      </trkpt>
      <trkpt lat="43.63305" lon="5.31091">
        <ele>285.20001220703</ele>
        <time>2022-03-19T13:38:55.000Z</time>
      </trkpt>
      <trkpt lat="43.63305" lon="5.31087">
        <ele>285.20001220703</ele>
        <time>2022-03-19T13:39:00.000Z</time>
      </trkpt>
      <trkpt lat="43.63304" lon="5.31086">
        <ele>285.20001220703</ele>
        <time>2022-03-19T13:39:06.000Z</time>
      </trkpt>
      <trkpt lat="43.63304" lon="5.31086">
        <ele>285.20001220703</ele>
        <time>2022-03-19T13:39:20.000Z</time>
      </trkpt>
      <trkpt lat="43.63304" lon="5.31086">
        <ele>285.20001220703</ele>
        <time>2022-03-19T13:39:37.000Z</time>
      </trkpt>
      <trkpt lat="43.63304" lon="5.31086">
        <ele>285.20001220703</ele>
        <time>2022-03-19T13:39:45.000Z</time>
      </trkpt>
      <trkpt lat="43.63305" lon="5.31087">
        <ele>285.20001220703</ele>
        <time>2022-03-19T13:39:47.000Z</time>
      </trkpt>
      <trkpt lat="43.63305" lon="5.31088">
        <ele>285.20001220703</ele>
        <time>2022-03-19T13:39:48.000Z</time>
      </trkpt>
      <trkpt lat="43.63303" lon="5.31091">
        <ele>285</ele>
        <time>2022-03-19T13:39:53.000Z</time>
      </trkpt>
      <trkpt lat="43.63303" lon="5.31091">
        <ele>285</ele>
        <time>2022-03-19T13:40:00.000Z</time>
      </trkpt>
      <trkpt lat="43.63303" lon="5.31092">
        <ele>285</ele>
        <time>2022-03-19T13:40:02.000Z</time>
      </trkpt>
      <trkpt lat="43.63303" lon="5.31092">
        <ele>285</ele>
        <time>2022-03-19T13:40:08.000Z</time>
      </trkpt>
      <trkpt lat="43.63303" lon="5.31092">
        <ele>285</ele>
        <time>2022-03-19T13:40:19.000Z</time>
      </trkpt>
      <trkpt lat="43.63303" lon="5.31092">
        <ele>285</ele>
        <time>2022-03-19T13:40:27.000Z</time>
      </trkpt>
      <trkpt lat="43.63302" lon="5.31093">
        <ele>284.79998779297</ele>
        <time>2022-03-19T13:40:29.000Z</time>
      </trkpt>
      <trkpt lat="43.63302" lon="5.31093">
        <ele>284.79998779297</ele>
        <time>2022-03-19T13:40:37.000Z</time>
      </trkpt>
      <trkpt lat="43.633" lon="5.31095">
        <ele>284.20001220703</ele>
        <time>2022-03-19T13:40:45.000Z</time>
      </trkpt>
      <trkpt lat="43.63299" lon="5.31096">
        <ele>284</ele>
        <time>2022-03-19T13:40:50.000Z</time>
      </trkpt>
      <trkpt lat="43.63299" lon="5.31096">
        <ele>284.20001220703</ele>
        <time>2022-03-19T13:40:55.000Z</time>
      </trkpt>
      <trkpt lat="43.63297" lon="5.31099">
        <ele>284</ele>
        <time>2022-03-19T13:40:58.000Z</time>
      </trkpt>
      <trkpt lat="43.63295" lon="5.311">
        <ele>283.60000610352</ele>
        <time>2022-03-19T13:41:09.000Z</time>
      </trkpt>
      <trkpt lat="43.63291" lon="5.31103">
        <ele>283.39999389648</ele>
        <time>2022-03-19T13:41:14.000Z</time>
      </trkpt>
      <trkpt lat="43.63291" lon="5.31105">
        <ele>283.39999389648</ele>
        <time>2022-03-19T13:41:15.000Z</time>
      </trkpt>
      <trkpt lat="43.63291" lon="5.31106">
        <ele>283.20001220703</ele>
        <time>2022-03-19T13:41:16.000Z</time>
      </trkpt>
      <trkpt lat="43.6329" lon="5.31108">
        <ele>283</ele>
        <time>2022-03-19T13:41:17.000Z</time>
      </trkpt>
      <trkpt lat="43.63288" lon="5.3111">
        <ele>282.79998779297</ele>
        <time>2022-03-19T13:41:18.000Z</time>
      </trkpt>
      <trkpt lat="43.63286" lon="5.31111">
        <ele>282.39999389648</ele>
        <time>2022-03-19T13:41:19.000Z</time>
      </trkpt>
      <trkpt lat="43.63282" lon="5.31113">
        <ele>282</ele>
        <time>2022-03-19T13:41:20.000Z</time>
      </trkpt>
      <trkpt lat="43.63277" lon="5.31115">
        <ele>281.20001220703</ele>
        <time>2022-03-19T13:41:22.000Z</time>
      </trkpt>
      <trkpt lat="43.63275" lon="5.31115">
        <ele>280.79998779297</ele>
        <time>2022-03-19T13:41:23.000Z</time>
      </trkpt>
      <trkpt lat="43.63273" lon="5.31116">
        <ele>280.39999389648</ele>
        <time>2022-03-19T13:41:24.000Z</time>
      </trkpt>
      <trkpt lat="43.63271" lon="5.31116">
        <ele>280</ele>
        <time>2022-03-19T13:41:25.000Z</time>
      </trkpt>
      <trkpt lat="43.63268" lon="5.31118">
        <ele>279.60000610352</ele>
        <time>2022-03-19T13:41:26.000Z</time>
      </trkpt>
      <trkpt lat="43.63266" lon="5.31119">
        <ele>279.20001220703</ele>
        <time>2022-03-19T13:41:27.000Z</time>
      </trkpt>
      <trkpt lat="43.63258" lon="5.31126">
        <ele>278.39999389648</ele>
        <time>2022-03-19T13:41:30.000Z</time>
      </trkpt>
      <trkpt lat="43.63255" lon="5.31129">
        <ele>278</ele>
        <time>2022-03-19T13:41:31.000Z</time>
      </trkpt>
      <trkpt lat="43.63253" lon="5.31131">
        <ele>277.60000610352</ele>
        <time>2022-03-19T13:41:32.000Z</time>
      </trkpt>
      <trkpt lat="43.63251" lon="5.31134">
        <ele>277.39999389648</ele>
        <time>2022-03-19T13:41:33.000Z</time>
      </trkpt>
      <trkpt lat="43.6325" lon="5.31137">
        <ele>277.20001220703</ele>
        <time>2022-03-19T13:41:34.000Z</time>
      </trkpt>
      <trkpt lat="43.63249" lon="5.3114">
        <ele>277</ele>
        <time>2022-03-19T13:41:35.000Z</time>
      </trkpt>
      <trkpt lat="43.63247" lon="5.31145">
        <ele>276.60000610352</ele>
        <time>2022-03-19T13:41:36.000Z</time>
      </trkpt>
      <trkpt lat="43.63245" lon="5.31148">
        <ele>276</ele>
        <time>2022-03-19T13:41:37.000Z</time>
      </trkpt>
      <trkpt lat="43.63243" lon="5.31151">
        <ele>275.60000610352</ele>
        <time>2022-03-19T13:41:38.000Z</time>
      </trkpt>
      <trkpt lat="43.63241" lon="5.31155">
        <ele>275.20001220703</ele>
        <time>2022-03-19T13:41:39.000Z</time>
      </trkpt>
      <trkpt lat="43.63239" lon="5.31159">
        <ele>274.79998779297</ele>
        <time>2022-03-19T13:41:40.000Z</time>
      </trkpt>
      <trkpt lat="43.63237" lon="5.31162">
        <ele>274.39999389648</ele>
        <time>2022-03-19T13:41:41.000Z</time>
      </trkpt>
      <trkpt lat="43.63235" lon="5.31166">
        <ele>273.79998779297</ele>
        <time>2022-03-19T13:41:42.000Z</time>
      </trkpt>
      <trkpt lat="43.63233" lon="5.31169">
        <ele>273.20001220703</ele>
        <time>2022-03-19T13:41:43.000Z</time>
      </trkpt>
      <trkpt lat="43.63232" lon="5.31172">
        <ele>273</ele>
        <time>2022-03-19T13:41:44.000Z</time>
      </trkpt>
      <trkpt lat="43.63231" lon="5.31174">
        <ele>272.60000610352</ele>
        <time>2022-03-19T13:41:45.000Z</time>
      </trkpt>
      <trkpt lat="43.63229" lon="5.31177">
        <ele>272.20001220703</ele>
        <time>2022-03-19T13:41:46.000Z</time>
      </trkpt>
      <trkpt lat="43.63226" lon="5.31181">
        <ele>271.39999389648</ele>
        <time>2022-03-19T13:41:47.000Z</time>
      </trkpt>
      <trkpt lat="43.63224" lon="5.31186">
        <ele>270.79998779297</ele>
        <time>2022-03-19T13:41:48.000Z</time>
      </trkpt>
      <trkpt lat="43.63223" lon="5.31191">
        <ele>270.79998779297</ele>
        <time>2022-03-19T13:41:49.000Z</time>
      </trkpt>
      <trkpt lat="43.63223" lon="5.31194">
        <ele>271</ele>
        <time>2022-03-19T13:41:50.000Z</time>
      </trkpt>
      <trkpt lat="43.63224" lon="5.31197">
        <ele>271.20001220703</ele>
        <time>2022-03-19T13:41:51.000Z</time>
      </trkpt>
      <trkpt lat="43.63225" lon="5.31199">
        <ele>271.60000610352</ele>
        <time>2022-03-19T13:41:52.000Z</time>
      </trkpt>
      <trkpt lat="43.63221" lon="5.31202">
        <ele>271.20001220703</ele>
        <time>2022-03-19T13:41:55.000Z</time>
      </trkpt>
      <trkpt lat="43.63215" lon="5.31204">
        <ele>270.60000610352</ele>
        <time>2022-03-19T13:41:57.000Z</time>
      </trkpt>
      <trkpt lat="43.63212" lon="5.31206">
        <ele>270.20001220703</ele>
        <time>2022-03-19T13:41:58.000Z</time>
      </trkpt>
      <trkpt lat="43.63209" lon="5.31209">
        <ele>270</ele>
        <time>2022-03-19T13:41:59.000Z</time>
      </trkpt>
      <trkpt lat="43.63206" lon="5.31213">
        <ele>269.79998779297</ele>
        <time>2022-03-19T13:42:00.000Z</time>
      </trkpt>
      <trkpt lat="43.63204" lon="5.31218">
        <ele>270</ele>
        <time>2022-03-19T13:42:01.000Z</time>
      </trkpt>
      <trkpt lat="43.63199" lon="5.31227">
        <ele>270.20001220703</ele>
        <time>2022-03-19T13:42:03.000Z</time>
      </trkpt>
      <trkpt lat="43.63195" lon="5.31229">
        <ele>270</ele>
        <time>2022-03-19T13:42:04.000Z</time>
      </trkpt>
      <trkpt lat="43.63186" lon="5.31229">
        <ele>269</ele>
        <time>2022-03-19T13:42:06.000Z</time>
      </trkpt>
      <trkpt lat="43.63173" lon="5.31227">
        <ele>267.39999389648</ele>
        <time>2022-03-19T13:42:10.000Z</time>
      </trkpt>
      <trkpt lat="43.63165" lon="5.31231">
        <ele>267.39999389648</ele>
        <time>2022-03-19T13:42:14.000Z</time>
      </trkpt>
      <trkpt lat="43.63161" lon="5.31232">
        <ele>267.20001220703</ele>
        <time>2022-03-19T13:42:19.000Z</time>
      </trkpt>
      <trkpt lat="43.63157" lon="5.31235">
        <ele>267.60000610352</ele>
        <time>2022-03-19T13:42:24.000Z</time>
      </trkpt>
      <trkpt lat="43.63158" lon="5.31235">
        <ele>267.60000610352</ele>
        <time>2022-03-19T13:42:30.000Z</time>
      </trkpt>
      <trkpt lat="43.63157" lon="5.31235">
        <ele>267.60000610352</ele>
        <time>2022-03-19T13:42:35.000Z</time>
      </trkpt>
      <trkpt lat="43.63156" lon="5.31237">
        <ele>267.60000610352</ele>
        <time>2022-03-19T13:42:36.000Z</time>
      </trkpt>
      <trkpt lat="43.63151" lon="5.31248">
        <ele>268.79998779297</ele>
        <time>2022-03-19T13:42:40.000Z</time>
      </trkpt>
      <trkpt lat="43.63141" lon="5.31262">
        <ele>269.79998779297</ele>
        <time>2022-03-19T13:42:44.000Z</time>
      </trkpt>
      <trkpt lat="43.63127" lon="5.31282">
        <ele>271.39999389648</ele>
        <time>2022-03-19T13:42:49.000Z</time>
      </trkpt>
      <trkpt lat="43.63121" lon="5.31292">
        <ele>271.20001220703</ele>
        <time>2022-03-19T13:42:52.000Z</time>
      </trkpt>
      <trkpt lat="43.63118" lon="5.31295">
        <ele>271</ele>
        <time>2022-03-19T13:42:53.000Z</time>
      </trkpt>
      <trkpt lat="43.63115" lon="5.31299">
        <ele>271</ele>
        <time>2022-03-19T13:42:54.000Z</time>
      </trkpt>
      <trkpt lat="43.63112" lon="5.31302">
        <ele>270.60000610352</ele>
        <time>2022-03-19T13:42:55.000Z</time>
      </trkpt>
      <trkpt lat="43.63109" lon="5.31306">
        <ele>270.39999389648</ele>
        <time>2022-03-19T13:42:56.000Z</time>
      </trkpt>
      <trkpt lat="43.63104" lon="5.31315">
        <ele>270</ele>
        <time>2022-03-19T13:42:58.000Z</time>
      </trkpt>
      <trkpt lat="43.63103" lon="5.31334">
        <ele>269.79998779297</ele>
        <time>2022-03-19T13:43:02.000Z</time>
      </trkpt>
      <trkpt lat="43.63104" lon="5.31356">
        <ele>270.39999389648</ele>
        <time>2022-03-19T13:43:06.000Z</time>
      </trkpt>
      <trkpt lat="43.63103" lon="5.31361">
        <ele>270.39999389648</ele>
        <time>2022-03-19T13:43:07.000Z</time>
      </trkpt>
      <trkpt lat="43.63107" lon="5.31381">
        <ele>270.79998779297</ele>
        <time>2022-03-19T13:43:11.000Z</time>
      </trkpt>
      <trkpt lat="43.63105" lon="5.31392">
        <ele>271.20001220703</ele>
        <time>2022-03-19T13:43:15.000Z</time>
      </trkpt>
      <trkpt lat="43.63104" lon="5.31394">
        <ele>271.20001220703</ele>
        <time>2022-03-19T13:43:19.000Z</time>
      </trkpt>
      <trkpt lat="43.63104" lon="5.31394">
        <ele>271.20001220703</ele>
        <time>2022-03-19T13:43:26.000Z</time>
      </trkpt>
      <trkpt lat="43.63101" lon="5.31399">
        <ele>271.20001220703</ele>
        <time>2022-03-19T13:43:31.000Z</time>
      </trkpt>
      <trkpt lat="43.63099" lon="5.31401">
        <ele>271.20001220703</ele>
        <time>2022-03-19T13:43:37.000Z</time>
      </trkpt>
      <trkpt lat="43.63099" lon="5.31401">
        <ele>271.20001220703</ele>
        <time>2022-03-19T13:43:49.000Z</time>
      </trkpt>
      <trkpt lat="43.63099" lon="5.31401">
        <ele>271.20001220703</ele>
        <time>2022-03-19T13:43:58.000Z</time>
      </trkpt>
      <trkpt lat="43.63099" lon="5.31401">
        <ele>271.20001220703</ele>
        <time>2022-03-19T13:44:04.000Z</time>
      </trkpt>
      <trkpt lat="43.63099" lon="5.31401">
        <ele>271.20001220703</ele>
        <time>2022-03-19T13:44:12.000Z</time>
      </trkpt>
      <trkpt lat="43.63103" lon="5.31405">
        <ele>272</ele>
        <time>2022-03-19T13:44:15.000Z</time>
      </trkpt>
      <trkpt lat="43.63105" lon="5.31406">
        <ele>272.39999389648</ele>
        <time>2022-03-19T13:44:16.000Z</time>
      </trkpt>
      <trkpt lat="43.63107" lon="5.31408">
        <ele>272.79998779297</ele>
        <time>2022-03-19T13:44:17.000Z</time>
      </trkpt>
      <trkpt lat="43.6311" lon="5.31409">
        <ele>273.20001220703</ele>
        <time>2022-03-19T13:44:18.000Z</time>
      </trkpt>
      <trkpt lat="43.63112" lon="5.31409">
        <ele>273.39999389648</ele>
        <time>2022-03-19T13:44:19.000Z</time>
      </trkpt>
      <trkpt lat="43.63114" lon="5.3141">
        <ele>273.79998779297</ele>
        <time>2022-03-19T13:44:21.000Z</time>
      </trkpt>
      <trkpt lat="43.63115" lon="5.31412">
        <ele>274.20001220703</ele>
        <time>2022-03-19T13:44:22.000Z</time>
      </trkpt>
      <trkpt lat="43.63115" lon="5.31416">
        <ele>274.60000610352</ele>
        <time>2022-03-19T13:44:23.000Z</time>
      </trkpt>
      <trkpt lat="43.63115" lon="5.31421">
        <ele>275</ele>
        <time>2022-03-19T13:44:24.000Z</time>
      </trkpt>
      <trkpt lat="43.63115" lon="5.31426">
        <ele>275.39999389648</ele>
        <time>2022-03-19T13:44:25.000Z</time>
      </trkpt>
      <trkpt lat="43.63115" lon="5.31431">
        <ele>276.20001220703</ele>
        <time>2022-03-19T13:44:26.000Z</time>
      </trkpt>
      <trkpt lat="43.63115" lon="5.31441">
        <ele>277.20001220703</ele>
        <time>2022-03-19T13:44:28.000Z</time>
      </trkpt>
      <trkpt lat="43.6311" lon="5.31452">
        <ele>278</ele>
        <time>2022-03-19T13:44:31.000Z</time>
      </trkpt>
      <trkpt lat="43.63109" lon="5.3146">
        <ele>278.79998779297</ele>
        <time>2022-03-19T13:44:33.000Z</time>
      </trkpt>
      <trkpt lat="43.63107" lon="5.31464">
        <ele>279.20001220703</ele>
        <time>2022-03-19T13:44:34.000Z</time>
      </trkpt>
      <trkpt lat="43.63107" lon="5.31469">
        <ele>279.60000610352</ele>
        <time>2022-03-19T13:44:35.000Z</time>
      </trkpt>
      <trkpt lat="43.63107" lon="5.31473">
        <ele>279.60000610352</ele>
        <time>2022-03-19T13:44:36.000Z</time>
      </trkpt>
      <trkpt lat="43.63107" lon="5.31477">
        <ele>279.79998779297</ele>
        <time>2022-03-19T13:44:37.000Z</time>
      </trkpt>
      <trkpt lat="43.63106" lon="5.3148">
        <ele>279.79998779297</ele>
        <time>2022-03-19T13:44:38.000Z</time>
      </trkpt>
      <trkpt lat="43.63104" lon="5.31494">
        <ele>280.20001220703</ele>
        <time>2022-03-19T13:44:41.000Z</time>
      </trkpt>
      <trkpt lat="43.63104" lon="5.31499">
        <ele>280.20001220703</ele>
        <time>2022-03-19T13:44:42.000Z</time>
      </trkpt>
      <trkpt lat="43.63102" lon="5.31504">
        <ele>280.20001220703</ele>
        <time>2022-03-19T13:44:43.000Z</time>
      </trkpt>
      <trkpt lat="43.63101" lon="5.31509">
        <ele>280</ele>
        <time>2022-03-19T13:44:44.000Z</time>
      </trkpt>
      <trkpt lat="43.631" lon="5.31514">
        <ele>280.20001220703</ele>
        <time>2022-03-19T13:44:45.000Z</time>
      </trkpt>
      <trkpt lat="43.63099" lon="5.31519">
        <ele>280.39999389648</ele>
        <time>2022-03-19T13:44:46.000Z</time>
      </trkpt>
      <trkpt lat="43.63099" lon="5.31524">
        <ele>280.39999389648</ele>
        <time>2022-03-19T13:44:47.000Z</time>
      </trkpt>
      <trkpt lat="43.63108" lon="5.31533">
        <ele>281.20001220703</ele>
        <time>2022-03-19T13:44:51.000Z</time>
      </trkpt>
      <trkpt lat="43.63127" lon="5.3154">
        <ele>282</ele>
        <time>2022-03-19T13:44:56.000Z</time>
      </trkpt>
      <trkpt lat="43.63131" lon="5.31541">
        <ele>282.20001220703</ele>
        <time>2022-03-19T13:44:57.000Z</time>
      </trkpt>
      <trkpt lat="43.63135" lon="5.31541">
        <ele>282.39999389648</ele>
        <time>2022-03-19T13:44:58.000Z</time>
      </trkpt>
      <trkpt lat="43.63139" lon="5.31542">
        <ele>282.60000610352</ele>
        <time>2022-03-19T13:44:59.000Z</time>
      </trkpt>
      <trkpt lat="43.63142" lon="5.31544">
        <ele>282.79998779297</ele>
        <time>2022-03-19T13:45:00.000Z</time>
      </trkpt>
      <trkpt lat="43.63145" lon="5.31547">
        <ele>283</ele>
        <time>2022-03-19T13:45:01.000Z</time>
      </trkpt>
      <trkpt lat="43.6315" lon="5.31552">
        <ele>283.39999389648</ele>
        <time>2022-03-19T13:45:03.000Z</time>
      </trkpt>
      <trkpt lat="43.63151" lon="5.31555">
        <ele>283.39999389648</ele>
        <time>2022-03-19T13:45:04.000Z</time>
      </trkpt>
      <trkpt lat="43.63153" lon="5.31559">
        <ele>283.60000610352</ele>
        <time>2022-03-19T13:45:05.000Z</time>
      </trkpt>
      <trkpt lat="43.63155" lon="5.31562">
        <ele>283.79998779297</ele>
        <time>2022-03-19T13:45:06.000Z</time>
      </trkpt>
      <trkpt lat="43.63157" lon="5.31566">
        <ele>284</ele>
        <time>2022-03-19T13:45:07.000Z</time>
      </trkpt>
      <trkpt lat="43.63159" lon="5.3157">
        <ele>284.20001220703</ele>
        <time>2022-03-19T13:45:08.000Z</time>
      </trkpt>
      <trkpt lat="43.63165" lon="5.3159">
        <ele>284.60000610352</ele>
        <time>2022-03-19T13:45:13.000Z</time>
      </trkpt>
      <trkpt lat="43.6316" lon="5.31604">
        <ele>284.20001220703</ele>
        <time>2022-03-19T13:45:17.000Z</time>
      </trkpt>
      <trkpt lat="43.63148" lon="5.31604">
        <ele>283.39999389648</ele>
        <time>2022-03-19T13:45:20.000Z</time>
      </trkpt>
      <trkpt lat="43.63145" lon="5.31602">
        <ele>283.20001220703</ele>
        <time>2022-03-19T13:45:21.000Z</time>
      </trkpt>
      <trkpt lat="43.63142" lon="5.31602">
        <ele>283</ele>
        <time>2022-03-19T13:45:22.000Z</time>
      </trkpt>
      <trkpt lat="43.63139" lon="5.31602">
        <ele>283</ele>
        <time>2022-03-19T13:45:23.000Z</time>
      </trkpt>
      <trkpt lat="43.63136" lon="5.31602">
        <ele>283</ele>
        <time>2022-03-19T13:45:24.000Z</time>
      </trkpt>
      <trkpt lat="43.63134" lon="5.31601">
        <ele>282.79998779297</ele>
        <time>2022-03-19T13:45:25.000Z</time>
      </trkpt>
      <trkpt lat="43.63132" lon="5.31601">
        <ele>282.79998779297</ele>
        <time>2022-03-19T13:45:27.000Z</time>
      </trkpt>
      <trkpt lat="43.6313" lon="5.316">
        <ele>282.79998779297</ele>
        <time>2022-03-19T13:45:29.000Z</time>
      </trkpt>
      <trkpt lat="43.63128" lon="5.316">
        <ele>282.60000610352</ele>
        <time>2022-03-19T13:45:31.000Z</time>
      </trkpt>
      <trkpt lat="43.63118" lon="5.31604">
        <ele>282.20001220703</ele>
        <time>2022-03-19T13:45:35.000Z</time>
      </trkpt>
      <trkpt lat="43.63108" lon="5.31605">
        <ele>281.60000610352</ele>
        <time>2022-03-19T13:45:38.000Z</time>
      </trkpt>
      <trkpt lat="43.63106" lon="5.31609">
        <ele>281.39999389648</ele>
        <time>2022-03-19T13:45:39.000Z</time>
      </trkpt>
      <trkpt lat="43.63106" lon="5.31613">
        <ele>281.39999389648</ele>
        <time>2022-03-19T13:45:40.000Z</time>
      </trkpt>
      <trkpt lat="43.63106" lon="5.31618">
        <ele>281.39999389648</ele>
        <time>2022-03-19T13:45:41.000Z</time>
      </trkpt>
      <trkpt lat="43.63107" lon="5.31622">
        <ele>281.39999389648</ele>
        <time>2022-03-19T13:45:42.000Z</time>
      </trkpt>
      <trkpt lat="43.63105" lon="5.31643">
        <ele>281</ele>
        <time>2022-03-19T13:45:46.000Z</time>
      </trkpt>
      <trkpt lat="43.63099" lon="5.31665">
        <ele>280.39999389648</ele>
        <time>2022-03-19T13:45:51.000Z</time>
      </trkpt>
      <trkpt lat="43.63097" lon="5.31672">
        <ele>280.20001220703</ele>
        <time>2022-03-19T13:45:53.000Z</time>
      </trkpt>
      <trkpt lat="43.63095" lon="5.31674">
        <ele>279.79998779297</ele>
        <time>2022-03-19T13:45:54.000Z</time>
      </trkpt>
      <trkpt lat="43.63093" lon="5.31677">
        <ele>279.60000610352</ele>
        <time>2022-03-19T13:45:55.000Z</time>
      </trkpt>
      <trkpt lat="43.63088" lon="5.31687">
        <ele>279.20001220703</ele>
        <time>2022-03-19T13:45:58.000Z</time>
      </trkpt>
      <trkpt lat="43.63084" lon="5.31702">
        <ele>279</ele>
        <time>2022-03-19T13:46:02.000Z</time>
      </trkpt>
      <trkpt lat="43.63082" lon="5.31712">
        <ele>279.20001220703</ele>
        <time>2022-03-19T13:46:04.000Z</time>
      </trkpt>
      <trkpt lat="43.63078" lon="5.31729">
        <ele>278.79998779297</ele>
        <time>2022-03-19T13:46:07.000Z</time>
      </trkpt>
      <trkpt lat="43.6307" lon="5.31755">
        <ele>279.20001220703</ele>
        <time>2022-03-19T13:46:12.000Z</time>
      </trkpt>
      <trkpt lat="43.63066" lon="5.31785">
        <ele>281.60000610352</ele>
        <time>2022-03-19T13:46:18.000Z</time>
      </trkpt>
      <trkpt lat="43.63064" lon="5.31816">
        <ele>283.60000610352</ele>
        <time>2022-03-19T13:46:24.000Z</time>
      </trkpt>
      <trkpt lat="43.63064" lon="5.31842">
        <ele>284.39999389648</ele>
        <time>2022-03-19T13:46:29.000Z</time>
      </trkpt>
      <trkpt lat="43.63064" lon="5.31864">
        <ele>285</ele>
        <time>2022-03-19T13:46:34.000Z</time>
      </trkpt>
      <trkpt lat="43.63064" lon="5.31868">
        <ele>285</ele>
        <time>2022-03-19T13:46:35.000Z</time>
      </trkpt>
      <trkpt lat="43.63063" lon="5.31872">
        <ele>285</ele>
        <time>2022-03-19T13:46:36.000Z</time>
      </trkpt>
      <trkpt lat="43.63063" lon="5.31876">
        <ele>285</ele>
        <time>2022-03-19T13:46:37.000Z</time>
      </trkpt>
      <trkpt lat="43.63062" lon="5.31879">
        <ele>285</ele>
        <time>2022-03-19T13:46:38.000Z</time>
      </trkpt>
      <trkpt lat="43.63059" lon="5.31891">
        <ele>285</ele>
        <time>2022-03-19T13:46:41.000Z</time>
      </trkpt>
      <trkpt lat="43.63052" lon="5.31906">
        <ele>285</ele>
        <time>2022-03-19T13:46:46.000Z</time>
      </trkpt>
      <trkpt lat="43.6305" lon="5.31916">
        <ele>284.60000610352</ele>
        <time>2022-03-19T13:46:51.000Z</time>
      </trkpt>
      <trkpt lat="43.6305" lon="5.31922">
        <ele>284.39999389648</ele>
        <time>2022-03-19T13:46:54.000Z</time>
      </trkpt>
      <trkpt lat="43.63053" lon="5.31931">
        <ele>284</ele>
        <time>2022-03-19T13:46:57.000Z</time>
      </trkpt>
      <trkpt lat="43.63062" lon="5.3195">
        <ele>284</ele>
        <time>2022-03-19T13:47:02.000Z</time>
      </trkpt>
      <trkpt lat="43.63063" lon="5.31955">
        <ele>284.20001220703</ele>
        <time>2022-03-19T13:47:03.000Z</time>
      </trkpt>
      <trkpt lat="43.63061" lon="5.31965">
        <ele>284</ele>
        <time>2022-03-19T13:47:05.000Z</time>
      </trkpt>
      <trkpt lat="43.63049" lon="5.31984">
        <ele>282.79998779297</ele>
        <time>2022-03-19T13:47:09.000Z</time>
      </trkpt>
      <trkpt lat="43.63047" lon="5.31989">
        <ele>282.39999389648</ele>
        <time>2022-03-19T13:47:10.000Z</time>
      </trkpt>
      <trkpt lat="43.63041" lon="5.31998">
        <ele>281.79998779297</ele>
        <time>2022-03-19T13:47:12.000Z</time>
      </trkpt>
      <trkpt lat="43.63035" lon="5.32008">
        <ele>281.79998779297</ele>
        <time>2022-03-19T13:47:14.000Z</time>
      </trkpt>
      <trkpt lat="43.63033" lon="5.32013">
        <ele>281.79998779297</ele>
        <time>2022-03-19T13:47:15.000Z</time>
      </trkpt>
      <trkpt lat="43.63026" lon="5.32027">
        <ele>281.39999389648</ele>
        <time>2022-03-19T13:47:19.000Z</time>
      </trkpt>
      <trkpt lat="43.63018" lon="5.32044">
        <ele>280.79998779297</ele>
        <time>2022-03-19T13:47:24.000Z</time>
      </trkpt>
      <trkpt lat="43.63006" lon="5.32076">
        <ele>281.20001220703</ele>
        <time>2022-03-19T13:47:30.000Z</time>
      </trkpt>
      <trkpt lat="43.62996" lon="5.32096">
        <ele>282.20001220703</ele>
        <time>2022-03-19T13:47:35.000Z</time>
      </trkpt>
      <trkpt lat="43.62989" lon="5.32115">
        <ele>282.39999389648</ele>
        <time>2022-03-19T13:47:40.000Z</time>
      </trkpt>
      <trkpt lat="43.62982" lon="5.32131">
        <ele>282.60000610352</ele>
        <time>2022-03-19T13:47:44.000Z</time>
      </trkpt>
      <trkpt lat="43.62981" lon="5.32134">
        <ele>282.79998779297</ele>
        <time>2022-03-19T13:47:45.000Z</time>
      </trkpt>
      <trkpt lat="43.6298" lon="5.32138">
        <ele>282.79998779297</ele>
        <time>2022-03-19T13:47:46.000Z</time>
      </trkpt>
      <trkpt lat="43.62978" lon="5.32142">
        <ele>282.79998779297</ele>
        <time>2022-03-19T13:47:47.000Z</time>
      </trkpt>
      <trkpt lat="43.62974" lon="5.3216">
        <ele>283.60000610352</ele>
        <time>2022-03-19T13:47:52.000Z</time>
      </trkpt>
      <trkpt lat="43.62968" lon="5.32186">
        <ele>284.39999389648</ele>
        <time>2022-03-19T13:47:58.000Z</time>
      </trkpt>
      <trkpt lat="43.6296" lon="5.32209">
        <ele>285.60000610352</ele>
        <time>2022-03-19T13:48:04.000Z</time>
      </trkpt>
      <trkpt lat="43.62956" lon="5.32227">
        <ele>285.79998779297</ele>
        <time>2022-03-19T13:48:09.000Z</time>
      </trkpt>
      <trkpt lat="43.62952" lon="5.32245">
        <ele>285.39999389648</ele>
        <time>2022-03-19T13:48:15.000Z</time>
      </trkpt>
      <trkpt lat="43.62951" lon="5.32247">
        <ele>285.39999389648</ele>
        <time>2022-03-19T13:48:16.000Z</time>
      </trkpt>
      <trkpt lat="43.62951" lon="5.32249">
        <ele>285.20001220703</ele>
        <time>2022-03-19T13:48:17.000Z</time>
      </trkpt>
      <trkpt lat="43.62951" lon="5.32251">
        <ele>285.20001220703</ele>
        <time>2022-03-19T13:48:18.000Z</time>
      </trkpt>
      <trkpt lat="43.62951" lon="5.32254">
        <ele>285.39999389648</ele>
        <time>2022-03-19T13:48:19.000Z</time>
      </trkpt>
      <trkpt lat="43.62951" lon="5.32257">
        <ele>285.39999389648</ele>
        <time>2022-03-19T13:48:20.000Z</time>
      </trkpt>
      <trkpt lat="43.62952" lon="5.32262">
        <ele>285.39999389648</ele>
        <time>2022-03-19T13:48:21.000Z</time>
      </trkpt>
      <trkpt lat="43.62958" lon="5.32273">
        <ele>286</ele>
        <time>2022-03-19T13:48:25.000Z</time>
      </trkpt>
      <trkpt lat="43.62958" lon="5.32277">
        <ele>286.39999389648</ele>
        <time>2022-03-19T13:48:26.000Z</time>
      </trkpt>
      <trkpt lat="43.62957" lon="5.32282">
        <ele>286.60000610352</ele>
        <time>2022-03-19T13:48:27.000Z</time>
      </trkpt>
      <trkpt lat="43.62956" lon="5.32285">
        <ele>286.60000610352</ele>
        <time>2022-03-19T13:48:28.000Z</time>
      </trkpt>
      <trkpt lat="43.62955" lon="5.32288">
        <ele>286.60000610352</ele>
        <time>2022-03-19T13:48:29.000Z</time>
      </trkpt>
      <trkpt lat="43.62954" lon="5.32291">
        <ele>286.60000610352</ele>
        <time>2022-03-19T13:48:30.000Z</time>
      </trkpt>
      <trkpt lat="43.62953" lon="5.32302">
        <ele>286.79998779297</ele>
        <time>2022-03-19T13:48:35.000Z</time>
      </trkpt>
      <trkpt lat="43.62952" lon="5.32312">
        <ele>287</ele>
        <time>2022-03-19T13:48:39.000Z</time>
      </trkpt>
      <trkpt lat="43.62952" lon="5.32314">
        <ele>287</ele>
        <time>2022-03-19T13:48:40.000Z</time>
      </trkpt>
      <trkpt lat="43.62953" lon="5.32323">
        <ele>287.60000610352</ele>
        <time>2022-03-19T13:48:44.000Z</time>
      </trkpt>
      <trkpt lat="43.62955" lon="5.32327">
        <ele>288</ele>
        <time>2022-03-19T13:48:45.000Z</time>
      </trkpt>
      <trkpt lat="43.62957" lon="5.32331">
        <ele>288.39999389648</ele>
        <time>2022-03-19T13:48:46.000Z</time>
      </trkpt>
      <trkpt lat="43.6296" lon="5.32333">
        <ele>288.60000610352</ele>
        <time>2022-03-19T13:48:47.000Z</time>
      </trkpt>
      <trkpt lat="43.62962" lon="5.32335">
        <ele>289</ele>
        <time>2022-03-19T13:48:48.000Z</time>
      </trkpt>
      <trkpt lat="43.62967" lon="5.32339">
        <ele>289.79998779297</ele>
        <time>2022-03-19T13:48:50.000Z</time>
      </trkpt>
      <trkpt lat="43.62976" lon="5.3235">
        <ele>291</ele>
        <time>2022-03-19T13:48:54.000Z</time>
      </trkpt>
      <trkpt lat="43.62977" lon="5.32354">
        <ele>291.20001220703</ele>
        <time>2022-03-19T13:48:55.000Z</time>
      </trkpt>
      <trkpt lat="43.62978" lon="5.32357">
        <ele>291.39999389648</ele>
        <time>2022-03-19T13:48:56.000Z</time>
      </trkpt>
      <trkpt lat="43.62979" lon="5.32361">
        <ele>291.20001220703</ele>
        <time>2022-03-19T13:48:57.000Z</time>
      </trkpt>
      <trkpt lat="43.62979" lon="5.32365">
        <ele>291</ele>
        <time>2022-03-19T13:48:58.000Z</time>
      </trkpt>
      <trkpt lat="43.62979" lon="5.32376">
        <ele>290.79998779297</ele>
        <time>2022-03-19T13:49:01.000Z</time>
      </trkpt>
      <trkpt lat="43.6298" lon="5.32379">
        <ele>290.79998779297</ele>
        <time>2022-03-19T13:49:02.000Z</time>
      </trkpt>
      <trkpt lat="43.62981" lon="5.32383">
        <ele>290.79998779297</ele>
        <time>2022-03-19T13:49:03.000Z</time>
      </trkpt>
      <trkpt lat="43.62983" lon="5.32387">
        <ele>291</ele>
        <time>2022-03-19T13:49:04.000Z</time>
      </trkpt>
      <trkpt lat="43.62985" lon="5.32391">
        <ele>291.20001220703</ele>
        <time>2022-03-19T13:49:05.000Z</time>
      </trkpt>
      <trkpt lat="43.62987" lon="5.32394">
        <ele>291.60000610352</ele>
        <time>2022-03-19T13:49:06.000Z</time>
      </trkpt>
      <trkpt lat="43.63006" lon="5.32414">
        <ele>294.20001220703</ele>
        <time>2022-03-19T13:49:14.000Z</time>
      </trkpt>
      <trkpt lat="43.63009" lon="5.32416">
        <ele>294.60000610352</ele>
        <time>2022-03-19T13:49:15.000Z</time>
      </trkpt>
      <trkpt lat="43.63012" lon="5.32417">
        <ele>294.79998779297</ele>
        <time>2022-03-19T13:49:16.000Z</time>
      </trkpt>
      <trkpt lat="43.63015" lon="5.32419">
        <ele>295</ele>
        <time>2022-03-19T13:49:17.000Z</time>
      </trkpt>
      <trkpt lat="43.63016" lon="5.32421">
        <ele>295.20001220703</ele>
        <time>2022-03-19T13:49:18.000Z</time>
      </trkpt>
      <trkpt lat="43.63018" lon="5.32423">
        <ele>295.20001220703</ele>
        <time>2022-03-19T13:49:19.000Z</time>
      </trkpt>
      <trkpt lat="43.6302" lon="5.32425">
        <ele>295.39999389648</ele>
        <time>2022-03-19T13:49:22.000Z</time>
      </trkpt>
      <trkpt lat="43.6302" lon="5.32425">
        <ele>295.39999389648</ele>
        <time>2022-03-19T13:49:23.000Z</time>
      </trkpt>
      <trkpt lat="43.6302" lon="5.32425">
        <ele>295.39999389648</ele>
        <time>2022-03-19T13:49:24.000Z</time>
      </trkpt>
      <trkpt lat="43.6302" lon="5.32425">
        <ele>295.39999389648</ele>
        <time>2022-03-19T13:49:25.000Z</time>
      </trkpt>
      <trkpt lat="43.6302" lon="5.32426">
        <ele>295.39999389648</ele>
        <time>2022-03-19T13:49:26.000Z</time>
      </trkpt>
      <trkpt lat="43.63018" lon="5.3243">
        <ele>295</ele>
        <time>2022-03-19T13:49:28.000Z</time>
      </trkpt>
      <trkpt lat="43.63014" lon="5.3244">
        <ele>294.79998779297</ele>
        <time>2022-03-19T13:49:32.000Z</time>
      </trkpt>
      <trkpt lat="43.63014" lon="5.32442">
        <ele>294.79998779297</ele>
        <time>2022-03-19T13:49:33.000Z</time>
      </trkpt>
      <trkpt lat="43.63012" lon="5.32452">
        <ele>295.20001220703</ele>
        <time>2022-03-19T13:49:36.000Z</time>
      </trkpt>
      <trkpt lat="43.63004" lon="5.32472">
        <ele>296.20001220703</ele>
        <time>2022-03-19T13:49:42.000Z</time>
      </trkpt>
      <trkpt lat="43.62992" lon="5.32495">
        <ele>296.60000610352</ele>
        <time>2022-03-19T13:49:49.000Z</time>
      </trkpt>
      <trkpt lat="43.62979" lon="5.32518">
        <ele>297.20001220703</ele>
        <time>2022-03-19T13:49:56.000Z</time>
      </trkpt>
      <trkpt lat="43.62977" lon="5.32521">
        <ele>297.20001220703</ele>
        <time>2022-03-19T13:49:57.000Z</time>
      </trkpt>
      <trkpt lat="43.62976" lon="5.32524">
        <ele>297.20001220703</ele>
        <time>2022-03-19T13:49:58.000Z</time>
      </trkpt>
      <trkpt lat="43.62975" lon="5.32528">
        <ele>297.20001220703</ele>
        <time>2022-03-19T13:49:59.000Z</time>
      </trkpt>
      <trkpt lat="43.62975" lon="5.3253">
        <ele>297.20001220703</ele>
        <time>2022-03-19T13:50:00.000Z</time>
      </trkpt>
      <trkpt lat="43.62974" lon="5.32533">
        <ele>297.20001220703</ele>
        <time>2022-03-19T13:50:01.000Z</time>
      </trkpt>
      <trkpt lat="43.62972" lon="5.32536">
        <ele>297.39999389648</ele>
        <time>2022-03-19T13:50:02.000Z</time>
      </trkpt>
      <trkpt lat="43.62971" lon="5.32538">
        <ele>297.39999389648</ele>
        <time>2022-03-19T13:50:03.000Z</time>
      </trkpt>
      <trkpt lat="43.6297" lon="5.32539">
        <ele>297.39999389648</ele>
        <time>2022-03-19T13:50:04.000Z</time>
      </trkpt>
      <trkpt lat="43.62968" lon="5.3254">
        <ele>297.39999389648</ele>
        <time>2022-03-19T13:50:05.000Z</time>
      </trkpt>
      <trkpt lat="43.62967" lon="5.32542">
        <ele>297.39999389648</ele>
        <time>2022-03-19T13:50:06.000Z</time>
      </trkpt>
      <trkpt lat="43.62963" lon="5.32552">
        <ele>297.20001220703</ele>
        <time>2022-03-19T13:50:09.000Z</time>
      </trkpt>
      <trkpt lat="43.62957" lon="5.32561">
        <ele>297</ele>
        <time>2022-03-19T13:50:14.000Z</time>
      </trkpt>
      <trkpt lat="43.62956" lon="5.32561">
        <ele>297</ele>
        <time>2022-03-19T13:50:20.000Z</time>
      </trkpt>
      <trkpt lat="43.62956" lon="5.32563">
        <ele>296.79998779297</ele>
        <time>2022-03-19T13:50:22.000Z</time>
      </trkpt>
      <trkpt lat="43.62956" lon="5.32563">
        <ele>296.79998779297</ele>
        <time>2022-03-19T13:50:27.000Z</time>
      </trkpt>
      <trkpt lat="43.62956" lon="5.32563">
        <ele>296.79998779297</ele>
        <time>2022-03-19T13:50:37.000Z</time>
      </trkpt>
      <trkpt lat="43.62956" lon="5.32564">
        <ele>296.79998779297</ele>
        <time>2022-03-19T13:50:45.000Z</time>
      </trkpt>
      <trkpt lat="43.62958" lon="5.32572">
        <ele>297</ele>
        <time>2022-03-19T13:50:48.000Z</time>
      </trkpt>
      <trkpt lat="43.6296" lon="5.32574">
        <ele>297.20001220703</ele>
        <time>2022-03-19T13:50:49.000Z</time>
      </trkpt>
      <trkpt lat="43.62962" lon="5.32574">
        <ele>297.60000610352</ele>
        <time>2022-03-19T13:50:50.000Z</time>
      </trkpt>
      <trkpt lat="43.62964" lon="5.32575">
        <ele>297.79998779297</ele>
        <time>2022-03-19T13:50:51.000Z</time>
      </trkpt>
      <trkpt lat="43.62965" lon="5.32575">
        <ele>297.79998779297</ele>
        <time>2022-03-19T13:50:52.000Z</time>
      </trkpt>
      <trkpt lat="43.62965" lon="5.32575">
        <ele>297.79998779297</ele>
        <time>2022-03-19T13:50:53.000Z</time>
      </trkpt>
      <trkpt lat="43.62967" lon="5.32576">
        <ele>298</ele>
        <time>2022-03-19T13:50:58.000Z</time>
      </trkpt>
      <trkpt lat="43.62967" lon="5.32578">
        <ele>298</ele>
        <time>2022-03-19T13:50:59.000Z</time>
      </trkpt>
      <trkpt lat="43.62964" lon="5.32594">
        <ele>297.20001220703</ele>
        <time>2022-03-19T13:51:04.000Z</time>
      </trkpt>
      <trkpt lat="43.62963" lon="5.32598">
        <ele>297</ele>
        <time>2022-03-19T13:51:05.000Z</time>
      </trkpt>
      <trkpt lat="43.62956" lon="5.3262">
        <ele>296.39999389648</ele>
        <time>2022-03-19T13:51:09.000Z</time>
      </trkpt>
      <trkpt lat="43.62955" lon="5.32625">
        <ele>296</ele>
        <time>2022-03-19T13:51:10.000Z</time>
      </trkpt>
      <trkpt lat="43.62953" lon="5.32631">
        <ele>295.60000610352</ele>
        <time>2022-03-19T13:51:11.000Z</time>
      </trkpt>
      <trkpt lat="43.62951" lon="5.32637">
        <ele>295.39999389648</ele>
        <time>2022-03-19T13:51:12.000Z</time>
      </trkpt>
      <trkpt lat="43.62949" lon="5.32642">
        <ele>295.60000610352</ele>
        <time>2022-03-19T13:51:13.000Z</time>
      </trkpt>
      <trkpt lat="43.62942" lon="5.32655">
        <ele>295.79998779297</ele>
        <time>2022-03-19T13:51:16.000Z</time>
      </trkpt>
      <trkpt lat="43.6294" lon="5.3266">
        <ele>295.79998779297</ele>
        <time>2022-03-19T13:51:17.000Z</time>
      </trkpt>
      <trkpt lat="43.62933" lon="5.32681">
        <ele>295.79998779297</ele>
        <time>2022-03-19T13:51:22.000Z</time>
      </trkpt>
      <trkpt lat="43.62924" lon="5.3271">
        <ele>296.79998779297</ele>
        <time>2022-03-19T13:51:28.000Z</time>
      </trkpt>
      <trkpt lat="43.62918" lon="5.32738">
        <ele>297.39999389648</ele>
        <time>2022-03-19T13:51:34.000Z</time>
      </trkpt>
      <trkpt lat="43.62917" lon="5.32752">
        <ele>297.79998779297</ele>
        <time>2022-03-19T13:51:37.000Z</time>
      </trkpt>
      <trkpt lat="43.62915" lon="5.3276">
        <ele>297.79998779297</ele>
        <time>2022-03-19T13:51:39.000Z</time>
      </trkpt>
      <trkpt lat="43.62911" lon="5.32771">
        <ele>297.79998779297</ele>
        <time>2022-03-19T13:51:42.000Z</time>
      </trkpt>
      <trkpt lat="43.62907" lon="5.32784">
        <ele>298</ele>
        <time>2022-03-19T13:51:45.000Z</time>
      </trkpt>
      <trkpt lat="43.62898" lon="5.32814">
        <ele>297.79998779297</ele>
        <time>2022-03-19T13:51:52.000Z</time>
      </trkpt>
      <trkpt lat="43.62887" lon="5.32842">
        <ele>298.60000610352</ele>
        <time>2022-03-19T13:51:59.000Z</time>
      </trkpt>
      <trkpt lat="43.62878" lon="5.32866">
        <ele>298.20001220703</ele>
        <time>2022-03-19T13:52:05.000Z</time>
      </trkpt>
      <trkpt lat="43.62876" lon="5.3287">
        <ele>298</ele>
        <time>2022-03-19T13:52:06.000Z</time>
      </trkpt>
      <trkpt lat="43.62874" lon="5.32875">
        <ele>298</ele>
        <time>2022-03-19T13:52:07.000Z</time>
      </trkpt>
      <trkpt lat="43.62873" lon="5.32879">
        <ele>298.20001220703</ele>
        <time>2022-03-19T13:52:08.000Z</time>
      </trkpt>
      <trkpt lat="43.62872" lon="5.32883">
        <ele>298.20001220703</ele>
        <time>2022-03-19T13:52:09.000Z</time>
      </trkpt>
      <trkpt lat="43.62871" lon="5.32888">
        <ele>298.39999389648</ele>
        <time>2022-03-19T13:52:10.000Z</time>
      </trkpt>
      <trkpt lat="43.62866" lon="5.32908">
        <ele>299</ele>
        <time>2022-03-19T13:52:15.000Z</time>
      </trkpt>
      <trkpt lat="43.62859" lon="5.32925">
        <ele>299.20001220703</ele>
        <time>2022-03-19T13:52:20.000Z</time>
      </trkpt>
      <trkpt lat="43.62859" lon="5.32928">
        <ele>299.39999389648</ele>
        <time>2022-03-19T13:52:21.000Z</time>
      </trkpt>
      <trkpt lat="43.62856" lon="5.32936">
        <ele>299.39999389648</ele>
        <time>2022-03-19T13:52:25.000Z</time>
      </trkpt>
      <trkpt lat="43.62855" lon="5.32939">
        <ele>299.60000610352</ele>
        <time>2022-03-19T13:52:26.000Z</time>
      </trkpt>
      <trkpt lat="43.62855" lon="5.32941">
        <ele>299.79998779297</ele>
        <time>2022-03-19T13:52:27.000Z</time>
      </trkpt>
      <trkpt lat="43.62855" lon="5.32943">
        <ele>300</ele>
        <time>2022-03-19T13:52:28.000Z</time>
      </trkpt>
      <trkpt lat="43.62854" lon="5.32945">
        <ele>300</ele>
        <time>2022-03-19T13:52:29.000Z</time>
      </trkpt>
      <trkpt lat="43.62855" lon="5.32946">
        <ele>300.20001220703</ele>
        <time>2022-03-19T13:52:31.000Z</time>
      </trkpt>
      <trkpt lat="43.62854" lon="5.32953">
        <ele>300.79998779297</ele>
        <time>2022-03-19T13:52:34.000Z</time>
      </trkpt>
      <trkpt lat="43.62851" lon="5.32956">
        <ele>300.60000610352</ele>
        <time>2022-03-19T13:52:36.000Z</time>
      </trkpt>
      <trkpt lat="43.62846" lon="5.32968">
        <ele>300</ele>
        <time>2022-03-19T13:52:40.000Z</time>
      </trkpt>
      <trkpt lat="43.6284" lon="5.32978">
        <ele>299.39999389648</ele>
        <time>2022-03-19T13:52:43.000Z</time>
      </trkpt>
      <trkpt lat="43.62838" lon="5.32996">
        <ele>300.20001220703</ele>
        <time>2022-03-19T13:52:47.000Z</time>
      </trkpt>
      <trkpt lat="43.62834" lon="5.33023">
        <ele>299.79998779297</ele>
        <time>2022-03-19T13:52:53.000Z</time>
      </trkpt>
      <trkpt lat="43.62836" lon="5.33042">
        <ele>300.60000610352</ele>
        <time>2022-03-19T13:52:58.000Z</time>
      </trkpt>
      <trkpt lat="43.6284" lon="5.33058">
        <ele>301.39999389648</ele>
        <time>2022-03-19T13:53:03.000Z</time>
      </trkpt>
      <trkpt lat="43.62841" lon="5.33074">
        <ele>301.39999389648</ele>
        <time>2022-03-19T13:53:07.000Z</time>
      </trkpt>
      <trkpt lat="43.62839" lon="5.33095">
        <ele>301.20001220703</ele>
        <time>2022-03-19T13:53:12.000Z</time>
      </trkpt>
      <trkpt lat="43.62836" lon="5.33115">
        <ele>301.60000610352</ele>
        <time>2022-03-19T13:53:18.000Z</time>
      </trkpt>
      <trkpt lat="43.62832" lon="5.33133">
        <ele>302.60000610352</ele>
        <time>2022-03-19T13:53:23.000Z</time>
      </trkpt>
      <trkpt lat="43.62831" lon="5.33139">
        <ele>303.20001220703</ele>
        <time>2022-03-19T13:53:28.000Z</time>
      </trkpt>
      <trkpt lat="43.62831" lon="5.33139">
        <ele>303.20001220703</ele>
        <time>2022-03-19T13:53:37.000Z</time>
      </trkpt>
      <trkpt lat="43.62831" lon="5.33139">
        <ele>303.20001220703</ele>
        <time>2022-03-19T13:53:46.000Z</time>
      </trkpt>
      <trkpt lat="43.62831" lon="5.33139">
        <ele>303.20001220703</ele>
        <time>2022-03-19T13:53:57.000Z</time>
      </trkpt>
      <trkpt lat="43.62831" lon="5.33139">
        <ele>303.20001220703</ele>
        <time>2022-03-19T13:54:08.000Z</time>
      </trkpt>
      <trkpt lat="43.62831" lon="5.33139">
        <ele>303.20001220703</ele>
        <time>2022-03-19T13:54:23.000Z</time>
      </trkpt>
      <trkpt lat="43.62832" lon="5.3314">
        <ele>303.20001220703</ele>
        <time>2022-03-19T13:54:32.000Z</time>
      </trkpt>
      <trkpt lat="43.62832" lon="5.3314">
        <ele>303.20001220703</ele>
        <time>2022-03-19T13:54:44.000Z</time>
      </trkpt>
      <trkpt lat="43.62833" lon="5.33146">
        <ele>304</ele>
        <time>2022-03-19T13:54:48.000Z</time>
      </trkpt>
      <trkpt lat="43.62833" lon="5.33149">
        <ele>304.20001220703</ele>
        <time>2022-03-19T13:54:49.000Z</time>
      </trkpt>
      <trkpt lat="43.62833" lon="5.33152">
        <ele>304.60000610352</ele>
        <time>2022-03-19T13:54:50.000Z</time>
      </trkpt>
      <trkpt lat="43.6283" lon="5.33158">
        <ele>305</ele>
        <time>2022-03-19T13:54:53.000Z</time>
      </trkpt>
      <trkpt lat="43.62826" lon="5.33164">
        <ele>305</ele>
        <time>2022-03-19T13:54:57.000Z</time>
      </trkpt>
      <trkpt lat="43.62816" lon="5.3317">
        <ele>304.60000610352</ele>
        <time>2022-03-19T13:55:00.000Z</time>
      </trkpt>
      <trkpt lat="43.62815" lon="5.33174">
        <ele>305</ele>
        <time>2022-03-19T13:55:01.000Z</time>
      </trkpt>
      <trkpt lat="43.62809" lon="5.33183">
        <ele>305.20001220703</ele>
        <time>2022-03-19T13:55:03.000Z</time>
      </trkpt>
      <trkpt lat="43.62804" lon="5.33193">
        <ele>305.79998779297</ele>
        <time>2022-03-19T13:55:05.000Z</time>
      </trkpt>
      <trkpt lat="43.62801" lon="5.33199">
        <ele>306.20001220703</ele>
        <time>2022-03-19T13:55:07.000Z</time>
      </trkpt>
      <trkpt lat="43.62795" lon="5.33213">
        <ele>306.60000610352</ele>
        <time>2022-03-19T13:55:12.000Z</time>
      </trkpt>
      <trkpt lat="43.62795" lon="5.33213">
        <ele>306.60000610352</ele>
        <time>2022-03-19T13:55:13.000Z</time>
      </trkpt>
      <trkpt lat="43.62793" lon="5.33213">
        <ele>306.39999389648</ele>
        <time>2022-03-19T13:55:14.000Z</time>
      </trkpt>
      <trkpt lat="43.62791" lon="5.33214">
        <ele>306.20001220703</ele>
        <time>2022-03-19T13:55:15.000Z</time>
      </trkpt>
      <trkpt lat="43.62787" lon="5.33214">
        <ele>305.60000610352</ele>
        <time>2022-03-19T13:55:16.000Z</time>
      </trkpt>
      <trkpt lat="43.62765" lon="5.33218">
        <ele>304.39999389648</ele>
        <time>2022-03-19T13:55:21.000Z</time>
      </trkpt>
      <trkpt lat="43.62749" lon="5.33223">
        <ele>304.20001220703</ele>
        <time>2022-03-19T13:55:25.000Z</time>
      </trkpt>
      <trkpt lat="43.62738" lon="5.33223">
        <ele>303.79998779297</ele>
        <time>2022-03-19T13:55:27.000Z</time>
      </trkpt>
      <trkpt lat="43.6273" lon="5.33228">
        <ele>304</ele>
        <time>2022-03-19T13:55:29.000Z</time>
      </trkpt>
      <trkpt lat="43.62717" lon="5.33245">
        <ele>304.39999389648</ele>
        <time>2022-03-19T13:55:34.000Z</time>
      </trkpt>
      <trkpt lat="43.62712" lon="5.3325">
        <ele>304.39999389648</ele>
        <time>2022-03-19T13:55:38.000Z</time>
      </trkpt>
      <trkpt lat="43.62708" lon="5.33252">
        <ele>304.39999389648</ele>
        <time>2022-03-19T13:55:41.000Z</time>
      </trkpt>
      <trkpt lat="43.62708" lon="5.33253">
        <ele>304.39999389648</ele>
        <time>2022-03-19T13:55:42.000Z</time>
      </trkpt>
      <trkpt lat="43.62708" lon="5.33253">
        <ele>304.39999389648</ele>
        <time>2022-03-19T13:55:43.000Z</time>
      </trkpt>
      <trkpt lat="43.62708" lon="5.33253">
        <ele>304.39999389648</ele>
        <time>2022-03-19T13:55:44.000Z</time>
      </trkpt>
      <trkpt lat="43.62708" lon="5.33253">
        <ele>304.39999389648</ele>
        <time>2022-03-19T13:55:45.000Z</time>
      </trkpt>
      <trkpt lat="43.62705" lon="5.33259">
        <ele>305.20001220703</ele>
        <time>2022-03-19T13:55:51.000Z</time>
      </trkpt>
      <trkpt lat="43.62703" lon="5.33264">
        <ele>305.79998779297</ele>
        <time>2022-03-19T13:55:53.000Z</time>
      </trkpt>
      <trkpt lat="43.62696" lon="5.33274">
        <ele>306.79998779297</ele>
        <time>2022-03-19T13:55:57.000Z</time>
      </trkpt>
      <trkpt lat="43.62692" lon="5.33282">
        <ele>307</ele>
        <time>2022-03-19T13:55:59.000Z</time>
      </trkpt>
      <trkpt lat="43.6269" lon="5.33286">
        <ele>307.20001220703</ele>
        <time>2022-03-19T13:56:00.000Z</time>
      </trkpt>
      <trkpt lat="43.62688" lon="5.3329">
        <ele>307.39999389648</ele>
        <time>2022-03-19T13:56:01.000Z</time>
      </trkpt>
      <trkpt lat="43.62685" lon="5.33293">
        <ele>307.39999389648</ele>
        <time>2022-03-19T13:56:02.000Z</time>
      </trkpt>
      <trkpt lat="43.62683" lon="5.33296">
        <ele>307.20001220703</ele>
        <time>2022-03-19T13:56:03.000Z</time>
      </trkpt>
      <trkpt lat="43.6267" lon="5.33312">
        <ele>306.20001220703</ele>
        <time>2022-03-19T13:56:08.000Z</time>
      </trkpt>
      <trkpt lat="43.62655" lon="5.33332">
        <ele>304.39999389648</ele>
        <time>2022-03-19T13:56:12.000Z</time>
      </trkpt>
      <trkpt lat="43.6265" lon="5.3335">
        <ele>303.79998779297</ele>
        <time>2022-03-19T13:56:15.000Z</time>
      </trkpt>
      <trkpt lat="43.62649" lon="5.33356">
        <ele>303.79998779297</ele>
        <time>2022-03-19T13:56:16.000Z</time>
      </trkpt>
      <trkpt lat="43.62648" lon="5.33362">
        <ele>304</ele>
        <time>2022-03-19T13:56:17.000Z</time>
      </trkpt>
      <trkpt lat="43.62648" lon="5.33368">
        <ele>304.20001220703</ele>
        <time>2022-03-19T13:56:18.000Z</time>
      </trkpt>
      <trkpt lat="43.62648" lon="5.33375">
        <ele>304.39999389648</ele>
        <time>2022-03-19T13:56:19.000Z</time>
      </trkpt>
      <trkpt lat="43.62649" lon="5.33382">
        <ele>305</ele>
        <time>2022-03-19T13:56:20.000Z</time>
      </trkpt>
      <trkpt lat="43.6265" lon="5.33389">
        <ele>305.60000610352</ele>
        <time>2022-03-19T13:56:21.000Z</time>
      </trkpt>
      <trkpt lat="43.62649" lon="5.33415">
        <ele>307.60000610352</ele>
        <time>2022-03-19T13:56:25.000Z</time>
      </trkpt>
      <trkpt lat="43.62648" lon="5.3342">
        <ele>308.20001220703</ele>
        <time>2022-03-19T13:56:26.000Z</time>
      </trkpt>
      <trkpt lat="43.62644" lon="5.33438">
        <ele>308.20001220703</ele>
        <time>2022-03-19T13:56:29.000Z</time>
      </trkpt>
      <trkpt lat="43.6264" lon="5.33448">
        <ele>308.20001220703</ele>
        <time>2022-03-19T13:56:31.000Z</time>
      </trkpt>
      <trkpt lat="43.62636" lon="5.3346">
        <ele>308.60000610352</ele>
        <time>2022-03-19T13:56:34.000Z</time>
      </trkpt>
      <trkpt lat="43.62634" lon="5.33463">
        <ele>308.60000610352</ele>
        <time>2022-03-19T13:56:35.000Z</time>
      </trkpt>
      <trkpt lat="43.62631" lon="5.33467">
        <ele>308.39999389648</ele>
        <time>2022-03-19T13:56:36.000Z</time>
      </trkpt>
      <trkpt lat="43.62628" lon="5.33471">
        <ele>308</ele>
        <time>2022-03-19T13:56:37.000Z</time>
      </trkpt>
      <trkpt lat="43.62625" lon="5.33475">
        <ele>307.79998779297</ele>
        <time>2022-03-19T13:56:38.000Z</time>
      </trkpt>
      <trkpt lat="43.62618" lon="5.33482">
        <ele>307.39999389648</ele>
        <time>2022-03-19T13:56:41.000Z</time>
      </trkpt>
      <trkpt lat="43.62608" lon="5.33495">
        <ele>307.60000610352</ele>
        <time>2022-03-19T13:56:46.000Z</time>
      </trkpt>
      <trkpt lat="43.62596" lon="5.33504">
        <ele>307</ele>
        <time>2022-03-19T13:56:51.000Z</time>
      </trkpt>
      <trkpt lat="43.62589" lon="5.33511">
        <ele>307.20001220703</ele>
        <time>2022-03-19T13:56:54.000Z</time>
      </trkpt>
      <trkpt lat="43.62587" lon="5.33514">
        <ele>307.39999389648</ele>
        <time>2022-03-19T13:56:55.000Z</time>
      </trkpt>
      <trkpt lat="43.6258" lon="5.33532">
        <ele>308.20001220703</ele>
        <time>2022-03-19T13:57:00.000Z</time>
      </trkpt>
      <trkpt lat="43.62572" lon="5.33551">
        <ele>308.39999389648</ele>
        <time>2022-03-19T13:57:05.000Z</time>
      </trkpt>
      <trkpt lat="43.62559" lon="5.33576">
        <ele>308.79998779297</ele>
        <time>2022-03-19T13:57:12.000Z</time>
      </trkpt>
      <trkpt lat="43.62554" lon="5.33598">
        <ele>309.79998779297</ele>
        <time>2022-03-19T13:57:17.000Z</time>
      </trkpt>
      <trkpt lat="43.62554" lon="5.33602">
        <ele>310.20001220703</ele>
        <time>2022-03-19T13:57:18.000Z</time>
      </trkpt>
      <trkpt lat="43.62553" lon="5.33606">
        <ele>310.60000610352</ele>
        <time>2022-03-19T13:57:19.000Z</time>
      </trkpt>
      <trkpt lat="43.62553" lon="5.3361">
        <ele>311</ele>
        <time>2022-03-19T13:57:20.000Z</time>
      </trkpt>
      <trkpt lat="43.62552" lon="5.33614">
        <ele>311.20001220703</ele>
        <time>2022-03-19T13:57:21.000Z</time>
      </trkpt>
      <trkpt lat="43.6255" lon="5.33631">
        <ele>312.79998779297</ele>
        <time>2022-03-19T13:57:25.000Z</time>
      </trkpt>
      <trkpt lat="43.6255" lon="5.33635">
        <ele>313</ele>
        <time>2022-03-19T13:57:26.000Z</time>
      </trkpt>
      <trkpt lat="43.62549" lon="5.33639">
        <ele>313.20001220703</ele>
        <time>2022-03-19T13:57:27.000Z</time>
      </trkpt>
      <trkpt lat="43.62549" lon="5.33643">
        <ele>313.20001220703</ele>
        <time>2022-03-19T13:57:28.000Z</time>
      </trkpt>
      <trkpt lat="43.62549" lon="5.33646">
        <ele>313.20001220703</ele>
        <time>2022-03-19T13:57:29.000Z</time>
      </trkpt>
      <trkpt lat="43.62548" lon="5.3365">
        <ele>313.39999389648</ele>
        <time>2022-03-19T13:57:30.000Z</time>
      </trkpt>
      <trkpt lat="43.62548" lon="5.33654">
        <ele>313.60000610352</ele>
        <time>2022-03-19T13:57:31.000Z</time>
      </trkpt>
      <trkpt lat="43.62554" lon="5.33668">
        <ele>314.60000610352</ele>
        <time>2022-03-19T13:57:35.000Z</time>
      </trkpt>
      <trkpt lat="43.62556" lon="5.33671">
        <ele>314.79998779297</ele>
        <time>2022-03-19T13:57:36.000Z</time>
      </trkpt>
      <trkpt lat="43.62559" lon="5.33674">
        <ele>315</ele>
        <time>2022-03-19T13:57:37.000Z</time>
      </trkpt>
      <trkpt lat="43.62561" lon="5.33676">
        <ele>315</ele>
        <time>2022-03-19T13:57:38.000Z</time>
      </trkpt>
      <trkpt lat="43.62565" lon="5.33682">
        <ele>315.20001220703</ele>
        <time>2022-03-19T13:57:40.000Z</time>
      </trkpt>
      <trkpt lat="43.62569" lon="5.33688">
        <ele>315.39999389648</ele>
        <time>2022-03-19T13:57:42.000Z</time>
      </trkpt>
      <trkpt lat="43.62572" lon="5.3369">
        <ele>315.39999389648</ele>
        <time>2022-03-19T13:57:43.000Z</time>
      </trkpt>
      <trkpt lat="43.62574" lon="5.33693">
        <ele>315.39999389648</ele>
        <time>2022-03-19T13:57:44.000Z</time>
      </trkpt>
      <trkpt lat="43.62576" lon="5.33695">
        <ele>315.39999389648</ele>
        <time>2022-03-19T13:57:45.000Z</time>
      </trkpt>
      <trkpt lat="43.62578" lon="5.33696">
        <ele>315.39999389648</ele>
        <time>2022-03-19T13:57:46.000Z</time>
      </trkpt>
      <trkpt lat="43.62581" lon="5.33694">
        <ele>315.60000610352</ele>
        <time>2022-03-19T13:57:47.000Z</time>
      </trkpt>
      <trkpt lat="43.62588" lon="5.33694">
        <ele>315.79998779297</ele>
        <time>2022-03-19T13:57:49.000Z</time>
      </trkpt>
      <trkpt lat="43.62605" lon="5.33692">
        <ele>316</ele>
        <time>2022-03-19T13:57:54.000Z</time>
      </trkpt>
      <trkpt lat="43.62608" lon="5.33692">
        <ele>316</ele>
        <time>2022-03-19T13:57:55.000Z</time>
      </trkpt>
      <trkpt lat="43.62611" lon="5.33692">
        <ele>316</ele>
        <time>2022-03-19T13:57:56.000Z</time>
      </trkpt>
      <trkpt lat="43.62613" lon="5.33691">
        <ele>316</ele>
        <time>2022-03-19T13:57:57.000Z</time>
      </trkpt>
      <trkpt lat="43.62616" lon="5.3369">
        <ele>316</ele>
        <time>2022-03-19T13:57:58.000Z</time>
      </trkpt>
      <trkpt lat="43.62619" lon="5.33688">
        <ele>316.20001220703</ele>
        <time>2022-03-19T13:57:59.000Z</time>
      </trkpt>
      <trkpt lat="43.62627" lon="5.33683">
        <ele>316.60000610352</ele>
        <time>2022-03-19T13:58:02.000Z</time>
      </trkpt>
      <trkpt lat="43.62629" lon="5.33682">
        <ele>316.79998779297</ele>
        <time>2022-03-19T13:58:03.000Z</time>
      </trkpt>
      <trkpt lat="43.62631" lon="5.33679">
        <ele>317</ele>
        <time>2022-03-19T13:58:04.000Z</time>
      </trkpt>
      <trkpt lat="43.62633" lon="5.33676">
        <ele>317.20001220703</ele>
        <time>2022-03-19T13:58:05.000Z</time>
      </trkpt>
      <trkpt lat="43.62635" lon="5.33673">
        <ele>317.60000610352</ele>
        <time>2022-03-19T13:58:06.000Z</time>
      </trkpt>
      <trkpt lat="43.62639" lon="5.33666">
        <ele>318.39999389648</ele>
        <time>2022-03-19T13:58:09.000Z</time>
      </trkpt>
      <trkpt lat="43.62642" lon="5.33664">
        <ele>318.79998779297</ele>
        <time>2022-03-19T13:58:10.000Z</time>
      </trkpt>
      <trkpt lat="43.62644" lon="5.33663">
        <ele>319</ele>
        <time>2022-03-19T13:58:11.000Z</time>
      </trkpt>
      <trkpt lat="43.62647" lon="5.33661">
        <ele>319.39999389648</ele>
        <time>2022-03-19T13:58:12.000Z</time>
      </trkpt>
      <trkpt lat="43.62651" lon="5.33659">
        <ele>319.60000610352</ele>
        <time>2022-03-19T13:58:13.000Z</time>
      </trkpt>
      <trkpt lat="43.62656" lon="5.33658">
        <ele>320.20001220703</ele>
        <time>2022-03-19T13:58:15.000Z</time>
      </trkpt>
      <trkpt lat="43.62669" lon="5.33657">
        <ele>321.20001220703</ele>
        <time>2022-03-19T13:58:20.000Z</time>
      </trkpt>
      <trkpt lat="43.62671" lon="5.33656">
        <ele>321.60000610352</ele>
        <time>2022-03-19T13:58:21.000Z</time>
      </trkpt>
      <trkpt lat="43.62674" lon="5.33654">
        <ele>321.60000610352</ele>
        <time>2022-03-19T13:58:22.000Z</time>
      </trkpt>
      <trkpt lat="43.62676" lon="5.33654">
        <ele>321.79998779297</ele>
        <time>2022-03-19T13:58:23.000Z</time>
      </trkpt>
      <trkpt lat="43.6268" lon="5.33653">
        <ele>322</ele>
        <time>2022-03-19T13:58:24.000Z</time>
      </trkpt>
      <trkpt lat="43.62686" lon="5.3365">
        <ele>322.39999389648</ele>
        <time>2022-03-19T13:58:26.000Z</time>
      </trkpt>
      <trkpt lat="43.62701" lon="5.33649">
        <ele>323</ele>
        <time>2022-03-19T13:58:31.000Z</time>
      </trkpt>
      <trkpt lat="43.6272" lon="5.33651">
        <ele>322.79998779297</ele>
        <time>2022-03-19T13:58:37.000Z</time>
      </trkpt>
      <trkpt lat="43.62738" lon="5.33656">
        <ele>322</ele>
        <time>2022-03-19T13:58:42.000Z</time>
      </trkpt>
      <trkpt lat="43.62751" lon="5.33654">
        <ele>321.79998779297</ele>
        <time>2022-03-19T13:58:46.000Z</time>
      </trkpt>
      <trkpt lat="43.62755" lon="5.33652">
        <ele>322.20001220703</ele>
        <time>2022-03-19T13:58:47.000Z</time>
      </trkpt>
      <trkpt lat="43.62758" lon="5.33651">
        <ele>322.39999389648</ele>
        <time>2022-03-19T13:58:48.000Z</time>
      </trkpt>
      <trkpt lat="43.62762" lon="5.33649">
        <ele>322.79998779297</ele>
        <time>2022-03-19T13:58:49.000Z</time>
      </trkpt>
      <trkpt lat="43.62765" lon="5.33647">
        <ele>323</ele>
        <time>2022-03-19T13:58:50.000Z</time>
      </trkpt>
      <trkpt lat="43.62775" lon="5.33644">
        <ele>323.20001220703</ele>
        <time>2022-03-19T13:58:53.000Z</time>
      </trkpt>
      <trkpt lat="43.62796" lon="5.33645">
        <ele>323.60000610352</ele>
        <time>2022-03-19T13:58:59.000Z</time>
      </trkpt>
      <trkpt lat="43.6281" lon="5.33641">
        <ele>323.79998779297</ele>
        <time>2022-03-19T13:59:03.000Z</time>
      </trkpt>
      <trkpt lat="43.6283" lon="5.3364">
        <ele>323.79998779297</ele>
        <time>2022-03-19T13:59:08.000Z</time>
      </trkpt>
      <trkpt lat="43.62835" lon="5.3364">
        <ele>323.79998779297</ele>
        <time>2022-03-19T13:59:09.000Z</time>
      </trkpt>
      <trkpt lat="43.62847" lon="5.3364">
        <ele>325</ele>
        <time>2022-03-19T13:59:12.000Z</time>
      </trkpt>
      <trkpt lat="43.62851" lon="5.33641">
        <ele>325.20001220703</ele>
        <time>2022-03-19T13:59:13.000Z</time>
      </trkpt>
      <trkpt lat="43.62853" lon="5.33641">
        <ele>325.60000610352</ele>
        <time>2022-03-19T13:59:14.000Z</time>
      </trkpt>
      <trkpt lat="43.62856" lon="5.33642">
        <ele>325.79998779297</ele>
        <time>2022-03-19T13:59:15.000Z</time>
      </trkpt>
      <trkpt lat="43.6286" lon="5.33642">
        <ele>326.20001220703</ele>
        <time>2022-03-19T13:59:16.000Z</time>
      </trkpt>
      <trkpt lat="43.62873" lon="5.33643">
        <ele>327.60000610352</ele>
        <time>2022-03-19T13:59:20.000Z</time>
      </trkpt>
      <trkpt lat="43.62889" lon="5.33641">
        <ele>328.79998779297</ele>
        <time>2022-03-19T13:59:25.000Z</time>
      </trkpt>
      <trkpt lat="43.62892" lon="5.33641">
        <ele>329</ele>
        <time>2022-03-19T13:59:26.000Z</time>
      </trkpt>
      <trkpt lat="43.62895" lon="5.33641">
        <ele>329.20001220703</ele>
        <time>2022-03-19T13:59:27.000Z</time>
      </trkpt>
      <trkpt lat="43.62899" lon="5.33641">
        <ele>329.39999389648</ele>
        <time>2022-03-19T13:59:28.000Z</time>
      </trkpt>
      <trkpt lat="43.62903" lon="5.33642">
        <ele>329.60000610352</ele>
        <time>2022-03-19T13:59:29.000Z</time>
      </trkpt>
      <trkpt lat="43.6291" lon="5.33643">
        <ele>330</ele>
        <time>2022-03-19T13:59:31.000Z</time>
      </trkpt>
      <trkpt lat="43.62927" lon="5.33654">
        <ele>331.20001220703</ele>
        <time>2022-03-19T13:59:36.000Z</time>
      </trkpt>
      <trkpt lat="43.62943" lon="5.3367">
        <ele>332.60000610352</ele>
        <time>2022-03-19T13:59:41.000Z</time>
      </trkpt>
      <trkpt lat="43.62957" lon="5.33691">
        <ele>333.60000610352</ele>
        <time>2022-03-19T13:59:46.000Z</time>
      </trkpt>
      <trkpt lat="43.62958" lon="5.33695">
        <ele>333.79998779297</ele>
        <time>2022-03-19T13:59:47.000Z</time>
      </trkpt>
      <trkpt lat="43.6296" lon="5.33699">
        <ele>333.79998779297</ele>
        <time>2022-03-19T13:59:48.000Z</time>
      </trkpt>
      <trkpt lat="43.62962" lon="5.33702">
        <ele>334</ele>
        <time>2022-03-19T13:59:49.000Z</time>
      </trkpt>
      <trkpt lat="43.62964" lon="5.33707">
        <ele>334.20001220703</ele>
        <time>2022-03-19T13:59:50.000Z</time>
      </trkpt>
      <trkpt lat="43.62968" lon="5.33716">
        <ele>334.39999389648</ele>
        <time>2022-03-19T13:59:52.000Z</time>
      </trkpt>
      <trkpt lat="43.62974" lon="5.33737">
        <ele>334.20001220703</ele>
        <time>2022-03-19T13:59:57.000Z</time>
      </trkpt>
      <trkpt lat="43.62979" lon="5.33747">
        <ele>334</ele>
        <time>2022-03-19T13:59:59.000Z</time>
      </trkpt>
      <trkpt lat="43.62981" lon="5.33751">
        <ele>334</ele>
        <time>2022-03-19T14:00:00.000Z</time>
      </trkpt>
      <trkpt lat="43.62983" lon="5.33756">
        <ele>333.79998779297</ele>
        <time>2022-03-19T14:00:01.000Z</time>
      </trkpt>
      <trkpt lat="43.62984" lon="5.3376">
        <ele>333.79998779297</ele>
        <time>2022-03-19T14:00:02.000Z</time>
      </trkpt>
      <trkpt lat="43.62986" lon="5.33765">
        <ele>333.60000610352</ele>
        <time>2022-03-19T14:00:03.000Z</time>
      </trkpt>
      <trkpt lat="43.6299" lon="5.33775">
        <ele>333.60000610352</ele>
        <time>2022-03-19T14:00:05.000Z</time>
      </trkpt>
      <trkpt lat="43.62996" lon="5.33788">
        <ele>334.20001220703</ele>
        <time>2022-03-19T14:00:08.000Z</time>
      </trkpt>
      <trkpt lat="43.62998" lon="5.33793">
        <ele>334.39999389648</ele>
        <time>2022-03-19T14:00:09.000Z</time>
      </trkpt>
      <trkpt lat="43.63" lon="5.33797">
        <ele>334.79998779297</ele>
        <time>2022-03-19T14:00:10.000Z</time>
      </trkpt>
      <trkpt lat="43.63001" lon="5.33801">
        <ele>334.79998779297</ele>
        <time>2022-03-19T14:00:11.000Z</time>
      </trkpt>
      <trkpt lat="43.63003" lon="5.33806">
        <ele>335</ele>
        <time>2022-03-19T14:00:12.000Z</time>
      </trkpt>
      <trkpt lat="43.63009" lon="5.33819">
        <ele>335.60000610352</ele>
        <time>2022-03-19T14:00:15.000Z</time>
      </trkpt>
      <trkpt lat="43.63021" lon="5.33843">
        <ele>336.39999389648</ele>
        <time>2022-03-19T14:00:21.000Z</time>
      </trkpt>
      <trkpt lat="43.63026" lon="5.33862">
        <ele>336.79998779297</ele>
        <time>2022-03-19T14:00:25.000Z</time>
      </trkpt>
      <trkpt lat="43.63028" lon="5.33866">
        <ele>337</ele>
        <time>2022-03-19T14:00:26.000Z</time>
      </trkpt>
      <trkpt lat="43.63028" lon="5.33869">
        <ele>337.20001220703</ele>
        <time>2022-03-19T14:00:27.000Z</time>
      </trkpt>
      <trkpt lat="43.63028" lon="5.33873">
        <ele>337.39999389648</ele>
        <time>2022-03-19T14:00:28.000Z</time>
      </trkpt>
      <trkpt lat="43.63028" lon="5.33878">
        <ele>337.60000610352</ele>
        <time>2022-03-19T14:00:29.000Z</time>
      </trkpt>
      <trkpt lat="43.63027" lon="5.33884">
        <ele>337.60000610352</ele>
        <time>2022-03-19T14:00:31.000Z</time>
      </trkpt>
      <trkpt lat="43.63019" lon="5.33893">
        <ele>337</ele>
        <time>2022-03-19T14:00:35.000Z</time>
      </trkpt>
      <trkpt lat="43.63009" lon="5.33911">
        <ele>336.60000610352</ele>
        <time>2022-03-19T14:00:40.000Z</time>
      </trkpt>
      <trkpt lat="43.63005" lon="5.33919">
        <ele>336.60000610352</ele>
        <time>2022-03-19T14:00:45.000Z</time>
      </trkpt>
      <trkpt lat="43.63005" lon="5.33919">
        <ele>336.60000610352</ele>
        <time>2022-03-19T14:00:50.000Z</time>
      </trkpt>
      <trkpt lat="43.63005" lon="5.33919">
        <ele>336.60000610352</ele>
        <time>2022-03-19T14:01:00.000Z</time>
      </trkpt>
      <trkpt lat="43.63005" lon="5.33919">
        <ele>336.60000610352</ele>
        <time>2022-03-19T14:01:12.000Z</time>
      </trkpt>
      <trkpt lat="43.63005" lon="5.33919">
        <ele>336.60000610352</ele>
        <time>2022-03-19T14:01:26.000Z</time>
      </trkpt>
      <trkpt lat="43.63005" lon="5.33919">
        <ele>336.60000610352</ele>
        <time>2022-03-19T14:01:39.000Z</time>
      </trkpt>
      <trkpt lat="43.63005" lon="5.33919">
        <ele>336.60000610352</ele>
        <time>2022-03-19T14:01:52.000Z</time>
      </trkpt>
      <trkpt lat="43.63005" lon="5.33919">
        <ele>336.60000610352</ele>
        <time>2022-03-19T14:02:02.000Z</time>
      </trkpt>
      <trkpt lat="43.63005" lon="5.33919">
        <ele>336.60000610352</ele>
        <time>2022-03-19T14:02:12.000Z</time>
      </trkpt>
      <trkpt lat="43.63005" lon="5.33919">
        <ele>336.60000610352</ele>
        <time>2022-03-19T14:02:20.000Z</time>
      </trkpt>
      <trkpt lat="43.63005" lon="5.33919">
        <ele>336.60000610352</ele>
        <time>2022-03-19T14:02:27.000Z</time>
      </trkpt>
      <trkpt lat="43.63005" lon="5.33919">
        <ele>336.60000610352</ele>
        <time>2022-03-19T14:02:36.000Z</time>
      </trkpt>
      <trkpt lat="43.63005" lon="5.33919">
        <ele>336.60000610352</ele>
        <time>2022-03-19T14:02:49.000Z</time>
      </trkpt>
      <trkpt lat="43.63005" lon="5.33919">
        <ele>336.60000610352</ele>
        <time>2022-03-19T14:03:01.000Z</time>
      </trkpt>
      <trkpt lat="43.63005" lon="5.33919">
        <ele>336.60000610352</ele>
        <time>2022-03-19T14:03:16.000Z</time>
      </trkpt>
      <trkpt lat="43.63005" lon="5.33919">
        <ele>336.60000610352</ele>
        <time>2022-03-19T14:03:24.000Z</time>
      </trkpt>
      <trkpt lat="43.63005" lon="5.33919">
        <ele>336.60000610352</ele>
        <time>2022-03-19T14:03:31.000Z</time>
      </trkpt>
      <trkpt lat="43.63005" lon="5.33919">
        <ele>336.60000610352</ele>
        <time>2022-03-19T14:03:38.000Z</time>
      </trkpt>
      <trkpt lat="43.63005" lon="5.33919">
        <ele>336.60000610352</ele>
        <time>2022-03-19T14:03:43.000Z</time>
      </trkpt>
      <trkpt lat="43.63005" lon="5.33919">
        <ele>336.60000610352</ele>
        <time>2022-03-19T14:03:54.000Z</time>
      </trkpt>
      <trkpt lat="43.63005" lon="5.33919">
        <ele>336.60000610352</ele>
        <time>2022-03-19T14:04:01.000Z</time>
      </trkpt>
      <trkpt lat="43.63005" lon="5.33919">
        <ele>336.60000610352</ele>
        <time>2022-03-19T14:04:14.000Z</time>
      </trkpt>
      <trkpt lat="43.63005" lon="5.3392">
        <ele>336.60000610352</ele>
        <time>2022-03-19T14:04:19.000Z</time>
      </trkpt>
      <trkpt lat="43.63004" lon="5.33921">
        <ele>336.60000610352</ele>
        <time>2022-03-19T14:04:25.000Z</time>
      </trkpt>
      <trkpt lat="43.63004" lon="5.33921">
        <ele>336.60000610352</ele>
        <time>2022-03-19T14:04:38.000Z</time>
      </trkpt>
      <trkpt lat="43.63004" lon="5.33921">
        <ele>336.60000610352</ele>
        <time>2022-03-19T14:04:51.000Z</time>
      </trkpt>
      <trkpt lat="43.63004" lon="5.33921">
        <ele>336.60000610352</ele>
        <time>2022-03-19T14:05:03.000Z</time>
      </trkpt>
      <trkpt lat="43.63001" lon="5.33927">
        <ele>336.79998779297</ele>
        <time>2022-03-19T14:05:08.000Z</time>
      </trkpt>
      <trkpt lat="43.62999" lon="5.33931">
        <ele>337</ele>
        <time>2022-03-19T14:05:10.000Z</time>
      </trkpt>
      <trkpt lat="43.62998" lon="5.33933">
        <ele>337.20001220703</ele>
        <time>2022-03-19T14:05:12.000Z</time>
      </trkpt>
      <trkpt lat="43.62998" lon="5.33934">
        <ele>337.20001220703</ele>
        <time>2022-03-19T14:05:17.000Z</time>
      </trkpt>
      <trkpt lat="43.62997" lon="5.33938">
        <ele>337.60000610352</ele>
        <time>2022-03-19T14:05:26.000Z</time>
      </trkpt>
      <trkpt lat="43.62987" lon="5.33961">
        <ele>338.20001220703</ele>
        <time>2022-03-19T14:05:33.000Z</time>
      </trkpt>
      <trkpt lat="43.62976" lon="5.33982">
        <ele>338.60000610352</ele>
        <time>2022-03-19T14:05:38.000Z</time>
      </trkpt>
      <trkpt lat="43.62973" lon="5.33986">
        <ele>338.60000610352</ele>
        <time>2022-03-19T14:05:39.000Z</time>
      </trkpt>
      <trkpt lat="43.62971" lon="5.33989">
        <ele>338.79998779297</ele>
        <time>2022-03-19T14:05:40.000Z</time>
      </trkpt>
      <trkpt lat="43.62969" lon="5.33992">
        <ele>338.79998779297</ele>
        <time>2022-03-19T14:05:41.000Z</time>
      </trkpt>
      <trkpt lat="43.62967" lon="5.33995">
        <ele>339</ele>
        <time>2022-03-19T14:05:42.000Z</time>
      </trkpt>
      <trkpt lat="43.62965" lon="5.33998">
        <ele>339.20001220703</ele>
        <time>2022-03-19T14:05:43.000Z</time>
      </trkpt>
      <trkpt lat="43.62964" lon="5.34002">
        <ele>339.20001220703</ele>
        <time>2022-03-19T14:05:44.000Z</time>
      </trkpt>
      <trkpt lat="43.62959" lon="5.34017">
        <ele>339.79998779297</ele>
        <time>2022-03-19T14:05:49.000Z</time>
      </trkpt>
      <trkpt lat="43.62955" lon="5.34029">
        <ele>340.20001220703</ele>
        <time>2022-03-19T14:05:52.000Z</time>
      </trkpt>
      <trkpt lat="43.62954" lon="5.34033">
        <ele>340.39999389648</ele>
        <time>2022-03-19T14:05:53.000Z</time>
      </trkpt>
      <trkpt lat="43.62952" lon="5.34036">
        <ele>340.79998779297</ele>
        <time>2022-03-19T14:05:54.000Z</time>
      </trkpt>
      <trkpt lat="43.62949" lon="5.3404">
        <ele>341.20001220703</ele>
        <time>2022-03-19T14:05:55.000Z</time>
      </trkpt>
      <trkpt lat="43.62947" lon="5.34044">
        <ele>341.39999389648</ele>
        <time>2022-03-19T14:05:56.000Z</time>
      </trkpt>
      <trkpt lat="43.62941" lon="5.34061">
        <ele>342.39999389648</ele>
        <time>2022-03-19T14:06:00.000Z</time>
      </trkpt>
      <trkpt lat="43.62932" lon="5.34082">
        <ele>343.60000610352</ele>
        <time>2022-03-19T14:06:05.000Z</time>
      </trkpt>
      <trkpt lat="43.62928" lon="5.3409">
        <ele>344</ele>
        <time>2022-03-19T14:06:07.000Z</time>
      </trkpt>
      <trkpt lat="43.62926" lon="5.34093">
        <ele>344</ele>
        <time>2022-03-19T14:06:08.000Z</time>
      </trkpt>
      <trkpt lat="43.62924" lon="5.34097">
        <ele>344</ele>
        <time>2022-03-19T14:06:09.000Z</time>
      </trkpt>
      <trkpt lat="43.62921" lon="5.34101">
        <ele>344</ele>
        <time>2022-03-19T14:06:10.000Z</time>
      </trkpt>
      <trkpt lat="43.62919" lon="5.34105">
        <ele>344</ele>
        <time>2022-03-19T14:06:11.000Z</time>
      </trkpt>
      <trkpt lat="43.62913" lon="5.34117">
        <ele>344.20001220703</ele>
        <time>2022-03-19T14:06:16.000Z</time>
      </trkpt>
      <trkpt lat="43.6291" lon="5.34128">
        <ele>344.39999389648</ele>
        <time>2022-03-19T14:06:20.000Z</time>
      </trkpt>
      <trkpt lat="43.62907" lon="5.34137">
        <ele>344.39999389648</ele>
        <time>2022-03-19T14:06:24.000Z</time>
      </trkpt>
      <trkpt lat="43.62906" lon="5.34142">
        <ele>344.20001220703</ele>
        <time>2022-03-19T14:06:26.000Z</time>
      </trkpt>
      <trkpt lat="43.62904" lon="5.34147">
        <ele>344.20001220703</ele>
        <time>2022-03-19T14:06:28.000Z</time>
      </trkpt>
      <trkpt lat="43.62901" lon="5.34153">
        <ele>344</ele>
        <time>2022-03-19T14:06:31.000Z</time>
      </trkpt>
      <trkpt lat="43.62893" lon="5.3417">
        <ele>343.60000610352</ele>
        <time>2022-03-19T14:06:37.000Z</time>
      </trkpt>
      <trkpt lat="43.6289" lon="5.34187">
        <ele>343</ele>
        <time>2022-03-19T14:06:42.000Z</time>
      </trkpt>
      <trkpt lat="43.62885" lon="5.34209">
        <ele>343.20001220703</ele>
        <time>2022-03-19T14:06:48.000Z</time>
      </trkpt>
      <trkpt lat="43.62882" lon="5.34226">
        <ele>343.39999389648</ele>
        <time>2022-03-19T14:06:54.000Z</time>
      </trkpt>
      <trkpt lat="43.62882" lon="5.34227">
        <ele>343.39999389648</ele>
        <time>2022-03-19T14:06:56.000Z</time>
      </trkpt>
      <trkpt lat="43.62881" lon="5.34228">
        <ele>343.39999389648</ele>
        <time>2022-03-19T14:06:57.000Z</time>
      </trkpt>
      <trkpt lat="43.62881" lon="5.34228">
        <ele>343.39999389648</ele>
        <time>2022-03-19T14:06:58.000Z</time>
      </trkpt>
      <trkpt lat="43.62881" lon="5.34228">
        <ele>343.39999389648</ele>
        <time>2022-03-19T14:06:59.000Z</time>
      </trkpt>
      <trkpt lat="43.62881" lon="5.34228">
        <ele>343.39999389648</ele>
        <time>2022-03-19T14:07:00.000Z</time>
      </trkpt>
      <trkpt lat="43.6288" lon="5.34229">
        <ele>343.39999389648</ele>
        <time>2022-03-19T14:07:02.000Z</time>
      </trkpt>
      <trkpt lat="43.6288" lon="5.34227">
        <ele>343.39999389648</ele>
        <time>2022-03-19T14:07:03.000Z</time>
      </trkpt>
      <trkpt lat="43.62882" lon="5.3422">
        <ele>343.39999389648</ele>
        <time>2022-03-19T14:07:08.000Z</time>
      </trkpt>
      <trkpt lat="43.62884" lon="5.34214">
        <ele>343.39999389648</ele>
        <time>2022-03-19T14:07:10.000Z</time>
      </trkpt>
      <trkpt lat="43.62886" lon="5.34204">
        <ele>343.20001220703</ele>
        <time>2022-03-19T14:07:13.000Z</time>
      </trkpt>
      <trkpt lat="43.62891" lon="5.34182">
        <ele>343.20001220703</ele>
        <time>2022-03-19T14:07:19.000Z</time>
      </trkpt>
      <trkpt lat="43.62898" lon="5.34155">
        <ele>344</ele>
        <time>2022-03-19T14:07:26.000Z</time>
      </trkpt>
      <trkpt lat="43.62903" lon="5.34138">
        <ele>344.60000610352</ele>
        <time>2022-03-19T14:07:32.000Z</time>
      </trkpt>
      <trkpt lat="43.62904" lon="5.34137">
        <ele>344.60000610352</ele>
        <time>2022-03-19T14:07:36.000Z</time>
      </trkpt>
      <trkpt lat="43.62904" lon="5.34137">
        <ele>344.60000610352</ele>
        <time>2022-03-19T14:07:48.000Z</time>
      </trkpt>
      <trkpt lat="43.62904" lon="5.34137">
        <ele>344.60000610352</ele>
        <time>2022-03-19T14:08:01.000Z</time>
      </trkpt>
      <trkpt lat="43.62904" lon="5.34137">
        <ele>344.60000610352</ele>
        <time>2022-03-19T14:08:11.000Z</time>
      </trkpt>
      <trkpt lat="43.62905" lon="5.34136">
        <ele>344.60000610352</ele>
        <time>2022-03-19T14:08:14.000Z</time>
      </trkpt>
      <trkpt lat="43.62904" lon="5.34128">
        <ele>344.60000610352</ele>
        <time>2022-03-19T14:08:16.000Z</time>
      </trkpt>
      <trkpt lat="43.62898" lon="5.3411">
        <ele>344.79998779297</ele>
        <time>2022-03-19T14:08:20.000Z</time>
      </trkpt>
      <trkpt lat="43.62883" lon="5.34096">
        <ele>344.60000610352</ele>
        <time>2022-03-19T14:08:24.000Z</time>
      </trkpt>
      <trkpt lat="43.62879" lon="5.34096">
        <ele>344.60000610352</ele>
        <time>2022-03-19T14:08:25.000Z</time>
      </trkpt>
      <trkpt lat="43.62874" lon="5.34098">
        <ele>344.60000610352</ele>
        <time>2022-03-19T14:08:26.000Z</time>
      </trkpt>
      <trkpt lat="43.62869" lon="5.34099">
        <ele>344.79998779297</ele>
        <time>2022-03-19T14:08:27.000Z</time>
      </trkpt>
      <trkpt lat="43.62865" lon="5.341">
        <ele>344.79998779297</ele>
        <time>2022-03-19T14:08:28.000Z</time>
      </trkpt>
      <trkpt lat="43.62861" lon="5.34103">
        <ele>344.79998779297</ele>
        <time>2022-03-19T14:08:29.000Z</time>
      </trkpt>
      <trkpt lat="43.62858" lon="5.34108">
        <ele>344.79998779297</ele>
        <time>2022-03-19T14:08:30.000Z</time>
      </trkpt>
      <trkpt lat="43.62855" lon="5.34112">
        <ele>344.60000610352</ele>
        <time>2022-03-19T14:08:31.000Z</time>
      </trkpt>
      <trkpt lat="43.62851" lon="5.34116">
        <ele>344.60000610352</ele>
        <time>2022-03-19T14:08:32.000Z</time>
      </trkpt>
      <trkpt lat="43.6284" lon="5.3412">
        <ele>344</ele>
        <time>2022-03-19T14:08:35.000Z</time>
      </trkpt>
      <trkpt lat="43.62836" lon="5.34121">
        <ele>344</ele>
        <time>2022-03-19T14:08:36.000Z</time>
      </trkpt>
      <trkpt lat="43.62823" lon="5.34122">
        <ele>343</ele>
        <time>2022-03-19T14:08:40.000Z</time>
      </trkpt>
      <trkpt lat="43.62802" lon="5.34113">
        <ele>341.20001220703</ele>
        <time>2022-03-19T14:08:46.000Z</time>
      </trkpt>
      <trkpt lat="43.6279" lon="5.34103">
        <ele>340</ele>
        <time>2022-03-19T14:08:50.000Z</time>
      </trkpt>
      <trkpt lat="43.62788" lon="5.341">
        <ele>339.60000610352</ele>
        <time>2022-03-19T14:08:51.000Z</time>
      </trkpt>
      <trkpt lat="43.62785" lon="5.34096">
        <ele>339.39999389648</ele>
        <time>2022-03-19T14:08:52.000Z</time>
      </trkpt>
      <trkpt lat="43.62783" lon="5.34092">
        <ele>339.20001220703</ele>
        <time>2022-03-19T14:08:53.000Z</time>
      </trkpt>
      <trkpt lat="43.62781" lon="5.34088">
        <ele>339</ele>
        <time>2022-03-19T14:08:54.000Z</time>
      </trkpt>
      <trkpt lat="43.62772" lon="5.34068">
        <ele>338.39999389648</ele>
        <time>2022-03-19T14:08:59.000Z</time>
      </trkpt>
      <trkpt lat="43.62758" lon="5.34059">
        <ele>337.39999389648</ele>
        <time>2022-03-19T14:09:03.000Z</time>
      </trkpt>
      <trkpt lat="43.62756" lon="5.34054">
        <ele>337.20001220703</ele>
        <time>2022-03-19T14:09:04.000Z</time>
      </trkpt>
      <trkpt lat="43.62757" lon="5.34051">
        <ele>337.39999389648</ele>
        <time>2022-03-19T14:09:05.000Z</time>
      </trkpt>
      <trkpt lat="43.62755" lon="5.34047">
        <ele>337.20001220703</ele>
        <time>2022-03-19T14:09:06.000Z</time>
      </trkpt>
      <trkpt lat="43.62752" lon="5.34044">
        <ele>337.20001220703</ele>
        <time>2022-03-19T14:09:07.000Z</time>
      </trkpt>
      <trkpt lat="43.62744" lon="5.34038">
        <ele>336.79998779297</ele>
        <time>2022-03-19T14:09:09.000Z</time>
      </trkpt>
      <trkpt lat="43.6274" lon="5.34035">
        <ele>336.60000610352</ele>
        <time>2022-03-19T14:09:10.000Z</time>
      </trkpt>
      <trkpt lat="43.62735" lon="5.34032">
        <ele>336.39999389648</ele>
        <time>2022-03-19T14:09:11.000Z</time>
      </trkpt>
      <trkpt lat="43.62731" lon="5.34028">
        <ele>336.20001220703</ele>
        <time>2022-03-19T14:09:12.000Z</time>
      </trkpt>
      <trkpt lat="43.62725" lon="5.34025">
        <ele>336</ele>
        <time>2022-03-19T14:09:13.000Z</time>
      </trkpt>
      <trkpt lat="43.62715" lon="5.34021">
        <ele>335.60000610352</ele>
        <time>2022-03-19T14:09:15.000Z</time>
      </trkpt>
      <trkpt lat="43.62705" lon="5.34017">
        <ele>335.20001220703</ele>
        <time>2022-03-19T14:09:17.000Z</time>
      </trkpt>
      <trkpt lat="43.6269" lon="5.34013">
        <ele>334.39999389648</ele>
        <time>2022-03-19T14:09:20.000Z</time>
      </trkpt>
      <trkpt lat="43.62687" lon="5.34011">
        <ele>334.20001220703</ele>
        <time>2022-03-19T14:09:21.000Z</time>
      </trkpt>
      <trkpt lat="43.62684" lon="5.34009">
        <ele>334</ele>
        <time>2022-03-19T14:09:22.000Z</time>
      </trkpt>
      <trkpt lat="43.62682" lon="5.34006">
        <ele>333.79998779297</ele>
        <time>2022-03-19T14:09:23.000Z</time>
      </trkpt>
      <trkpt lat="43.62678" lon="5.34003">
        <ele>333.60000610352</ele>
        <time>2022-03-19T14:09:24.000Z</time>
      </trkpt>
      <trkpt lat="43.62667" lon="5.34002">
        <ele>332.20001220703</ele>
        <time>2022-03-19T14:09:28.000Z</time>
      </trkpt>
      <trkpt lat="43.62664" lon="5.33999">
        <ele>332</ele>
        <time>2022-03-19T14:09:29.000Z</time>
      </trkpt>
      <trkpt lat="43.62662" lon="5.33996">
        <ele>331.79998779297</ele>
        <time>2022-03-19T14:09:30.000Z</time>
      </trkpt>
      <trkpt lat="43.62661" lon="5.33993">
        <ele>331.60000610352</ele>
        <time>2022-03-19T14:09:31.000Z</time>
      </trkpt>
      <trkpt lat="43.62659" lon="5.33991">
        <ele>331.20001220703</ele>
        <time>2022-03-19T14:09:32.000Z</time>
      </trkpt>
      <trkpt lat="43.62658" lon="5.33988">
        <ele>331</ele>
        <time>2022-03-19T14:09:33.000Z</time>
      </trkpt>
      <trkpt lat="43.6265" lon="5.33979">
        <ele>329.39999389648</ele>
        <time>2022-03-19T14:09:36.000Z</time>
      </trkpt>
      <trkpt lat="43.62647" lon="5.33978">
        <ele>329</ele>
        <time>2022-03-19T14:09:37.000Z</time>
      </trkpt>
      <trkpt lat="43.62645" lon="5.33977">
        <ele>328.60000610352</ele>
        <time>2022-03-19T14:09:38.000Z</time>
      </trkpt>
      <trkpt lat="43.62642" lon="5.33975">
        <ele>328.20001220703</ele>
        <time>2022-03-19T14:09:39.000Z</time>
      </trkpt>
      <trkpt lat="43.62639" lon="5.33974">
        <ele>327.79998779297</ele>
        <time>2022-03-19T14:09:40.000Z</time>
      </trkpt>
      <trkpt lat="43.62635" lon="5.33973">
        <ele>327.39999389648</ele>
        <time>2022-03-19T14:09:41.000Z</time>
      </trkpt>
      <trkpt lat="43.62632" lon="5.33973">
        <ele>327</ele>
        <time>2022-03-19T14:09:42.000Z</time>
      </trkpt>
      <trkpt lat="43.62619" lon="5.33971">
        <ele>325.60000610352</ele>
        <time>2022-03-19T14:09:45.000Z</time>
      </trkpt>
      <trkpt lat="43.6261" lon="5.33971">
        <ele>324.60000610352</ele>
        <time>2022-03-19T14:09:47.000Z</time>
      </trkpt>
      <trkpt lat="43.62605" lon="5.3397">
        <ele>324.39999389648</ele>
        <time>2022-03-19T14:09:48.000Z</time>
      </trkpt>
      <trkpt lat="43.626" lon="5.33969">
        <ele>324</ele>
        <time>2022-03-19T14:09:49.000Z</time>
      </trkpt>
      <trkpt lat="43.62596" lon="5.33968">
        <ele>323.60000610352</ele>
        <time>2022-03-19T14:09:50.000Z</time>
      </trkpt>
      <trkpt lat="43.62592" lon="5.33968">
        <ele>323.39999389648</ele>
        <time>2022-03-19T14:09:51.000Z</time>
      </trkpt>
      <trkpt lat="43.6258" lon="5.33964">
        <ele>322.79998779297</ele>
        <time>2022-03-19T14:09:55.000Z</time>
      </trkpt>
      <trkpt lat="43.62578" lon="5.33965">
        <ele>322.60000610352</ele>
        <time>2022-03-19T14:09:56.000Z</time>
      </trkpt>
      <trkpt lat="43.62575" lon="5.33965">
        <ele>322.60000610352</ele>
        <time>2022-03-19T14:09:57.000Z</time>
      </trkpt>
      <trkpt lat="43.62573" lon="5.33964">
        <ele>322.60000610352</ele>
        <time>2022-03-19T14:09:58.000Z</time>
      </trkpt>
      <trkpt lat="43.6257" lon="5.33964">
        <ele>322.39999389648</ele>
        <time>2022-03-19T14:09:59.000Z</time>
      </trkpt>
      <trkpt lat="43.62567" lon="5.33963">
        <ele>322.20001220703</ele>
        <time>2022-03-19T14:10:00.000Z</time>
      </trkpt>
      <trkpt lat="43.62562" lon="5.33962">
        <ele>322.20001220703</ele>
        <time>2022-03-19T14:10:04.000Z</time>
      </trkpt>
      <trkpt lat="43.62561" lon="5.33962">
        <ele>322</ele>
        <time>2022-03-19T14:10:10.000Z</time>
      </trkpt>
      <trkpt lat="43.62558" lon="5.33962">
        <ele>321.79998779297</ele>
        <time>2022-03-19T14:10:18.000Z</time>
      </trkpt>
      <trkpt lat="43.62555" lon="5.3396">
        <ele>321.60000610352</ele>
        <time>2022-03-19T14:10:24.000Z</time>
      </trkpt>
      <trkpt lat="43.62551" lon="5.3396">
        <ele>321.39999389648</ele>
        <time>2022-03-19T14:10:29.000Z</time>
      </trkpt>
      <trkpt lat="43.62551" lon="5.3396">
        <ele>321.39999389648</ele>
        <time>2022-03-19T14:10:30.000Z</time>
      </trkpt>
      <trkpt lat="43.62551" lon="5.3396">
        <ele>321.39999389648</ele>
        <time>2022-03-19T14:10:31.000Z</time>
      </trkpt>
      <trkpt lat="43.6255" lon="5.33961">
        <ele>321.39999389648</ele>
        <time>2022-03-19T14:10:32.000Z</time>
      </trkpt>
      <trkpt lat="43.6255" lon="5.33961">
        <ele>321.39999389648</ele>
        <time>2022-03-19T14:10:33.000Z</time>
      </trkpt>
      <trkpt lat="43.6255" lon="5.33962">
        <ele>321.39999389648</ele>
        <time>2022-03-19T14:10:37.000Z</time>
      </trkpt>
      <trkpt lat="43.6255" lon="5.33962">
        <ele>321.39999389648</ele>
        <time>2022-03-19T14:10:50.000Z</time>
      </trkpt>
      <trkpt lat="43.62549" lon="5.33964">
        <ele>321.60000610352</ele>
        <time>2022-03-19T14:11:01.000Z</time>
      </trkpt>
      <trkpt lat="43.62548" lon="5.33966">
        <ele>321.60000610352</ele>
        <time>2022-03-19T14:11:02.000Z</time>
      </trkpt>
      <trkpt lat="43.62546" lon="5.3398">
        <ele>321.60000610352</ele>
        <time>2022-03-19T14:11:06.000Z</time>
      </trkpt>
      <trkpt lat="43.62545" lon="5.33985">
        <ele>321.60000610352</ele>
        <time>2022-03-19T14:11:07.000Z</time>
      </trkpt>
      <trkpt lat="43.62547" lon="5.3401">
        <ele>321.60000610352</ele>
        <time>2022-03-19T14:11:12.000Z</time>
      </trkpt>
      <trkpt lat="43.62549" lon="5.34015">
        <ele>321.60000610352</ele>
        <time>2022-03-19T14:11:13.000Z</time>
      </trkpt>
      <trkpt lat="43.62558" lon="5.34033">
        <ele>322.20001220703</ele>
        <time>2022-03-19T14:11:17.000Z</time>
      </trkpt>
      <trkpt lat="43.62572" lon="5.34046">
        <ele>323.20001220703</ele>
        <time>2022-03-19T14:11:22.000Z</time>
      </trkpt>
      <trkpt lat="43.62599" lon="5.34063">
        <ele>324.39999389648</ele>
        <time>2022-03-19T14:11:29.000Z</time>
      </trkpt>
      <trkpt lat="43.62627" lon="5.34084">
        <ele>326</ele>
        <time>2022-03-19T14:11:37.000Z</time>
      </trkpt>
      <trkpt lat="43.62633" lon="5.34093">
        <ele>326.39999389648</ele>
        <time>2022-03-19T14:11:39.000Z</time>
      </trkpt>
      <trkpt lat="43.62636" lon="5.34103">
        <ele>326.60000610352</ele>
        <time>2022-03-19T14:11:41.000Z</time>
      </trkpt>
      <trkpt lat="43.62634" lon="5.34127">
        <ele>327.39999389648</ele>
        <time>2022-03-19T14:11:46.000Z</time>
      </trkpt>
      <trkpt lat="43.62631" lon="5.3413">
        <ele>328</ele>
        <time>2022-03-19T14:11:47.000Z</time>
      </trkpt>
      <trkpt lat="43.62624" lon="5.34135">
        <ele>328.79998779297</ele>
        <time>2022-03-19T14:11:49.000Z</time>
      </trkpt>
      <trkpt lat="43.62616" lon="5.34138">
        <ele>329.20001220703</ele>
        <time>2022-03-19T14:11:51.000Z</time>
      </trkpt>
      <trkpt lat="43.62604" lon="5.34139">
        <ele>328.79998779297</ele>
        <time>2022-03-19T14:11:54.000Z</time>
      </trkpt>
      <trkpt lat="43.62587" lon="5.34142">
        <ele>328.20001220703</ele>
        <time>2022-03-19T14:11:58.000Z</time>
      </trkpt>
      <trkpt lat="43.62575" lon="5.34145">
        <ele>328.39999389648</ele>
        <time>2022-03-19T14:12:01.000Z</time>
      </trkpt>
      <trkpt lat="43.62571" lon="5.34145">
        <ele>328.60000610352</ele>
        <time>2022-03-19T14:12:02.000Z</time>
      </trkpt>
      <trkpt lat="43.62559" lon="5.34146">
        <ele>327.39999389648</ele>
        <time>2022-03-19T14:12:05.000Z</time>
      </trkpt>
      <trkpt lat="43.62543" lon="5.34148">
        <ele>327</ele>
        <time>2022-03-19T14:12:09.000Z</time>
      </trkpt>
      <trkpt lat="43.62531" lon="5.34151">
        <ele>327.20001220703</ele>
        <time>2022-03-19T14:12:12.000Z</time>
      </trkpt>
      <trkpt lat="43.62499" lon="5.34156">
        <ele>323.79998779297</ele>
        <time>2022-03-19T14:12:20.000Z</time>
      </trkpt>
      <trkpt lat="43.62474" lon="5.3416">
        <ele>322.60000610352</ele>
        <time>2022-03-19T14:12:26.000Z</time>
      </trkpt>
      <trkpt lat="43.6245" lon="5.34164">
        <ele>322.39999389648</ele>
        <time>2022-03-19T14:12:32.000Z</time>
      </trkpt>
      <trkpt lat="43.62434" lon="5.3418">
        <ele>323.39999389648</ele>
        <time>2022-03-19T14:12:37.000Z</time>
      </trkpt>
      <trkpt lat="43.62426" lon="5.34204">
        <ele>325</ele>
        <time>2022-03-19T14:12:42.000Z</time>
      </trkpt>
      <trkpt lat="43.62425" lon="5.34221">
        <ele>326</ele>
        <time>2022-03-19T14:12:45.000Z</time>
      </trkpt>
      <trkpt lat="43.62425" lon="5.34227">
        <ele>326.20001220703</ele>
        <time>2022-03-19T14:12:46.000Z</time>
      </trkpt>
      <trkpt lat="43.62432" lon="5.34249">
        <ele>326.60000610352</ele>
        <time>2022-03-19T14:12:50.000Z</time>
      </trkpt>
      <trkpt lat="43.62438" lon="5.34259">
        <ele>327.20001220703</ele>
        <time>2022-03-19T14:12:52.000Z</time>
      </trkpt>
      <trkpt lat="43.62448" lon="5.34272">
        <ele>328</ele>
        <time>2022-03-19T14:12:55.000Z</time>
      </trkpt>
      <trkpt lat="43.6246" lon="5.34289">
        <ele>329.39999389648</ele>
        <time>2022-03-19T14:12:59.000Z</time>
      </trkpt>
      <trkpt lat="43.62461" lon="5.34295">
        <ele>329.39999389648</ele>
        <time>2022-03-19T14:13:00.000Z</time>
      </trkpt>
      <trkpt lat="43.62455" lon="5.34308">
        <ele>329</ele>
        <time>2022-03-19T14:13:03.000Z</time>
      </trkpt>
      <trkpt lat="43.62444" lon="5.34315">
        <ele>329.39999389648</ele>
        <time>2022-03-19T14:13:06.000Z</time>
      </trkpt>
      <trkpt lat="43.62424" lon="5.34314">
        <ele>328.79998779297</ele>
        <time>2022-03-19T14:13:11.000Z</time>
      </trkpt>
      <trkpt lat="43.624" lon="5.34317">
        <ele>326.60000610352</ele>
        <time>2022-03-19T14:13:17.000Z</time>
      </trkpt>
      <trkpt lat="43.62396" lon="5.34318">
        <ele>326.39999389648</ele>
        <time>2022-03-19T14:13:18.000Z</time>
      </trkpt>
      <trkpt lat="43.62386" lon="5.34328">
        <ele>325.39999389648</ele>
        <time>2022-03-19T14:13:21.000Z</time>
      </trkpt>
      <trkpt lat="43.62383" lon="5.34332">
        <ele>324.60000610352</ele>
        <time>2022-03-19T14:13:22.000Z</time>
      </trkpt>
      <trkpt lat="43.6237" lon="5.34356">
        <ele>322</ele>
        <time>2022-03-19T14:13:27.000Z</time>
      </trkpt>
      <trkpt lat="43.62368" lon="5.34361">
        <ele>321.79998779297</ele>
        <time>2022-03-19T14:13:28.000Z</time>
      </trkpt>
      <trkpt lat="43.62366" lon="5.34367">
        <ele>322</ele>
        <time>2022-03-19T14:13:29.000Z</time>
      </trkpt>
      <trkpt lat="43.62367" lon="5.34384">
        <ele>323.20001220703</ele>
        <time>2022-03-19T14:13:32.000Z</time>
      </trkpt>
      <trkpt lat="43.62372" lon="5.344">
        <ele>324.60000610352</ele>
        <time>2022-03-19T14:13:35.000Z</time>
      </trkpt>
      <trkpt lat="43.62374" lon="5.34405">
        <ele>325</ele>
        <time>2022-03-19T14:13:36.000Z</time>
      </trkpt>
      <trkpt lat="43.62386" lon="5.34432">
        <ele>327.79998779297</ele>
        <time>2022-03-19T14:13:41.000Z</time>
      </trkpt>
      <trkpt lat="43.62388" lon="5.34438">
        <ele>328.39999389648</ele>
        <time>2022-03-19T14:13:42.000Z</time>
      </trkpt>
      <trkpt lat="43.62391" lon="5.34443">
        <ele>329</ele>
        <time>2022-03-19T14:13:43.000Z</time>
      </trkpt>
      <trkpt lat="43.62394" lon="5.34466">
        <ele>330</ele>
        <time>2022-03-19T14:13:47.000Z</time>
      </trkpt>
      <trkpt lat="43.62384" lon="5.34485">
        <ele>330</ele>
        <time>2022-03-19T14:13:51.000Z</time>
      </trkpt>
      <trkpt lat="43.6237" lon="5.34491">
        <ele>330.60000610352</ele>
        <time>2022-03-19T14:13:55.000Z</time>
      </trkpt>
      <trkpt lat="43.62366" lon="5.34489">
        <ele>330.39999389648</ele>
        <time>2022-03-19T14:13:56.000Z</time>
      </trkpt>
      <trkpt lat="43.62362" lon="5.34487">
        <ele>329.79998779297</ele>
        <time>2022-03-19T14:13:57.000Z</time>
      </trkpt>
      <trkpt lat="43.62359" lon="5.34485">
        <ele>329.20001220703</ele>
        <time>2022-03-19T14:13:58.000Z</time>
      </trkpt>
      <trkpt lat="43.62345" lon="5.34476">
        <ele>326.79998779297</ele>
        <time>2022-03-19T14:14:02.000Z</time>
      </trkpt>
      <trkpt lat="43.62336" lon="5.34469">
        <ele>325.20001220703</ele>
        <time>2022-03-19T14:14:05.000Z</time>
      </trkpt>
      <trkpt lat="43.62325" lon="5.34464">
        <ele>324.60000610352</ele>
        <time>2022-03-19T14:14:08.000Z</time>
      </trkpt>
      <trkpt lat="43.6231" lon="5.34467">
        <ele>325</ele>
        <time>2022-03-19T14:14:12.000Z</time>
      </trkpt>
      <trkpt lat="43.62286" lon="5.34475">
        <ele>326.60000610352</ele>
        <time>2022-03-19T14:14:18.000Z</time>
      </trkpt>
      <trkpt lat="43.62267" lon="5.34485">
        <ele>327.20001220703</ele>
        <time>2022-03-19T14:14:23.000Z</time>
      </trkpt>
      <trkpt lat="43.62263" lon="5.34487">
        <ele>327.39999389648</ele>
        <time>2022-03-19T14:14:24.000Z</time>
      </trkpt>
      <trkpt lat="43.62229" lon="5.34503">
        <ele>329.20001220703</ele>
        <time>2022-03-19T14:14:32.000Z</time>
      </trkpt>
      <trkpt lat="43.62225" lon="5.34503">
        <ele>329.20001220703</ele>
        <time>2022-03-19T14:14:33.000Z</time>
      </trkpt>
      <trkpt lat="43.62216" lon="5.34499">
        <ele>329.20001220703</ele>
        <time>2022-03-19T14:14:35.000Z</time>
      </trkpt>
      <trkpt lat="43.62208" lon="5.34494">
        <ele>329</ele>
        <time>2022-03-19T14:14:37.000Z</time>
      </trkpt>
      <trkpt lat="43.62202" lon="5.34489">
        <ele>328.79998779297</ele>
        <time>2022-03-19T14:14:39.000Z</time>
      </trkpt>
      <trkpt lat="43.62188" lon="5.3448">
        <ele>327.79998779297</ele>
        <time>2022-03-19T14:14:43.000Z</time>
      </trkpt>
      <trkpt lat="43.62172" lon="5.34483">
        <ele>327.20001220703</ele>
        <time>2022-03-19T14:14:47.000Z</time>
      </trkpt>
      <trkpt lat="43.6216" lon="5.34497">
        <ele>326.60000610352</ele>
        <time>2022-03-19T14:14:51.000Z</time>
      </trkpt>
      <trkpt lat="43.62156" lon="5.34506">
        <ele>326.60000610352</ele>
        <time>2022-03-19T14:14:53.000Z</time>
      </trkpt>
      <trkpt lat="43.62148" lon="5.34525">
        <ele>327.60000610352</ele>
        <time>2022-03-19T14:14:57.000Z</time>
      </trkpt>
      <trkpt lat="43.62135" lon="5.34556">
        <ele>325.39999389648</ele>
        <time>2022-03-19T14:15:03.000Z</time>
      </trkpt>
      <trkpt lat="43.62126" lon="5.34576">
        <ele>323.60000610352</ele>
        <time>2022-03-19T14:15:07.000Z</time>
      </trkpt>
      <trkpt lat="43.62124" lon="5.34581">
        <ele>323.39999389648</ele>
        <time>2022-03-19T14:15:08.000Z</time>
      </trkpt>
      <trkpt lat="43.62122" lon="5.34593">
        <ele>323.20001220703</ele>
        <time>2022-03-19T14:15:10.000Z</time>
      </trkpt>
      <trkpt lat="43.62121" lon="5.34599">
        <ele>323</ele>
        <time>2022-03-19T14:15:11.000Z</time>
      </trkpt>
      <trkpt lat="43.62117" lon="5.34628">
        <ele>323</ele>
        <time>2022-03-19T14:15:16.000Z</time>
      </trkpt>
      <trkpt lat="43.62116" lon="5.3464">
        <ele>323.20001220703</ele>
        <time>2022-03-19T14:15:18.000Z</time>
      </trkpt>
      <trkpt lat="43.62119" lon="5.34651">
        <ele>323.39999389648</ele>
        <time>2022-03-19T14:15:20.000Z</time>
      </trkpt>
      <trkpt lat="43.62131" lon="5.34664">
        <ele>324.20001220703</ele>
        <time>2022-03-19T14:15:24.000Z</time>
      </trkpt>
      <trkpt lat="43.62136" lon="5.34665">
        <ele>324.60000610352</ele>
        <time>2022-03-19T14:15:25.000Z</time>
      </trkpt>
      <trkpt lat="43.62153" lon="5.34669">
        <ele>325.39999389648</ele>
        <time>2022-03-19T14:15:29.000Z</time>
      </trkpt>
      <trkpt lat="43.62157" lon="5.34671">
        <ele>325.60000610352</ele>
        <time>2022-03-19T14:15:30.000Z</time>
      </trkpt>
      <trkpt lat="43.62172" lon="5.34679">
        <ele>326</ele>
        <time>2022-03-19T14:15:34.000Z</time>
      </trkpt>
      <trkpt lat="43.62175" lon="5.3468">
        <ele>326.20001220703</ele>
        <time>2022-03-19T14:15:35.000Z</time>
      </trkpt>
      <trkpt lat="43.62195" lon="5.34688">
        <ele>326.79998779297</ele>
        <time>2022-03-19T14:15:40.000Z</time>
      </trkpt>
      <trkpt lat="43.62211" lon="5.34692">
        <ele>327.39999389648</ele>
        <time>2022-03-19T14:15:44.000Z</time>
      </trkpt>
      <trkpt lat="43.62224" lon="5.34695">
        <ele>328</ele>
        <time>2022-03-19T14:15:47.000Z</time>
      </trkpt>
      <trkpt lat="43.62235" lon="5.34702">
        <ele>328</ele>
        <time>2022-03-19T14:15:50.000Z</time>
      </trkpt>
      <trkpt lat="43.62239" lon="5.3471">
        <ele>328</ele>
        <time>2022-03-19T14:15:52.000Z</time>
      </trkpt>
      <trkpt lat="43.62232" lon="5.34725">
        <ele>328.20001220703</ele>
        <time>2022-03-19T14:15:56.000Z</time>
      </trkpt>
      <trkpt lat="43.62219" lon="5.34736">
        <ele>328.60000610352</ele>
        <time>2022-03-19T14:16:00.000Z</time>
      </trkpt>
      <trkpt lat="43.62193" lon="5.34755">
        <ele>329</ele>
        <time>2022-03-19T14:16:07.000Z</time>
      </trkpt>
      <trkpt lat="43.62179" lon="5.34763">
        <ele>328</ele>
        <time>2022-03-19T14:16:11.000Z</time>
      </trkpt>
      <trkpt lat="43.62172" lon="5.34768">
        <ele>327.20001220703</ele>
        <time>2022-03-19T14:16:13.000Z</time>
      </trkpt>
      <trkpt lat="43.62165" lon="5.34775">
        <ele>326.20001220703</ele>
        <time>2022-03-19T14:16:15.000Z</time>
      </trkpt>
      <trkpt lat="43.62154" lon="5.34801">
        <ele>324.60000610352</ele>
        <time>2022-03-19T14:16:20.000Z</time>
      </trkpt>
      <trkpt lat="43.62158" lon="5.34825">
        <ele>326</ele>
        <time>2022-03-19T14:16:24.000Z</time>
      </trkpt>
      <trkpt lat="43.62163" lon="5.34852">
        <ele>327.20001220703</ele>
        <time>2022-03-19T14:16:29.000Z</time>
      </trkpt>
      <trkpt lat="43.62159" lon="5.34868">
        <ele>327.60000610352</ele>
        <time>2022-03-19T14:16:32.000Z</time>
      </trkpt>
      <trkpt lat="43.62156" lon="5.34871">
        <ele>327.60000610352</ele>
        <time>2022-03-19T14:16:33.000Z</time>
      </trkpt>
      <trkpt lat="43.6214" lon="5.34876">
        <ele>326.60000610352</ele>
        <time>2022-03-19T14:16:37.000Z</time>
      </trkpt>
      <trkpt lat="43.62129" lon="5.34871">
        <ele>326</ele>
        <time>2022-03-19T14:16:40.000Z</time>
      </trkpt>
      <trkpt lat="43.62125" lon="5.34868">
        <ele>325.79998779297</ele>
        <time>2022-03-19T14:16:41.000Z</time>
      </trkpt>
      <trkpt lat="43.62104" lon="5.34848">
        <ele>324</ele>
        <time>2022-03-19T14:16:47.000Z</time>
      </trkpt>
      <trkpt lat="43.62086" lon="5.34831">
        <ele>322.20001220703</ele>
        <time>2022-03-19T14:16:52.000Z</time>
      </trkpt>
      <trkpt lat="43.62082" lon="5.34831">
        <ele>322</ele>
        <time>2022-03-19T14:16:53.000Z</time>
      </trkpt>
      <trkpt lat="43.62073" lon="5.34834">
        <ele>322</ele>
        <time>2022-03-19T14:16:55.000Z</time>
      </trkpt>
      <trkpt lat="43.62059" lon="5.34843">
        <ele>322</ele>
        <time>2022-03-19T14:16:59.000Z</time>
      </trkpt>
      <trkpt lat="43.62055" lon="5.34845">
        <ele>322</ele>
        <time>2022-03-19T14:17:00.000Z</time>
      </trkpt>
      <trkpt lat="43.62043" lon="5.34863">
        <ele>322.20001220703</ele>
        <time>2022-03-19T14:17:04.000Z</time>
      </trkpt>
      <trkpt lat="43.6204" lon="5.34874">
        <ele>322.79998779297</ele>
        <time>2022-03-19T14:17:06.000Z</time>
      </trkpt>
      <trkpt lat="43.62039" lon="5.3488">
        <ele>323.20001220703</ele>
        <time>2022-03-19T14:17:07.000Z</time>
      </trkpt>
      <trkpt lat="43.62036" lon="5.34892">
        <ele>323.79998779297</ele>
        <time>2022-03-19T14:17:09.000Z</time>
      </trkpt>
      <trkpt lat="43.62034" lon="5.34904">
        <ele>324.60000610352</ele>
        <time>2022-03-19T14:17:11.000Z</time>
      </trkpt>
      <trkpt lat="43.62033" lon="5.34928">
        <ele>324.60000610352</ele>
        <time>2022-03-19T14:17:15.000Z</time>
      </trkpt>
      <trkpt lat="43.62035" lon="5.3494">
        <ele>324.20001220703</ele>
        <time>2022-03-19T14:17:17.000Z</time>
      </trkpt>
      <trkpt lat="43.62039" lon="5.34957">
        <ele>324.39999389648</ele>
        <time>2022-03-19T14:17:20.000Z</time>
      </trkpt>
      <trkpt lat="43.62048" lon="5.34984">
        <ele>324.79998779297</ele>
        <time>2022-03-19T14:17:25.000Z</time>
      </trkpt>
      <trkpt lat="43.62051" lon="5.34989">
        <ele>325.20001220703</ele>
        <time>2022-03-19T14:17:26.000Z</time>
      </trkpt>
      <trkpt lat="43.62056" lon="5.35004">
        <ele>326.39999389648</ele>
        <time>2022-03-19T14:17:29.000Z</time>
      </trkpt>
      <trkpt lat="43.62059" lon="5.35021">
        <ele>327.79998779297</ele>
        <time>2022-03-19T14:17:32.000Z</time>
      </trkpt>
      <trkpt lat="43.6206" lon="5.35028">
        <ele>328.39999389648</ele>
        <time>2022-03-19T14:17:33.000Z</time>
      </trkpt>
      <trkpt lat="43.6206" lon="5.35052">
        <ele>330</ele>
        <time>2022-03-19T14:17:37.000Z</time>
      </trkpt>
      <trkpt lat="43.62059" lon="5.35058">
        <ele>330</ele>
        <time>2022-03-19T14:17:38.000Z</time>
      </trkpt>
      <trkpt lat="43.62059" lon="5.35064">
        <ele>330</ele>
        <time>2022-03-19T14:17:39.000Z</time>
      </trkpt>
      <trkpt lat="43.62057" lon="5.35082">
        <ele>329.79998779297</ele>
        <time>2022-03-19T14:17:42.000Z</time>
      </trkpt>
      <trkpt lat="43.62056" lon="5.35093">
        <ele>329.79998779297</ele>
        <time>2022-03-19T14:17:44.000Z</time>
      </trkpt>
      <trkpt lat="43.62054" lon="5.3511">
        <ele>329.20001220703</ele>
        <time>2022-03-19T14:17:47.000Z</time>
      </trkpt>
      <trkpt lat="43.62048" lon="5.3514">
        <ele>327.79998779297</ele>
        <time>2022-03-19T14:17:53.000Z</time>
      </trkpt>
      <trkpt lat="43.62047" lon="5.35151">
        <ele>327.79998779297</ele>
        <time>2022-03-19T14:17:55.000Z</time>
      </trkpt>
      <trkpt lat="43.62046" lon="5.35156">
        <ele>327.60000610352</ele>
        <time>2022-03-19T14:17:56.000Z</time>
      </trkpt>
      <trkpt lat="43.62038" lon="5.35181">
        <ele>326.60000610352</ele>
        <time>2022-03-19T14:18:01.000Z</time>
      </trkpt>
      <trkpt lat="43.62027" lon="5.35201">
        <ele>325.79998779297</ele>
        <time>2022-03-19T14:18:06.000Z</time>
      </trkpt>
      <trkpt lat="43.62016" lon="5.35235">
        <ele>325</ele>
        <time>2022-03-19T14:18:12.000Z</time>
      </trkpt>
      <trkpt lat="43.62011" lon="5.35249">
        <ele>324.60000610352</ele>
        <time>2022-03-19T14:18:14.000Z</time>
      </trkpt>
      <trkpt lat="43.62007" lon="5.35264">
        <ele>324.20001220703</ele>
        <time>2022-03-19T14:18:16.000Z</time>
      </trkpt>
      <trkpt lat="43.62005" lon="5.3527">
        <ele>324.20001220703</ele>
        <time>2022-03-19T14:18:17.000Z</time>
      </trkpt>
      <trkpt lat="43.62004" lon="5.35277">
        <ele>323.79998779297</ele>
        <time>2022-03-19T14:18:18.000Z</time>
      </trkpt>
      <trkpt lat="43.62002" lon="5.35283">
        <ele>323.39999389648</ele>
        <time>2022-03-19T14:18:19.000Z</time>
      </trkpt>
      <trkpt lat="43.62" lon="5.35288">
        <ele>323</ele>
        <time>2022-03-19T14:18:20.000Z</time>
      </trkpt>
      <trkpt lat="43.61998" lon="5.3529">
        <ele>322.79998779297</ele>
        <time>2022-03-19T14:18:21.000Z</time>
      </trkpt>
      <trkpt lat="43.61997" lon="5.35293">
        <ele>322.39999389648</ele>
        <time>2022-03-19T14:18:22.000Z</time>
      </trkpt>
      <trkpt lat="43.61996" lon="5.35293">
        <ele>322.20001220703</ele>
        <time>2022-03-19T14:18:23.000Z</time>
      </trkpt>
      <trkpt lat="43.61996" lon="5.35293">
        <ele>322.20001220703</ele>
        <time>2022-03-19T14:18:24.000Z</time>
      </trkpt>
      <trkpt lat="43.61996" lon="5.35293">
        <ele>322.20001220703</ele>
        <time>2022-03-19T14:18:25.000Z</time>
      </trkpt>
      <trkpt lat="43.61996" lon="5.35293">
        <ele>322.20001220703</ele>
        <time>2022-03-19T14:18:26.000Z</time>
      </trkpt>
      <trkpt lat="43.61996" lon="5.35293">
        <ele>322.20001220703</ele>
        <time>2022-03-19T14:18:30.000Z</time>
      </trkpt>
      <trkpt lat="43.61995" lon="5.35293">
        <ele>322.20001220703</ele>
        <time>2022-03-19T14:18:31.000Z</time>
      </trkpt>
      <trkpt lat="43.61991" lon="5.35289">
        <ele>321.79998779297</ele>
        <time>2022-03-19T14:18:34.000Z</time>
      </trkpt>
      <trkpt lat="43.61989" lon="5.35286">
        <ele>321.39999389648</ele>
        <time>2022-03-19T14:18:35.000Z</time>
      </trkpt>
      <trkpt lat="43.61981" lon="5.35277">
        <ele>320.79998779297</ele>
        <time>2022-03-19T14:18:39.000Z</time>
      </trkpt>
      <trkpt lat="43.61979" lon="5.35273">
        <ele>320.39999389648</ele>
        <time>2022-03-19T14:18:41.000Z</time>
      </trkpt>
      <trkpt lat="43.61976" lon="5.35271">
        <ele>320.20001220703</ele>
        <time>2022-03-19T14:18:42.000Z</time>
      </trkpt>
      <trkpt lat="43.61975" lon="5.35269">
        <ele>319.79998779297</ele>
        <time>2022-03-19T14:18:43.000Z</time>
      </trkpt>
      <trkpt lat="43.61973" lon="5.35268">
        <ele>319.60000610352</ele>
        <time>2022-03-19T14:18:44.000Z</time>
      </trkpt>
      <trkpt lat="43.61971" lon="5.35269">
        <ele>319.20001220703</ele>
        <time>2022-03-19T14:18:45.000Z</time>
      </trkpt>
      <trkpt lat="43.6197" lon="5.35269">
        <ele>319</ele>
        <time>2022-03-19T14:18:46.000Z</time>
      </trkpt>
      <trkpt lat="43.61968" lon="5.35269">
        <ele>318.79998779297</ele>
        <time>2022-03-19T14:18:47.000Z</time>
      </trkpt>
      <trkpt lat="43.61967" lon="5.35271">
        <ele>318.79998779297</ele>
        <time>2022-03-19T14:18:48.000Z</time>
      </trkpt>
      <trkpt lat="43.61965" lon="5.35274">
        <ele>319</ele>
        <time>2022-03-19T14:18:49.000Z</time>
      </trkpt>
      <trkpt lat="43.61964" lon="5.35277">
        <ele>319</ele>
        <time>2022-03-19T14:18:50.000Z</time>
      </trkpt>
      <trkpt lat="43.61963" lon="5.35281">
        <ele>318.79998779297</ele>
        <time>2022-03-19T14:18:51.000Z</time>
      </trkpt>
      <trkpt lat="43.61961" lon="5.35285">
        <ele>318.79998779297</ele>
        <time>2022-03-19T14:18:52.000Z</time>
      </trkpt>
      <trkpt lat="43.61948" lon="5.35311">
        <ele>319.60000610352</ele>
        <time>2022-03-19T14:18:58.000Z</time>
      </trkpt>
      <trkpt lat="43.61937" lon="5.35332">
        <ele>320.60000610352</ele>
        <time>2022-03-19T14:19:03.000Z</time>
      </trkpt>
      <trkpt lat="43.61934" lon="5.35342">
        <ele>321.79998779297</ele>
        <time>2022-03-19T14:19:05.000Z</time>
      </trkpt>
      <trkpt lat="43.61932" lon="5.35346">
        <ele>322</ele>
        <time>2022-03-19T14:19:06.000Z</time>
      </trkpt>
      <trkpt lat="43.61931" lon="5.35351">
        <ele>322</ele>
        <time>2022-03-19T14:19:07.000Z</time>
      </trkpt>
      <trkpt lat="43.61929" lon="5.35355">
        <ele>322.20001220703</ele>
        <time>2022-03-19T14:19:08.000Z</time>
      </trkpt>
      <trkpt lat="43.61928" lon="5.35359">
        <ele>322.20001220703</ele>
        <time>2022-03-19T14:19:09.000Z</time>
      </trkpt>
      <trkpt lat="43.6192" lon="5.35387">
        <ele>323</ele>
        <time>2022-03-19T14:19:15.000Z</time>
      </trkpt>
      <trkpt lat="43.61916" lon="5.354">
        <ele>323</ele>
        <time>2022-03-19T14:19:18.000Z</time>
      </trkpt>
      <trkpt lat="43.61915" lon="5.35405">
        <ele>322.79998779297</ele>
        <time>2022-03-19T14:19:19.000Z</time>
      </trkpt>
      <trkpt lat="43.61914" lon="5.3541">
        <ele>323</ele>
        <time>2022-03-19T14:19:20.000Z</time>
      </trkpt>
      <trkpt lat="43.61912" lon="5.35414">
        <ele>323.20001220703</ele>
        <time>2022-03-19T14:19:21.000Z</time>
      </trkpt>
      <trkpt lat="43.61911" lon="5.35419">
        <ele>323.39999389648</ele>
        <time>2022-03-19T14:19:22.000Z</time>
      </trkpt>
      <trkpt lat="43.61908" lon="5.35438">
        <ele>324.60000610352</ele>
        <time>2022-03-19T14:19:26.000Z</time>
      </trkpt>
      <trkpt lat="43.61903" lon="5.35464">
        <ele>325.79998779297</ele>
        <time>2022-03-19T14:19:31.000Z</time>
      </trkpt>
      <trkpt lat="43.61901" lon="5.3547">
        <ele>326.20001220703</ele>
        <time>2022-03-19T14:19:32.000Z</time>
      </trkpt>
      <trkpt lat="43.619" lon="5.35476">
        <ele>326.60000610352</ele>
        <time>2022-03-19T14:19:33.000Z</time>
      </trkpt>
      <trkpt lat="43.619" lon="5.35481">
        <ele>327</ele>
        <time>2022-03-19T14:19:34.000Z</time>
      </trkpt>
      <trkpt lat="43.61898" lon="5.35487">
        <ele>327.20001220703</ele>
        <time>2022-03-19T14:19:35.000Z</time>
      </trkpt>
      <trkpt lat="43.61897" lon="5.35492">
        <ele>327.39999389648</ele>
        <time>2022-03-19T14:19:36.000Z</time>
      </trkpt>
      <trkpt lat="43.61889" lon="5.35513">
        <ele>327.79998779297</ele>
        <time>2022-03-19T14:19:41.000Z</time>
      </trkpt>
      <trkpt lat="43.61883" lon="5.35538">
        <ele>327.60000610352</ele>
        <time>2022-03-19T14:19:47.000Z</time>
      </trkpt>
      <trkpt lat="43.61881" lon="5.35548">
        <ele>327.79998779297</ele>
        <time>2022-03-19T14:19:49.000Z</time>
      </trkpt>
      <trkpt lat="43.6188" lon="5.35558">
        <ele>327.79998779297</ele>
        <time>2022-03-19T14:19:51.000Z</time>
      </trkpt>
      <trkpt lat="43.61874" lon="5.35577">
        <ele>327.20001220703</ele>
        <time>2022-03-19T14:19:56.000Z</time>
      </trkpt>
      <trkpt lat="43.61872" lon="5.35582">
        <ele>327.39999389648</ele>
        <time>2022-03-19T14:19:57.000Z</time>
      </trkpt>
      <trkpt lat="43.6187" lon="5.3559">
        <ele>327.20001220703</ele>
        <time>2022-03-19T14:20:00.000Z</time>
      </trkpt>
      <trkpt lat="43.61869" lon="5.35594">
        <ele>327</ele>
        <time>2022-03-19T14:20:01.000Z</time>
      </trkpt>
      <trkpt lat="43.61866" lon="5.35616">
        <ele>326.60000610352</ele>
        <time>2022-03-19T14:20:06.000Z</time>
      </trkpt>
      <trkpt lat="43.61866" lon="5.35619">
        <ele>326.39999389648</ele>
        <time>2022-03-19T14:20:07.000Z</time>
      </trkpt>
      <trkpt lat="43.61864" lon="5.35626">
        <ele>326</ele>
        <time>2022-03-19T14:20:09.000Z</time>
      </trkpt>
      <trkpt lat="43.61863" lon="5.3563">
        <ele>325.79998779297</ele>
        <time>2022-03-19T14:20:10.000Z</time>
      </trkpt>
      <trkpt lat="43.61862" lon="5.35635">
        <ele>325.60000610352</ele>
        <time>2022-03-19T14:20:11.000Z</time>
      </trkpt>
      <trkpt lat="43.61862" lon="5.35638">
        <ele>325.60000610352</ele>
        <time>2022-03-19T14:20:12.000Z</time>
      </trkpt>
      <trkpt lat="43.61862" lon="5.35643">
        <ele>325.60000610352</ele>
        <time>2022-03-19T14:20:13.000Z</time>
      </trkpt>
      <trkpt lat="43.61863" lon="5.35654">
        <ele>325.79998779297</ele>
        <time>2022-03-19T14:20:16.000Z</time>
      </trkpt>
      <trkpt lat="43.61863" lon="5.35661">
        <ele>325.79998779297</ele>
        <time>2022-03-19T14:20:20.000Z</time>
      </trkpt>
      <trkpt lat="43.61863" lon="5.35661">
        <ele>325.79998779297</ele>
        <time>2022-03-19T14:20:29.000Z</time>
      </trkpt>
      <trkpt lat="43.61863" lon="5.35661">
        <ele>325.79998779297</ele>
        <time>2022-03-19T14:20:37.000Z</time>
      </trkpt>
      <trkpt lat="43.61863" lon="5.35661">
        <ele>325.79998779297</ele>
        <time>2022-03-19T14:20:50.000Z</time>
      </trkpt>
      <trkpt lat="43.61863" lon="5.35661">
        <ele>325.79998779297</ele>
        <time>2022-03-19T14:20:56.000Z</time>
      </trkpt>
      <trkpt lat="43.61862" lon="5.35663">
        <ele>325.60000610352</ele>
        <time>2022-03-19T14:21:02.000Z</time>
      </trkpt>
      <trkpt lat="43.61862" lon="5.35668">
        <ele>326.39999389648</ele>
        <time>2022-03-19T14:21:05.000Z</time>
      </trkpt>
      <trkpt lat="43.61863" lon="5.35672">
        <ele>326.79998779297</ele>
        <time>2022-03-19T14:21:06.000Z</time>
      </trkpt>
      <trkpt lat="43.61863" lon="5.35676">
        <ele>327.20001220703</ele>
        <time>2022-03-19T14:21:07.000Z</time>
      </trkpt>
      <trkpt lat="43.61863" lon="5.3568">
        <ele>327.79998779297</ele>
        <time>2022-03-19T14:21:08.000Z</time>
      </trkpt>
      <trkpt lat="43.61863" lon="5.35684">
        <ele>328.20001220703</ele>
        <time>2022-03-19T14:21:09.000Z</time>
      </trkpt>
      <trkpt lat="43.61863" lon="5.35688">
        <ele>328.60000610352</ele>
        <time>2022-03-19T14:21:10.000Z</time>
      </trkpt>
      <trkpt lat="43.61863" lon="5.3569">
        <ele>328.60000610352</ele>
        <time>2022-03-19T14:21:11.000Z</time>
      </trkpt>
      <trkpt lat="43.61859" lon="5.35706">
        <ele>329.20001220703</ele>
        <time>2022-03-19T14:21:15.000Z</time>
      </trkpt>
      <trkpt lat="43.61858" lon="5.35725">
        <ele>330.20001220703</ele>
        <time>2022-03-19T14:21:21.000Z</time>
      </trkpt>
      <trkpt lat="43.61854" lon="5.35742">
        <ele>330.79998779297</ele>
        <time>2022-03-19T14:21:26.000Z</time>
      </trkpt>
      <trkpt lat="43.61848" lon="5.35758">
        <ele>331.20001220703</ele>
        <time>2022-03-19T14:21:30.000Z</time>
      </trkpt>
      <trkpt lat="43.61841" lon="5.35786">
        <ele>331.79998779297</ele>
        <time>2022-03-19T14:21:35.000Z</time>
      </trkpt>
      <trkpt lat="43.61833" lon="5.35809">
        <ele>331.39999389648</ele>
        <time>2022-03-19T14:21:40.000Z</time>
      </trkpt>
      <trkpt lat="43.61825" lon="5.35835">
        <ele>330.20001220703</ele>
        <time>2022-03-19T14:21:45.000Z</time>
      </trkpt>
      <trkpt lat="43.61815" lon="5.35866">
        <ele>329.39999389648</ele>
        <time>2022-03-19T14:21:51.000Z</time>
      </trkpt>
      <trkpt lat="43.6181" lon="5.3589">
        <ele>329.20001220703</ele>
        <time>2022-03-19T14:21:57.000Z</time>
      </trkpt>
      <trkpt lat="43.61804" lon="5.35917">
        <ele>328.20001220703</ele>
        <time>2022-03-19T14:22:03.000Z</time>
      </trkpt>
      <trkpt lat="43.61799" lon="5.35946">
        <ele>328.79998779297</ele>
        <time>2022-03-19T14:22:10.000Z</time>
      </trkpt>
      <trkpt lat="43.61797" lon="5.35964">
        <ele>329.20001220703</ele>
        <time>2022-03-19T14:22:14.000Z</time>
      </trkpt>
      <trkpt lat="43.61796" lon="5.35969">
        <ele>329.20001220703</ele>
        <time>2022-03-19T14:22:15.000Z</time>
      </trkpt>
      <trkpt lat="43.61795" lon="5.35989">
        <ele>329.20001220703</ele>
        <time>2022-03-19T14:22:20.000Z</time>
      </trkpt>
      <trkpt lat="43.61795" lon="5.36012">
        <ele>329</ele>
        <time>2022-03-19T14:22:26.000Z</time>
      </trkpt>
      <trkpt lat="43.61795" lon="5.36041">
        <ele>328.39999389648</ele>
        <time>2022-03-19T14:22:33.000Z</time>
      </trkpt>
      <trkpt lat="43.61798" lon="5.36066">
        <ele>328.20001220703</ele>
        <time>2022-03-19T14:22:39.000Z</time>
      </trkpt>
      <trkpt lat="43.61801" lon="5.36081">
        <ele>328</ele>
        <time>2022-03-19T14:22:43.000Z</time>
      </trkpt>
      <trkpt lat="43.61798" lon="5.3611">
        <ele>328.20001220703</ele>
        <time>2022-03-19T14:22:50.000Z</time>
      </trkpt>
      <trkpt lat="43.61789" lon="5.36133">
        <ele>328.20001220703</ele>
        <time>2022-03-19T14:22:56.000Z</time>
      </trkpt>
      <trkpt lat="43.61776" lon="5.36158">
        <ele>327.79998779297</ele>
        <time>2022-03-19T14:23:02.000Z</time>
      </trkpt>
      <trkpt lat="43.61762" lon="5.36184">
        <ele>328</ele>
        <time>2022-03-19T14:23:08.000Z</time>
      </trkpt>
      <trkpt lat="43.61756" lon="5.36214">
        <ele>328.20001220703</ele>
        <time>2022-03-19T14:23:14.000Z</time>
      </trkpt>
      <trkpt lat="43.61755" lon="5.36255">
        <ele>327</ele>
        <time>2022-03-19T14:23:21.000Z</time>
      </trkpt>
      <trkpt lat="43.61757" lon="5.36265">
        <ele>326.79998779297</ele>
        <time>2022-03-19T14:23:23.000Z</time>
      </trkpt>
      <trkpt lat="43.61762" lon="5.36287">
        <ele>326.39999389648</ele>
        <time>2022-03-19T14:23:27.000Z</time>
      </trkpt>
      <trkpt lat="43.61763" lon="5.36293">
        <ele>326.39999389648</ele>
        <time>2022-03-19T14:23:28.000Z</time>
      </trkpt>
      <trkpt lat="43.61763" lon="5.36298">
        <ele>326.20001220703</ele>
        <time>2022-03-19T14:23:29.000Z</time>
      </trkpt>
      <trkpt lat="43.61764" lon="5.36304">
        <ele>326.20001220703</ele>
        <time>2022-03-19T14:23:30.000Z</time>
      </trkpt>
      <trkpt lat="43.61765" lon="5.36309">
        <ele>326</ele>
        <time>2022-03-19T14:23:31.000Z</time>
      </trkpt>
      <trkpt lat="43.61766" lon="5.36314">
        <ele>326</ele>
        <time>2022-03-19T14:23:32.000Z</time>
      </trkpt>
      <trkpt lat="43.6177" lon="5.36336">
        <ele>326</ele>
        <time>2022-03-19T14:23:36.000Z</time>
      </trkpt>
      <trkpt lat="43.61772" lon="5.36347">
        <ele>326.60000610352</ele>
        <time>2022-03-19T14:23:38.000Z</time>
      </trkpt>
      <trkpt lat="43.61776" lon="5.36369">
        <ele>327.79998779297</ele>
        <time>2022-03-19T14:23:42.000Z</time>
      </trkpt>
      <trkpt lat="43.61776" lon="5.3639">
        <ele>329</ele>
        <time>2022-03-19T14:23:46.000Z</time>
      </trkpt>
      <trkpt lat="43.61774" lon="5.36396">
        <ele>329.20001220703</ele>
        <time>2022-03-19T14:23:47.000Z</time>
      </trkpt>
      <trkpt lat="43.61767" lon="5.36406">
        <ele>329.39999389648</ele>
        <time>2022-03-19T14:23:50.000Z</time>
      </trkpt>
      <trkpt lat="43.61754" lon="5.36418">
        <ele>329.20001220703</ele>
        <time>2022-03-19T14:23:54.000Z</time>
      </trkpt>
      <trkpt lat="43.61736" lon="5.36434">
        <ele>328.79998779297</ele>
        <time>2022-03-19T14:23:59.000Z</time>
      </trkpt>
      <trkpt lat="43.61733" lon="5.36437">
        <ele>328.60000610352</ele>
        <time>2022-03-19T14:24:00.000Z</time>
      </trkpt>
      <trkpt lat="43.61724" lon="5.36451">
        <ele>327.60000610352</ele>
        <time>2022-03-19T14:24:03.000Z</time>
      </trkpt>
      <trkpt lat="43.61722" lon="5.36477">
        <ele>327</ele>
        <time>2022-03-19T14:24:07.000Z</time>
      </trkpt>
      <trkpt lat="43.61722" lon="5.36513">
        <ele>328.20001220703</ele>
        <time>2022-03-19T14:24:14.000Z</time>
      </trkpt>
      <trkpt lat="43.61722" lon="5.36518">
        <ele>328.39999389648</ele>
        <time>2022-03-19T14:24:15.000Z</time>
      </trkpt>
      <trkpt lat="43.61722" lon="5.36522">
        <ele>328.60000610352</ele>
        <time>2022-03-19T14:24:16.000Z</time>
      </trkpt>
      <trkpt lat="43.61721" lon="5.36525">
        <ele>328.60000610352</ele>
        <time>2022-03-19T14:24:17.000Z</time>
      </trkpt>
      <trkpt lat="43.6172" lon="5.36529">
        <ele>328.60000610352</ele>
        <time>2022-03-19T14:24:18.000Z</time>
      </trkpt>
      <trkpt lat="43.61719" lon="5.36534">
        <ele>328.60000610352</ele>
        <time>2022-03-19T14:24:19.000Z</time>
      </trkpt>
      <trkpt lat="43.61718" lon="5.36538">
        <ele>328.79998779297</ele>
        <time>2022-03-19T14:24:20.000Z</time>
      </trkpt>
      <trkpt lat="43.6171" lon="5.36563">
        <ele>327.79998779297</ele>
        <time>2022-03-19T14:24:26.000Z</time>
      </trkpt>
      <trkpt lat="43.61705" lon="5.36578">
        <ele>327</ele>
        <time>2022-03-19T14:24:29.000Z</time>
      </trkpt>
      <trkpt lat="43.61704" lon="5.36582">
        <ele>327</ele>
        <time>2022-03-19T14:24:30.000Z</time>
      </trkpt>
      <trkpt lat="43.61702" lon="5.36586">
        <ele>326.79998779297</ele>
        <time>2022-03-19T14:24:31.000Z</time>
      </trkpt>
      <trkpt lat="43.61699" lon="5.3659">
        <ele>326.60000610352</ele>
        <time>2022-03-19T14:24:32.000Z</time>
      </trkpt>
      <trkpt lat="43.61697" lon="5.36595">
        <ele>326.60000610352</ele>
        <time>2022-03-19T14:24:33.000Z</time>
      </trkpt>
      <trkpt lat="43.61683" lon="5.36627">
        <ele>327.60000610352</ele>
        <time>2022-03-19T14:24:40.000Z</time>
      </trkpt>
      <trkpt lat="43.61681" lon="5.36632">
        <ele>327.60000610352</ele>
        <time>2022-03-19T14:24:41.000Z</time>
      </trkpt>
      <trkpt lat="43.61667" lon="5.3666">
        <ele>327.79998779297</ele>
        <time>2022-03-19T14:24:47.000Z</time>
      </trkpt>
      <trkpt lat="43.61656" lon="5.36684">
        <ele>328.20001220703</ele>
        <time>2022-03-19T14:24:52.000Z</time>
      </trkpt>
      <trkpt lat="43.61654" lon="5.3669">
        <ele>328.39999389648</ele>
        <time>2022-03-19T14:24:53.000Z</time>
      </trkpt>
      <trkpt lat="43.61643" lon="5.36719">
        <ele>328</ele>
        <time>2022-03-19T14:24:58.000Z</time>
      </trkpt>
      <trkpt lat="43.61634" lon="5.3674">
        <ele>328</ele>
        <time>2022-03-19T14:25:02.000Z</time>
      </trkpt>
      <trkpt lat="43.6163" lon="5.36751">
        <ele>328.39999389648</ele>
        <time>2022-03-19T14:25:04.000Z</time>
      </trkpt>
      <trkpt lat="43.61624" lon="5.36768">
        <ele>328.60000610352</ele>
        <time>2022-03-19T14:25:07.000Z</time>
      </trkpt>
      <trkpt lat="43.61618" lon="5.36784">
        <ele>329.20001220703</ele>
        <time>2022-03-19T14:25:10.000Z</time>
      </trkpt>
      <trkpt lat="43.61615" lon="5.36789">
        <ele>329.60000610352</ele>
        <time>2022-03-19T14:25:11.000Z</time>
      </trkpt>
      <trkpt lat="43.61607" lon="5.36811">
        <ele>329.79998779297</ele>
        <time>2022-03-19T14:25:15.000Z</time>
      </trkpt>
      <trkpt lat="43.61592" lon="5.3685">
        <ele>329.39999389648</ele>
        <time>2022-03-19T14:25:23.000Z</time>
      </trkpt>
      <trkpt lat="43.61577" lon="5.36891">
        <ele>328.39999389648</ele>
        <time>2022-03-19T14:25:30.000Z</time>
      </trkpt>
      <trkpt lat="43.61565" lon="5.36926">
        <ele>328.39999389648</ele>
        <time>2022-03-19T14:25:36.000Z</time>
      </trkpt>
      <trkpt lat="43.6155" lon="5.36958">
        <ele>328.60000610352</ele>
        <time>2022-03-19T14:25:42.000Z</time>
      </trkpt>
      <trkpt lat="43.61535" lon="5.36982">
        <ele>328.20001220703</ele>
        <time>2022-03-19T14:25:47.000Z</time>
      </trkpt>
      <trkpt lat="43.61518" lon="5.37012">
        <ele>327.60000610352</ele>
        <time>2022-03-19T14:25:53.000Z</time>
      </trkpt>
      <trkpt lat="43.61501" lon="5.37049">
        <ele>328</ele>
        <time>2022-03-19T14:26:00.000Z</time>
      </trkpt>
      <trkpt lat="43.61492" lon="5.37082">
        <ele>328.60000610352</ele>
        <time>2022-03-19T14:26:06.000Z</time>
      </trkpt>
      <trkpt lat="43.61484" lon="5.37108">
        <ele>327.60000610352</ele>
        <time>2022-03-19T14:26:11.000Z</time>
      </trkpt>
      <trkpt lat="43.61474" lon="5.37128">
        <ele>327.79998779297</ele>
        <time>2022-03-19T14:26:16.000Z</time>
      </trkpt>
      <trkpt lat="43.61466" lon="5.37151">
        <ele>327.60000610352</ele>
        <time>2022-03-19T14:26:21.000Z</time>
      </trkpt>
      <trkpt lat="43.61463" lon="5.37155">
        <ele>327.79998779297</ele>
        <time>2022-03-19T14:26:23.000Z</time>
      </trkpt>
      <trkpt lat="43.6146" lon="5.37156">
        <ele>327.79998779297</ele>
        <time>2022-03-19T14:26:25.000Z</time>
      </trkpt>
      <trkpt lat="43.6145" lon="5.37158">
        <ele>327.79998779297</ele>
        <time>2022-03-19T14:26:29.000Z</time>
      </trkpt>
      <trkpt lat="43.61447" lon="5.3716">
        <ele>327.79998779297</ele>
        <time>2022-03-19T14:26:31.000Z</time>
      </trkpt>
      <trkpt lat="43.61445" lon="5.37163">
        <ele>328</ele>
        <time>2022-03-19T14:26:34.000Z</time>
      </trkpt>
      <trkpt lat="43.61443" lon="5.37166">
        <ele>328.20001220703</ele>
        <time>2022-03-19T14:26:36.000Z</time>
      </trkpt>
      <trkpt lat="43.61443" lon="5.37167">
        <ele>328.20001220703</ele>
        <time>2022-03-19T14:26:37.000Z</time>
      </trkpt>
      <trkpt lat="43.61442" lon="5.37169">
        <ele>328.20001220703</ele>
        <time>2022-03-19T14:26:38.000Z</time>
      </trkpt>
      <trkpt lat="43.61441" lon="5.3717">
        <ele>328.20001220703</ele>
        <time>2022-03-19T14:26:39.000Z</time>
      </trkpt>
      <trkpt lat="43.61441" lon="5.37171">
        <ele>328.20001220703</ele>
        <time>2022-03-19T14:26:40.000Z</time>
      </trkpt>
      <trkpt lat="43.6144" lon="5.37174">
        <ele>328.39999389648</ele>
        <time>2022-03-19T14:26:41.000Z</time>
      </trkpt>
      <trkpt lat="43.61437" lon="5.37188">
        <ele>329.20001220703</ele>
        <time>2022-03-19T14:26:46.000Z</time>
      </trkpt>
      <trkpt lat="43.61428" lon="5.37203">
        <ele>330.39999389648</ele>
        <time>2022-03-19T14:26:51.000Z</time>
      </trkpt>
      <trkpt lat="43.61419" lon="5.37212">
        <ele>330.79998779297</ele>
        <time>2022-03-19T14:26:55.000Z</time>
      </trkpt>
      <trkpt lat="43.61417" lon="5.37211">
        <ele>330.79998779297</ele>
        <time>2022-03-19T14:26:57.000Z</time>
      </trkpt>
      <trkpt lat="43.61413" lon="5.37205">
        <ele>330.60000610352</ele>
        <time>2022-03-19T14:26:59.000Z</time>
      </trkpt>
      <trkpt lat="43.61407" lon="5.372">
        <ele>330.39999389648</ele>
        <time>2022-03-19T14:27:02.000Z</time>
      </trkpt>
      <trkpt lat="43.614" lon="5.3719">
        <ele>330</ele>
        <time>2022-03-19T14:27:06.000Z</time>
      </trkpt>
      <trkpt lat="43.614" lon="5.37188">
        <ele>329.79998779297</ele>
        <time>2022-03-19T14:27:07.000Z</time>
      </trkpt>
      <trkpt lat="43.61391" lon="5.37174">
        <ele>329.39999389648</ele>
        <time>2022-03-19T14:27:12.000Z</time>
      </trkpt>
      <trkpt lat="43.61378" lon="5.37162">
        <ele>328.39999389648</ele>
        <time>2022-03-19T14:27:17.000Z</time>
      </trkpt>
      <trkpt lat="43.6137" lon="5.37154">
        <ele>327.60000610352</ele>
        <time>2022-03-19T14:27:19.000Z</time>
      </trkpt>
      <trkpt lat="43.61366" lon="5.37151">
        <ele>327.20001220703</ele>
        <time>2022-03-19T14:27:20.000Z</time>
      </trkpt>
      <trkpt lat="43.61361" lon="5.37149">
        <ele>327</ele>
        <time>2022-03-19T14:27:21.000Z</time>
      </trkpt>
      <trkpt lat="43.61358" lon="5.37148">
        <ele>327</ele>
        <time>2022-03-19T14:27:22.000Z</time>
      </trkpt>
      <trkpt lat="43.61352" lon="5.37153">
        <ele>327</ele>
        <time>2022-03-19T14:27:24.000Z</time>
      </trkpt>
      <trkpt lat="43.61333" lon="5.37156">
        <ele>325</ele>
        <time>2022-03-19T14:27:29.000Z</time>
      </trkpt>
      <trkpt lat="43.61323" lon="5.37155">
        <ele>324.60000610352</ele>
        <time>2022-03-19T14:27:31.000Z</time>
      </trkpt>
      <trkpt lat="43.61318" lon="5.37156">
        <ele>324.39999389648</ele>
        <time>2022-03-19T14:27:32.000Z</time>
      </trkpt>
      <trkpt lat="43.61313" lon="5.37158">
        <ele>324.20001220703</ele>
        <time>2022-03-19T14:27:33.000Z</time>
      </trkpt>
      <trkpt lat="43.61307" lon="5.37159">
        <ele>324</ele>
        <time>2022-03-19T14:27:34.000Z</time>
      </trkpt>
      <trkpt lat="43.61303" lon="5.37161">
        <ele>324</ele>
        <time>2022-03-19T14:27:35.000Z</time>
      </trkpt>
      <trkpt lat="43.61299" lon="5.37163">
        <ele>324</ele>
        <time>2022-03-19T14:27:36.000Z</time>
      </trkpt>
      <trkpt lat="43.61292" lon="5.37168">
        <ele>324</ele>
        <time>2022-03-19T14:27:38.000Z</time>
      </trkpt>
      <trkpt lat="43.6128" lon="5.37178">
        <ele>324.60000610352</ele>
        <time>2022-03-19T14:27:41.000Z</time>
      </trkpt>
      <trkpt lat="43.61276" lon="5.3718">
        <ele>324.79998779297</ele>
        <time>2022-03-19T14:27:42.000Z</time>
      </trkpt>
      <trkpt lat="43.61272" lon="5.37183">
        <ele>325</ele>
        <time>2022-03-19T14:27:43.000Z</time>
      </trkpt>
      <trkpt lat="43.61268" lon="5.37184">
        <ele>325.20001220703</ele>
        <time>2022-03-19T14:27:44.000Z</time>
      </trkpt>
      <trkpt lat="43.61249" lon="5.37193">
        <ele>326</ele>
        <time>2022-03-19T14:27:49.000Z</time>
      </trkpt>
      <trkpt lat="43.61237" lon="5.37197">
        <ele>326.20001220703</ele>
        <time>2022-03-19T14:27:53.000Z</time>
      </trkpt>
      <trkpt lat="43.61218" lon="5.37201">
        <ele>326.39999389648</ele>
        <time>2022-03-19T14:27:58.000Z</time>
      </trkpt>
      <trkpt lat="43.61205" lon="5.37205">
        <ele>326.60000610352</ele>
        <time>2022-03-19T14:28:02.000Z</time>
      </trkpt>
      <trkpt lat="43.61183" lon="5.37207">
        <ele>326.60000610352</ele>
        <time>2022-03-19T14:28:07.000Z</time>
      </trkpt>
      <trkpt lat="43.6118" lon="5.37205">
        <ele>326.60000610352</ele>
        <time>2022-03-19T14:28:08.000Z</time>
      </trkpt>
      <trkpt lat="43.61167" lon="5.37205">
        <ele>326.60000610352</ele>
        <time>2022-03-19T14:28:11.000Z</time>
      </trkpt>
      <trkpt lat="43.61163" lon="5.37205">
        <ele>326.60000610352</ele>
        <time>2022-03-19T14:28:12.000Z</time>
      </trkpt>
      <trkpt lat="43.61154" lon="5.37206">
        <ele>326.60000610352</ele>
        <time>2022-03-19T14:28:14.000Z</time>
      </trkpt>
      <trkpt lat="43.61141" lon="5.37208">
        <ele>326.60000610352</ele>
        <time>2022-03-19T14:28:17.000Z</time>
      </trkpt>
      <trkpt lat="43.61136" lon="5.37209">
        <ele>326.39999389648</ele>
        <time>2022-03-19T14:28:18.000Z</time>
      </trkpt>
      <trkpt lat="43.61117" lon="5.37214">
        <ele>326.60000610352</ele>
        <time>2022-03-19T14:28:22.000Z</time>
      </trkpt>
      <trkpt lat="43.61104" lon="5.37216">
        <ele>326.20001220703</ele>
        <time>2022-03-19T14:28:25.000Z</time>
      </trkpt>
      <trkpt lat="43.61096" lon="5.37216">
        <ele>325.60000610352</ele>
        <time>2022-03-19T14:28:27.000Z</time>
      </trkpt>
      <trkpt lat="43.61081" lon="5.37213">
        <ele>324.39999389648</ele>
        <time>2022-03-19T14:28:31.000Z</time>
      </trkpt>
      <trkpt lat="43.6106" lon="5.37217">
        <ele>324</ele>
        <time>2022-03-19T14:28:35.000Z</time>
      </trkpt>
      <trkpt lat="43.61056" lon="5.37219">
        <ele>323.79998779297</ele>
        <time>2022-03-19T14:28:36.000Z</time>
      </trkpt>
      <trkpt lat="43.61043" lon="5.37223">
        <ele>323.79998779297</ele>
        <time>2022-03-19T14:28:39.000Z</time>
      </trkpt>
      <trkpt lat="43.61033" lon="5.37226">
        <ele>323.60000610352</ele>
        <time>2022-03-19T14:28:41.000Z</time>
      </trkpt>
      <trkpt lat="43.61028" lon="5.37228">
        <ele>323.60000610352</ele>
        <time>2022-03-19T14:28:42.000Z</time>
      </trkpt>
      <trkpt lat="43.6101" lon="5.37237">
        <ele>323.60000610352</ele>
        <time>2022-03-19T14:28:46.000Z</time>
      </trkpt>
      <trkpt lat="43.61005" lon="5.3724">
        <ele>323.60000610352</ele>
        <time>2022-03-19T14:28:47.000Z</time>
      </trkpt>
      <trkpt lat="43.60993" lon="5.37249">
        <ele>323.60000610352</ele>
        <time>2022-03-19T14:28:50.000Z</time>
      </trkpt>
      <trkpt lat="43.60989" lon="5.37251">
        <ele>323.39999389648</ele>
        <time>2022-03-19T14:28:51.000Z</time>
      </trkpt>
      <trkpt lat="43.60984" lon="5.37254">
        <ele>323.20001220703</ele>
        <time>2022-03-19T14:28:52.000Z</time>
      </trkpt>
      <trkpt lat="43.6098" lon="5.37256">
        <ele>322.79998779297</ele>
        <time>2022-03-19T14:28:53.000Z</time>
      </trkpt>
      <trkpt lat="43.60975" lon="5.37258">
        <ele>322.39999389648</ele>
        <time>2022-03-19T14:28:54.000Z</time>
      </trkpt>
      <trkpt lat="43.60962" lon="5.37264">
        <ele>322.20001220703</ele>
        <time>2022-03-19T14:28:57.000Z</time>
      </trkpt>
      <trkpt lat="43.60948" lon="5.37265">
        <ele>321.79998779297</ele>
        <time>2022-03-19T14:29:00.000Z</time>
      </trkpt>
      <trkpt lat="43.60911" lon="5.37269">
        <ele>323.20001220703</ele>
        <time>2022-03-19T14:29:07.000Z</time>
      </trkpt>
      <trkpt lat="43.60902" lon="5.37266">
        <ele>323.39999389648</ele>
        <time>2022-03-19T14:29:09.000Z</time>
      </trkpt>
      <trkpt lat="43.60886" lon="5.37266">
        <ele>323.79998779297</ele>
        <time>2022-03-19T14:29:12.000Z</time>
      </trkpt>
      <trkpt lat="43.60877" lon="5.37267">
        <ele>324.20001220703</ele>
        <time>2022-03-19T14:29:14.000Z</time>
      </trkpt>
      <trkpt lat="43.60871" lon="5.37267">
        <ele>324.39999389648</ele>
        <time>2022-03-19T14:29:15.000Z</time>
      </trkpt>
      <trkpt lat="43.60866" lon="5.37267">
        <ele>324.60000610352</ele>
        <time>2022-03-19T14:29:16.000Z</time>
      </trkpt>
      <trkpt lat="43.60861" lon="5.37268">
        <ele>324.39999389648</ele>
        <time>2022-03-19T14:29:17.000Z</time>
      </trkpt>
      <trkpt lat="43.60856" lon="5.3727">
        <ele>324</ele>
        <time>2022-03-19T14:29:18.000Z</time>
      </trkpt>
      <trkpt lat="43.60848" lon="5.37275">
        <ele>323.20001220703</ele>
        <time>2022-03-19T14:29:20.000Z</time>
      </trkpt>
      <trkpt lat="43.6084" lon="5.37279">
        <ele>322.39999389648</ele>
        <time>2022-03-19T14:29:22.000Z</time>
      </trkpt>
      <trkpt lat="43.6082" lon="5.37285">
        <ele>320.60000610352</ele>
        <time>2022-03-19T14:29:26.000Z</time>
      </trkpt>
      <trkpt lat="43.60815" lon="5.37285">
        <ele>320</ele>
        <time>2022-03-19T14:29:27.000Z</time>
      </trkpt>
      <trkpt lat="43.60804" lon="5.37285">
        <ele>319</ele>
        <time>2022-03-19T14:29:29.000Z</time>
      </trkpt>
      <trkpt lat="43.60799" lon="5.37285">
        <ele>318.60000610352</ele>
        <time>2022-03-19T14:29:30.000Z</time>
      </trkpt>
      <trkpt lat="43.60793" lon="5.37284">
        <ele>318.20001220703</ele>
        <time>2022-03-19T14:29:31.000Z</time>
      </trkpt>
      <trkpt lat="43.60787" lon="5.37282">
        <ele>317.79998779297</ele>
        <time>2022-03-19T14:29:32.000Z</time>
      </trkpt>
      <trkpt lat="43.60782" lon="5.37281">
        <ele>317.39999389648</ele>
        <time>2022-03-19T14:29:33.000Z</time>
      </trkpt>
      <trkpt lat="43.60771" lon="5.37285">
        <ele>317.39999389648</ele>
        <time>2022-03-19T14:29:35.000Z</time>
      </trkpt>
      <trkpt lat="43.60766" lon="5.37285">
        <ele>317.39999389648</ele>
        <time>2022-03-19T14:29:36.000Z</time>
      </trkpt>
      <trkpt lat="43.60761" lon="5.37285">
        <ele>317.39999389648</ele>
        <time>2022-03-19T14:29:37.000Z</time>
      </trkpt>
      <trkpt lat="43.60756" lon="5.37282">
        <ele>317.20001220703</ele>
        <time>2022-03-19T14:29:38.000Z</time>
      </trkpt>
      <trkpt lat="43.6075" lon="5.3728">
        <ele>317</ele>
        <time>2022-03-19T14:29:39.000Z</time>
      </trkpt>
      <trkpt lat="43.60743" lon="5.37279">
        <ele>316.79998779297</ele>
        <time>2022-03-19T14:29:40.000Z</time>
      </trkpt>
      <trkpt lat="43.6072" lon="5.37277">
        <ele>316.20001220703</ele>
        <time>2022-03-19T14:29:44.000Z</time>
      </trkpt>
      <trkpt lat="43.60707" lon="5.3728">
        <ele>316.39999389648</ele>
        <time>2022-03-19T14:29:46.000Z</time>
      </trkpt>
      <trkpt lat="43.6069" lon="5.37286">
        <ele>316.20001220703</ele>
        <time>2022-03-19T14:29:49.000Z</time>
      </trkpt>
      <trkpt lat="43.60686" lon="5.37289">
        <ele>316</ele>
        <time>2022-03-19T14:29:50.000Z</time>
      </trkpt>
      <trkpt lat="43.60679" lon="5.37294">
        <ele>315.60000610352</ele>
        <time>2022-03-19T14:29:53.000Z</time>
      </trkpt>
      <trkpt lat="43.60666" lon="5.37305">
        <ele>315.20001220703</ele>
        <time>2022-03-19T14:29:59.000Z</time>
      </trkpt>
      <trkpt lat="43.60657" lon="5.37313">
        <ele>315.39999389648</ele>
        <time>2022-03-19T14:30:02.000Z</time>
      </trkpt>
      <trkpt lat="43.60648" lon="5.37318">
        <ele>315</ele>
        <time>2022-03-19T14:30:04.000Z</time>
      </trkpt>
      <trkpt lat="43.60644" lon="5.37321">
        <ele>314.79998779297</ele>
        <time>2022-03-19T14:30:05.000Z</time>
      </trkpt>
      <trkpt lat="43.6064" lon="5.37322">
        <ele>314.60000610352</ele>
        <time>2022-03-19T14:30:06.000Z</time>
      </trkpt>
      <trkpt lat="43.60635" lon="5.37323">
        <ele>314.60000610352</ele>
        <time>2022-03-19T14:30:07.000Z</time>
      </trkpt>
      <trkpt lat="43.60622" lon="5.37321">
        <ele>314</ele>
        <time>2022-03-19T14:30:11.000Z</time>
      </trkpt>
      <trkpt lat="43.60617" lon="5.37327">
        <ele>314</ele>
        <time>2022-03-19T14:30:15.000Z</time>
      </trkpt>
      <trkpt lat="43.60616" lon="5.3733">
        <ele>314</ele>
        <time>2022-03-19T14:30:17.000Z</time>
      </trkpt>
      <trkpt lat="43.60617" lon="5.37332">
        <ele>314.20001220703</ele>
        <time>2022-03-19T14:30:18.000Z</time>
      </trkpt>
      <trkpt lat="43.60618" lon="5.37337">
        <ele>314.39999389648</ele>
        <time>2022-03-19T14:30:20.000Z</time>
      </trkpt>
      <trkpt lat="43.60625" lon="5.37335">
        <ele>314.60000610352</ele>
        <time>2022-03-19T14:30:24.000Z</time>
      </trkpt>
      <trkpt lat="43.60631" lon="5.3734">
        <ele>315</ele>
        <time>2022-03-19T14:30:28.000Z</time>
      </trkpt>
      <trkpt lat="43.60641" lon="5.37339">
        <ele>315.20001220703</ele>
        <time>2022-03-19T14:30:31.000Z</time>
      </trkpt>
      <trkpt lat="43.60651" lon="5.3734">
        <ele>316</ele>
        <time>2022-03-19T14:30:35.000Z</time>
      </trkpt>
      <trkpt lat="43.60654" lon="5.37341">
        <ele>316.39999389648</ele>
        <time>2022-03-19T14:30:36.000Z</time>
      </trkpt>
      <trkpt lat="43.60657" lon="5.37342">
        <ele>316.60000610352</ele>
        <time>2022-03-19T14:30:37.000Z</time>
      </trkpt>
      <trkpt lat="43.60662" lon="5.37341">
        <ele>316.79998779297</ele>
        <time>2022-03-19T14:30:38.000Z</time>
      </trkpt>
      <trkpt lat="43.60666" lon="5.3734">
        <ele>317</ele>
        <time>2022-03-19T14:30:39.000Z</time>
      </trkpt>
      <trkpt lat="43.60669" lon="5.37339">
        <ele>317.20001220703</ele>
        <time>2022-03-19T14:30:40.000Z</time>
      </trkpt>
      <trkpt lat="43.60673" lon="5.37338">
        <ele>317.60000610352</ele>
        <time>2022-03-19T14:30:41.000Z</time>
      </trkpt>
      <trkpt lat="43.60682" lon="5.37337">
        <ele>318.20001220703</ele>
        <time>2022-03-19T14:30:43.000Z</time>
      </trkpt>
      <trkpt lat="43.60693" lon="5.3734">
        <ele>319</ele>
        <time>2022-03-19T14:30:46.000Z</time>
      </trkpt>
      <trkpt lat="43.60699" lon="5.3734">
        <ele>319.39999389648</ele>
        <time>2022-03-19T14:30:48.000Z</time>
      </trkpt>
      <trkpt lat="43.60708" lon="5.37343">
        <ele>319.79998779297</ele>
        <time>2022-03-19T14:30:51.000Z</time>
      </trkpt>
      <trkpt lat="43.6073" lon="5.37344">
        <ele>320.39999389648</ele>
        <time>2022-03-19T14:30:58.000Z</time>
      </trkpt>
      <trkpt lat="43.60743" lon="5.37344">
        <ele>320.60000610352</ele>
        <time>2022-03-19T14:31:02.000Z</time>
      </trkpt>
      <trkpt lat="43.60745" lon="5.37345">
        <ele>320.60000610352</ele>
        <time>2022-03-19T14:31:03.000Z</time>
      </trkpt>
      <trkpt lat="43.60748" lon="5.37345">
        <ele>320.60000610352</ele>
        <time>2022-03-19T14:31:04.000Z</time>
      </trkpt>
      <trkpt lat="43.60752" lon="5.37345">
        <ele>320.60000610352</ele>
        <time>2022-03-19T14:31:05.000Z</time>
      </trkpt>
      <trkpt lat="43.60755" lon="5.37346">
        <ele>320.60000610352</ele>
        <time>2022-03-19T14:31:06.000Z</time>
      </trkpt>
      <trkpt lat="43.60766" lon="5.37344">
        <ele>321</ele>
        <time>2022-03-19T14:31:09.000Z</time>
      </trkpt>
      <trkpt lat="43.60787" lon="5.37341">
        <ele>320.20001220703</ele>
        <time>2022-03-19T14:31:15.000Z</time>
      </trkpt>
      <trkpt lat="43.60795" lon="5.3734">
        <ele>320.39999389648</ele>
        <time>2022-03-19T14:31:17.000Z</time>
      </trkpt>
      <trkpt lat="43.60801" lon="5.37342">
        <ele>320.79998779297</ele>
        <time>2022-03-19T14:31:19.000Z</time>
      </trkpt>
      <trkpt lat="43.6081" lon="5.37348">
        <ele>321.79998779297</ele>
        <time>2022-03-19T14:31:22.000Z</time>
      </trkpt>
      <trkpt lat="43.60816" lon="5.37347">
        <ele>322.20001220703</ele>
        <time>2022-03-19T14:31:24.000Z</time>
      </trkpt>
      <trkpt lat="43.60832" lon="5.37344">
        <ele>323.20001220703</ele>
        <time>2022-03-19T14:31:29.000Z</time>
      </trkpt>
      <trkpt lat="43.60836" lon="5.37343">
        <ele>323.39999389648</ele>
        <time>2022-03-19T14:31:31.000Z</time>
      </trkpt>
      <trkpt lat="43.60839" lon="5.37342">
        <ele>323.60000610352</ele>
        <time>2022-03-19T14:31:32.000Z</time>
      </trkpt>
      <trkpt lat="43.60843" lon="5.37341">
        <ele>323.60000610352</ele>
        <time>2022-03-19T14:31:33.000Z</time>
      </trkpt>
      <trkpt lat="43.60846" lon="5.3734">
        <ele>323.79998779297</ele>
        <time>2022-03-19T14:31:34.000Z</time>
      </trkpt>
      <trkpt lat="43.6085" lon="5.3734">
        <ele>324.20001220703</ele>
        <time>2022-03-19T14:31:35.000Z</time>
      </trkpt>
      <trkpt lat="43.6087" lon="5.37336">
        <ele>325.79998779297</ele>
        <time>2022-03-19T14:31:40.000Z</time>
      </trkpt>
      <trkpt lat="43.60898" lon="5.3733">
        <ele>325</ele>
        <time>2022-03-19T14:31:47.000Z</time>
      </trkpt>
      <trkpt lat="43.6092" lon="5.37325">
        <ele>324.79998779297</ele>
        <time>2022-03-19T14:31:53.000Z</time>
      </trkpt>
      <trkpt lat="43.60927" lon="5.37324">
        <ele>324.79998779297</ele>
        <time>2022-03-19T14:31:55.000Z</time>
      </trkpt>
      <trkpt lat="43.6093" lon="5.37324">
        <ele>324.79998779297</ele>
        <time>2022-03-19T14:31:56.000Z</time>
      </trkpt>
      <trkpt lat="43.60935" lon="5.37324">
        <ele>324.79998779297</ele>
        <time>2022-03-19T14:31:57.000Z</time>
      </trkpt>
      <trkpt lat="43.60938" lon="5.37324">
        <ele>324.79998779297</ele>
        <time>2022-03-19T14:31:58.000Z</time>
      </trkpt>
      <trkpt lat="43.60942" lon="5.37323">
        <ele>324.79998779297</ele>
        <time>2022-03-19T14:31:59.000Z</time>
      </trkpt>
      <trkpt lat="43.60946" lon="5.37323">
        <ele>324.79998779297</ele>
        <time>2022-03-19T14:32:00.000Z</time>
      </trkpt>
      <trkpt lat="43.60968" lon="5.37315">
        <ele>324.79998779297</ele>
        <time>2022-03-19T14:32:06.000Z</time>
      </trkpt>
      <trkpt lat="43.6098" lon="5.37313">
        <ele>325.39999389648</ele>
        <time>2022-03-19T14:32:09.000Z</time>
      </trkpt>
      <trkpt lat="43.60988" lon="5.3731">
        <ele>325.79998779297</ele>
        <time>2022-03-19T14:32:11.000Z</time>
      </trkpt>
      <trkpt lat="43.61015" lon="5.37304">
        <ele>327.20001220703</ele>
        <time>2022-03-19T14:32:18.000Z</time>
      </trkpt>
      <trkpt lat="43.61027" lon="5.37299">
        <ele>328.60000610352</ele>
        <time>2022-03-19T14:32:21.000Z</time>
      </trkpt>
      <trkpt lat="43.61036" lon="5.37294">
        <ele>328.60000610352</ele>
        <time>2022-03-19T14:32:23.000Z</time>
      </trkpt>
      <trkpt lat="43.6104" lon="5.37293">
        <ele>328.79998779297</ele>
        <time>2022-03-19T14:32:24.000Z</time>
      </trkpt>
      <trkpt lat="43.61048" lon="5.3729">
        <ele>328.79998779297</ele>
        <time>2022-03-19T14:32:26.000Z</time>
      </trkpt>
      <trkpt lat="43.61055" lon="5.37288">
        <ele>328.79998779297</ele>
        <time>2022-03-19T14:32:28.000Z</time>
      </trkpt>
      <trkpt lat="43.61059" lon="5.37286">
        <ele>328.79998779297</ele>
        <time>2022-03-19T14:32:29.000Z</time>
      </trkpt>
      <trkpt lat="43.61063" lon="5.37285">
        <ele>328.79998779297</ele>
        <time>2022-03-19T14:32:30.000Z</time>
      </trkpt>
      <trkpt lat="43.61067" lon="5.37284">
        <ele>328.60000610352</ele>
        <time>2022-03-19T14:32:31.000Z</time>
      </trkpt>
      <trkpt lat="43.61071" lon="5.37282">
        <ele>328.79998779297</ele>
        <time>2022-03-19T14:32:32.000Z</time>
      </trkpt>
      <trkpt lat="43.61084" lon="5.37281">
        <ele>329.20001220703</ele>
        <time>2022-03-19T14:32:35.000Z</time>
      </trkpt>
      <trkpt lat="43.61106" lon="5.37272">
        <ele>329</ele>
        <time>2022-03-19T14:32:41.000Z</time>
      </trkpt>
      <trkpt lat="43.61131" lon="5.37265">
        <ele>328.60000610352</ele>
        <time>2022-03-19T14:32:47.000Z</time>
      </trkpt>
      <trkpt lat="43.61145" lon="5.37265">
        <ele>328.60000610352</ele>
        <time>2022-03-19T14:32:50.000Z</time>
      </trkpt>
      <trkpt lat="43.61149" lon="5.37264">
        <ele>328.39999389648</ele>
        <time>2022-03-19T14:32:51.000Z</time>
      </trkpt>
      <trkpt lat="43.6116" lon="5.37256">
        <ele>328</ele>
        <time>2022-03-19T14:32:54.000Z</time>
      </trkpt>
      <trkpt lat="43.61174" lon="5.37254">
        <ele>328</ele>
        <time>2022-03-19T14:32:57.000Z</time>
      </trkpt>
      <trkpt lat="43.61178" lon="5.37253">
        <ele>328</ele>
        <time>2022-03-19T14:32:58.000Z</time>
      </trkpt>
      <trkpt lat="43.61191" lon="5.37252">
        <ele>327.39999389648</ele>
        <time>2022-03-19T14:33:03.000Z</time>
      </trkpt>
      <trkpt lat="43.61195" lon="5.37258">
        <ele>327.60000610352</ele>
        <time>2022-03-19T14:33:07.000Z</time>
      </trkpt>
      <trkpt lat="43.61195" lon="5.37258">
        <ele>327.60000610352</ele>
        <time>2022-03-19T14:33:11.000Z</time>
      </trkpt>
      <trkpt lat="43.61196" lon="5.37266">
        <ele>327.79998779297</ele>
        <time>2022-03-19T14:33:18.000Z</time>
      </trkpt>
      <trkpt lat="43.61203" lon="5.37286">
        <ele>328.20001220703</ele>
        <time>2022-03-19T14:33:23.000Z</time>
      </trkpt>
      <trkpt lat="43.61204" lon="5.37291">
        <ele>328.20001220703</ele>
        <time>2022-03-19T14:33:24.000Z</time>
      </trkpt>
      <trkpt lat="43.61205" lon="5.37297">
        <ele>328.20001220703</ele>
        <time>2022-03-19T14:33:25.000Z</time>
      </trkpt>
      <trkpt lat="43.61206" lon="5.37303">
        <ele>328.39999389648</ele>
        <time>2022-03-19T14:33:26.000Z</time>
      </trkpt>
      <trkpt lat="43.61207" lon="5.37308">
        <ele>328.39999389648</ele>
        <time>2022-03-19T14:33:27.000Z</time>
      </trkpt>
      <trkpt lat="43.61207" lon="5.37313">
        <ele>328.39999389648</ele>
        <time>2022-03-19T14:33:28.000Z</time>
      </trkpt>
      <trkpt lat="43.61211" lon="5.37343">
        <ele>329</ele>
        <time>2022-03-19T14:33:33.000Z</time>
      </trkpt>
      <trkpt lat="43.61212" lon="5.37349">
        <ele>329</ele>
        <time>2022-03-19T14:33:34.000Z</time>
      </trkpt>
      <trkpt lat="43.61214" lon="5.37355">
        <ele>329</ele>
        <time>2022-03-19T14:33:35.000Z</time>
      </trkpt>
      <trkpt lat="43.61216" lon="5.3736">
        <ele>329.20001220703</ele>
        <time>2022-03-19T14:33:36.000Z</time>
      </trkpt>
      <trkpt lat="43.61218" lon="5.37366">
        <ele>329.60000610352</ele>
        <time>2022-03-19T14:33:37.000Z</time>
      </trkpt>
      <trkpt lat="43.6122" lon="5.37371">
        <ele>330</ele>
        <time>2022-03-19T14:33:38.000Z</time>
      </trkpt>
      <trkpt lat="43.61221" lon="5.37376">
        <ele>330.39999389648</ele>
        <time>2022-03-19T14:33:39.000Z</time>
      </trkpt>
      <trkpt lat="43.61222" lon="5.37393">
        <ele>331.20001220703</ele>
        <time>2022-03-19T14:33:42.000Z</time>
      </trkpt>
      <trkpt lat="43.61222" lon="5.37399">
        <ele>331.39999389648</ele>
        <time>2022-03-19T14:33:43.000Z</time>
      </trkpt>
      <trkpt lat="43.61216" lon="5.37413">
        <ele>332</ele>
        <time>2022-03-19T14:33:46.000Z</time>
      </trkpt>
      <trkpt lat="43.6121" lon="5.37418">
        <ele>332</ele>
        <time>2022-03-19T14:33:48.000Z</time>
      </trkpt>
      <trkpt lat="43.61203" lon="5.37425">
        <ele>332</ele>
        <time>2022-03-19T14:33:50.000Z</time>
      </trkpt>
      <trkpt lat="43.612" lon="5.37429">
        <ele>332</ele>
        <time>2022-03-19T14:33:51.000Z</time>
      </trkpt>
      <trkpt lat="43.61197" lon="5.37433">
        <ele>332</ele>
        <time>2022-03-19T14:33:52.000Z</time>
      </trkpt>
      <trkpt lat="43.61193" lon="5.37437">
        <ele>331.79998779297</ele>
        <time>2022-03-19T14:33:53.000Z</time>
      </trkpt>
      <trkpt lat="43.61189" lon="5.3744">
        <ele>332</ele>
        <time>2022-03-19T14:33:54.000Z</time>
      </trkpt>
      <trkpt lat="43.61185" lon="5.37442">
        <ele>332</ele>
        <time>2022-03-19T14:33:55.000Z</time>
      </trkpt>
      <trkpt lat="43.61176" lon="5.37445">
        <ele>332</ele>
        <time>2022-03-19T14:33:58.000Z</time>
      </trkpt>
      <trkpt lat="43.61177" lon="5.37445">
        <ele>332</ele>
        <time>2022-03-19T14:33:59.000Z</time>
      </trkpt>
      <trkpt lat="43.61177" lon="5.37445">
        <ele>332</ele>
        <time>2022-03-19T14:34:08.000Z</time>
      </trkpt>
      <trkpt lat="43.61177" lon="5.37445">
        <ele>332</ele>
        <time>2022-03-19T14:34:18.000Z</time>
      </trkpt>
      <trkpt lat="43.61177" lon="5.37445">
        <ele>332</ele>
        <time>2022-03-19T14:34:26.000Z</time>
      </trkpt>
      <trkpt lat="43.61177" lon="5.37445">
        <ele>332</ele>
        <time>2022-03-19T14:34:40.000Z</time>
      </trkpt>
      <trkpt lat="43.61177" lon="5.37445">
        <ele>332</ele>
        <time>2022-03-19T14:34:52.000Z</time>
      </trkpt>
      <trkpt lat="43.61177" lon="5.37445">
        <ele>332</ele>
        <time>2022-03-19T14:35:03.000Z</time>
      </trkpt>
      <trkpt lat="43.61174" lon="5.37445">
        <ele>332</ele>
        <time>2022-03-19T14:35:10.000Z</time>
      </trkpt>
      <trkpt lat="43.61173" lon="5.37446">
        <ele>332</ele>
        <time>2022-03-19T14:35:11.000Z</time>
      </trkpt>
      <trkpt lat="43.61162" lon="5.37453">
        <ele>332.39999389648</ele>
        <time>2022-03-19T14:35:15.000Z</time>
      </trkpt>
      <trkpt lat="43.61152" lon="5.37464">
        <ele>332.79998779297</ele>
        <time>2022-03-19T14:35:19.000Z</time>
      </trkpt>
      <trkpt lat="43.6115" lon="5.37467">
        <ele>333</ele>
        <time>2022-03-19T14:35:20.000Z</time>
      </trkpt>
      <trkpt lat="43.61135" lon="5.37479">
        <ele>333.20001220703</ele>
        <time>2022-03-19T14:35:25.000Z</time>
      </trkpt>
      <trkpt lat="43.61122" lon="5.37494">
        <ele>333.20001220703</ele>
        <time>2022-03-19T14:35:29.000Z</time>
      </trkpt>
      <trkpt lat="43.61109" lon="5.37514">
        <ele>332.79998779297</ele>
        <time>2022-03-19T14:35:34.000Z</time>
      </trkpt>
      <trkpt lat="43.61101" lon="5.37527">
        <ele>333</ele>
        <time>2022-03-19T14:35:37.000Z</time>
      </trkpt>
      <trkpt lat="43.61092" lon="5.37544">
        <ele>333</ele>
        <time>2022-03-19T14:35:40.000Z</time>
      </trkpt>
      <trkpt lat="43.61073" lon="5.37577">
        <ele>332.60000610352</ele>
        <time>2022-03-19T14:35:47.000Z</time>
      </trkpt>
      <trkpt lat="43.61068" lon="5.37586">
        <ele>332.60000610352</ele>
        <time>2022-03-19T14:35:50.000Z</time>
      </trkpt>
      <trkpt lat="43.61062" lon="5.37579">
        <ele>332.20001220703</ele>
        <time>2022-03-19T14:35:52.000Z</time>
      </trkpt>
      <trkpt lat="43.61044" lon="5.37554">
        <ele>332</ele>
        <time>2022-03-19T14:35:59.000Z</time>
      </trkpt>
      <trkpt lat="43.61039" lon="5.37549">
        <ele>331.79998779297</ele>
        <time>2022-03-19T14:36:00.000Z</time>
      </trkpt>
      <trkpt lat="43.61024" lon="5.37534">
        <ele>331.20001220703</ele>
        <time>2022-03-19T14:36:04.000Z</time>
      </trkpt>
      <trkpt lat="43.61014" lon="5.37523">
        <ele>330.39999389648</ele>
        <time>2022-03-19T14:36:07.000Z</time>
      </trkpt>
      <trkpt lat="43.6101" lon="5.37518">
        <ele>330</ele>
        <time>2022-03-19T14:36:08.000Z</time>
      </trkpt>
      <trkpt lat="43.61007" lon="5.37513">
        <ele>329.79998779297</ele>
        <time>2022-03-19T14:36:09.000Z</time>
      </trkpt>
      <trkpt lat="43.61003" lon="5.37509">
        <ele>329.39999389648</ele>
        <time>2022-03-19T14:36:10.000Z</time>
      </trkpt>
      <trkpt lat="43.60999" lon="5.37505">
        <ele>329</ele>
        <time>2022-03-19T14:36:11.000Z</time>
      </trkpt>
      <trkpt lat="43.60983" lon="5.37486">
        <ele>327.60000610352</ele>
        <time>2022-03-19T14:36:15.000Z</time>
      </trkpt>
      <trkpt lat="43.60978" lon="5.37481">
        <ele>327.20001220703</ele>
        <time>2022-03-19T14:36:16.000Z</time>
      </trkpt>
      <trkpt lat="43.60974" lon="5.37477">
        <ele>327</ele>
        <time>2022-03-19T14:36:17.000Z</time>
      </trkpt>
      <trkpt lat="43.6097" lon="5.37474">
        <ele>326.79998779297</ele>
        <time>2022-03-19T14:36:18.000Z</time>
      </trkpt>
      <trkpt lat="43.60965" lon="5.3747">
        <ele>326.60000610352</ele>
        <time>2022-03-19T14:36:19.000Z</time>
      </trkpt>
      <trkpt lat="43.60961" lon="5.37465">
        <ele>326.39999389648</ele>
        <time>2022-03-19T14:36:20.000Z</time>
      </trkpt>
      <trkpt lat="43.60952" lon="5.37457">
        <ele>326.20001220703</ele>
        <time>2022-03-19T14:36:22.000Z</time>
      </trkpt>
      <trkpt lat="43.60942" lon="5.37444">
        <ele>326</ele>
        <time>2022-03-19T14:36:25.000Z</time>
      </trkpt>
      <trkpt lat="43.60939" lon="5.37441">
        <ele>326</ele>
        <time>2022-03-19T14:36:26.000Z</time>
      </trkpt>
      <trkpt lat="43.60919" lon="5.37418">
        <ele>326</ele>
        <time>2022-03-19T14:36:31.000Z</time>
      </trkpt>
      <trkpt lat="43.60915" lon="5.37413">
        <ele>325.79998779297</ele>
        <time>2022-03-19T14:36:32.000Z</time>
      </trkpt>
      <trkpt lat="43.60911" lon="5.37408">
        <ele>325.60000610352</ele>
        <time>2022-03-19T14:36:33.000Z</time>
      </trkpt>
      <trkpt lat="43.60907" lon="5.37403">
        <ele>325.60000610352</ele>
        <time>2022-03-19T14:36:34.000Z</time>
      </trkpt>
      <trkpt lat="43.60903" lon="5.37398">
        <ele>325.39999389648</ele>
        <time>2022-03-19T14:36:35.000Z</time>
      </trkpt>
      <trkpt lat="43.60898" lon="5.37393">
        <ele>325.20001220703</ele>
        <time>2022-03-19T14:36:36.000Z</time>
      </trkpt>
      <trkpt lat="43.60893" lon="5.37388">
        <ele>325</ele>
        <time>2022-03-19T14:36:37.000Z</time>
      </trkpt>
      <trkpt lat="43.60883" lon="5.3738">
        <ele>324.79998779297</ele>
        <time>2022-03-19T14:36:39.000Z</time>
      </trkpt>
      <trkpt lat="43.60877" lon="5.37377">
        <ele>324.79998779297</ele>
        <time>2022-03-19T14:36:40.000Z</time>
      </trkpt>
      <trkpt lat="43.60872" lon="5.37374">
        <ele>324.60000610352</ele>
        <time>2022-03-19T14:36:41.000Z</time>
      </trkpt>
      <trkpt lat="43.60867" lon="5.37372">
        <ele>324.60000610352</ele>
        <time>2022-03-19T14:36:42.000Z</time>
      </trkpt>
      <trkpt lat="43.60862" lon="5.37369">
        <ele>324.39999389648</ele>
        <time>2022-03-19T14:36:43.000Z</time>
      </trkpt>
      <trkpt lat="43.60856" lon="5.37368">
        <ele>324.39999389648</ele>
        <time>2022-03-19T14:36:44.000Z</time>
      </trkpt>
      <trkpt lat="43.60845" lon="5.37362">
        <ele>324.20001220703</ele>
        <time>2022-03-19T14:36:46.000Z</time>
      </trkpt>
      <trkpt lat="43.60839" lon="5.37357">
        <ele>324</ele>
        <time>2022-03-19T14:36:47.000Z</time>
      </trkpt>
      <trkpt lat="43.60834" lon="5.37352">
        <ele>323.60000610352</ele>
        <time>2022-03-19T14:36:48.000Z</time>
      </trkpt>
      <trkpt lat="43.60829" lon="5.37348">
        <ele>323.20001220703</ele>
        <time>2022-03-19T14:36:49.000Z</time>
      </trkpt>
      <trkpt lat="43.60824" lon="5.37346">
        <ele>322.60000610352</ele>
        <time>2022-03-19T14:36:50.000Z</time>
      </trkpt>
      <trkpt lat="43.60819" lon="5.37346">
        <ele>322.39999389648</ele>
        <time>2022-03-19T14:36:51.000Z</time>
      </trkpt>
      <trkpt lat="43.60814" lon="5.37347">
        <ele>322</ele>
        <time>2022-03-19T14:36:52.000Z</time>
      </trkpt>
      <trkpt lat="43.60803" lon="5.3735">
        <ele>321.39999389648</ele>
        <time>2022-03-19T14:36:54.000Z</time>
      </trkpt>
      <trkpt lat="43.60777" lon="5.37357">
        <ele>321.79998779297</ele>
        <time>2022-03-19T14:37:00.000Z</time>
      </trkpt>
      <trkpt lat="43.60773" lon="5.37356">
        <ele>321.60000610352</ele>
        <time>2022-03-19T14:37:01.000Z</time>
      </trkpt>
      <trkpt lat="43.6076" lon="5.37358">
        <ele>321.20001220703</ele>
        <time>2022-03-19T14:37:04.000Z</time>
      </trkpt>
      <trkpt lat="43.60756" lon="5.37358">
        <ele>321</ele>
        <time>2022-03-19T14:37:05.000Z</time>
      </trkpt>
      <trkpt lat="43.60726" lon="5.37358">
        <ele>321</ele>
        <time>2022-03-19T14:37:12.000Z</time>
      </trkpt>
      <trkpt lat="43.60712" lon="5.37358">
        <ele>320.60000610352</ele>
        <time>2022-03-19T14:37:15.000Z</time>
      </trkpt>
      <trkpt lat="43.60707" lon="5.37357">
        <ele>320.39999389648</ele>
        <time>2022-03-19T14:37:16.000Z</time>
      </trkpt>
      <trkpt lat="43.60703" lon="5.37357">
        <ele>320.20001220703</ele>
        <time>2022-03-19T14:37:17.000Z</time>
      </trkpt>
      <trkpt lat="43.60699" lon="5.37357">
        <ele>320</ele>
        <time>2022-03-19T14:37:18.000Z</time>
      </trkpt>
      <trkpt lat="43.60694" lon="5.37359">
        <ele>319.79998779297</ele>
        <time>2022-03-19T14:37:19.000Z</time>
      </trkpt>
      <trkpt lat="43.60679" lon="5.37364">
        <ele>319</ele>
        <time>2022-03-19T14:37:22.000Z</time>
      </trkpt>
      <trkpt lat="43.6067" lon="5.37369">
        <ele>318.39999389648</ele>
        <time>2022-03-19T14:37:24.000Z</time>
      </trkpt>
      <trkpt lat="43.60656" lon="5.37376">
        <ele>317.60000610352</ele>
        <time>2022-03-19T14:37:28.000Z</time>
      </trkpt>
      <trkpt lat="43.60654" lon="5.37379">
        <ele>317.20001220703</ele>
        <time>2022-03-19T14:37:29.000Z</time>
      </trkpt>
      <trkpt lat="43.60653" lon="5.37384">
        <ele>317.20001220703</ele>
        <time>2022-03-19T14:37:30.000Z</time>
      </trkpt>
      <trkpt lat="43.60652" lon="5.37389">
        <ele>317</ele>
        <time>2022-03-19T14:37:31.000Z</time>
      </trkpt>
      <trkpt lat="43.60651" lon="5.37394">
        <ele>317</ele>
        <time>2022-03-19T14:37:32.000Z</time>
      </trkpt>
      <trkpt lat="43.60646" lon="5.37402">
        <ele>316.79998779297</ele>
        <time>2022-03-19T14:37:35.000Z</time>
      </trkpt>
      <trkpt lat="43.60645" lon="5.37405">
        <ele>317</ele>
        <time>2022-03-19T14:37:36.000Z</time>
      </trkpt>
      <trkpt lat="43.60641" lon="5.37416">
        <ele>317</ele>
        <time>2022-03-19T14:37:39.000Z</time>
      </trkpt>
      <trkpt lat="43.60632" lon="5.3744">
        <ele>316.60000610352</ele>
        <time>2022-03-19T14:37:45.000Z</time>
      </trkpt>
      <trkpt lat="43.60624" lon="5.37461">
        <ele>316</ele>
        <time>2022-03-19T14:37:50.000Z</time>
      </trkpt>
      <trkpt lat="43.60611" lon="5.37488">
        <ele>315.20001220703</ele>
        <time>2022-03-19T14:37:56.000Z</time>
      </trkpt>
      <trkpt lat="43.60599" lon="5.3751">
        <ele>315</ele>
        <time>2022-03-19T14:38:01.000Z</time>
      </trkpt>
      <trkpt lat="43.60588" lon="5.37523">
        <ele>315</ele>
        <time>2022-03-19T14:38:05.000Z</time>
      </trkpt>
      <trkpt lat="43.60584" lon="5.37527">
        <ele>315</ele>
        <time>2022-03-19T14:38:06.000Z</time>
      </trkpt>
      <trkpt lat="43.60575" lon="5.37545">
        <ele>315.20001220703</ele>
        <time>2022-03-19T14:38:09.000Z</time>
      </trkpt>
      <trkpt lat="43.60573" lon="5.37551">
        <ele>315</ele>
        <time>2022-03-19T14:38:10.000Z</time>
      </trkpt>
      <trkpt lat="43.60572" lon="5.37557">
        <ele>315</ele>
        <time>2022-03-19T14:38:11.000Z</time>
      </trkpt>
      <trkpt lat="43.60571" lon="5.37574">
        <ele>315.20001220703</ele>
        <time>2022-03-19T14:38:14.000Z</time>
      </trkpt>
      <trkpt lat="43.60567" lon="5.37584">
        <ele>315.39999389648</ele>
        <time>2022-03-19T14:38:16.000Z</time>
      </trkpt>
      <trkpt lat="43.60561" lon="5.37594">
        <ele>315.20001220703</ele>
        <time>2022-03-19T14:38:18.000Z</time>
      </trkpt>
      <trkpt lat="43.60558" lon="5.37598">
        <ele>315</ele>
        <time>2022-03-19T14:38:19.000Z</time>
      </trkpt>
      <trkpt lat="43.60551" lon="5.37606">
        <ele>314.60000610352</ele>
        <time>2022-03-19T14:38:21.000Z</time>
      </trkpt>
      <trkpt lat="43.60548" lon="5.37611">
        <ele>314.60000610352</ele>
        <time>2022-03-19T14:38:22.000Z</time>
      </trkpt>
      <trkpt lat="43.60545" lon="5.37616">
        <ele>314.39999389648</ele>
        <time>2022-03-19T14:38:23.000Z</time>
      </trkpt>
      <trkpt lat="43.60542" lon="5.37622">
        <ele>314.60000610352</ele>
        <time>2022-03-19T14:38:24.000Z</time>
      </trkpt>
      <trkpt lat="43.60539" lon="5.37628">
        <ele>314.79998779297</ele>
        <time>2022-03-19T14:38:25.000Z</time>
      </trkpt>
      <trkpt lat="43.60534" lon="5.37639">
        <ele>315</ele>
        <time>2022-03-19T14:38:27.000Z</time>
      </trkpt>
      <trkpt lat="43.60529" lon="5.3765">
        <ele>315.60000610352</ele>
        <time>2022-03-19T14:38:29.000Z</time>
      </trkpt>
      <trkpt lat="43.60524" lon="5.37663">
        <ele>316</ele>
        <time>2022-03-19T14:38:31.000Z</time>
      </trkpt>
      <trkpt lat="43.60523" lon="5.37669">
        <ele>316</ele>
        <time>2022-03-19T14:38:32.000Z</time>
      </trkpt>
      <trkpt lat="43.60511" lon="5.37707">
        <ele>317</ele>
        <time>2022-03-19T14:38:38.000Z</time>
      </trkpt>
      <trkpt lat="43.60496" lon="5.37742">
        <ele>315.79998779297</ele>
        <time>2022-03-19T14:38:44.000Z</time>
      </trkpt>
      <trkpt lat="43.60494" lon="5.37748">
        <ele>316</ele>
        <time>2022-03-19T14:38:45.000Z</time>
      </trkpt>
      <trkpt lat="43.60486" lon="5.37775">
        <ele>316.60000610352</ele>
        <time>2022-03-19T14:38:49.000Z</time>
      </trkpt>
      <trkpt lat="43.60485" lon="5.37781">
        <ele>316.60000610352</ele>
        <time>2022-03-19T14:38:50.000Z</time>
      </trkpt>
      <trkpt lat="43.60478" lon="5.37799">
        <ele>317</ele>
        <time>2022-03-19T14:38:53.000Z</time>
      </trkpt>
      <trkpt lat="43.60471" lon="5.3781">
        <ele>316.79998779297</ele>
        <time>2022-03-19T14:38:55.000Z</time>
      </trkpt>
      <trkpt lat="43.6046" lon="5.37828">
        <ele>316.60000610352</ele>
        <time>2022-03-19T14:38:58.000Z</time>
      </trkpt>
      <trkpt lat="43.60436" lon="5.37872">
        <ele>316.60000610352</ele>
        <time>2022-03-19T14:39:05.000Z</time>
      </trkpt>
      <trkpt lat="43.60431" lon="5.37884">
        <ele>317</ele>
        <time>2022-03-19T14:39:07.000Z</time>
      </trkpt>
      <trkpt lat="43.60431" lon="5.37892">
        <ele>317</ele>
        <time>2022-03-19T14:39:08.000Z</time>
      </trkpt>
      <trkpt lat="43.60431" lon="5.37922">
        <ele>317</ele>
        <time>2022-03-19T14:39:12.000Z</time>
      </trkpt>
      <trkpt lat="43.60431" lon="5.37935">
        <ele>317</ele>
        <time>2022-03-19T14:39:14.000Z</time>
      </trkpt>
      <trkpt lat="43.60431" lon="5.37942">
        <ele>317</ele>
        <time>2022-03-19T14:39:15.000Z</time>
      </trkpt>
      <trkpt lat="43.60431" lon="5.37948">
        <ele>317</ele>
        <time>2022-03-19T14:39:16.000Z</time>
      </trkpt>
      <trkpt lat="43.60432" lon="5.37954">
        <ele>317</ele>
        <time>2022-03-19T14:39:17.000Z</time>
      </trkpt>
      <trkpt lat="43.60433" lon="5.3796">
        <ele>317</ele>
        <time>2022-03-19T14:39:18.000Z</time>
      </trkpt>
      <trkpt lat="43.60432" lon="5.37966">
        <ele>317</ele>
        <time>2022-03-19T14:39:19.000Z</time>
      </trkpt>
      <trkpt lat="43.60433" lon="5.3799">
        <ele>317</ele>
        <time>2022-03-19T14:39:23.000Z</time>
      </trkpt>
      <trkpt lat="43.60434" lon="5.3801">
        <ele>317.39999389648</ele>
        <time>2022-03-19T14:39:26.000Z</time>
      </trkpt>
      <trkpt lat="43.60435" lon="5.38019">
        <ele>317.79998779297</ele>
        <time>2022-03-19T14:39:28.000Z</time>
      </trkpt>
      <trkpt lat="43.60438" lon="5.38032">
        <ele>318.20001220703</ele>
        <time>2022-03-19T14:39:33.000Z</time>
      </trkpt>
      <trkpt lat="43.60439" lon="5.38033">
        <ele>318.39999389648</ele>
        <time>2022-03-19T14:39:34.000Z</time>
      </trkpt>
      <trkpt lat="43.6044" lon="5.38043">
        <ele>318.60000610352</ele>
        <time>2022-03-19T14:39:38.000Z</time>
      </trkpt>
      <trkpt lat="43.6044" lon="5.38045">
        <ele>318.79998779297</ele>
        <time>2022-03-19T14:39:39.000Z</time>
      </trkpt>
      <trkpt lat="43.6044" lon="5.38048">
        <ele>318.79998779297</ele>
        <time>2022-03-19T14:39:40.000Z</time>
      </trkpt>
      <trkpt lat="43.6044" lon="5.38054">
        <ele>318.79998779297</ele>
        <time>2022-03-19T14:39:42.000Z</time>
      </trkpt>
      <trkpt lat="43.60445" lon="5.38073">
        <ele>319</ele>
        <time>2022-03-19T14:39:46.000Z</time>
      </trkpt>
      <trkpt lat="43.60445" lon="5.38077">
        <ele>319</ele>
        <time>2022-03-19T14:39:48.000Z</time>
      </trkpt>
      <trkpt lat="43.60446" lon="5.38079">
        <ele>318.79998779297</ele>
        <time>2022-03-19T14:39:49.000Z</time>
      </trkpt>
      <trkpt lat="43.60446" lon="5.38082">
        <ele>319</ele>
        <time>2022-03-19T14:39:50.000Z</time>
      </trkpt>
      <trkpt lat="43.60447" lon="5.38084">
        <ele>319</ele>
        <time>2022-03-19T14:39:51.000Z</time>
      </trkpt>
      <trkpt lat="43.60448" lon="5.38087">
        <ele>319</ele>
        <time>2022-03-19T14:39:52.000Z</time>
      </trkpt>
      <trkpt lat="43.60452" lon="5.3809">
        <ele>319.39999389648</ele>
        <time>2022-03-19T14:39:54.000Z</time>
      </trkpt>
      <trkpt lat="43.60455" lon="5.38095">
        <ele>319.60000610352</ele>
        <time>2022-03-19T14:39:56.000Z</time>
      </trkpt>
      <trkpt lat="43.60454" lon="5.38099">
        <ele>319.60000610352</ele>
        <time>2022-03-19T14:39:58.000Z</time>
      </trkpt>
      <trkpt lat="43.60456" lon="5.38109">
        <ele>319.60000610352</ele>
        <time>2022-03-19T14:40:02.000Z</time>
      </trkpt>
      <trkpt lat="43.60457" lon="5.38115">
        <ele>319.39999389648</ele>
        <time>2022-03-19T14:40:04.000Z</time>
      </trkpt>
      <trkpt lat="43.60464" lon="5.38131">
        <ele>319.60000610352</ele>
        <time>2022-03-19T14:40:07.000Z</time>
      </trkpt>
      <trkpt lat="43.60477" lon="5.38159">
        <ele>320.20001220703</ele>
        <time>2022-03-19T14:40:12.000Z</time>
      </trkpt>
      <trkpt lat="43.60489" lon="5.38187">
        <ele>321</ele>
        <time>2022-03-19T14:40:17.000Z</time>
      </trkpt>
      <trkpt lat="43.60497" lon="5.38209">
        <ele>321</ele>
        <time>2022-03-19T14:40:21.000Z</time>
      </trkpt>
      <trkpt lat="43.60501" lon="5.38219">
        <ele>321</ele>
        <time>2022-03-19T14:40:23.000Z</time>
      </trkpt>
      <trkpt lat="43.60503" lon="5.38223">
        <ele>321</ele>
        <time>2022-03-19T14:40:24.000Z</time>
      </trkpt>
      <trkpt lat="43.60506" lon="5.38225">
        <ele>321</ele>
        <time>2022-03-19T14:40:25.000Z</time>
      </trkpt>
      <trkpt lat="43.60508" lon="5.38227">
        <ele>321.20001220703</ele>
        <time>2022-03-19T14:40:26.000Z</time>
      </trkpt>
      <trkpt lat="43.60511" lon="5.38229">
        <ele>321.20001220703</ele>
        <time>2022-03-19T14:40:27.000Z</time>
      </trkpt>
      <trkpt lat="43.60514" lon="5.38229">
        <ele>321.39999389648</ele>
        <time>2022-03-19T14:40:28.000Z</time>
      </trkpt>
      <trkpt lat="43.60525" lon="5.38232">
        <ele>321.79998779297</ele>
        <time>2022-03-19T14:40:31.000Z</time>
      </trkpt>
      <trkpt lat="43.60543" lon="5.38234">
        <ele>322.39999389648</ele>
        <time>2022-03-19T14:40:36.000Z</time>
      </trkpt>
      <trkpt lat="43.60558" lon="5.38235">
        <ele>322.60000610352</ele>
        <time>2022-03-19T14:40:41.000Z</time>
      </trkpt>
      <trkpt lat="43.60574" lon="5.38242">
        <ele>323.39999389648</ele>
        <time>2022-03-19T14:40:46.000Z</time>
      </trkpt>
      <trkpt lat="43.60579" lon="5.38245">
        <ele>323.60000610352</ele>
        <time>2022-03-19T14:40:47.000Z</time>
      </trkpt>
      <trkpt lat="43.60583" lon="5.38247">
        <ele>323.79998779297</ele>
        <time>2022-03-19T14:40:48.000Z</time>
      </trkpt>
      <trkpt lat="43.60587" lon="5.38251">
        <ele>324</ele>
        <time>2022-03-19T14:40:49.000Z</time>
      </trkpt>
      <trkpt lat="43.6059" lon="5.38254">
        <ele>324.20001220703</ele>
        <time>2022-03-19T14:40:50.000Z</time>
      </trkpt>
      <trkpt lat="43.60593" lon="5.38258">
        <ele>324.60000610352</ele>
        <time>2022-03-19T14:40:51.000Z</time>
      </trkpt>
      <trkpt lat="43.60613" lon="5.38281">
        <ele>325.60000610352</ele>
        <time>2022-03-19T14:40:57.000Z</time>
      </trkpt>
      <trkpt lat="43.60617" lon="5.38285">
        <ele>325.79998779297</ele>
        <time>2022-03-19T14:40:58.000Z</time>
      </trkpt>
      <trkpt lat="43.60628" lon="5.38296">
        <ele>325.79998779297</ele>
        <time>2022-03-19T14:41:01.000Z</time>
      </trkpt>
      <trkpt lat="43.60632" lon="5.38308">
        <ele>325.60000610352</ele>
        <time>2022-03-19T14:41:04.000Z</time>
      </trkpt>
      <trkpt lat="43.60633" lon="5.38313">
        <ele>325.60000610352</ele>
        <time>2022-03-19T14:41:05.000Z</time>
      </trkpt>
      <trkpt lat="43.60634" lon="5.38319">
        <ele>325.79998779297</ele>
        <time>2022-03-19T14:41:06.000Z</time>
      </trkpt>
      <trkpt lat="43.60635" lon="5.38324">
        <ele>325.79998779297</ele>
        <time>2022-03-19T14:41:07.000Z</time>
      </trkpt>
      <trkpt lat="43.60638" lon="5.38333">
        <ele>325.79998779297</ele>
        <time>2022-03-19T14:41:09.000Z</time>
      </trkpt>
      <trkpt lat="43.60648" lon="5.3835">
        <ele>326</ele>
        <time>2022-03-19T14:41:14.000Z</time>
      </trkpt>
      <trkpt lat="43.60662" lon="5.38371">
        <ele>326</ele>
        <time>2022-03-19T14:41:20.000Z</time>
      </trkpt>
      <trkpt lat="43.60664" lon="5.38374">
        <ele>326</ele>
        <time>2022-03-19T14:41:21.000Z</time>
      </trkpt>
      <trkpt lat="43.60666" lon="5.38376">
        <ele>326</ele>
        <time>2022-03-19T14:41:22.000Z</time>
      </trkpt>
      <trkpt lat="43.60667" lon="5.38379">
        <ele>326</ele>
        <time>2022-03-19T14:41:23.000Z</time>
      </trkpt>
      <trkpt lat="43.60669" lon="5.38382">
        <ele>326</ele>
        <time>2022-03-19T14:41:24.000Z</time>
      </trkpt>
      <trkpt lat="43.60672" lon="5.38385">
        <ele>326.20001220703</ele>
        <time>2022-03-19T14:41:25.000Z</time>
      </trkpt>
      <trkpt lat="43.60685" lon="5.38401">
        <ele>327.60000610352</ele>
        <time>2022-03-19T14:41:30.000Z</time>
      </trkpt>
      <trkpt lat="43.60696" lon="5.38411">
        <ele>328.79998779297</ele>
        <time>2022-03-19T14:41:35.000Z</time>
      </trkpt>
      <trkpt lat="43.60707" lon="5.38423">
        <ele>330</ele>
        <time>2022-03-19T14:41:39.000Z</time>
      </trkpt>
      <trkpt lat="43.60722" lon="5.38438">
        <ele>331.60000610352</ele>
        <time>2022-03-19T14:41:44.000Z</time>
      </trkpt>
      <trkpt lat="43.60734" lon="5.38452">
        <ele>332.39999389648</ele>
        <time>2022-03-19T14:41:49.000Z</time>
      </trkpt>
      <trkpt lat="43.60736" lon="5.38456">
        <ele>332.60000610352</ele>
        <time>2022-03-19T14:41:50.000Z</time>
      </trkpt>
      <trkpt lat="43.60738" lon="5.38459">
        <ele>332.60000610352</ele>
        <time>2022-03-19T14:41:51.000Z</time>
      </trkpt>
      <trkpt lat="43.6074" lon="5.38462">
        <ele>332.79998779297</ele>
        <time>2022-03-19T14:41:52.000Z</time>
      </trkpt>
      <trkpt lat="43.60743" lon="5.38465">
        <ele>332.79998779297</ele>
        <time>2022-03-19T14:41:53.000Z</time>
      </trkpt>
      <trkpt lat="43.60752" lon="5.38473">
        <ele>333</ele>
        <time>2022-03-19T14:41:56.000Z</time>
      </trkpt>
      <trkpt lat="43.60767" lon="5.38484">
        <ele>333.39999389648</ele>
        <time>2022-03-19T14:42:01.000Z</time>
      </trkpt>
      <trkpt lat="43.60769" lon="5.38489">
        <ele>333.60000610352</ele>
        <time>2022-03-19T14:42:03.000Z</time>
      </trkpt>
      <trkpt lat="43.60769" lon="5.38493">
        <ele>333.60000610352</ele>
        <time>2022-03-19T14:42:05.000Z</time>
      </trkpt>
      <trkpt lat="43.60769" lon="5.38494">
        <ele>333.60000610352</ele>
        <time>2022-03-19T14:42:06.000Z</time>
      </trkpt>
      <trkpt lat="43.60766" lon="5.38499">
        <ele>333.39999389648</ele>
        <time>2022-03-19T14:42:09.000Z</time>
      </trkpt>
      <trkpt lat="43.60766" lon="5.38501">
        <ele>333.39999389648</ele>
        <time>2022-03-19T14:42:10.000Z</time>
      </trkpt>
      <trkpt lat="43.60766" lon="5.38503">
        <ele>333.39999389648</ele>
        <time>2022-03-19T14:42:11.000Z</time>
      </trkpt>
      <trkpt lat="43.60765" lon="5.38505">
        <ele>333.39999389648</ele>
        <time>2022-03-19T14:42:12.000Z</time>
      </trkpt>
      <trkpt lat="43.60765" lon="5.38507">
        <ele>333.39999389648</ele>
        <time>2022-03-19T14:42:13.000Z</time>
      </trkpt>
      <trkpt lat="43.60766" lon="5.38513">
        <ele>333.39999389648</ele>
        <time>2022-03-19T14:42:15.000Z</time>
      </trkpt>
      <trkpt lat="43.60766" lon="5.38517">
        <ele>333.20001220703</ele>
        <time>2022-03-19T14:42:16.000Z</time>
      </trkpt>
      <trkpt lat="43.6076" lon="5.38521">
        <ele>332.60000610352</ele>
        <time>2022-03-19T14:42:19.000Z</time>
      </trkpt>
      <trkpt lat="43.60759" lon="5.38523">
        <ele>332.39999389648</ele>
        <time>2022-03-19T14:42:20.000Z</time>
      </trkpt>
      <trkpt lat="43.60751" lon="5.3854">
        <ele>332</ele>
        <time>2022-03-19T14:42:24.000Z</time>
      </trkpt>
      <trkpt lat="43.60742" lon="5.38556">
        <ele>331.79998779297</ele>
        <time>2022-03-19T14:42:29.000Z</time>
      </trkpt>
      <trkpt lat="43.60741" lon="5.38558">
        <ele>331.79998779297</ele>
        <time>2022-03-19T14:42:30.000Z</time>
      </trkpt>
      <trkpt lat="43.6074" lon="5.38563">
        <ele>332</ele>
        <time>2022-03-19T14:42:33.000Z</time>
      </trkpt>
      <trkpt lat="43.60735" lon="5.38575">
        <ele>332.20001220703</ele>
        <time>2022-03-19T14:42:38.000Z</time>
      </trkpt>
      <trkpt lat="43.60729" lon="5.38588">
        <ele>332.79998779297</ele>
        <time>2022-03-19T14:42:43.000Z</time>
      </trkpt>
      <trkpt lat="43.60723" lon="5.38602">
        <ele>333.39999389648</ele>
        <time>2022-03-19T14:42:47.000Z</time>
      </trkpt>
      <trkpt lat="43.60722" lon="5.38605">
        <ele>333.60000610352</ele>
        <time>2022-03-19T14:42:48.000Z</time>
      </trkpt>
      <trkpt lat="43.60718" lon="5.38618">
        <ele>333.79998779297</ele>
        <time>2022-03-19T14:42:53.000Z</time>
      </trkpt>
      <trkpt lat="43.60717" lon="5.3862">
        <ele>333.79998779297</ele>
        <time>2022-03-19T14:42:54.000Z</time>
      </trkpt>
      <trkpt lat="43.60715" lon="5.38629">
        <ele>334.20001220703</ele>
        <time>2022-03-19T14:42:58.000Z</time>
      </trkpt>
      <trkpt lat="43.6071" lon="5.38634">
        <ele>334.39999389648</ele>
        <time>2022-03-19T14:43:01.000Z</time>
      </trkpt>
      <trkpt lat="43.60706" lon="5.38636">
        <ele>334.39999389648</ele>
        <time>2022-03-19T14:43:02.000Z</time>
      </trkpt>
      <trkpt lat="43.60703" lon="5.38638">
        <ele>334.20001220703</ele>
        <time>2022-03-19T14:43:03.000Z</time>
      </trkpt>
      <trkpt lat="43.607" lon="5.3864">
        <ele>334.20001220703</ele>
        <time>2022-03-19T14:43:04.000Z</time>
      </trkpt>
      <trkpt lat="43.60697" lon="5.38642">
        <ele>334.20001220703</ele>
        <time>2022-03-19T14:43:05.000Z</time>
      </trkpt>
      <trkpt lat="43.60686" lon="5.38649">
        <ele>334</ele>
        <time>2022-03-19T14:43:08.000Z</time>
      </trkpt>
      <trkpt lat="43.60671" lon="5.38659">
        <ele>334</ele>
        <time>2022-03-19T14:43:12.000Z</time>
      </trkpt>
      <trkpt lat="43.6066" lon="5.38669">
        <ele>333.20001220703</ele>
        <time>2022-03-19T14:43:16.000Z</time>
      </trkpt>
      <trkpt lat="43.60655" lon="5.38671">
        <ele>332.79998779297</ele>
        <time>2022-03-19T14:43:18.000Z</time>
      </trkpt>
      <trkpt lat="43.60653" lon="5.38673">
        <ele>332.60000610352</ele>
        <time>2022-03-19T14:43:19.000Z</time>
      </trkpt>
      <trkpt lat="43.60652" lon="5.38674">
        <ele>332.39999389648</ele>
        <time>2022-03-19T14:43:20.000Z</time>
      </trkpt>
      <trkpt lat="43.60652" lon="5.38676">
        <ele>332.20001220703</ele>
        <time>2022-03-19T14:43:21.000Z</time>
      </trkpt>
      <trkpt lat="43.60653" lon="5.38678">
        <ele>332.20001220703</ele>
        <time>2022-03-19T14:43:22.000Z</time>
      </trkpt>
      <trkpt lat="43.60657" lon="5.38682">
        <ele>332.39999389648</ele>
        <time>2022-03-19T14:43:24.000Z</time>
      </trkpt>
      <trkpt lat="43.60672" lon="5.387">
        <ele>333.20001220703</ele>
        <time>2022-03-19T14:43:30.000Z</time>
      </trkpt>
      <trkpt lat="43.6069" lon="5.38706">
        <ele>335.20001220703</ele>
        <time>2022-03-19T14:43:35.000Z</time>
      </trkpt>
      <trkpt lat="43.60703" lon="5.38715">
        <ele>336.20001220703</ele>
        <time>2022-03-19T14:43:39.000Z</time>
      </trkpt>
      <trkpt lat="43.60711" lon="5.38725">
        <ele>336.39999389648</ele>
        <time>2022-03-19T14:43:43.000Z</time>
      </trkpt>
      <trkpt lat="43.60711" lon="5.38728">
        <ele>336.39999389648</ele>
        <time>2022-03-19T14:43:44.000Z</time>
      </trkpt>
      <trkpt lat="43.60711" lon="5.38731">
        <ele>336.39999389648</ele>
        <time>2022-03-19T14:43:45.000Z</time>
      </trkpt>
      <trkpt lat="43.60711" lon="5.38733">
        <ele>336.39999389648</ele>
        <time>2022-03-19T14:43:46.000Z</time>
      </trkpt>
      <trkpt lat="43.6071" lon="5.38736">
        <ele>336.20001220703</ele>
        <time>2022-03-19T14:43:47.000Z</time>
      </trkpt>
      <trkpt lat="43.60708" lon="5.38738">
        <ele>336.20001220703</ele>
        <time>2022-03-19T14:43:48.000Z</time>
      </trkpt>
      <trkpt lat="43.60698" lon="5.38747">
        <ele>335</ele>
        <time>2022-03-19T14:43:54.000Z</time>
      </trkpt>
      <trkpt lat="43.6069" lon="5.38751">
        <ele>333.60000610352</ele>
        <time>2022-03-19T14:43:59.000Z</time>
      </trkpt>
      <trkpt lat="43.60679" lon="5.38753">
        <ele>331.79998779297</ele>
        <time>2022-03-19T14:44:03.000Z</time>
      </trkpt>
      <trkpt lat="43.60662" lon="5.38759">
        <ele>330</ele>
        <time>2022-03-19T14:44:09.000Z</time>
      </trkpt>
      <trkpt lat="43.60643" lon="5.38769">
        <ele>329</ele>
        <time>2022-03-19T14:44:15.000Z</time>
      </trkpt>
      <trkpt lat="43.60626" lon="5.38785">
        <ele>329</ele>
        <time>2022-03-19T14:44:21.000Z</time>
      </trkpt>
      <trkpt lat="43.60613" lon="5.38806">
        <ele>330.79998779297</ele>
        <time>2022-03-19T14:44:27.000Z</time>
      </trkpt>
      <trkpt lat="43.60596" lon="5.3883">
        <ele>330</ele>
        <time>2022-03-19T14:44:34.000Z</time>
      </trkpt>
      <trkpt lat="43.6058" lon="5.3885">
        <ele>329.79998779297</ele>
        <time>2022-03-19T14:44:40.000Z</time>
      </trkpt>
      <trkpt lat="43.60565" lon="5.38869">
        <ele>330</ele>
        <time>2022-03-19T14:44:46.000Z</time>
      </trkpt>
      <trkpt lat="43.60549" lon="5.38892">
        <ele>330.20001220703</ele>
        <time>2022-03-19T14:44:52.000Z</time>
      </trkpt>
      <trkpt lat="43.60532" lon="5.38914">
        <ele>330</ele>
        <time>2022-03-19T14:44:58.000Z</time>
      </trkpt>
      <trkpt lat="43.60517" lon="5.38934">
        <ele>329.60000610352</ele>
        <time>2022-03-19T14:45:03.000Z</time>
      </trkpt>
      <trkpt lat="43.60511" lon="5.38942">
        <ele>329.39999389648</ele>
        <time>2022-03-19T14:45:05.000Z</time>
      </trkpt>
      <trkpt lat="43.60497" lon="5.38962">
        <ele>329.60000610352</ele>
        <time>2022-03-19T14:45:11.000Z</time>
      </trkpt>
      <trkpt lat="43.60486" lon="5.38982">
        <ele>330</ele>
        <time>2022-03-19T14:45:16.000Z</time>
      </trkpt>
      <trkpt lat="43.6048" lon="5.39002">
        <ele>331.39999389648</ele>
        <time>2022-03-19T14:45:22.000Z</time>
      </trkpt>
      <trkpt lat="43.60476" lon="5.3901">
        <ele>332.39999389648</ele>
        <time>2022-03-19T14:45:28.000Z</time>
      </trkpt>
      <trkpt lat="43.60474" lon="5.39011">
        <ele>332.39999389648</ele>
        <time>2022-03-19T14:45:30.000Z</time>
      </trkpt>
      <trkpt lat="43.60464" lon="5.39014">
        <ele>332.79998779297</ele>
        <time>2022-03-19T14:45:35.000Z</time>
      </trkpt>
      <trkpt lat="43.60453" lon="5.39003">
        <ele>331.60000610352</ele>
        <time>2022-03-19T14:45:38.000Z</time>
      </trkpt>
      <trkpt lat="43.6045" lon="5.38998">
        <ele>331.20001220703</ele>
        <time>2022-03-19T14:45:39.000Z</time>
      </trkpt>
      <trkpt lat="43.60437" lon="5.38991">
        <ele>330</ele>
        <time>2022-03-19T14:45:43.000Z</time>
      </trkpt>
      <trkpt lat="43.60434" lon="5.39004">
        <ele>330.60000610352</ele>
        <time>2022-03-19T14:45:46.000Z</time>
      </trkpt>
      <trkpt lat="43.60433" lon="5.39008">
        <ele>330.79998779297</ele>
        <time>2022-03-19T14:45:47.000Z</time>
      </trkpt>
      <trkpt lat="43.60432" lon="5.39011">
        <ele>330.79998779297</ele>
        <time>2022-03-19T14:45:48.000Z</time>
      </trkpt>
      <trkpt lat="43.60431" lon="5.39012">
        <ele>330.79998779297</ele>
        <time>2022-03-19T14:45:49.000Z</time>
      </trkpt>
      <trkpt lat="43.60429" lon="5.39014">
        <ele>330.60000610352</ele>
        <time>2022-03-19T14:45:50.000Z</time>
      </trkpt>
      <trkpt lat="43.60427" lon="5.39015">
        <ele>330.39999389648</ele>
        <time>2022-03-19T14:45:51.000Z</time>
      </trkpt>
      <trkpt lat="43.60417" lon="5.39012">
        <ele>329.39999389648</ele>
        <time>2022-03-19T14:45:54.000Z</time>
      </trkpt>
      <trkpt lat="43.6041" lon="5.38998">
        <ele>328.39999389648</ele>
        <time>2022-03-19T14:45:57.000Z</time>
      </trkpt>
      <trkpt lat="43.604" lon="5.38978">
        <ele>327.60000610352</ele>
        <time>2022-03-19T14:46:01.000Z</time>
      </trkpt>
      <trkpt lat="43.60397" lon="5.38973">
        <ele>327.39999389648</ele>
        <time>2022-03-19T14:46:02.000Z</time>
      </trkpt>
      <trkpt lat="43.6039" lon="5.38963">
        <ele>327</ele>
        <time>2022-03-19T14:46:04.000Z</time>
      </trkpt>
      <trkpt lat="43.60386" lon="5.38958">
        <ele>327.20001220703</ele>
        <time>2022-03-19T14:46:05.000Z</time>
      </trkpt>
      <trkpt lat="43.60383" lon="5.38953">
        <ele>327.39999389648</ele>
        <time>2022-03-19T14:46:06.000Z</time>
      </trkpt>
      <trkpt lat="43.60379" lon="5.38949">
        <ele>327.39999389648</ele>
        <time>2022-03-19T14:46:07.000Z</time>
      </trkpt>
      <trkpt lat="43.60375" lon="5.38945">
        <ele>327.60000610352</ele>
        <time>2022-03-19T14:46:08.000Z</time>
      </trkpt>
      <trkpt lat="43.60363" lon="5.38933">
        <ele>328</ele>
        <time>2022-03-19T14:46:11.000Z</time>
      </trkpt>
      <trkpt lat="43.60351" lon="5.38922">
        <ele>328</ele>
        <time>2022-03-19T14:46:15.000Z</time>
      </trkpt>
      <trkpt lat="43.60341" lon="5.38909">
        <ele>327.79998779297</ele>
        <time>2022-03-19T14:46:19.000Z</time>
      </trkpt>
      <trkpt lat="43.6033" lon="5.38891">
        <ele>327</ele>
        <time>2022-03-19T14:46:24.000Z</time>
      </trkpt>
      <trkpt lat="43.60326" lon="5.38884">
        <ele>326.60000610352</ele>
        <time>2022-03-19T14:46:26.000Z</time>
      </trkpt>
      <trkpt lat="43.60324" lon="5.3888">
        <ele>326.20001220703</ele>
        <time>2022-03-19T14:46:27.000Z</time>
      </trkpt>
      <trkpt lat="43.60322" lon="5.38876">
        <ele>325.79998779297</ele>
        <time>2022-03-19T14:46:28.000Z</time>
      </trkpt>
      <trkpt lat="43.6032" lon="5.38872">
        <ele>325.39999389648</ele>
        <time>2022-03-19T14:46:29.000Z</time>
      </trkpt>
      <trkpt lat="43.60317" lon="5.38867">
        <ele>325</ele>
        <time>2022-03-19T14:46:30.000Z</time>
      </trkpt>
      <trkpt lat="43.60309" lon="5.38855">
        <ele>324</ele>
        <time>2022-03-19T14:46:33.000Z</time>
      </trkpt>
      <trkpt lat="43.60294" lon="5.38837">
        <ele>322.79998779297</ele>
        <time>2022-03-19T14:46:38.000Z</time>
      </trkpt>
      <trkpt lat="43.60279" lon="5.38817">
        <ele>322</ele>
        <time>2022-03-19T14:46:43.000Z</time>
      </trkpt>
      <trkpt lat="43.60275" lon="5.38813">
        <ele>321.79998779297</ele>
        <time>2022-03-19T14:46:44.000Z</time>
      </trkpt>
      <trkpt lat="43.60272" lon="5.38807">
        <ele>321.60000610352</ele>
        <time>2022-03-19T14:46:45.000Z</time>
      </trkpt>
      <trkpt lat="43.60269" lon="5.38803">
        <ele>321.60000610352</ele>
        <time>2022-03-19T14:46:46.000Z</time>
      </trkpt>
      <trkpt lat="43.60266" lon="5.38798">
        <ele>321.39999389648</ele>
        <time>2022-03-19T14:46:47.000Z</time>
      </trkpt>
      <trkpt lat="43.60262" lon="5.38793">
        <ele>321</ele>
        <time>2022-03-19T14:46:48.000Z</time>
      </trkpt>
      <trkpt lat="43.60256" lon="5.38783">
        <ele>320.39999389648</ele>
        <time>2022-03-19T14:46:50.000Z</time>
      </trkpt>
      <trkpt lat="43.60242" lon="5.38762">
        <ele>320</ele>
        <time>2022-03-19T14:46:54.000Z</time>
      </trkpt>
      <trkpt lat="43.60236" lon="5.3875">
        <ele>320</ele>
        <time>2022-03-19T14:46:56.000Z</time>
      </trkpt>
      <trkpt lat="43.60232" lon="5.38744">
        <ele>320</ele>
        <time>2022-03-19T14:46:57.000Z</time>
      </trkpt>
      <trkpt lat="43.60229" lon="5.38738">
        <ele>320</ele>
        <time>2022-03-19T14:46:58.000Z</time>
      </trkpt>
      <trkpt lat="43.60226" lon="5.38732">
        <ele>320</ele>
        <time>2022-03-19T14:46:59.000Z</time>
      </trkpt>
      <trkpt lat="43.60224" lon="5.38726">
        <ele>320</ele>
        <time>2022-03-19T14:47:00.000Z</time>
      </trkpt>
      <trkpt lat="43.60204" lon="5.38683">
        <ele>319</ele>
        <time>2022-03-19T14:47:07.000Z</time>
      </trkpt>
      <trkpt lat="43.60201" lon="5.38677">
        <ele>319</ele>
        <time>2022-03-19T14:47:08.000Z</time>
      </trkpt>
      <trkpt lat="43.60198" lon="5.38671">
        <ele>319</ele>
        <time>2022-03-19T14:47:09.000Z</time>
      </trkpt>
      <trkpt lat="43.60196" lon="5.38665">
        <ele>318.79998779297</ele>
        <time>2022-03-19T14:47:10.000Z</time>
      </trkpt>
      <trkpt lat="43.60193" lon="5.38659">
        <ele>318.60000610352</ele>
        <time>2022-03-19T14:47:11.000Z</time>
      </trkpt>
      <trkpt lat="43.6019" lon="5.38653">
        <ele>318.39999389648</ele>
        <time>2022-03-19T14:47:12.000Z</time>
      </trkpt>
      <trkpt lat="43.60182" lon="5.38639">
        <ele>317.79998779297</ele>
        <time>2022-03-19T14:47:15.000Z</time>
      </trkpt>
      <trkpt lat="43.60172" lon="5.38625">
        <ele>317.20001220703</ele>
        <time>2022-03-19T14:47:18.000Z</time>
      </trkpt>
      <trkpt lat="43.60165" lon="5.38618">
        <ele>316.79998779297</ele>
        <time>2022-03-19T14:47:20.000Z</time>
      </trkpt>
      <trkpt lat="43.60162" lon="5.38614">
        <ele>316.79998779297</ele>
        <time>2022-03-19T14:47:21.000Z</time>
      </trkpt>
      <trkpt lat="43.60152" lon="5.38606">
        <ele>316.39999389648</ele>
        <time>2022-03-19T14:47:24.000Z</time>
      </trkpt>
      <trkpt lat="43.60144" lon="5.38602">
        <ele>316.20001220703</ele>
        <time>2022-03-19T14:47:26.000Z</time>
      </trkpt>
      <trkpt lat="43.6014" lon="5.386">
        <ele>316.20001220703</ele>
        <time>2022-03-19T14:47:27.000Z</time>
      </trkpt>
      <trkpt lat="43.60135" lon="5.38597">
        <ele>316.20001220703</ele>
        <time>2022-03-19T14:47:28.000Z</time>
      </trkpt>
      <trkpt lat="43.60131" lon="5.38595">
        <ele>316</ele>
        <time>2022-03-19T14:47:29.000Z</time>
      </trkpt>
      <trkpt lat="43.60127" lon="5.38592">
        <ele>316</ele>
        <time>2022-03-19T14:47:30.000Z</time>
      </trkpt>
      <trkpt lat="43.60123" lon="5.3859">
        <ele>316</ele>
        <time>2022-03-19T14:47:31.000Z</time>
      </trkpt>
      <trkpt lat="43.60117" lon="5.38582">
        <ele>316</ele>
        <time>2022-03-19T14:47:34.000Z</time>
      </trkpt>
      <trkpt lat="43.60111" lon="5.38569">
        <ele>316</ele>
        <time>2022-03-19T14:47:38.000Z</time>
      </trkpt>
      <trkpt lat="43.60096" lon="5.38561">
        <ele>315.39999389648</ele>
        <time>2022-03-19T14:47:43.000Z</time>
      </trkpt>
      <trkpt lat="43.60089" lon="5.38559">
        <ele>315</ele>
        <time>2022-03-19T14:47:45.000Z</time>
      </trkpt>
      <trkpt lat="43.60084" lon="5.38558">
        <ele>315</ele>
        <time>2022-03-19T14:47:46.000Z</time>
      </trkpt>
      <trkpt lat="43.6008" lon="5.38556">
        <ele>314.79998779297</ele>
        <time>2022-03-19T14:47:47.000Z</time>
      </trkpt>
      <trkpt lat="43.60076" lon="5.38555">
        <ele>314.60000610352</ele>
        <time>2022-03-19T14:47:48.000Z</time>
      </trkpt>
      <trkpt lat="43.60071" lon="5.38553">
        <ele>314.39999389648</ele>
        <time>2022-03-19T14:47:49.000Z</time>
      </trkpt>
      <trkpt lat="43.60046" lon="5.38544">
        <ele>313.60000610352</ele>
        <time>2022-03-19T14:47:55.000Z</time>
      </trkpt>
      <trkpt lat="43.60026" lon="5.38537">
        <ele>312.79998779297</ele>
        <time>2022-03-19T14:48:00.000Z</time>
      </trkpt>
      <trkpt lat="43.6001" lon="5.38531">
        <ele>312.20001220703</ele>
        <time>2022-03-19T14:48:04.000Z</time>
      </trkpt>
      <trkpt lat="43.60006" lon="5.3853">
        <ele>312.20001220703</ele>
        <time>2022-03-19T14:48:05.000Z</time>
      </trkpt>
      <trkpt lat="43.60002" lon="5.38528">
        <ele>312</ele>
        <time>2022-03-19T14:48:06.000Z</time>
      </trkpt>
      <trkpt lat="43.59997" lon="5.38526">
        <ele>311.79998779297</ele>
        <time>2022-03-19T14:48:07.000Z</time>
      </trkpt>
      <trkpt lat="43.59972" lon="5.38518">
        <ele>311</ele>
        <time>2022-03-19T14:48:13.000Z</time>
      </trkpt>
      <trkpt lat="43.5996" lon="5.38514">
        <ele>311</ele>
        <time>2022-03-19T14:48:16.000Z</time>
      </trkpt>
      <trkpt lat="43.59956" lon="5.38512">
        <ele>311</ele>
        <time>2022-03-19T14:48:17.000Z</time>
      </trkpt>
      <trkpt lat="43.59952" lon="5.38511">
        <ele>311</ele>
        <time>2022-03-19T14:48:18.000Z</time>
      </trkpt>
      <trkpt lat="43.59948" lon="5.38509">
        <ele>311</ele>
        <time>2022-03-19T14:48:19.000Z</time>
      </trkpt>
      <trkpt lat="43.59944" lon="5.38508">
        <ele>311</ele>
        <time>2022-03-19T14:48:20.000Z</time>
      </trkpt>
      <trkpt lat="43.59922" lon="5.38502">
        <ele>311</ele>
        <time>2022-03-19T14:48:26.000Z</time>
      </trkpt>
      <trkpt lat="43.59901" lon="5.38495">
        <ele>309.60000610352</ele>
        <time>2022-03-19T14:48:32.000Z</time>
      </trkpt>
      <trkpt lat="43.59887" lon="5.3849">
        <ele>308.60000610352</ele>
        <time>2022-03-19T14:48:36.000Z</time>
      </trkpt>
      <trkpt lat="43.59864" lon="5.38484">
        <ele>307.60000610352</ele>
        <time>2022-03-19T14:48:42.000Z</time>
      </trkpt>
      <trkpt lat="43.59861" lon="5.38483">
        <ele>307.60000610352</ele>
        <time>2022-03-19T14:48:43.000Z</time>
      </trkpt>
      <trkpt lat="43.59858" lon="5.38482">
        <ele>307.39999389648</ele>
        <time>2022-03-19T14:48:44.000Z</time>
      </trkpt>
      <trkpt lat="43.59855" lon="5.38482">
        <ele>307.39999389648</ele>
        <time>2022-03-19T14:48:45.000Z</time>
      </trkpt>
      <trkpt lat="43.59852" lon="5.3848">
        <ele>307.39999389648</ele>
        <time>2022-03-19T14:48:46.000Z</time>
      </trkpt>
      <trkpt lat="43.59848" lon="5.38479">
        <ele>307.39999389648</ele>
        <time>2022-03-19T14:48:47.000Z</time>
      </trkpt>
      <trkpt lat="43.59831" lon="5.38475">
        <ele>307.20001220703</ele>
        <time>2022-03-19T14:48:51.000Z</time>
      </trkpt>
      <trkpt lat="43.59815" lon="5.38472">
        <ele>307.79998779297</ele>
        <time>2022-03-19T14:48:55.000Z</time>
      </trkpt>
      <trkpt lat="43.5979" lon="5.38459">
        <ele>308</ele>
        <time>2022-03-19T14:49:01.000Z</time>
      </trkpt>
      <trkpt lat="43.59775" lon="5.38452">
        <ele>308.20001220703</ele>
        <time>2022-03-19T14:49:05.000Z</time>
      </trkpt>
      <trkpt lat="43.59772" lon="5.38451">
        <ele>308.39999389648</ele>
        <time>2022-03-19T14:49:06.000Z</time>
      </trkpt>
      <trkpt lat="43.59768" lon="5.3845">
        <ele>308.39999389648</ele>
        <time>2022-03-19T14:49:07.000Z</time>
      </trkpt>
      <trkpt lat="43.59764" lon="5.38449">
        <ele>308.60000610352</ele>
        <time>2022-03-19T14:49:08.000Z</time>
      </trkpt>
      <trkpt lat="43.59761" lon="5.38448">
        <ele>308.79998779297</ele>
        <time>2022-03-19T14:49:09.000Z</time>
      </trkpt>
      <trkpt lat="43.59746" lon="5.38441">
        <ele>309</ele>
        <time>2022-03-19T14:49:13.000Z</time>
      </trkpt>
      <trkpt lat="43.59724" lon="5.3843">
        <ele>308.60000610352</ele>
        <time>2022-03-19T14:49:20.000Z</time>
      </trkpt>
      <trkpt lat="43.59699" lon="5.38422">
        <ele>307.39999389648</ele>
        <time>2022-03-19T14:49:26.000Z</time>
      </trkpt>
      <trkpt lat="43.59674" lon="5.38413">
        <ele>305.39999389648</ele>
        <time>2022-03-19T14:49:33.000Z</time>
      </trkpt>
      <trkpt lat="43.59655" lon="5.38406">
        <ele>304.20001220703</ele>
        <time>2022-03-19T14:49:39.000Z</time>
      </trkpt>
      <trkpt lat="43.5964" lon="5.38406">
        <ele>303.20001220703</ele>
        <time>2022-03-19T14:49:44.000Z</time>
      </trkpt>
      <trkpt lat="43.59627" lon="5.38403">
        <ele>303.39999389648</ele>
        <time>2022-03-19T14:49:48.000Z</time>
      </trkpt>
      <trkpt lat="43.59598" lon="5.38392">
        <ele>304.79998779297</ele>
        <time>2022-03-19T14:49:56.000Z</time>
      </trkpt>
      <trkpt lat="43.59575" lon="5.3839">
        <ele>307.39999389648</ele>
        <time>2022-03-19T14:50:03.000Z</time>
      </trkpt>
      <trkpt lat="43.59557" lon="5.38386">
        <ele>310</ele>
        <time>2022-03-19T14:50:09.000Z</time>
      </trkpt>
      <trkpt lat="43.59547" lon="5.38383">
        <ele>310.39999389648</ele>
        <time>2022-03-19T14:50:14.000Z</time>
      </trkpt>
      <trkpt lat="43.59536" lon="5.38374">
        <ele>310.39999389648</ele>
        <time>2022-03-19T14:50:18.000Z</time>
      </trkpt>
      <trkpt lat="43.59521" lon="5.3837">
        <ele>310.39999389648</ele>
        <time>2022-03-19T14:50:23.000Z</time>
      </trkpt>
      <trkpt lat="43.59504" lon="5.38362">
        <ele>310.20001220703</ele>
        <time>2022-03-19T14:50:29.000Z</time>
      </trkpt>
      <trkpt lat="43.5949" lon="5.38358">
        <ele>310</ele>
        <time>2022-03-19T14:50:34.000Z</time>
      </trkpt>
      <trkpt lat="43.59477" lon="5.38355">
        <ele>309.79998779297</ele>
        <time>2022-03-19T14:50:38.000Z</time>
      </trkpt>
      <trkpt lat="43.59465" lon="5.38351">
        <ele>309.79998779297</ele>
        <time>2022-03-19T14:50:42.000Z</time>
      </trkpt>
      <trkpt lat="43.59455" lon="5.38347">
        <ele>309.60000610352</ele>
        <time>2022-03-19T14:50:45.000Z</time>
      </trkpt>
      <trkpt lat="43.59433" lon="5.38334">
        <ele>309.60000610352</ele>
        <time>2022-03-19T14:50:52.000Z</time>
      </trkpt>
      <trkpt lat="43.59418" lon="5.38329">
        <ele>310</ele>
        <time>2022-03-19T14:50:57.000Z</time>
      </trkpt>
      <trkpt lat="43.59399" lon="5.38325">
        <ele>310.39999389648</ele>
        <time>2022-03-19T14:51:03.000Z</time>
      </trkpt>
      <trkpt lat="43.59384" lon="5.38323">
        <ele>310.39999389648</ele>
        <time>2022-03-19T14:51:08.000Z</time>
      </trkpt>
      <trkpt lat="43.59371" lon="5.38333">
        <ele>310.39999389648</ele>
        <time>2022-03-19T14:51:12.000Z</time>
      </trkpt>
      <trkpt lat="43.59359" lon="5.38335">
        <ele>310</ele>
        <time>2022-03-19T14:51:16.000Z</time>
      </trkpt>
      <trkpt lat="43.59355" lon="5.38334">
        <ele>309.79998779297</ele>
        <time>2022-03-19T14:51:17.000Z</time>
      </trkpt>
      <trkpt lat="43.59345" lon="5.38321">
        <ele>309</ele>
        <time>2022-03-19T14:51:21.000Z</time>
      </trkpt>
      <trkpt lat="43.5934" lon="5.38312">
        <ele>308.60000610352</ele>
        <time>2022-03-19T14:51:25.000Z</time>
      </trkpt>
      <trkpt lat="43.59339" lon="5.3831">
        <ele>308.39999389648</ele>
        <time>2022-03-19T14:51:26.000Z</time>
      </trkpt>
      <trkpt lat="43.59343" lon="5.38301">
        <ele>308.20001220703</ele>
        <time>2022-03-19T14:51:30.000Z</time>
      </trkpt>
      <trkpt lat="43.59346" lon="5.38298">
        <ele>308.20001220703</ele>
        <time>2022-03-19T14:51:31.000Z</time>
      </trkpt>
      <trkpt lat="43.5936" lon="5.38288">
        <ele>308.39999389648</ele>
        <time>2022-03-19T14:51:36.000Z</time>
      </trkpt>
      <trkpt lat="43.59376" lon="5.38276">
        <ele>308</ele>
        <time>2022-03-19T14:51:42.000Z</time>
      </trkpt>
      <trkpt lat="43.59393" lon="5.38263">
        <ele>307</ele>
        <time>2022-03-19T14:51:48.000Z</time>
      </trkpt>
      <trkpt lat="43.5941" lon="5.38247">
        <ele>306</ele>
        <time>2022-03-19T14:51:54.000Z</time>
      </trkpt>
      <trkpt lat="43.59433" lon="5.38228">
        <ele>305.39999389648</ele>
        <time>2022-03-19T14:52:01.000Z</time>
      </trkpt>
      <trkpt lat="43.59452" lon="5.38211">
        <ele>304.60000610352</ele>
        <time>2022-03-19T14:52:07.000Z</time>
      </trkpt>
      <trkpt lat="43.5947" lon="5.38189">
        <ele>302.39999389648</ele>
        <time>2022-03-19T14:52:13.000Z</time>
      </trkpt>
      <trkpt lat="43.59487" lon="5.38155">
        <ele>302.79998779297</ele>
        <time>2022-03-19T14:52:20.000Z</time>
      </trkpt>
      <trkpt lat="43.59506" lon="5.38115">
        <ele>304</ele>
        <time>2022-03-19T14:52:28.000Z</time>
      </trkpt>
      <trkpt lat="43.59512" lon="5.38105">
        <ele>304.39999389648</ele>
        <time>2022-03-19T14:52:30.000Z</time>
      </trkpt>
      <trkpt lat="43.59521" lon="5.38086">
        <ele>305.39999389648</ele>
        <time>2022-03-19T14:52:34.000Z</time>
      </trkpt>
      <trkpt lat="43.59535" lon="5.3806">
        <ele>306</ele>
        <time>2022-03-19T14:52:40.000Z</time>
      </trkpt>
      <trkpt lat="43.5956" lon="5.38021">
        <ele>309.20001220703</ele>
        <time>2022-03-19T14:52:49.000Z</time>
      </trkpt>
      <trkpt lat="43.59576" lon="5.37993">
        <ele>309.79998779297</ele>
        <time>2022-03-19T14:52:56.000Z</time>
      </trkpt>
      <trkpt lat="43.59578" lon="5.3797">
        <ele>310.39999389648</ele>
        <time>2022-03-19T14:53:01.000Z</time>
      </trkpt>
      <trkpt lat="43.59579" lon="5.37955">
        <ele>310.60000610352</ele>
        <time>2022-03-19T14:53:06.000Z</time>
      </trkpt>
      <trkpt lat="43.59583" lon="5.37933">
        <ele>311</ele>
        <time>2022-03-19T14:53:12.000Z</time>
      </trkpt>
      <trkpt lat="43.59586" lon="5.37906">
        <ele>312</ele>
        <time>2022-03-19T14:53:18.000Z</time>
      </trkpt>
      <trkpt lat="43.59592" lon="5.37884">
        <ele>312.20001220703</ele>
        <time>2022-03-19T14:53:23.000Z</time>
      </trkpt>
      <trkpt lat="43.59591" lon="5.37869">
        <ele>312.20001220703</ele>
        <time>2022-03-19T14:53:27.000Z</time>
      </trkpt>
      <trkpt lat="43.59592" lon="5.37855">
        <ele>312.20001220703</ele>
        <time>2022-03-19T14:53:31.000Z</time>
      </trkpt>
      <trkpt lat="43.59595" lon="5.37844">
        <ele>312.39999389648</ele>
        <time>2022-03-19T14:53:33.000Z</time>
      </trkpt>
      <trkpt lat="43.59596" lon="5.37833">
        <ele>312.20001220703</ele>
        <time>2022-03-19T14:53:35.000Z</time>
      </trkpt>
      <trkpt lat="43.59597" lon="5.37828">
        <ele>312</ele>
        <time>2022-03-19T14:53:36.000Z</time>
      </trkpt>
      <trkpt lat="43.59602" lon="5.37805">
        <ele>311.60000610352</ele>
        <time>2022-03-19T14:53:41.000Z</time>
      </trkpt>
      <trkpt lat="43.59607" lon="5.37783">
        <ele>311</ele>
        <time>2022-03-19T14:53:46.000Z</time>
      </trkpt>
      <trkpt lat="43.5961" lon="5.37756">
        <ele>310.39999389648</ele>
        <time>2022-03-19T14:53:51.000Z</time>
      </trkpt>
      <trkpt lat="43.59611" lon="5.37727">
        <ele>309.20001220703</ele>
        <time>2022-03-19T14:53:57.000Z</time>
      </trkpt>
      <trkpt lat="43.59611" lon="5.37703">
        <ele>307.79998779297</ele>
        <time>2022-03-19T14:54:02.000Z</time>
      </trkpt>
      <trkpt lat="43.59613" lon="5.37678">
        <ele>306.39999389648</ele>
        <time>2022-03-19T14:54:07.000Z</time>
      </trkpt>
      <trkpt lat="43.59617" lon="5.37658">
        <ele>306</ele>
        <time>2022-03-19T14:54:12.000Z</time>
      </trkpt>
      <trkpt lat="43.59619" lon="5.37629">
        <ele>305</ele>
        <time>2022-03-19T14:54:18.000Z</time>
      </trkpt>
      <trkpt lat="43.59619" lon="5.37623">
        <ele>304.79998779297</ele>
        <time>2022-03-19T14:54:19.000Z</time>
      </trkpt>
      <trkpt lat="43.5962" lon="5.37618">
        <ele>304.60000610352</ele>
        <time>2022-03-19T14:54:20.000Z</time>
      </trkpt>
      <trkpt lat="43.59619" lon="5.37613">
        <ele>304.39999389648</ele>
        <time>2022-03-19T14:54:21.000Z</time>
      </trkpt>
      <trkpt lat="43.59619" lon="5.37609">
        <ele>304.39999389648</ele>
        <time>2022-03-19T14:54:22.000Z</time>
      </trkpt>
      <trkpt lat="43.5962" lon="5.37603">
        <ele>304.39999389648</ele>
        <time>2022-03-19T14:54:23.000Z</time>
      </trkpt>
      <trkpt lat="43.59621" lon="5.37598">
        <ele>304.60000610352</ele>
        <time>2022-03-19T14:54:24.000Z</time>
      </trkpt>
      <trkpt lat="43.59626" lon="5.37572">
        <ele>304.20001220703</ele>
        <time>2022-03-19T14:54:30.000Z</time>
      </trkpt>
      <trkpt lat="43.59633" lon="5.37548">
        <ele>303.79998779297</ele>
        <time>2022-03-19T14:54:36.000Z</time>
      </trkpt>
      <trkpt lat="43.59639" lon="5.37544">
        <ele>303.79998779297</ele>
        <time>2022-03-19T14:54:38.000Z</time>
      </trkpt>
      <trkpt lat="43.59644" lon="5.37544">
        <ele>304.20001220703</ele>
        <time>2022-03-19T14:54:40.000Z</time>
      </trkpt>
      <trkpt lat="43.59651" lon="5.37553">
        <ele>304.39999389648</ele>
        <time>2022-03-19T14:54:44.000Z</time>
      </trkpt>
      <trkpt lat="43.59656" lon="5.37572">
        <ele>305.79998779297</ele>
        <time>2022-03-19T14:54:50.000Z</time>
      </trkpt>
      <trkpt lat="43.59657" lon="5.3758">
        <ele>306.20001220703</ele>
        <time>2022-03-19T14:54:52.000Z</time>
      </trkpt>
      <trkpt lat="43.59661" lon="5.37596">
        <ele>306.39999389648</ele>
        <time>2022-03-19T14:54:56.000Z</time>
      </trkpt>
      <trkpt lat="43.59668" lon="5.37628">
        <ele>307.60000610352</ele>
        <time>2022-03-19T14:55:03.000Z</time>
      </trkpt>
      <trkpt lat="43.59673" lon="5.37656">
        <ele>307.20001220703</ele>
        <time>2022-03-19T14:55:08.000Z</time>
      </trkpt>
      <trkpt lat="43.59675" lon="5.37661">
        <ele>307</ele>
        <time>2022-03-19T14:55:09.000Z</time>
      </trkpt>
      <trkpt lat="43.59686" lon="5.37705">
        <ele>307.79998779297</ele>
        <time>2022-03-19T14:55:16.000Z</time>
      </trkpt>
      <trkpt lat="43.5969" lon="5.37718">
        <ele>308.39999389648</ele>
        <time>2022-03-19T14:55:18.000Z</time>
      </trkpt>
      <trkpt lat="43.59694" lon="5.37729">
        <ele>309</ele>
        <time>2022-03-19T14:55:20.000Z</time>
      </trkpt>
      <trkpt lat="43.59702" lon="5.37761">
        <ele>309.20001220703</ele>
        <time>2022-03-19T14:55:25.000Z</time>
      </trkpt>
      <trkpt lat="43.59703" lon="5.37767">
        <ele>309</ele>
        <time>2022-03-19T14:55:26.000Z</time>
      </trkpt>
      <trkpt lat="43.59711" lon="5.37798">
        <ele>308.60000610352</ele>
        <time>2022-03-19T14:55:31.000Z</time>
      </trkpt>
      <trkpt lat="43.59716" lon="5.37823">
        <ele>308</ele>
        <time>2022-03-19T14:55:36.000Z</time>
      </trkpt>
      <trkpt lat="43.59719" lon="5.37834">
        <ele>307.20001220703</ele>
        <time>2022-03-19T14:55:40.000Z</time>
      </trkpt>
      <trkpt lat="43.59722" lon="5.37836">
        <ele>307</ele>
        <time>2022-03-19T14:55:42.000Z</time>
      </trkpt>
      <trkpt lat="43.59729" lon="5.37833">
        <ele>306.79998779297</ele>
        <time>2022-03-19T14:55:44.000Z</time>
      </trkpt>
      <trkpt lat="43.59731" lon="5.37829">
        <ele>306.79998779297</ele>
        <time>2022-03-19T14:55:45.000Z</time>
      </trkpt>
      <trkpt lat="43.59734" lon="5.37824">
        <ele>306.60000610352</ele>
        <time>2022-03-19T14:55:46.000Z</time>
      </trkpt>
      <trkpt lat="43.59736" lon="5.37821">
        <ele>306.60000610352</ele>
        <time>2022-03-19T14:55:47.000Z</time>
      </trkpt>
      <trkpt lat="43.59739" lon="5.37818">
        <ele>306.39999389648</ele>
        <time>2022-03-19T14:55:48.000Z</time>
      </trkpt>
      <trkpt lat="43.59742" lon="5.37815">
        <ele>306.20001220703</ele>
        <time>2022-03-19T14:55:49.000Z</time>
      </trkpt>
      <trkpt lat="43.59744" lon="5.37812">
        <ele>305.60000610352</ele>
        <time>2022-03-19T14:55:50.000Z</time>
      </trkpt>
      <trkpt lat="43.59751" lon="5.37806">
        <ele>304.39999389648</ele>
        <time>2022-03-19T14:55:52.000Z</time>
      </trkpt>
      <trkpt lat="43.59762" lon="5.37795">
        <ele>303.20001220703</ele>
        <time>2022-03-19T14:55:56.000Z</time>
      </trkpt>
      <trkpt lat="43.59765" lon="5.37792">
        <ele>302.79998779297</ele>
        <time>2022-03-19T14:55:57.000Z</time>
      </trkpt>
      <trkpt lat="43.59768" lon="5.37789">
        <ele>302.39999389648</ele>
        <time>2022-03-19T14:55:58.000Z</time>
      </trkpt>
      <trkpt lat="43.59772" lon="5.37787">
        <ele>302.20001220703</ele>
        <time>2022-03-19T14:55:59.000Z</time>
      </trkpt>
      <trkpt lat="43.59774" lon="5.37784">
        <ele>302</ele>
        <time>2022-03-19T14:56:00.000Z</time>
      </trkpt>
      <trkpt lat="43.59776" lon="5.37781">
        <ele>301.60000610352</ele>
        <time>2022-03-19T14:56:01.000Z</time>
      </trkpt>
      <trkpt lat="43.59785" lon="5.37774">
        <ele>301.20001220703</ele>
        <time>2022-03-19T14:56:05.000Z</time>
      </trkpt>
      <trkpt lat="43.59788" lon="5.37774">
        <ele>301.20001220703</ele>
        <time>2022-03-19T14:56:06.000Z</time>
      </trkpt>
      <trkpt lat="43.59794" lon="5.37767">
        <ele>301.20001220703</ele>
        <time>2022-03-19T14:56:09.000Z</time>
      </trkpt>
      <trkpt lat="43.59796" lon="5.37764">
        <ele>301.20001220703</ele>
        <time>2022-03-19T14:56:10.000Z</time>
      </trkpt>
      <trkpt lat="43.59808" lon="5.37734">
        <ele>302</ele>
        <time>2022-03-19T14:56:16.000Z</time>
      </trkpt>
      <trkpt lat="43.59812" lon="5.37721">
        <ele>302.20001220703</ele>
        <time>2022-03-19T14:56:18.000Z</time>
      </trkpt>
      <trkpt lat="43.59818" lon="5.37706">
        <ele>302.39999389648</ele>
        <time>2022-03-19T14:56:21.000Z</time>
      </trkpt>
      <trkpt lat="43.59824" lon="5.37675">
        <ele>303</ele>
        <time>2022-03-19T14:56:26.000Z</time>
      </trkpt>
      <trkpt lat="43.59833" lon="5.37637">
        <ele>302</ele>
        <time>2022-03-19T14:56:32.000Z</time>
      </trkpt>
      <trkpt lat="43.59838" lon="5.37605">
        <ele>300.79998779297</ele>
        <time>2022-03-19T14:56:37.000Z</time>
      </trkpt>
      <trkpt lat="43.59844" lon="5.37588">
        <ele>299.60000610352</ele>
        <time>2022-03-19T14:56:40.000Z</time>
      </trkpt>
      <trkpt lat="43.59846" lon="5.37583">
        <ele>299</ele>
        <time>2022-03-19T14:56:41.000Z</time>
      </trkpt>
      <trkpt lat="43.59847" lon="5.37577">
        <ele>298.39999389648</ele>
        <time>2022-03-19T14:56:42.000Z</time>
      </trkpt>
      <trkpt lat="43.59848" lon="5.37572">
        <ele>298</ele>
        <time>2022-03-19T14:56:43.000Z</time>
      </trkpt>
      <trkpt lat="43.59849" lon="5.37567">
        <ele>297.60000610352</ele>
        <time>2022-03-19T14:56:44.000Z</time>
      </trkpt>
      <trkpt lat="43.59851" lon="5.37554">
        <ele>297</ele>
        <time>2022-03-19T14:56:47.000Z</time>
      </trkpt>
      <trkpt lat="43.59846" lon="5.37543">
        <ele>297</ele>
        <time>2022-03-19T14:56:51.000Z</time>
      </trkpt>
      <trkpt lat="43.5984" lon="5.37542">
        <ele>297</ele>
        <time>2022-03-19T14:56:53.000Z</time>
      </trkpt>
      <trkpt lat="43.59833" lon="5.37541">
        <ele>297</ele>
        <time>2022-03-19T14:56:55.000Z</time>
      </trkpt>
      <trkpt lat="43.59829" lon="5.37542">
        <ele>297</ele>
        <time>2022-03-19T14:56:56.000Z</time>
      </trkpt>
      <trkpt lat="43.59819" lon="5.37548">
        <ele>297.39999389648</ele>
        <time>2022-03-19T14:56:59.000Z</time>
      </trkpt>
      <trkpt lat="43.59809" lon="5.37539">
        <ele>297.39999389648</ele>
        <time>2022-03-19T14:57:02.000Z</time>
      </trkpt>
      <trkpt lat="43.59799" lon="5.37529">
        <ele>297.79998779297</ele>
        <time>2022-03-19T14:57:06.000Z</time>
      </trkpt>
      <trkpt lat="43.59788" lon="5.37521">
        <ele>298.39999389648</ele>
        <time>2022-03-19T14:57:10.000Z</time>
      </trkpt>
      <trkpt lat="43.59786" lon="5.37523">
        <ele>298.60000610352</ele>
        <time>2022-03-19T14:57:11.000Z</time>
      </trkpt>
      <trkpt lat="43.59784" lon="5.37524">
        <ele>298.79998779297</ele>
        <time>2022-03-19T14:57:12.000Z</time>
      </trkpt>
      <trkpt lat="43.59782" lon="5.37526">
        <ele>299</ele>
        <time>2022-03-19T14:57:13.000Z</time>
      </trkpt>
      <trkpt lat="43.59779" lon="5.37528">
        <ele>299</ele>
        <time>2022-03-19T14:57:14.000Z</time>
      </trkpt>
      <trkpt lat="43.59777" lon="5.37529">
        <ele>299.20001220703</ele>
        <time>2022-03-19T14:57:15.000Z</time>
      </trkpt>
      <trkpt lat="43.5976" lon="5.37544">
        <ele>300.20001220703</ele>
        <time>2022-03-19T14:57:20.000Z</time>
      </trkpt>
      <trkpt lat="43.59744" lon="5.37544">
        <ele>301.39999389648</ele>
        <time>2022-03-19T14:57:24.000Z</time>
      </trkpt>
      <trkpt lat="43.5974" lon="5.37542">
        <ele>301.60000610352</ele>
        <time>2022-03-19T14:57:25.000Z</time>
      </trkpt>
      <trkpt lat="43.59736" lon="5.3754">
        <ele>301.79998779297</ele>
        <time>2022-03-19T14:57:26.000Z</time>
      </trkpt>
      <trkpt lat="43.59733" lon="5.37539">
        <ele>302</ele>
        <time>2022-03-19T14:57:27.000Z</time>
      </trkpt>
      <trkpt lat="43.59729" lon="5.37538">
        <ele>302.20001220703</ele>
        <time>2022-03-19T14:57:28.000Z</time>
      </trkpt>
      <trkpt lat="43.59726" lon="5.37538">
        <ele>302.39999389648</ele>
        <time>2022-03-19T14:57:29.000Z</time>
      </trkpt>
      <trkpt lat="43.59716" lon="5.37542">
        <ele>303</ele>
        <time>2022-03-19T14:57:32.000Z</time>
      </trkpt>
      <trkpt lat="43.59702" lon="5.37543">
        <ele>304</ele>
        <time>2022-03-19T14:57:37.000Z</time>
      </trkpt>
      <trkpt lat="43.59692" lon="5.37537">
        <ele>304</ele>
        <time>2022-03-19T14:57:41.000Z</time>
      </trkpt>
      <trkpt lat="43.59676" lon="5.37521">
        <ele>303</ele>
        <time>2022-03-19T14:57:47.000Z</time>
      </trkpt>
      <trkpt lat="43.5966" lon="5.37503">
        <ele>303.39999389648</ele>
        <time>2022-03-19T14:57:54.000Z</time>
      </trkpt>
      <trkpt lat="43.59653" lon="5.37491">
        <ele>303.60000610352</ele>
        <time>2022-03-19T14:57:59.000Z</time>
      </trkpt>
      <trkpt lat="43.5965" lon="5.37489">
        <ele>303.60000610352</ele>
        <time>2022-03-19T14:58:01.000Z</time>
      </trkpt>
      <trkpt lat="43.59645" lon="5.37485">
        <ele>303.79998779297</ele>
        <time>2022-03-19T14:58:04.000Z</time>
      </trkpt>
      <trkpt lat="43.59649" lon="5.37478">
        <ele>303.79998779297</ele>
        <time>2022-03-19T14:58:07.000Z</time>
      </trkpt>
      <trkpt lat="43.59656" lon="5.37472">
        <ele>303.39999389648</ele>
        <time>2022-03-19T14:58:10.000Z</time>
      </trkpt>
      <trkpt lat="43.5966" lon="5.37471">
        <ele>303.39999389648</ele>
        <time>2022-03-19T14:58:12.000Z</time>
      </trkpt>
      <trkpt lat="43.59672" lon="5.37464">
        <ele>302.79998779297</ele>
        <time>2022-03-19T14:58:17.000Z</time>
      </trkpt>
      <trkpt lat="43.59682" lon="5.37456">
        <ele>302</ele>
        <time>2022-03-19T14:58:21.000Z</time>
      </trkpt>
      <trkpt lat="43.59699" lon="5.37446">
        <ele>302</ele>
        <time>2022-03-19T14:58:26.000Z</time>
      </trkpt>
      <trkpt lat="43.59711" lon="5.37444">
        <ele>302.39999389648</ele>
        <time>2022-03-19T14:58:30.000Z</time>
      </trkpt>
      <trkpt lat="43.59724" lon="5.37442">
        <ele>303</ele>
        <time>2022-03-19T14:58:35.000Z</time>
      </trkpt>
      <trkpt lat="43.59739" lon="5.37435">
        <ele>303</ele>
        <time>2022-03-19T14:58:40.000Z</time>
      </trkpt>
      <trkpt lat="43.59756" lon="5.37425">
        <ele>302.79998779297</ele>
        <time>2022-03-19T14:58:46.000Z</time>
      </trkpt>
      <trkpt lat="43.59759" lon="5.37422">
        <ele>302.60000610352</ele>
        <time>2022-03-19T14:58:47.000Z</time>
      </trkpt>
      <trkpt lat="43.5976" lon="5.3742">
        <ele>302.39999389648</ele>
        <time>2022-03-19T14:58:48.000Z</time>
      </trkpt>
      <trkpt lat="43.59766" lon="5.37414">
        <ele>302.39999389648</ele>
        <time>2022-03-19T14:58:49.000Z</time>
      </trkpt>
      <trkpt lat="43.59773" lon="5.37403">
        <ele>302.60000610352</ele>
        <time>2022-03-19T14:58:51.000Z</time>
      </trkpt>
      <trkpt lat="43.59773" lon="5.37398">
        <ele>302.60000610352</ele>
        <time>2022-03-19T14:58:52.000Z</time>
      </trkpt>
      <trkpt lat="43.59777" lon="5.37386">
        <ele>302.20001220703</ele>
        <time>2022-03-19T14:58:54.000Z</time>
      </trkpt>
      <trkpt lat="43.59779" lon="5.37373">
        <ele>302</ele>
        <time>2022-03-19T14:58:56.000Z</time>
      </trkpt>
      <trkpt lat="43.5978" lon="5.3736">
        <ele>302</ele>
        <time>2022-03-19T14:58:58.000Z</time>
      </trkpt>
      <trkpt lat="43.59781" lon="5.37356">
        <ele>301.79998779297</ele>
        <time>2022-03-19T14:58:59.000Z</time>
      </trkpt>
      <trkpt lat="43.59781" lon="5.37351">
        <ele>301.60000610352</ele>
        <time>2022-03-19T14:59:00.000Z</time>
      </trkpt>
      <trkpt lat="43.59782" lon="5.37349">
        <ele>301.60000610352</ele>
        <time>2022-03-19T14:59:01.000Z</time>
      </trkpt>
      <trkpt lat="43.59783" lon="5.37345">
        <ele>301.20001220703</ele>
        <time>2022-03-19T14:59:02.000Z</time>
      </trkpt>
      <trkpt lat="43.59787" lon="5.37319">
        <ele>300</ele>
        <time>2022-03-19T14:59:07.000Z</time>
      </trkpt>
      <trkpt lat="43.5979" lon="5.37292">
        <ele>299.20001220703</ele>
        <time>2022-03-19T14:59:12.000Z</time>
      </trkpt>
      <trkpt lat="43.59792" lon="5.37264">
        <ele>298.79998779297</ele>
        <time>2022-03-19T14:59:18.000Z</time>
      </trkpt>
      <trkpt lat="43.59792" lon="5.37259">
        <ele>298.79998779297</ele>
        <time>2022-03-19T14:59:20.000Z</time>
      </trkpt>
      <trkpt lat="43.59794" lon="5.37254">
        <ele>298.60000610352</ele>
        <time>2022-03-19T14:59:22.000Z</time>
      </trkpt>
      <trkpt lat="43.59796" lon="5.37254">
        <ele>298.20001220703</ele>
        <time>2022-03-19T14:59:23.000Z</time>
      </trkpt>
      <trkpt lat="43.59799" lon="5.37253">
        <ele>298</ele>
        <time>2022-03-19T14:59:24.000Z</time>
      </trkpt>
      <trkpt lat="43.59803" lon="5.37252">
        <ele>297.60000610352</ele>
        <time>2022-03-19T14:59:25.000Z</time>
      </trkpt>
      <trkpt lat="43.59808" lon="5.37251">
        <ele>297</ele>
        <time>2022-03-19T14:59:26.000Z</time>
      </trkpt>
      <trkpt lat="43.59813" lon="5.37251">
        <ele>296.60000610352</ele>
        <time>2022-03-19T14:59:27.000Z</time>
      </trkpt>
      <trkpt lat="43.59819" lon="5.37251">
        <ele>296.20001220703</ele>
        <time>2022-03-19T14:59:28.000Z</time>
      </trkpt>
      <trkpt lat="43.59825" lon="5.37253">
        <ele>295.79998779297</ele>
        <time>2022-03-19T14:59:29.000Z</time>
      </trkpt>
      <trkpt lat="43.59831" lon="5.37255">
        <ele>295.39999389648</ele>
        <time>2022-03-19T14:59:30.000Z</time>
      </trkpt>
      <trkpt lat="43.59848" lon="5.37256">
        <ele>295</ele>
        <time>2022-03-19T14:59:33.000Z</time>
      </trkpt>
      <trkpt lat="43.59854" lon="5.37256">
        <ele>295</ele>
        <time>2022-03-19T14:59:34.000Z</time>
      </trkpt>
      <trkpt lat="43.59865" lon="5.37258">
        <ele>295</ele>
        <time>2022-03-19T14:59:36.000Z</time>
      </trkpt>
      <trkpt lat="43.59871" lon="5.37262">
        <ele>295.60000610352</ele>
        <time>2022-03-19T14:59:38.000Z</time>
      </trkpt>
      <trkpt lat="43.59876" lon="5.37277">
        <ele>295.79998779297</ele>
        <time>2022-03-19T14:59:42.000Z</time>
      </trkpt>
      <trkpt lat="43.59877" lon="5.37281">
        <ele>296</ele>
        <time>2022-03-19T14:59:43.000Z</time>
      </trkpt>
      <trkpt lat="43.59881" lon="5.37303">
        <ele>296.60000610352</ele>
        <time>2022-03-19T14:59:47.000Z</time>
      </trkpt>
      <trkpt lat="43.59883" lon="5.37319">
        <ele>296.79998779297</ele>
        <time>2022-03-19T14:59:51.000Z</time>
      </trkpt>
      <trkpt lat="43.59886" lon="5.37337">
        <ele>297.20001220703</ele>
        <time>2022-03-19T14:59:56.000Z</time>
      </trkpt>
      <trkpt lat="43.59883" lon="5.37363">
        <ele>297.60000610352</ele>
        <time>2022-03-19T15:00:02.000Z</time>
      </trkpt>
      <trkpt lat="43.59876" lon="5.37379">
        <ele>297.79998779297</ele>
        <time>2022-03-19T15:00:06.000Z</time>
      </trkpt>
      <trkpt lat="43.59868" lon="5.37401">
        <ele>298.20001220703</ele>
        <time>2022-03-19T15:00:10.000Z</time>
      </trkpt>
      <trkpt lat="43.59867" lon="5.37407">
        <ele>298.20001220703</ele>
        <time>2022-03-19T15:00:11.000Z</time>
      </trkpt>
      <trkpt lat="43.5986" lon="5.37439">
        <ele>299</ele>
        <time>2022-03-19T15:00:17.000Z</time>
      </trkpt>
      <trkpt lat="43.5986" lon="5.37451">
        <ele>299</ele>
        <time>2022-03-19T15:00:19.000Z</time>
      </trkpt>
      <trkpt lat="43.5986" lon="5.37461">
        <ele>299</ele>
        <time>2022-03-19T15:00:21.000Z</time>
      </trkpt>
      <trkpt lat="43.59859" lon="5.37471">
        <ele>298.60000610352</ele>
        <time>2022-03-19T15:00:23.000Z</time>
      </trkpt>
      <trkpt lat="43.59857" lon="5.37475">
        <ele>298.39999389648</ele>
        <time>2022-03-19T15:00:24.000Z</time>
      </trkpt>
      <trkpt lat="43.59856" lon="5.37479">
        <ele>298</ele>
        <time>2022-03-19T15:00:25.000Z</time>
      </trkpt>
      <trkpt lat="43.59856" lon="5.37483">
        <ele>297.60000610352</ele>
        <time>2022-03-19T15:00:26.000Z</time>
      </trkpt>
      <trkpt lat="43.59854" lon="5.37491">
        <ele>297.20001220703</ele>
        <time>2022-03-19T15:00:28.000Z</time>
      </trkpt>
      <trkpt lat="43.59853" lon="5.37496">
        <ele>297</ele>
        <time>2022-03-19T15:00:30.000Z</time>
      </trkpt>
      <trkpt lat="43.5985" lon="5.37515">
        <ele>297</ele>
        <time>2022-03-19T15:00:34.000Z</time>
      </trkpt>
      <trkpt lat="43.59849" lon="5.37537">
        <ele>297</ele>
        <time>2022-03-19T15:00:39.000Z</time>
      </trkpt>
      <trkpt lat="43.59845" lon="5.37561">
        <ele>297.39999389648</ele>
        <time>2022-03-19T15:00:44.000Z</time>
      </trkpt>
      <trkpt lat="43.5984" lon="5.3758">
        <ele>298.79998779297</ele>
        <time>2022-03-19T15:00:48.000Z</time>
      </trkpt>
      <trkpt lat="43.59835" lon="5.37601">
        <ele>300.60000610352</ele>
        <time>2022-03-19T15:00:53.000Z</time>
      </trkpt>
      <trkpt lat="43.59832" lon="5.3761">
        <ele>301.20001220703</ele>
        <time>2022-03-19T15:00:55.000Z</time>
      </trkpt>
      <trkpt lat="43.59828" lon="5.37628">
        <ele>302</ele>
        <time>2022-03-19T15:00:58.000Z</time>
      </trkpt>
      <trkpt lat="43.59827" lon="5.37641">
        <ele>302.20001220703</ele>
        <time>2022-03-19T15:01:00.000Z</time>
      </trkpt>
      <trkpt lat="43.59825" lon="5.37657">
        <ele>302.79998779297</ele>
        <time>2022-03-19T15:01:03.000Z</time>
      </trkpt>
      <trkpt lat="43.5982" lon="5.37677">
        <ele>303</ele>
        <time>2022-03-19T15:01:07.000Z</time>
      </trkpt>
      <trkpt lat="43.59819" lon="5.37682">
        <ele>302.60000610352</ele>
        <time>2022-03-19T15:01:08.000Z</time>
      </trkpt>
      <trkpt lat="43.59819" lon="5.37687">
        <ele>302.60000610352</ele>
        <time>2022-03-19T15:01:09.000Z</time>
      </trkpt>
      <trkpt lat="43.59817" lon="5.37693">
        <ele>302.39999389648</ele>
        <time>2022-03-19T15:01:10.000Z</time>
      </trkpt>
      <trkpt lat="43.59816" lon="5.37698">
        <ele>302.20001220703</ele>
        <time>2022-03-19T15:01:11.000Z</time>
      </trkpt>
      <trkpt lat="43.59811" lon="5.37713">
        <ele>302</ele>
        <time>2022-03-19T15:01:14.000Z</time>
      </trkpt>
      <trkpt lat="43.59806" lon="5.37738">
        <ele>301.79998779297</ele>
        <time>2022-03-19T15:01:19.000Z</time>
      </trkpt>
      <trkpt lat="43.59797" lon="5.37761">
        <ele>301.20001220703</ele>
        <time>2022-03-19T15:01:25.000Z</time>
      </trkpt>
      <trkpt lat="43.59792" lon="5.37765">
        <ele>301</ele>
        <time>2022-03-19T15:01:28.000Z</time>
      </trkpt>
      <trkpt lat="43.59789" lon="5.37766">
        <ele>301</ele>
        <time>2022-03-19T15:01:29.000Z</time>
      </trkpt>
      <trkpt lat="43.59776" lon="5.37776">
        <ele>301.20001220703</ele>
        <time>2022-03-19T15:01:34.000Z</time>
      </trkpt>
      <trkpt lat="43.59765" lon="5.37786">
        <ele>302.39999389648</ele>
        <time>2022-03-19T15:01:39.000Z</time>
      </trkpt>
      <trkpt lat="43.59757" lon="5.37796">
        <ele>303.39999389648</ele>
        <time>2022-03-19T15:01:42.000Z</time>
      </trkpt>
      <trkpt lat="43.59752" lon="5.37802">
        <ele>304</ele>
        <time>2022-03-19T15:01:44.000Z</time>
      </trkpt>
      <trkpt lat="43.5975" lon="5.37805">
        <ele>304.60000610352</ele>
        <time>2022-03-19T15:01:45.000Z</time>
      </trkpt>
      <trkpt lat="43.59747" lon="5.37807">
        <ele>305</ele>
        <time>2022-03-19T15:01:46.000Z</time>
      </trkpt>
      <trkpt lat="43.59745" lon="5.37809">
        <ele>305.20001220703</ele>
        <time>2022-03-19T15:01:47.000Z</time>
      </trkpt>
      <trkpt lat="43.59743" lon="5.3781">
        <ele>305.60000610352</ele>
        <time>2022-03-19T15:01:48.000Z</time>
      </trkpt>
      <trkpt lat="43.59736" lon="5.37822">
        <ele>306.60000610352</ele>
        <time>2022-03-19T15:01:52.000Z</time>
      </trkpt>
      <trkpt lat="43.59726" lon="5.37836">
        <ele>306.79998779297</ele>
        <time>2022-03-19T15:01:57.000Z</time>
      </trkpt>
      <trkpt lat="43.59726" lon="5.37839">
        <ele>306.60000610352</ele>
        <time>2022-03-19T15:01:58.000Z</time>
      </trkpt>
      <trkpt lat="43.59725" lon="5.37842">
        <ele>306.60000610352</ele>
        <time>2022-03-19T15:01:59.000Z</time>
      </trkpt>
      <trkpt lat="43.59725" lon="5.37846">
        <ele>306.39999389648</ele>
        <time>2022-03-19T15:02:00.000Z</time>
      </trkpt>
      <trkpt lat="43.59725" lon="5.3785">
        <ele>306.20001220703</ele>
        <time>2022-03-19T15:02:01.000Z</time>
      </trkpt>
      <trkpt lat="43.59726" lon="5.37854">
        <ele>306.20001220703</ele>
        <time>2022-03-19T15:02:02.000Z</time>
      </trkpt>
      <trkpt lat="43.59727" lon="5.37865">
        <ele>305.79998779297</ele>
        <time>2022-03-19T15:02:05.000Z</time>
      </trkpt>
      <trkpt lat="43.59731" lon="5.37865">
        <ele>305.79998779297</ele>
        <time>2022-03-19T15:02:07.000Z</time>
      </trkpt>
      <trkpt lat="43.59743" lon="5.37859">
        <ele>306</ele>
        <time>2022-03-19T15:02:12.000Z</time>
      </trkpt>
      <trkpt lat="43.59755" lon="5.37852">
        <ele>306</ele>
        <time>2022-03-19T15:02:17.000Z</time>
      </trkpt>
      <trkpt lat="43.5977" lon="5.37851">
        <ele>305.39999389648</ele>
        <time>2022-03-19T15:02:22.000Z</time>
      </trkpt>
      <trkpt lat="43.59783" lon="5.3786">
        <ele>304.79998779297</ele>
        <time>2022-03-19T15:02:27.000Z</time>
      </trkpt>
      <trkpt lat="43.59788" lon="5.37862">
        <ele>304.20001220703</ele>
        <time>2022-03-19T15:02:29.000Z</time>
      </trkpt>
      <trkpt lat="43.59799" lon="5.37858">
        <ele>303</ele>
        <time>2022-03-19T15:02:33.000Z</time>
      </trkpt>
      <trkpt lat="43.59805" lon="5.37842">
        <ele>302.79998779297</ele>
        <time>2022-03-19T15:02:38.000Z</time>
      </trkpt>
      <trkpt lat="43.59812" lon="5.37818">
        <ele>302.79998779297</ele>
        <time>2022-03-19T15:02:44.000Z</time>
      </trkpt>
      <trkpt lat="43.59823" lon="5.37785">
        <ele>302.20001220703</ele>
        <time>2022-03-19T15:02:52.000Z</time>
      </trkpt>
      <trkpt lat="43.59826" lon="5.37773">
        <ele>302.60000610352</ele>
        <time>2022-03-19T15:02:57.000Z</time>
      </trkpt>
      <trkpt lat="43.59827" lon="5.37769">
        <ele>302.60000610352</ele>
        <time>2022-03-19T15:03:00.000Z</time>
      </trkpt>
      <trkpt lat="43.59827" lon="5.37769">
        <ele>302.60000610352</ele>
        <time>2022-03-19T15:03:02.000Z</time>
      </trkpt>
      <trkpt lat="43.59829" lon="5.37762">
        <ele>302.79998779297</ele>
        <time>2022-03-19T15:03:08.000Z</time>
      </trkpt>
      <trkpt lat="43.59829" lon="5.37756">
        <ele>302.79998779297</ele>
        <time>2022-03-19T15:03:13.000Z</time>
      </trkpt>
      <trkpt lat="43.59829" lon="5.37754">
        <ele>302.79998779297</ele>
        <time>2022-03-19T15:03:19.000Z</time>
      </trkpt>
      <trkpt lat="43.59829" lon="5.37754">
        <ele>302.79998779297</ele>
        <time>2022-03-19T15:03:36.000Z</time>
      </trkpt>
      <trkpt lat="43.59829" lon="5.37754">
        <ele>302.79998779297</ele>
        <time>2022-03-19T15:03:52.000Z</time>
      </trkpt>
      <trkpt lat="43.59829" lon="5.37754">
        <ele>302.79998779297</ele>
        <time>2022-03-19T15:04:05.000Z</time>
      </trkpt>
      <trkpt lat="43.5983" lon="5.37755">
        <ele>302.79998779297</ele>
        <time>2022-03-19T15:04:10.000Z</time>
      </trkpt>
      <trkpt lat="43.59831" lon="5.37755">
        <ele>302.79998779297</ele>
        <time>2022-03-19T15:04:12.000Z</time>
      </trkpt>
      <trkpt lat="43.59829" lon="5.37756">
        <ele>302.79998779297</ele>
        <time>2022-03-19T15:04:16.000Z</time>
      </trkpt>
      <trkpt lat="43.59829" lon="5.37756">
        <ele>302.79998779297</ele>
        <time>2022-03-19T15:04:22.000Z</time>
      </trkpt>
      <trkpt lat="43.59829" lon="5.37758">
        <ele>302.79998779297</ele>
        <time>2022-03-19T15:04:24.000Z</time>
      </trkpt>
      <trkpt lat="43.59828" lon="5.37764">
        <ele>302.79998779297</ele>
        <time>2022-03-19T15:04:27.000Z</time>
      </trkpt>
      <trkpt lat="43.59823" lon="5.37769">
        <ele>302.60000610352</ele>
        <time>2022-03-19T15:04:31.000Z</time>
      </trkpt>
      <trkpt lat="43.59823" lon="5.37769">
        <ele>302.60000610352</ele>
        <time>2022-03-19T15:04:36.000Z</time>
      </trkpt>
      <trkpt lat="43.59823" lon="5.37769">
        <ele>302.60000610352</ele>
        <time>2022-03-19T15:04:49.000Z</time>
      </trkpt>
      <trkpt lat="43.59823" lon="5.37769">
        <ele>302.60000610352</ele>
        <time>2022-03-19T15:05:03.000Z</time>
      </trkpt>
      <trkpt lat="43.59823" lon="5.37769">
        <ele>302.60000610352</ele>
        <time>2022-03-19T15:05:12.000Z</time>
      </trkpt>
      <trkpt lat="43.59823" lon="5.37769">
        <ele>302.60000610352</ele>
        <time>2022-03-19T15:05:25.000Z</time>
      </trkpt>
      <trkpt lat="43.59823" lon="5.37769">
        <ele>302.60000610352</ele>
        <time>2022-03-19T15:05:33.000Z</time>
      </trkpt>
      <trkpt lat="43.59823" lon="5.37769">
        <ele>302.60000610352</ele>
        <time>2022-03-19T15:05:42.000Z</time>
      </trkpt>
      <trkpt lat="43.59823" lon="5.37769">
        <ele>302.60000610352</ele>
        <time>2022-03-19T15:05:50.000Z</time>
      </trkpt>
      <trkpt lat="43.59823" lon="5.37769">
        <ele>302.60000610352</ele>
        <time>2022-03-19T15:06:00.000Z</time>
      </trkpt>
      <trkpt lat="43.59823" lon="5.37767">
        <ele>302.60000610352</ele>
        <time>2022-03-19T15:06:08.000Z</time>
      </trkpt>
      <trkpt lat="43.5982" lon="5.37757">
        <ele>302.39999389648</ele>
        <time>2022-03-19T15:06:13.000Z</time>
      </trkpt>
      <trkpt lat="43.5982" lon="5.37752">
        <ele>302.39999389648</ele>
        <time>2022-03-19T15:06:14.000Z</time>
      </trkpt>
      <trkpt lat="43.59821" lon="5.37746">
        <ele>302.39999389648</ele>
        <time>2022-03-19T15:06:15.000Z</time>
      </trkpt>
      <trkpt lat="43.59822" lon="5.37742">
        <ele>302.60000610352</ele>
        <time>2022-03-19T15:06:16.000Z</time>
      </trkpt>
      <trkpt lat="43.59824" lon="5.37737">
        <ele>302.60000610352</ele>
        <time>2022-03-19T15:06:17.000Z</time>
      </trkpt>
      <trkpt lat="43.59826" lon="5.37732">
        <ele>302.60000610352</ele>
        <time>2022-03-19T15:06:18.000Z</time>
      </trkpt>
      <trkpt lat="43.59835" lon="5.37707">
        <ele>303</ele>
        <time>2022-03-19T15:06:23.000Z</time>
      </trkpt>
      <trkpt lat="43.59843" lon="5.37673">
        <ele>303</ele>
        <time>2022-03-19T15:06:29.000Z</time>
      </trkpt>
      <trkpt lat="43.59843" lon="5.37668">
        <ele>303</ele>
        <time>2022-03-19T15:06:30.000Z</time>
      </trkpt>
      <trkpt lat="43.59846" lon="5.37663">
        <ele>303</ele>
        <time>2022-03-19T15:06:31.000Z</time>
      </trkpt>
      <trkpt lat="43.59848" lon="5.37661">
        <ele>303</ele>
        <time>2022-03-19T15:06:32.000Z</time>
      </trkpt>
      <trkpt lat="43.59852" lon="5.37659">
        <ele>302.79998779297</ele>
        <time>2022-03-19T15:06:33.000Z</time>
      </trkpt>
      <trkpt lat="43.59863" lon="5.37653">
        <ele>303</ele>
        <time>2022-03-19T15:06:36.000Z</time>
      </trkpt>
      <trkpt lat="43.59877" lon="5.37647">
        <ele>303.39999389648</ele>
        <time>2022-03-19T15:06:41.000Z</time>
      </trkpt>
      <trkpt lat="43.59888" lon="5.37643">
        <ele>303.79998779297</ele>
        <time>2022-03-19T15:06:45.000Z</time>
      </trkpt>
      <trkpt lat="43.59891" lon="5.3764">
        <ele>304</ele>
        <time>2022-03-19T15:06:46.000Z</time>
      </trkpt>
      <trkpt lat="43.59893" lon="5.37638">
        <ele>304</ele>
        <time>2022-03-19T15:06:47.000Z</time>
      </trkpt>
      <trkpt lat="43.59895" lon="5.37636">
        <ele>303.79998779297</ele>
        <time>2022-03-19T15:06:48.000Z</time>
      </trkpt>
      <trkpt lat="43.59897" lon="5.37632">
        <ele>303.60000610352</ele>
        <time>2022-03-19T15:06:49.000Z</time>
      </trkpt>
      <trkpt lat="43.599" lon="5.3763">
        <ele>303.39999389648</ele>
        <time>2022-03-19T15:06:50.000Z</time>
      </trkpt>
      <trkpt lat="43.59909" lon="5.37622">
        <ele>303</ele>
        <time>2022-03-19T15:06:55.000Z</time>
      </trkpt>
      <trkpt lat="43.59918" lon="5.37611">
        <ele>303</ele>
        <time>2022-03-19T15:07:00.000Z</time>
      </trkpt>
      <trkpt lat="43.59926" lon="5.376">
        <ele>302.20001220703</ele>
        <time>2022-03-19T15:07:03.000Z</time>
      </trkpt>
      <trkpt lat="43.59938" lon="5.37584">
        <ele>301.60000610352</ele>
        <time>2022-03-19T15:07:08.000Z</time>
      </trkpt>
      <trkpt lat="43.59941" lon="5.37582">
        <ele>301.79998779297</ele>
        <time>2022-03-19T15:07:10.000Z</time>
      </trkpt>
      <trkpt lat="43.59945" lon="5.37581">
        <ele>302</ele>
        <time>2022-03-19T15:07:12.000Z</time>
      </trkpt>
      <trkpt lat="43.59947" lon="5.37584">
        <ele>302</ele>
        <time>2022-03-19T15:07:14.000Z</time>
      </trkpt>
      <trkpt lat="43.59946" lon="5.3759">
        <ele>302</ele>
        <time>2022-03-19T15:07:16.000Z</time>
      </trkpt>
      <trkpt lat="43.59943" lon="5.37607">
        <ele>302</ele>
        <time>2022-03-19T15:07:20.000Z</time>
      </trkpt>
      <trkpt lat="43.59943" lon="5.37612">
        <ele>302</ele>
        <time>2022-03-19T15:07:21.000Z</time>
      </trkpt>
      <trkpt lat="43.59947" lon="5.37622">
        <ele>301.39999389648</ele>
        <time>2022-03-19T15:07:24.000Z</time>
      </trkpt>
      <trkpt lat="43.59951" lon="5.37629">
        <ele>301</ele>
        <time>2022-03-19T15:07:28.000Z</time>
      </trkpt>
      <trkpt lat="43.59954" lon="5.37627">
        <ele>301</ele>
        <time>2022-03-19T15:07:29.000Z</time>
      </trkpt>
      <trkpt lat="43.59972" lon="5.37613">
        <ele>301</ele>
        <time>2022-03-19T15:07:34.000Z</time>
      </trkpt>
      <trkpt lat="43.60001" lon="5.37595">
        <ele>300.20001220703</ele>
        <time>2022-03-19T15:07:41.000Z</time>
      </trkpt>
      <trkpt lat="43.60017" lon="5.37584">
        <ele>299.60000610352</ele>
        <time>2022-03-19T15:07:45.000Z</time>
      </trkpt>
      <trkpt lat="43.60026" lon="5.37577">
        <ele>299.20001220703</ele>
        <time>2022-03-19T15:07:47.000Z</time>
      </trkpt>
      <trkpt lat="43.60067" lon="5.37549">
        <ele>298</ele>
        <time>2022-03-19T15:07:56.000Z</time>
      </trkpt>
      <trkpt lat="43.60076" lon="5.37541">
        <ele>298</ele>
        <time>2022-03-19T15:07:58.000Z</time>
      </trkpt>
      <trkpt lat="43.60095" lon="5.37527">
        <ele>299.20001220703</ele>
        <time>2022-03-19T15:08:02.000Z</time>
      </trkpt>
      <trkpt lat="43.60104" lon="5.37522">
        <ele>299.60000610352</ele>
        <time>2022-03-19T15:08:04.000Z</time>
      </trkpt>
      <trkpt lat="43.60117" lon="5.37511">
        <ele>300</ele>
        <time>2022-03-19T15:08:07.000Z</time>
      </trkpt>
      <trkpt lat="43.60121" lon="5.37508">
        <ele>300</ele>
        <time>2022-03-19T15:08:08.000Z</time>
      </trkpt>
      <trkpt lat="43.60142" lon="5.3749">
        <ele>300</ele>
        <time>2022-03-19T15:08:13.000Z</time>
      </trkpt>
      <trkpt lat="43.60146" lon="5.37485">
        <ele>300</ele>
        <time>2022-03-19T15:08:14.000Z</time>
      </trkpt>
      <trkpt lat="43.60156" lon="5.37471">
        <ele>300</ele>
        <time>2022-03-19T15:08:17.000Z</time>
      </trkpt>
      <trkpt lat="43.60162" lon="5.37459">
        <ele>300</ele>
        <time>2022-03-19T15:08:19.000Z</time>
      </trkpt>
      <trkpt lat="43.60166" lon="5.37454">
        <ele>300.39999389648</ele>
        <time>2022-03-19T15:08:20.000Z</time>
      </trkpt>
      <trkpt lat="43.60182" lon="5.37418">
        <ele>301.20001220703</ele>
        <time>2022-03-19T15:08:26.000Z</time>
      </trkpt>
      <trkpt lat="43.60195" lon="5.37389">
        <ele>302.60000610352</ele>
        <time>2022-03-19T15:08:31.000Z</time>
      </trkpt>
      <trkpt lat="43.60214" lon="5.37355">
        <ele>302.60000610352</ele>
        <time>2022-03-19T15:08:37.000Z</time>
      </trkpt>
      <trkpt lat="43.60232" lon="5.37328">
        <ele>303</ele>
        <time>2022-03-19T15:08:42.000Z</time>
      </trkpt>
      <trkpt lat="43.60237" lon="5.37324">
        <ele>303</ele>
        <time>2022-03-19T15:08:43.000Z</time>
      </trkpt>
      <trkpt lat="43.60254" lon="5.37324">
        <ele>303</ele>
        <time>2022-03-19T15:08:46.000Z</time>
      </trkpt>
      <trkpt lat="43.60263" lon="5.37329">
        <ele>302.60000610352</ele>
        <time>2022-03-19T15:08:48.000Z</time>
      </trkpt>
      <trkpt lat="43.60268" lon="5.37333">
        <ele>302.60000610352</ele>
        <time>2022-03-19T15:08:49.000Z</time>
      </trkpt>
      <trkpt lat="43.60272" lon="5.37336">
        <ele>302.60000610352</ele>
        <time>2022-03-19T15:08:50.000Z</time>
      </trkpt>
      <trkpt lat="43.60285" lon="5.37344">
        <ele>302.60000610352</ele>
        <time>2022-03-19T15:08:53.000Z</time>
      </trkpt>
      <trkpt lat="43.60289" lon="5.37346">
        <ele>302.60000610352</ele>
        <time>2022-03-19T15:08:54.000Z</time>
      </trkpt>
      <trkpt lat="43.60294" lon="5.37348">
        <ele>302.60000610352</ele>
        <time>2022-03-19T15:08:55.000Z</time>
      </trkpt>
      <trkpt lat="43.60298" lon="5.37351">
        <ele>302.79998779297</ele>
        <time>2022-03-19T15:08:56.000Z</time>
      </trkpt>
      <trkpt lat="43.60302" lon="5.37353">
        <ele>302.79998779297</ele>
        <time>2022-03-19T15:08:57.000Z</time>
      </trkpt>
      <trkpt lat="43.60328" lon="5.37369">
        <ele>303.60000610352</ele>
        <time>2022-03-19T15:09:03.000Z</time>
      </trkpt>
      <trkpt lat="43.60344" lon="5.37378">
        <ele>304</ele>
        <time>2022-03-19T15:09:07.000Z</time>
      </trkpt>
      <trkpt lat="43.60348" lon="5.3738">
        <ele>304</ele>
        <time>2022-03-19T15:09:08.000Z</time>
      </trkpt>
      <trkpt lat="43.60353" lon="5.37381">
        <ele>304</ele>
        <time>2022-03-19T15:09:09.000Z</time>
      </trkpt>
      <trkpt lat="43.60357" lon="5.37382">
        <ele>304</ele>
        <time>2022-03-19T15:09:10.000Z</time>
      </trkpt>
      <trkpt lat="43.60361" lon="5.37382">
        <ele>304</ele>
        <time>2022-03-19T15:09:11.000Z</time>
      </trkpt>
      <trkpt lat="43.60373" lon="5.37377">
        <ele>304.39999389648</ele>
        <time>2022-03-19T15:09:14.000Z</time>
      </trkpt>
      <trkpt lat="43.60386" lon="5.37363">
        <ele>304.79998779297</ele>
        <time>2022-03-19T15:09:18.000Z</time>
      </trkpt>
      <trkpt lat="43.6039" lon="5.37361">
        <ele>305</ele>
        <time>2022-03-19T15:09:19.000Z</time>
      </trkpt>
      <trkpt lat="43.60413" lon="5.3735">
        <ele>305.79998779297</ele>
        <time>2022-03-19T15:09:25.000Z</time>
      </trkpt>
      <trkpt lat="43.60416" lon="5.37348">
        <ele>305.79998779297</ele>
        <time>2022-03-19T15:09:26.000Z</time>
      </trkpt>
      <trkpt lat="43.6042" lon="5.37347">
        <ele>306</ele>
        <time>2022-03-19T15:09:27.000Z</time>
      </trkpt>
      <trkpt lat="43.60424" lon="5.37345">
        <ele>306.39999389648</ele>
        <time>2022-03-19T15:09:28.000Z</time>
      </trkpt>
      <trkpt lat="43.60428" lon="5.37343">
        <ele>306.60000610352</ele>
        <time>2022-03-19T15:09:29.000Z</time>
      </trkpt>
      <trkpt lat="43.60432" lon="5.37342">
        <ele>306.79998779297</ele>
        <time>2022-03-19T15:09:30.000Z</time>
      </trkpt>
      <trkpt lat="43.60435" lon="5.3734">
        <ele>307.20001220703</ele>
        <time>2022-03-19T15:09:31.000Z</time>
      </trkpt>
      <trkpt lat="43.6045" lon="5.37345">
        <ele>308.20001220703</ele>
        <time>2022-03-19T15:09:35.000Z</time>
      </trkpt>
      <trkpt lat="43.60476" lon="5.3735">
        <ele>310</ele>
        <time>2022-03-19T15:09:42.000Z</time>
      </trkpt>
      <trkpt lat="43.60488" lon="5.37349">
        <ele>310.39999389648</ele>
        <time>2022-03-19T15:09:45.000Z</time>
      </trkpt>
      <trkpt lat="43.60492" lon="5.37348">
        <ele>310.60000610352</ele>
        <time>2022-03-19T15:09:46.000Z</time>
      </trkpt>
      <trkpt lat="43.60496" lon="5.37347">
        <ele>311</ele>
        <time>2022-03-19T15:09:47.000Z</time>
      </trkpt>
      <trkpt lat="43.605" lon="5.37346">
        <ele>311.20001220703</ele>
        <time>2022-03-19T15:09:48.000Z</time>
      </trkpt>
      <trkpt lat="43.60504" lon="5.37346">
        <ele>311.39999389648</ele>
        <time>2022-03-19T15:09:49.000Z</time>
      </trkpt>
      <trkpt lat="43.60516" lon="5.37345">
        <ele>312</ele>
        <time>2022-03-19T15:09:52.000Z</time>
      </trkpt>
      <trkpt lat="43.60523" lon="5.37351">
        <ele>312</ele>
        <time>2022-03-19T15:09:54.000Z</time>
      </trkpt>
      <trkpt lat="43.60529" lon="5.37359">
        <ele>311.79998779297</ele>
        <time>2022-03-19T15:09:56.000Z</time>
      </trkpt>
      <trkpt lat="43.60542" lon="5.37371">
        <ele>312.79998779297</ele>
        <time>2022-03-19T15:10:00.000Z</time>
      </trkpt>
      <trkpt lat="43.60546" lon="5.37374">
        <ele>313</ele>
        <time>2022-03-19T15:10:01.000Z</time>
      </trkpt>
      <trkpt lat="43.6055" lon="5.37376">
        <ele>313.39999389648</ele>
        <time>2022-03-19T15:10:02.000Z</time>
      </trkpt>
      <trkpt lat="43.60553" lon="5.37379">
        <ele>313.60000610352</ele>
        <time>2022-03-19T15:10:03.000Z</time>
      </trkpt>
      <trkpt lat="43.60556" lon="5.37382">
        <ele>313.79998779297</ele>
        <time>2022-03-19T15:10:04.000Z</time>
      </trkpt>
      <trkpt lat="43.60558" lon="5.37386">
        <ele>314</ele>
        <time>2022-03-19T15:10:05.000Z</time>
      </trkpt>
      <trkpt lat="43.60558" lon="5.37405">
        <ele>313.20001220703</ele>
        <time>2022-03-19T15:10:09.000Z</time>
      </trkpt>
      <trkpt lat="43.60557" lon="5.3741">
        <ele>313</ele>
        <time>2022-03-19T15:10:10.000Z</time>
      </trkpt>
      <trkpt lat="43.60554" lon="5.37443">
        <ele>312.39999389648</ele>
        <time>2022-03-19T15:10:16.000Z</time>
      </trkpt>
      <trkpt lat="43.60556" lon="5.37477">
        <ele>313</ele>
        <time>2022-03-19T15:10:22.000Z</time>
      </trkpt>
      <trkpt lat="43.60555" lon="5.37505">
        <ele>313.60000610352</ele>
        <time>2022-03-19T15:10:27.000Z</time>
      </trkpt>
      <trkpt lat="43.60554" lon="5.3751">
        <ele>313.39999389648</ele>
        <time>2022-03-19T15:10:28.000Z</time>
      </trkpt>
      <trkpt lat="43.60545" lon="5.37541">
        <ele>313.20001220703</ele>
        <time>2022-03-19T15:10:34.000Z</time>
      </trkpt>
      <trkpt lat="43.60539" lon="5.37559">
        <ele>313.60000610352</ele>
        <time>2022-03-19T15:10:38.000Z</time>
      </trkpt>
      <trkpt lat="43.60535" lon="5.37573">
        <ele>313.20001220703</ele>
        <time>2022-03-19T15:10:41.000Z</time>
      </trkpt>
      <trkpt lat="43.60533" lon="5.37573">
        <ele>313.20001220703</ele>
        <time>2022-03-19T15:10:42.000Z</time>
      </trkpt>
      <trkpt lat="43.60518" lon="5.37575">
        <ele>312.60000610352</ele>
        <time>2022-03-19T15:10:46.000Z</time>
      </trkpt>
      <trkpt lat="43.60512" lon="5.37577">
        <ele>312.39999389648</ele>
        <time>2022-03-19T15:10:48.000Z</time>
      </trkpt>
      <trkpt lat="43.60502" lon="5.37578">
        <ele>312</ele>
        <time>2022-03-19T15:10:51.000Z</time>
      </trkpt>
      <trkpt lat="43.60488" lon="5.37581">
        <ele>311.60000610352</ele>
        <time>2022-03-19T15:10:54.000Z</time>
      </trkpt>
      <trkpt lat="43.6048" lon="5.37588">
        <ele>311.39999389648</ele>
        <time>2022-03-19T15:10:56.000Z</time>
      </trkpt>
      <trkpt lat="43.60472" lon="5.37605">
        <ele>311.60000610352</ele>
        <time>2022-03-19T15:11:00.000Z</time>
      </trkpt>
      <trkpt lat="43.60463" lon="5.37624">
        <ele>311.39999389648</ele>
        <time>2022-03-19T15:11:04.000Z</time>
      </trkpt>
      <trkpt lat="43.60447" lon="5.37645">
        <ele>310.60000610352</ele>
        <time>2022-03-19T15:11:09.000Z</time>
      </trkpt>
      <trkpt lat="43.60436" lon="5.37667">
        <ele>311.39999389648</ele>
        <time>2022-03-19T15:11:13.000Z</time>
      </trkpt>
      <trkpt lat="43.60433" lon="5.37672">
        <ele>311.20001220703</ele>
        <time>2022-03-19T15:11:14.000Z</time>
      </trkpt>
      <trkpt lat="43.60421" lon="5.37689">
        <ele>311</ele>
        <time>2022-03-19T15:11:18.000Z</time>
      </trkpt>
      <trkpt lat="43.60419" lon="5.37695">
        <ele>311.20001220703</ele>
        <time>2022-03-19T15:11:19.000Z</time>
      </trkpt>
      <trkpt lat="43.6042" lon="5.3771">
        <ele>311.79998779297</ele>
        <time>2022-03-19T15:11:22.000Z</time>
      </trkpt>
      <trkpt lat="43.60422" lon="5.37713">
        <ele>312</ele>
        <time>2022-03-19T15:11:23.000Z</time>
      </trkpt>
      <trkpt lat="43.60427" lon="5.37722">
        <ele>312.60000610352</ele>
        <time>2022-03-19T15:11:28.000Z</time>
      </trkpt>
      <trkpt lat="43.60427" lon="5.37728">
        <ele>313</ele>
        <time>2022-03-19T15:11:30.000Z</time>
      </trkpt>
      <trkpt lat="43.60428" lon="5.37738">
        <ele>313.60000610352</ele>
        <time>2022-03-19T15:11:32.000Z</time>
      </trkpt>
      <trkpt lat="43.60428" lon="5.37759">
        <ele>314.79998779297</ele>
        <time>2022-03-19T15:11:37.000Z</time>
      </trkpt>
      <trkpt lat="43.60427" lon="5.37778">
        <ele>315.39999389648</ele>
        <time>2022-03-19T15:11:41.000Z</time>
      </trkpt>
      <trkpt lat="43.60426" lon="5.37799">
        <ele>315.39999389648</ele>
        <time>2022-03-19T15:11:46.000Z</time>
      </trkpt>
      <trkpt lat="43.60429" lon="5.37827">
        <ele>316.20001220703</ele>
        <time>2022-03-19T15:11:51.000Z</time>
      </trkpt>
      <trkpt lat="43.60431" lon="5.37845">
        <ele>316.39999389648</ele>
        <time>2022-03-19T15:11:54.000Z</time>
      </trkpt>
      <trkpt lat="43.60432" lon="5.37849">
        <ele>316.39999389648</ele>
        <time>2022-03-19T15:11:55.000Z</time>
      </trkpt>
      <trkpt lat="43.60431" lon="5.37854">
        <ele>316.39999389648</ele>
        <time>2022-03-19T15:11:56.000Z</time>
      </trkpt>
      <trkpt lat="43.6043" lon="5.37857">
        <ele>316.39999389648</ele>
        <time>2022-03-19T15:11:57.000Z</time>
      </trkpt>
      <trkpt lat="43.60431" lon="5.37862">
        <ele>316.39999389648</ele>
        <time>2022-03-19T15:11:58.000Z</time>
      </trkpt>
      <trkpt lat="43.60432" lon="5.37868">
        <ele>316.39999389648</ele>
        <time>2022-03-19T15:12:00.000Z</time>
      </trkpt>
      <trkpt lat="43.60429" lon="5.37883">
        <ele>316.79998779297</ele>
        <time>2022-03-19T15:12:05.000Z</time>
      </trkpt>
      <trkpt lat="43.60425" lon="5.37894">
        <ele>317</ele>
        <time>2022-03-19T15:12:09.000Z</time>
      </trkpt>
      <trkpt lat="43.60418" lon="5.37909">
        <ele>317</ele>
        <time>2022-03-19T15:12:13.000Z</time>
      </trkpt>
      <trkpt lat="43.60407" lon="5.37939">
        <ele>317</ele>
        <time>2022-03-19T15:12:20.000Z</time>
      </trkpt>
      <trkpt lat="43.60397" lon="5.37959">
        <ele>317</ele>
        <time>2022-03-19T15:12:25.000Z</time>
      </trkpt>
      <trkpt lat="43.6039" lon="5.37981">
        <ele>317.39999389648</ele>
        <time>2022-03-19T15:12:30.000Z</time>
      </trkpt>
      <trkpt lat="43.60383" lon="5.37999">
        <ele>317.60000610352</ele>
        <time>2022-03-19T15:12:34.000Z</time>
      </trkpt>
      <trkpt lat="43.60365" lon="5.38037">
        <ele>317</ele>
        <time>2022-03-19T15:12:41.000Z</time>
      </trkpt>
      <trkpt lat="43.60352" lon="5.38073">
        <ele>317.39999389648</ele>
        <time>2022-03-19T15:12:48.000Z</time>
      </trkpt>
      <trkpt lat="43.60353" lon="5.38079">
        <ele>317.60000610352</ele>
        <time>2022-03-19T15:12:49.000Z</time>
      </trkpt>
      <trkpt lat="43.60354" lon="5.38088">
        <ele>318</ele>
        <time>2022-03-19T15:12:51.000Z</time>
      </trkpt>
      <trkpt lat="43.60352" lon="5.38111">
        <ele>319</ele>
        <time>2022-03-19T15:12:55.000Z</time>
      </trkpt>
      <trkpt lat="43.6035" lon="5.38132">
        <ele>319.39999389648</ele>
        <time>2022-03-19T15:13:00.000Z</time>
      </trkpt>
      <trkpt lat="43.60346" lon="5.38137">
        <ele>319.79998779297</ele>
        <time>2022-03-19T15:13:03.000Z</time>
      </trkpt>
      <trkpt lat="43.60346" lon="5.38138">
        <ele>319.79998779297</ele>
        <time>2022-03-19T15:13:04.000Z</time>
      </trkpt>
      <trkpt lat="43.60344" lon="5.38144">
        <ele>320</ele>
        <time>2022-03-19T15:13:05.000Z</time>
      </trkpt>
      <trkpt lat="43.60341" lon="5.3815">
        <ele>320</ele>
        <time>2022-03-19T15:13:07.000Z</time>
      </trkpt>
      <trkpt lat="43.60334" lon="5.38166">
        <ele>319.79998779297</ele>
        <time>2022-03-19T15:13:12.000Z</time>
      </trkpt>
      <trkpt lat="43.60329" lon="5.38186">
        <ele>319.39999389648</ele>
        <time>2022-03-19T15:13:17.000Z</time>
      </trkpt>
      <trkpt lat="43.60331" lon="5.38201">
        <ele>320</ele>
        <time>2022-03-19T15:13:20.000Z</time>
      </trkpt>
      <trkpt lat="43.60335" lon="5.38209">
        <ele>320.60000610352</ele>
        <time>2022-03-19T15:13:22.000Z</time>
      </trkpt>
      <trkpt lat="43.60337" lon="5.38219">
        <ele>321</ele>
        <time>2022-03-19T15:13:24.000Z</time>
      </trkpt>
      <trkpt lat="43.60342" lon="5.38236">
        <ele>321.39999389648</ele>
        <time>2022-03-19T15:13:28.000Z</time>
      </trkpt>
      <trkpt lat="43.60344" lon="5.38245">
        <ele>321.60000610352</ele>
        <time>2022-03-19T15:13:30.000Z</time>
      </trkpt>
      <trkpt lat="43.60345" lon="5.3825">
        <ele>321.60000610352</ele>
        <time>2022-03-19T15:13:31.000Z</time>
      </trkpt>
      <trkpt lat="43.60348" lon="5.38254">
        <ele>321.79998779297</ele>
        <time>2022-03-19T15:13:32.000Z</time>
      </trkpt>
      <trkpt lat="43.6035" lon="5.38257">
        <ele>322</ele>
        <time>2022-03-19T15:13:33.000Z</time>
      </trkpt>
      <trkpt lat="43.60352" lon="5.38261">
        <ele>322.20001220703</ele>
        <time>2022-03-19T15:13:34.000Z</time>
      </trkpt>
      <trkpt lat="43.60363" lon="5.38275">
        <ele>323</ele>
        <time>2022-03-19T15:13:38.000Z</time>
      </trkpt>
      <trkpt lat="43.60372" lon="5.38282">
        <ele>323.39999389648</ele>
        <time>2022-03-19T15:13:42.000Z</time>
      </trkpt>
      <trkpt lat="43.60386" lon="5.383">
        <ele>323.60000610352</ele>
        <time>2022-03-19T15:13:47.000Z</time>
      </trkpt>
      <trkpt lat="43.60404" lon="5.38322">
        <ele>324</ele>
        <time>2022-03-19T15:13:53.000Z</time>
      </trkpt>
      <trkpt lat="43.60418" lon="5.3834">
        <ele>323.60000610352</ele>
        <time>2022-03-19T15:13:59.000Z</time>
      </trkpt>
      <trkpt lat="43.60421" lon="5.38343">
        <ele>323.39999389648</ele>
        <time>2022-03-19T15:14:00.000Z</time>
      </trkpt>
      <trkpt lat="43.60424" lon="5.38347">
        <ele>323.20001220703</ele>
        <time>2022-03-19T15:14:01.000Z</time>
      </trkpt>
      <trkpt lat="43.60426" lon="5.38351">
        <ele>323</ele>
        <time>2022-03-19T15:14:02.000Z</time>
      </trkpt>
      <trkpt lat="43.60432" lon="5.3836">
        <ele>322.60000610352</ele>
        <time>2022-03-19T15:14:04.000Z</time>
      </trkpt>
      <trkpt lat="43.60446" lon="5.38388">
        <ele>323</ele>
        <time>2022-03-19T15:14:10.000Z</time>
      </trkpt>
      <trkpt lat="43.60453" lon="5.38405">
        <ele>323</ele>
        <time>2022-03-19T15:14:14.000Z</time>
      </trkpt>
      <trkpt lat="43.60459" lon="5.38412">
        <ele>323</ele>
        <time>2022-03-19T15:14:16.000Z</time>
      </trkpt>
      <trkpt lat="43.60465" lon="5.3842">
        <ele>323.20001220703</ele>
        <time>2022-03-19T15:14:18.000Z</time>
      </trkpt>
      <trkpt lat="43.60478" lon="5.38438">
        <ele>323.79998779297</ele>
        <time>2022-03-19T15:14:23.000Z</time>
      </trkpt>
      <trkpt lat="43.60487" lon="5.3845">
        <ele>324.39999389648</ele>
        <time>2022-03-19T15:14:26.000Z</time>
      </trkpt>
      <trkpt lat="43.6049" lon="5.38454">
        <ele>324.39999389648</ele>
        <time>2022-03-19T15:14:27.000Z</time>
      </trkpt>
      <trkpt lat="43.60494" lon="5.38458">
        <ele>324.60000610352</ele>
        <time>2022-03-19T15:14:28.000Z</time>
      </trkpt>
      <trkpt lat="43.60496" lon="5.38462">
        <ele>324.79998779297</ele>
        <time>2022-03-19T15:14:29.000Z</time>
      </trkpt>
      <trkpt lat="43.60498" lon="5.38466">
        <ele>325</ele>
        <time>2022-03-19T15:14:30.000Z</time>
      </trkpt>
      <trkpt lat="43.60508" lon="5.38482">
        <ele>325.20001220703</ele>
        <time>2022-03-19T15:14:34.000Z</time>
      </trkpt>
      <trkpt lat="43.60522" lon="5.38504">
        <ele>325.60000610352</ele>
        <time>2022-03-19T15:14:40.000Z</time>
      </trkpt>
      <trkpt lat="43.60534" lon="5.38519">
        <ele>326.39999389648</ele>
        <time>2022-03-19T15:14:45.000Z</time>
      </trkpt>
      <trkpt lat="43.60548" lon="5.38532">
        <ele>327.60000610352</ele>
        <time>2022-03-19T15:14:49.000Z</time>
      </trkpt>
      <trkpt lat="43.60551" lon="5.38535">
        <ele>327.79998779297</ele>
        <time>2022-03-19T15:14:50.000Z</time>
      </trkpt>
      <trkpt lat="43.60554" lon="5.38539">
        <ele>328</ele>
        <time>2022-03-19T15:14:51.000Z</time>
      </trkpt>
      <trkpt lat="43.60557" lon="5.38543">
        <ele>328.20001220703</ele>
        <time>2022-03-19T15:14:52.000Z</time>
      </trkpt>
      <trkpt lat="43.60565" lon="5.38552">
        <ele>328.39999389648</ele>
        <time>2022-03-19T15:14:55.000Z</time>
      </trkpt>
      <trkpt lat="43.60572" lon="5.38562">
        <ele>328.60000610352</ele>
        <time>2022-03-19T15:14:58.000Z</time>
      </trkpt>
      <trkpt lat="43.60574" lon="5.38564">
        <ele>328.60000610352</ele>
        <time>2022-03-19T15:14:59.000Z</time>
      </trkpt>
      <trkpt lat="43.60575" lon="5.38567">
        <ele>328.60000610352</ele>
        <time>2022-03-19T15:15:00.000Z</time>
      </trkpt>
      <trkpt lat="43.60577" lon="5.38572">
        <ele>328.60000610352</ele>
        <time>2022-03-19T15:15:01.000Z</time>
      </trkpt>
      <trkpt lat="43.60579" lon="5.38578">
        <ele>328.60000610352</ele>
        <time>2022-03-19T15:15:02.000Z</time>
      </trkpt>
      <trkpt lat="43.60586" lon="5.38601">
        <ele>329</ele>
        <time>2022-03-19T15:15:07.000Z</time>
      </trkpt>
      <trkpt lat="43.60591" lon="5.38607">
        <ele>329.39999389648</ele>
        <time>2022-03-19T15:15:09.000Z</time>
      </trkpt>
      <trkpt lat="43.60594" lon="5.38609">
        <ele>329.60000610352</ele>
        <time>2022-03-19T15:15:10.000Z</time>
      </trkpt>
      <trkpt lat="43.60597" lon="5.38612">
        <ele>329.79998779297</ele>
        <time>2022-03-19T15:15:11.000Z</time>
      </trkpt>
      <trkpt lat="43.606" lon="5.38613">
        <ele>330</ele>
        <time>2022-03-19T15:15:12.000Z</time>
      </trkpt>
      <trkpt lat="43.60603" lon="5.38618">
        <ele>330.20001220703</ele>
        <time>2022-03-19T15:15:13.000Z</time>
      </trkpt>
      <trkpt lat="43.60608" lon="5.38624">
        <ele>330.60000610352</ele>
        <time>2022-03-19T15:15:15.000Z</time>
      </trkpt>
      <trkpt lat="43.60619" lon="5.38644">
        <ele>331</ele>
        <time>2022-03-19T15:15:20.000Z</time>
      </trkpt>
      <trkpt lat="43.60629" lon="5.38659">
        <ele>331.20001220703</ele>
        <time>2022-03-19T15:15:24.000Z</time>
      </trkpt>
      <trkpt lat="43.60644" lon="5.38674">
        <ele>331.79998779297</ele>
        <time>2022-03-19T15:15:29.000Z</time>
      </trkpt>
      <trkpt lat="43.60647" lon="5.38676">
        <ele>332</ele>
        <time>2022-03-19T15:15:30.000Z</time>
      </trkpt>
      <trkpt lat="43.60649" lon="5.38678">
        <ele>332</ele>
        <time>2022-03-19T15:15:31.000Z</time>
      </trkpt>
      <trkpt lat="43.60651" lon="5.3868">
        <ele>332</ele>
        <time>2022-03-19T15:15:32.000Z</time>
      </trkpt>
      <trkpt lat="43.60652" lon="5.38682">
        <ele>332</ele>
        <time>2022-03-19T15:15:33.000Z</time>
      </trkpt>
      <trkpt lat="43.60663" lon="5.38696">
        <ele>332.60000610352</ele>
        <time>2022-03-19T15:15:37.000Z</time>
      </trkpt>
      <trkpt lat="43.60672" lon="5.38705">
        <ele>333.20001220703</ele>
        <time>2022-03-19T15:15:40.000Z</time>
      </trkpt>
      <trkpt lat="43.6068" lon="5.38707">
        <ele>334</ele>
        <time>2022-03-19T15:15:42.000Z</time>
      </trkpt>
      <trkpt lat="43.60687" lon="5.38705">
        <ele>335</ele>
        <time>2022-03-19T15:15:44.000Z</time>
      </trkpt>
      <trkpt lat="43.60703" lon="5.38704">
        <ele>336.20001220703</ele>
        <time>2022-03-19T15:15:47.000Z</time>
      </trkpt>
      <trkpt lat="43.60714" lon="5.38709">
        <ele>336.60000610352</ele>
        <time>2022-03-19T15:15:50.000Z</time>
      </trkpt>
      <trkpt lat="43.60716" lon="5.38709">
        <ele>336.60000610352</ele>
        <time>2022-03-19T15:15:51.000Z</time>
      </trkpt>
      <trkpt lat="43.60718" lon="5.3871">
        <ele>336.79998779297</ele>
        <time>2022-03-19T15:15:52.000Z</time>
      </trkpt>
      <trkpt lat="43.60719" lon="5.38711">
        <ele>336.79998779297</ele>
        <time>2022-03-19T15:15:53.000Z</time>
      </trkpt>
      <trkpt lat="43.60722" lon="5.38711">
        <ele>336.79998779297</ele>
        <time>2022-03-19T15:15:54.000Z</time>
      </trkpt>
      <trkpt lat="43.60726" lon="5.38711">
        <ele>337</ele>
        <time>2022-03-19T15:15:55.000Z</time>
      </trkpt>
      <trkpt lat="43.60729" lon="5.3871">
        <ele>337.39999389648</ele>
        <time>2022-03-19T15:15:56.000Z</time>
      </trkpt>
      <trkpt lat="43.60742" lon="5.387">
        <ele>338</ele>
        <time>2022-03-19T15:16:02.000Z</time>
      </trkpt>
      <trkpt lat="43.6075" lon="5.38689">
        <ele>337.79998779297</ele>
        <time>2022-03-19T15:16:07.000Z</time>
      </trkpt>
      <trkpt lat="43.60755" lon="5.38674">
        <ele>337.39999389648</ele>
        <time>2022-03-19T15:16:12.000Z</time>
      </trkpt>
      <trkpt lat="43.60758" lon="5.38659">
        <ele>337</ele>
        <time>2022-03-19T15:16:16.000Z</time>
      </trkpt>
      <trkpt lat="43.60759" lon="5.38657">
        <ele>337</ele>
        <time>2022-03-19T15:16:17.000Z</time>
      </trkpt>
      <trkpt lat="43.6076" lon="5.38645">
        <ele>337</ele>
        <time>2022-03-19T15:16:20.000Z</time>
      </trkpt>
      <trkpt lat="43.60761" lon="5.38638">
        <ele>337</ele>
        <time>2022-03-19T15:16:22.000Z</time>
      </trkpt>
      <trkpt lat="43.60761" lon="5.38626">
        <ele>336.60000610352</ele>
        <time>2022-03-19T15:16:25.000Z</time>
      </trkpt>
      <trkpt lat="43.60766" lon="5.38605">
        <ele>336.20001220703</ele>
        <time>2022-03-19T15:16:29.000Z</time>
      </trkpt>
      <trkpt lat="43.6078" lon="5.38589">
        <ele>335.60000610352</ele>
        <time>2022-03-19T15:16:34.000Z</time>
      </trkpt>
      <trkpt lat="43.60796" lon="5.3857">
        <ele>335.79998779297</ele>
        <time>2022-03-19T15:16:40.000Z</time>
      </trkpt>
      <trkpt lat="43.60819" lon="5.38541">
        <ele>336.39999389648</ele>
        <time>2022-03-19T15:16:48.000Z</time>
      </trkpt>
      <trkpt lat="43.6082" lon="5.38535">
        <ele>336.39999389648</ele>
        <time>2022-03-19T15:16:49.000Z</time>
      </trkpt>
      <trkpt lat="43.60822" lon="5.38517">
        <ele>336.39999389648</ele>
        <time>2022-03-19T15:16:52.000Z</time>
      </trkpt>
      <trkpt lat="43.60824" lon="5.38487">
        <ele>336.20001220703</ele>
        <time>2022-03-19T15:16:57.000Z</time>
      </trkpt>
      <trkpt lat="43.60824" lon="5.38481">
        <ele>336.20001220703</ele>
        <time>2022-03-19T15:16:58.000Z</time>
      </trkpt>
      <trkpt lat="43.60826" lon="5.38464">
        <ele>336.20001220703</ele>
        <time>2022-03-19T15:17:01.000Z</time>
      </trkpt>
      <trkpt lat="43.60827" lon="5.38446">
        <ele>336.20001220703</ele>
        <time>2022-03-19T15:17:04.000Z</time>
      </trkpt>
      <trkpt lat="43.60828" lon="5.38434">
        <ele>336.39999389648</ele>
        <time>2022-03-19T15:17:06.000Z</time>
      </trkpt>
      <trkpt lat="43.60828" lon="5.38428">
        <ele>336.39999389648</ele>
        <time>2022-03-19T15:17:07.000Z</time>
      </trkpt>
      <trkpt lat="43.60829" lon="5.38417">
        <ele>336.39999389648</ele>
        <time>2022-03-19T15:17:09.000Z</time>
      </trkpt>
      <trkpt lat="43.6083" lon="5.38379">
        <ele>335.60000610352</ele>
        <time>2022-03-19T15:17:15.000Z</time>
      </trkpt>
      <trkpt lat="43.60831" lon="5.38362">
        <ele>335.60000610352</ele>
        <time>2022-03-19T15:17:18.000Z</time>
      </trkpt>
      <trkpt lat="43.60832" lon="5.3835">
        <ele>335.60000610352</ele>
        <time>2022-03-19T15:17:20.000Z</time>
      </trkpt>
      <trkpt lat="43.60833" lon="5.38333">
        <ele>335.60000610352</ele>
        <time>2022-03-19T15:17:23.000Z</time>
      </trkpt>
      <trkpt lat="43.60833" lon="5.3832">
        <ele>335.20001220703</ele>
        <time>2022-03-19T15:17:25.000Z</time>
      </trkpt>
      <trkpt lat="43.60832" lon="5.38314">
        <ele>335</ele>
        <time>2022-03-19T15:17:26.000Z</time>
      </trkpt>
      <trkpt lat="43.60833" lon="5.38295">
        <ele>334.60000610352</ele>
        <time>2022-03-19T15:17:29.000Z</time>
      </trkpt>
      <trkpt lat="43.60835" lon="5.38283">
        <ele>334.79998779297</ele>
        <time>2022-03-19T15:17:31.000Z</time>
      </trkpt>
      <trkpt lat="43.60835" lon="5.38252">
        <ele>334.79998779297</ele>
        <time>2022-03-19T15:17:36.000Z</time>
      </trkpt>
      <trkpt lat="43.60836" lon="5.38246">
        <ele>334.79998779297</ele>
        <time>2022-03-19T15:17:37.000Z</time>
      </trkpt>
      <trkpt lat="43.60836" lon="5.3824">
        <ele>335</ele>
        <time>2022-03-19T15:17:38.000Z</time>
      </trkpt>
      <trkpt lat="43.60837" lon="5.38215">
        <ele>335</ele>
        <time>2022-03-19T15:17:42.000Z</time>
      </trkpt>
      <trkpt lat="43.60838" lon="5.38172">
        <ele>334.20001220703</ele>
        <time>2022-03-19T15:17:49.000Z</time>
      </trkpt>
      <trkpt lat="43.60839" lon="5.38165">
        <ele>334.20001220703</ele>
        <time>2022-03-19T15:17:50.000Z</time>
      </trkpt>
      <trkpt lat="43.60841" lon="5.38146">
        <ele>335</ele>
        <time>2022-03-19T15:17:53.000Z</time>
      </trkpt>
      <trkpt lat="43.60843" lon="5.38133">
        <ele>335.39999389648</ele>
        <time>2022-03-19T15:17:55.000Z</time>
      </trkpt>
      <trkpt lat="43.60844" lon="5.38127">
        <ele>335.60000610352</ele>
        <time>2022-03-19T15:17:56.000Z</time>
      </trkpt>
      <trkpt lat="43.6085" lon="5.38103">
        <ele>336.39999389648</ele>
        <time>2022-03-19T15:18:00.000Z</time>
      </trkpt>
      <trkpt lat="43.60855" lon="5.38085">
        <ele>336.60000610352</ele>
        <time>2022-03-19T15:18:03.000Z</time>
      </trkpt>
      <trkpt lat="43.6086" lon="5.38066">
        <ele>336.60000610352</ele>
        <time>2022-03-19T15:18:06.000Z</time>
      </trkpt>
      <trkpt lat="43.60869" lon="5.38036">
        <ele>336.60000610352</ele>
        <time>2022-03-19T15:18:11.000Z</time>
      </trkpt>
      <trkpt lat="43.6087" lon="5.3803">
        <ele>336.39999389648</ele>
        <time>2022-03-19T15:18:12.000Z</time>
      </trkpt>
      <trkpt lat="43.60873" lon="5.38018">
        <ele>336.39999389648</ele>
        <time>2022-03-19T15:18:14.000Z</time>
      </trkpt>
      <trkpt lat="43.60881" lon="5.37988">
        <ele>335.20001220703</ele>
        <time>2022-03-19T15:18:19.000Z</time>
      </trkpt>
      <trkpt lat="43.60886" lon="5.3797">
        <ele>334.79998779297</ele>
        <time>2022-03-19T15:18:22.000Z</time>
      </trkpt>
      <trkpt lat="43.60891" lon="5.37952">
        <ele>334.39999389648</ele>
        <time>2022-03-19T15:18:25.000Z</time>
      </trkpt>
      <trkpt lat="43.60892" lon="5.37945">
        <ele>334.20001220703</ele>
        <time>2022-03-19T15:18:26.000Z</time>
      </trkpt>
      <trkpt lat="43.60899" lon="5.37922">
        <ele>333.60000610352</ele>
        <time>2022-03-19T15:18:30.000Z</time>
      </trkpt>
      <trkpt lat="43.60904" lon="5.37903">
        <ele>334.20001220703</ele>
        <time>2022-03-19T15:18:33.000Z</time>
      </trkpt>
      <trkpt lat="43.60908" lon="5.37892">
        <ele>334.60000610352</ele>
        <time>2022-03-19T15:18:35.000Z</time>
      </trkpt>
      <trkpt lat="43.60909" lon="5.37885">
        <ele>334.60000610352</ele>
        <time>2022-03-19T15:18:36.000Z</time>
      </trkpt>
      <trkpt lat="43.60914" lon="5.37866">
        <ele>334.79998779297</ele>
        <time>2022-03-19T15:18:39.000Z</time>
      </trkpt>
      <trkpt lat="43.60919" lon="5.37848">
        <ele>335</ele>
        <time>2022-03-19T15:18:42.000Z</time>
      </trkpt>
      <trkpt lat="43.60925" lon="5.37823">
        <ele>335</ele>
        <time>2022-03-19T15:18:46.000Z</time>
      </trkpt>
      <trkpt lat="43.60928" lon="5.3781">
        <ele>334.60000610352</ele>
        <time>2022-03-19T15:18:48.000Z</time>
      </trkpt>
      <trkpt lat="43.60941" lon="5.37775">
        <ele>335.60000610352</ele>
        <time>2022-03-19T15:18:54.000Z</time>
      </trkpt>
      <trkpt lat="43.6095" lon="5.37758">
        <ele>335.60000610352</ele>
        <time>2022-03-19T15:18:57.000Z</time>
      </trkpt>
      <trkpt lat="43.60961" lon="5.37745">
        <ele>335.39999389648</ele>
        <time>2022-03-19T15:19:00.000Z</time>
      </trkpt>
      <trkpt lat="43.60986" lon="5.37712">
        <ele>336.20001220703</ele>
        <time>2022-03-19T15:19:07.000Z</time>
      </trkpt>
      <trkpt lat="43.6101" lon="5.37684">
        <ele>335.79998779297</ele>
        <time>2022-03-19T15:19:13.000Z</time>
      </trkpt>
      <trkpt lat="43.61018" lon="5.37675">
        <ele>335.39999389648</ele>
        <time>2022-03-19T15:19:15.000Z</time>
      </trkpt>
      <trkpt lat="43.61027" lon="5.3767">
        <ele>334.60000610352</ele>
        <time>2022-03-19T15:19:17.000Z</time>
      </trkpt>
      <trkpt lat="43.61037" lon="5.37669">
        <ele>334.39999389648</ele>
        <time>2022-03-19T15:19:19.000Z</time>
      </trkpt>
      <trkpt lat="43.61051" lon="5.37667">
        <ele>334.20001220703</ele>
        <time>2022-03-19T15:19:22.000Z</time>
      </trkpt>
      <trkpt lat="43.61056" lon="5.37665">
        <ele>334.20001220703</ele>
        <time>2022-03-19T15:19:23.000Z</time>
      </trkpt>
      <trkpt lat="43.61066" lon="5.37658">
        <ele>334.39999389648</ele>
        <time>2022-03-19T15:19:25.000Z</time>
      </trkpt>
      <trkpt lat="43.61078" lon="5.37635">
        <ele>334.60000610352</ele>
        <time>2022-03-19T15:19:29.000Z</time>
      </trkpt>
      <trkpt lat="43.61085" lon="5.37618">
        <ele>334.39999389648</ele>
        <time>2022-03-19T15:19:32.000Z</time>
      </trkpt>
      <trkpt lat="43.61089" lon="5.37608">
        <ele>334</ele>
        <time>2022-03-19T15:19:34.000Z</time>
      </trkpt>
      <trkpt lat="43.61106" lon="5.37572">
        <ele>333</ele>
        <time>2022-03-19T15:19:40.000Z</time>
      </trkpt>
      <trkpt lat="43.61121" lon="5.37551">
        <ele>333.20001220703</ele>
        <time>2022-03-19T15:19:44.000Z</time>
      </trkpt>
      <trkpt lat="43.61129" lon="5.37542">
        <ele>333.60000610352</ele>
        <time>2022-03-19T15:19:46.000Z</time>
      </trkpt>
      <trkpt lat="43.61149" lon="5.37519">
        <ele>334.20001220703</ele>
        <time>2022-03-19T15:19:51.000Z</time>
      </trkpt>
      <trkpt lat="43.61176" lon="5.37486">
        <ele>333.39999389648</ele>
        <time>2022-03-19T15:19:58.000Z</time>
      </trkpt>
      <trkpt lat="43.6118" lon="5.37482">
        <ele>333</ele>
        <time>2022-03-19T15:19:59.000Z</time>
      </trkpt>
      <trkpt lat="43.612" lon="5.37469">
        <ele>332</ele>
        <time>2022-03-19T15:20:03.000Z</time>
      </trkpt>
      <trkpt lat="43.61237" lon="5.37448">
        <ele>332.39999389648</ele>
        <time>2022-03-19T15:20:11.000Z</time>
      </trkpt>
      <trkpt lat="43.61246" lon="5.37446">
        <ele>332.79998779297</ele>
        <time>2022-03-19T15:20:13.000Z</time>
      </trkpt>
      <trkpt lat="43.6126" lon="5.37448">
        <ele>333.60000610352</ele>
        <time>2022-03-19T15:20:16.000Z</time>
      </trkpt>
      <trkpt lat="43.61276" lon="5.37454">
        <ele>334</ele>
        <time>2022-03-19T15:20:19.000Z</time>
      </trkpt>
      <trkpt lat="43.61286" lon="5.37461">
        <ele>334.39999389648</ele>
        <time>2022-03-19T15:20:21.000Z</time>
      </trkpt>
      <trkpt lat="43.61305" lon="5.37485">
        <ele>335.60000610352</ele>
        <time>2022-03-19T15:20:26.000Z</time>
      </trkpt>
      <trkpt lat="43.61309" lon="5.3749">
        <ele>335.79998779297</ele>
        <time>2022-03-19T15:20:27.000Z</time>
      </trkpt>
      <trkpt lat="43.61322" lon="5.37496">
        <ele>336.39999389648</ele>
        <time>2022-03-19T15:20:30.000Z</time>
      </trkpt>
      <trkpt lat="43.61339" lon="5.37482">
        <ele>335.39999389648</ele>
        <time>2022-03-19T15:20:34.000Z</time>
      </trkpt>
      <trkpt lat="43.61368" lon="5.37451">
        <ele>329.79998779297</ele>
        <time>2022-03-19T15:20:41.000Z</time>
      </trkpt>
      <trkpt lat="43.61397" lon="5.37411">
        <ele>329.20001220703</ele>
        <time>2022-03-19T15:20:49.000Z</time>
      </trkpt>
      <trkpt lat="43.61416" lon="5.37385">
        <ele>329.79998779297</ele>
        <time>2022-03-19T15:20:54.000Z</time>
      </trkpt>
      <trkpt lat="43.61419" lon="5.37379">
        <ele>329.79998779297</ele>
        <time>2022-03-19T15:20:55.000Z</time>
      </trkpt>
      <trkpt lat="43.61423" lon="5.37358">
        <ele>329.20001220703</ele>
        <time>2022-03-19T15:20:58.000Z</time>
      </trkpt>
      <trkpt lat="43.61423" lon="5.37351">
        <ele>329.20001220703</ele>
        <time>2022-03-19T15:20:59.000Z</time>
      </trkpt>
      <trkpt lat="43.61417" lon="5.373">
        <ele>329.79998779297</ele>
        <time>2022-03-19T15:21:06.000Z</time>
      </trkpt>
      <trkpt lat="43.61415" lon="5.37265">
        <ele>331.20001220703</ele>
        <time>2022-03-19T15:21:11.000Z</time>
      </trkpt>
      <trkpt lat="43.61416" lon="5.37258">
        <ele>331.39999389648</ele>
        <time>2022-03-19T15:21:12.000Z</time>
      </trkpt>
      <trkpt lat="43.61426" lon="5.37233">
        <ele>331.60000610352</ele>
        <time>2022-03-19T15:21:17.000Z</time>
      </trkpt>
      <trkpt lat="43.61436" lon="5.3721">
        <ele>330.60000610352</ele>
        <time>2022-03-19T15:21:23.000Z</time>
      </trkpt>
      <trkpt lat="43.61439" lon="5.37191">
        <ele>329.39999389648</ele>
        <time>2022-03-19T15:21:28.000Z</time>
      </trkpt>
      <trkpt lat="43.61442" lon="5.37173">
        <ele>328.39999389648</ele>
        <time>2022-03-19T15:21:32.000Z</time>
      </trkpt>
      <trkpt lat="43.61444" lon="5.37169">
        <ele>328.20001220703</ele>
        <time>2022-03-19T15:21:33.000Z</time>
      </trkpt>
      <trkpt lat="43.61447" lon="5.37165">
        <ele>328</ele>
        <time>2022-03-19T15:21:34.000Z</time>
      </trkpt>
      <trkpt lat="43.6145" lon="5.37162">
        <ele>328</ele>
        <time>2022-03-19T15:21:35.000Z</time>
      </trkpt>
      <trkpt lat="43.61454" lon="5.37162">
        <ele>328</ele>
        <time>2022-03-19T15:21:36.000Z</time>
      </trkpt>
      <trkpt lat="43.61457" lon="5.37162">
        <ele>328</ele>
        <time>2022-03-19T15:21:37.000Z</time>
      </trkpt>
      <trkpt lat="43.61463" lon="5.37159">
        <ele>327.79998779297</ele>
        <time>2022-03-19T15:21:40.000Z</time>
      </trkpt>
      <trkpt lat="43.61465" lon="5.37157">
        <ele>327.79998779297</ele>
        <time>2022-03-19T15:21:41.000Z</time>
      </trkpt>
      <trkpt lat="43.61466" lon="5.37155">
        <ele>327.60000610352</ele>
        <time>2022-03-19T15:21:42.000Z</time>
      </trkpt>
      <trkpt lat="43.61466" lon="5.37153">
        <ele>327.60000610352</ele>
        <time>2022-03-19T15:21:43.000Z</time>
      </trkpt>
      <trkpt lat="43.61466" lon="5.37153">
        <ele>327.60000610352</ele>
        <time>2022-03-19T15:21:44.000Z</time>
      </trkpt>
      <trkpt lat="43.61466" lon="5.37153">
        <ele>327.60000610352</ele>
        <time>2022-03-19T15:21:45.000Z</time>
      </trkpt>
      <trkpt lat="43.61467" lon="5.37152">
        <ele>327.79998779297</ele>
        <time>2022-03-19T15:21:51.000Z</time>
      </trkpt>
      <trkpt lat="43.61467" lon="5.37152">
        <ele>327.79998779297</ele>
        <time>2022-03-19T15:21:55.000Z</time>
      </trkpt>
      <trkpt lat="43.61468" lon="5.37149">
        <ele>327.79998779297</ele>
        <time>2022-03-19T15:21:57.000Z</time>
      </trkpt>
      <trkpt lat="43.61469" lon="5.37148">
        <ele>327.79998779297</ele>
        <time>2022-03-19T15:21:58.000Z</time>
      </trkpt>
      <trkpt lat="43.61472" lon="5.37141">
        <ele>327.79998779297</ele>
        <time>2022-03-19T15:22:01.000Z</time>
      </trkpt>
      <trkpt lat="43.61474" lon="5.37138">
        <ele>328</ele>
        <time>2022-03-19T15:22:02.000Z</time>
      </trkpt>
      <trkpt lat="43.61483" lon="5.37114">
        <ele>327.60000610352</ele>
        <time>2022-03-19T15:22:08.000Z</time>
      </trkpt>
      <trkpt lat="43.61491" lon="5.37088">
        <ele>328.60000610352</ele>
        <time>2022-03-19T15:22:14.000Z</time>
      </trkpt>
      <trkpt lat="43.615" lon="5.3706">
        <ele>328.39999389648</ele>
        <time>2022-03-19T15:22:20.000Z</time>
      </trkpt>
      <trkpt lat="43.61511" lon="5.37028">
        <ele>328.20001220703</ele>
        <time>2022-03-19T15:22:27.000Z</time>
      </trkpt>
      <trkpt lat="43.61516" lon="5.37018">
        <ele>327.79998779297</ele>
        <time>2022-03-19T15:22:29.000Z</time>
      </trkpt>
      <trkpt lat="43.61528" lon="5.36997">
        <ele>327.79998779297</ele>
        <time>2022-03-19T15:22:33.000Z</time>
      </trkpt>
      <trkpt lat="43.61548" lon="5.36967">
        <ele>328.60000610352</ele>
        <time>2022-03-19T15:22:40.000Z</time>
      </trkpt>
      <trkpt lat="43.61559" lon="5.36947">
        <ele>329</ele>
        <time>2022-03-19T15:22:44.000Z</time>
      </trkpt>
      <trkpt lat="43.61565" lon="5.36933">
        <ele>328.79998779297</ele>
        <time>2022-03-19T15:22:47.000Z</time>
      </trkpt>
      <trkpt lat="43.61576" lon="5.36903">
        <ele>328</ele>
        <time>2022-03-19T15:22:52.000Z</time>
      </trkpt>
      <trkpt lat="43.61589" lon="5.36866">
        <ele>329.20001220703</ele>
        <time>2022-03-19T15:22:57.000Z</time>
      </trkpt>
      <trkpt lat="43.61603" lon="5.36829">
        <ele>330</ele>
        <time>2022-03-19T15:23:03.000Z</time>
      </trkpt>
      <trkpt lat="43.61613" lon="5.36803">
        <ele>330</ele>
        <time>2022-03-19T15:23:07.000Z</time>
      </trkpt>
      <trkpt lat="43.61618" lon="5.36791">
        <ele>329.39999389648</ele>
        <time>2022-03-19T15:23:09.000Z</time>
      </trkpt>
      <trkpt lat="43.61633" lon="5.36746">
        <ele>328.39999389648</ele>
        <time>2022-03-19T15:23:15.000Z</time>
      </trkpt>
      <trkpt lat="43.61635" lon="5.36739">
        <ele>328</ele>
        <time>2022-03-19T15:23:16.000Z</time>
      </trkpt>
      <trkpt lat="43.61642" lon="5.3672">
        <ele>328</ele>
        <time>2022-03-19T15:23:19.000Z</time>
      </trkpt>
      <trkpt lat="43.6165" lon="5.36702">
        <ele>328.20001220703</ele>
        <time>2022-03-19T15:23:22.000Z</time>
      </trkpt>
      <trkpt lat="43.6167" lon="5.36654">
        <ele>327.60000610352</ele>
        <time>2022-03-19T15:23:30.000Z</time>
      </trkpt>
      <trkpt lat="43.61687" lon="5.36617">
        <ele>327.39999389648</ele>
        <time>2022-03-19T15:23:36.000Z</time>
      </trkpt>
      <trkpt lat="43.61707" lon="5.36568">
        <ele>327.39999389648</ele>
        <time>2022-03-19T15:23:43.000Z</time>
      </trkpt>
      <trkpt lat="43.61719" lon="5.36523">
        <ele>328.20001220703</ele>
        <time>2022-03-19T15:23:49.000Z</time>
      </trkpt>
      <trkpt lat="43.6172" lon="5.36514">
        <ele>328</ele>
        <time>2022-03-19T15:23:50.000Z</time>
      </trkpt>
      <trkpt lat="43.6172" lon="5.36486">
        <ele>327.20001220703</ele>
        <time>2022-03-19T15:23:53.000Z</time>
      </trkpt>
      <trkpt lat="43.61719" lon="5.36476">
        <ele>326.79998779297</ele>
        <time>2022-03-19T15:23:54.000Z</time>
      </trkpt>
      <trkpt lat="43.61719" lon="5.36466">
        <ele>326.60000610352</ele>
        <time>2022-03-19T15:23:55.000Z</time>
      </trkpt>
      <trkpt lat="43.61719" lon="5.36456">
        <ele>327</ele>
        <time>2022-03-19T15:23:56.000Z</time>
      </trkpt>
      <trkpt lat="43.61722" lon="5.36448">
        <ele>327.39999389648</ele>
        <time>2022-03-19T15:23:57.000Z</time>
      </trkpt>
      <trkpt lat="43.61725" lon="5.3644">
        <ele>328</ele>
        <time>2022-03-19T15:23:58.000Z</time>
      </trkpt>
      <trkpt lat="43.61729" lon="5.36433">
        <ele>328.20001220703</ele>
        <time>2022-03-19T15:23:59.000Z</time>
      </trkpt>
      <trkpt lat="43.61733" lon="5.36428">
        <ele>328.60000610352</ele>
        <time>2022-03-19T15:24:00.000Z</time>
      </trkpt>
      <trkpt lat="43.61738" lon="5.36423">
        <ele>328.79998779297</ele>
        <time>2022-03-19T15:24:01.000Z</time>
      </trkpt>
      <trkpt lat="43.61748" lon="5.36415">
        <ele>328.79998779297</ele>
        <time>2022-03-19T15:24:03.000Z</time>
      </trkpt>
      <trkpt lat="43.61767" lon="5.364">
        <ele>329</ele>
        <time>2022-03-19T15:24:07.000Z</time>
      </trkpt>
      <trkpt lat="43.61775" lon="5.36392">
        <ele>329</ele>
        <time>2022-03-19T15:24:09.000Z</time>
      </trkpt>
      <trkpt lat="43.6178" lon="5.36382">
        <ele>328.79998779297</ele>
        <time>2022-03-19T15:24:11.000Z</time>
      </trkpt>
      <trkpt lat="43.61775" lon="5.36361">
        <ele>327.39999389648</ele>
        <time>2022-03-19T15:24:14.000Z</time>
      </trkpt>
      <trkpt lat="43.61772" lon="5.36348">
        <ele>326.79998779297</ele>
        <time>2022-03-19T15:24:16.000Z</time>
      </trkpt>
      <trkpt lat="43.61768" lon="5.36328">
        <ele>325.60000610352</ele>
        <time>2022-03-19T15:24:19.000Z</time>
      </trkpt>
      <trkpt lat="43.61767" lon="5.36321">
        <ele>325.79998779297</ele>
        <time>2022-03-19T15:24:20.000Z</time>
      </trkpt>
      <trkpt lat="43.61757" lon="5.36272">
        <ele>326.39999389648</ele>
        <time>2022-03-19T15:24:27.000Z</time>
      </trkpt>
      <trkpt lat="43.61753" lon="5.36252">
        <ele>326.79998779297</ele>
        <time>2022-03-19T15:24:30.000Z</time>
      </trkpt>
      <trkpt lat="43.61751" lon="5.3623">
        <ele>327.60000610352</ele>
        <time>2022-03-19T15:24:33.000Z</time>
      </trkpt>
      <trkpt lat="43.61752" lon="5.36222">
        <ele>327.79998779297</ele>
        <time>2022-03-19T15:24:34.000Z</time>
      </trkpt>
      <trkpt lat="43.61756" lon="5.36193">
        <ele>328.20001220703</ele>
        <time>2022-03-19T15:24:38.000Z</time>
      </trkpt>
      <trkpt lat="43.61759" lon="5.3618">
        <ele>327.79998779297</ele>
        <time>2022-03-19T15:24:40.000Z</time>
      </trkpt>
      <trkpt lat="43.61763" lon="5.36167">
        <ele>327.60000610352</ele>
        <time>2022-03-19T15:24:42.000Z</time>
      </trkpt>
      <trkpt lat="43.61766" lon="5.36161">
        <ele>327.39999389648</ele>
        <time>2022-03-19T15:24:43.000Z</time>
      </trkpt>
      <trkpt lat="43.61776" lon="5.36145">
        <ele>327.79998779297</ele>
        <time>2022-03-19T15:24:46.000Z</time>
      </trkpt>
      <trkpt lat="43.61787" lon="5.36129">
        <ele>328.20001220703</ele>
        <time>2022-03-19T15:24:49.000Z</time>
      </trkpt>
      <trkpt lat="43.61799" lon="5.36103">
        <ele>328</ele>
        <time>2022-03-19T15:24:54.000Z</time>
      </trkpt>
      <trkpt lat="43.618" lon="5.36085">
        <ele>328</ele>
        <time>2022-03-19T15:24:58.000Z</time>
      </trkpt>
      <trkpt lat="43.61798" lon="5.36057">
        <ele>328.39999389648</ele>
        <time>2022-03-19T15:25:04.000Z</time>
      </trkpt>
      <trkpt lat="43.61796" lon="5.3602">
        <ele>329</ele>
        <time>2022-03-19T15:25:11.000Z</time>
      </trkpt>
      <trkpt lat="43.61798" lon="5.35981">
        <ele>329.39999389648</ele>
        <time>2022-03-19T15:25:18.000Z</time>
      </trkpt>
      <trkpt lat="43.618" lon="5.3595">
        <ele>329.20001220703</ele>
        <time>2022-03-19T15:25:23.000Z</time>
      </trkpt>
      <trkpt lat="43.61803" lon="5.35938">
        <ele>329</ele>
        <time>2022-03-19T15:25:25.000Z</time>
      </trkpt>
      <trkpt lat="43.61812" lon="5.35889">
        <ele>329.60000610352</ele>
        <time>2022-03-19T15:25:33.000Z</time>
      </trkpt>
      <trkpt lat="43.6182" lon="5.35856">
        <ele>330</ele>
        <time>2022-03-19T15:25:38.000Z</time>
      </trkpt>
      <trkpt lat="43.61824" lon="5.35844">
        <ele>330.39999389648</ele>
        <time>2022-03-19T15:25:40.000Z</time>
      </trkpt>
      <trkpt lat="43.61827" lon="5.35838">
        <ele>330.39999389648</ele>
        <time>2022-03-19T15:25:41.000Z</time>
      </trkpt>
      <trkpt lat="43.61838" lon="5.35806">
        <ele>332.20001220703</ele>
        <time>2022-03-19T15:25:46.000Z</time>
      </trkpt>
      <trkpt lat="43.61845" lon="5.35784">
        <ele>332.20001220703</ele>
        <time>2022-03-19T15:25:49.000Z</time>
      </trkpt>
      <trkpt lat="43.61849" lon="5.35761">
        <ele>331.39999389648</ele>
        <time>2022-03-19T15:25:52.000Z</time>
      </trkpt>
      <trkpt lat="43.61856" lon="5.35723">
        <ele>330</ele>
        <time>2022-03-19T15:25:57.000Z</time>
      </trkpt>
      <trkpt lat="43.61858" lon="5.35716">
        <ele>330</ele>
        <time>2022-03-19T15:25:58.000Z</time>
      </trkpt>
      <trkpt lat="43.61864" lon="5.35687">
        <ele>328.39999389648</ele>
        <time>2022-03-19T15:26:03.000Z</time>
      </trkpt>
      <trkpt lat="43.61863" lon="5.35681">
        <ele>327.79998779297</ele>
        <time>2022-03-19T15:26:05.000Z</time>
      </trkpt>
      <trkpt lat="43.6186" lon="5.35671">
        <ele>326.20001220703</ele>
        <time>2022-03-19T15:26:07.000Z</time>
      </trkpt>
      <trkpt lat="43.61859" lon="5.35665">
        <ele>325.39999389648</ele>
        <time>2022-03-19T15:26:08.000Z</time>
      </trkpt>
      <trkpt lat="43.61858" lon="5.35659">
        <ele>325.20001220703</ele>
        <time>2022-03-19T15:26:09.000Z</time>
      </trkpt>
      <trkpt lat="43.61858" lon="5.35654">
        <ele>325</ele>
        <time>2022-03-19T15:26:10.000Z</time>
      </trkpt>
      <trkpt lat="43.61858" lon="5.35649">
        <ele>325</ele>
        <time>2022-03-19T15:26:11.000Z</time>
      </trkpt>
      <trkpt lat="43.61858" lon="5.35644">
        <ele>325.20001220703</ele>
        <time>2022-03-19T15:26:12.000Z</time>
      </trkpt>
      <trkpt lat="43.61861" lon="5.35634">
        <ele>325.39999389648</ele>
        <time>2022-03-19T15:26:14.000Z</time>
      </trkpt>
      <trkpt lat="43.61868" lon="5.35605">
        <ele>326.60000610352</ele>
        <time>2022-03-19T15:26:20.000Z</time>
      </trkpt>
      <trkpt lat="43.61875" lon="5.35575">
        <ele>327.39999389648</ele>
        <time>2022-03-19T15:26:27.000Z</time>
      </trkpt>
      <trkpt lat="43.6188" lon="5.3555">
        <ele>327.79998779297</ele>
        <time>2022-03-19T15:26:32.000Z</time>
      </trkpt>
      <trkpt lat="43.61883" lon="5.35541">
        <ele>327.60000610352</ele>
        <time>2022-03-19T15:26:34.000Z</time>
      </trkpt>
      <trkpt lat="43.61884" lon="5.35536">
        <ele>327.79998779297</ele>
        <time>2022-03-19T15:26:35.000Z</time>
      </trkpt>
      <trkpt lat="43.61886" lon="5.35532">
        <ele>328</ele>
        <time>2022-03-19T15:26:36.000Z</time>
      </trkpt>
      <trkpt lat="43.61887" lon="5.35528">
        <ele>328.20001220703</ele>
        <time>2022-03-19T15:26:37.000Z</time>
      </trkpt>
      <trkpt lat="43.61889" lon="5.35524">
        <ele>328.20001220703</ele>
        <time>2022-03-19T15:26:38.000Z</time>
      </trkpt>
      <trkpt lat="43.61894" lon="5.35509">
        <ele>328.20001220703</ele>
        <time>2022-03-19T15:26:42.000Z</time>
      </trkpt>
      <trkpt lat="43.61902" lon="5.35471">
        <ele>326.39999389648</ele>
        <time>2022-03-19T15:26:49.000Z</time>
      </trkpt>
      <trkpt lat="43.61904" lon="5.35458">
        <ele>325.60000610352</ele>
        <time>2022-03-19T15:26:51.000Z</time>
      </trkpt>
      <trkpt lat="43.61905" lon="5.35452">
        <ele>325.20001220703</ele>
        <time>2022-03-19T15:26:52.000Z</time>
      </trkpt>
      <trkpt lat="43.61906" lon="5.35445">
        <ele>324.79998779297</ele>
        <time>2022-03-19T15:26:53.000Z</time>
      </trkpt>
      <trkpt lat="43.61907" lon="5.35437">
        <ele>324.39999389648</ele>
        <time>2022-03-19T15:26:54.000Z</time>
      </trkpt>
      <trkpt lat="43.61908" lon="5.3543">
        <ele>324</ele>
        <time>2022-03-19T15:26:55.000Z</time>
      </trkpt>
      <trkpt lat="43.61914" lon="5.35403">
        <ele>322.60000610352</ele>
        <time>2022-03-19T15:26:59.000Z</time>
      </trkpt>
      <trkpt lat="43.61921" lon="5.35375">
        <ele>322.39999389648</ele>
        <time>2022-03-19T15:27:03.000Z</time>
      </trkpt>
      <trkpt lat="43.61923" lon="5.35368">
        <ele>322.20001220703</ele>
        <time>2022-03-19T15:27:04.000Z</time>
      </trkpt>
      <trkpt lat="43.61926" lon="5.35361">
        <ele>322</ele>
        <time>2022-03-19T15:27:05.000Z</time>
      </trkpt>
      <trkpt lat="43.61928" lon="5.35354">
        <ele>322</ele>
        <time>2022-03-19T15:27:06.000Z</time>
      </trkpt>
      <trkpt lat="43.61931" lon="5.35347">
        <ele>321.79998779297</ele>
        <time>2022-03-19T15:27:07.000Z</time>
      </trkpt>
      <trkpt lat="43.6194" lon="5.35325">
        <ele>320.20001220703</ele>
        <time>2022-03-19T15:27:10.000Z</time>
      </trkpt>
      <trkpt lat="43.61944" lon="5.35319">
        <ele>320</ele>
        <time>2022-03-19T15:27:11.000Z</time>
      </trkpt>
      <trkpt lat="43.61947" lon="5.35312">
        <ele>319.79998779297</ele>
        <time>2022-03-19T15:27:12.000Z</time>
      </trkpt>
      <trkpt lat="43.6195" lon="5.35307">
        <ele>319.60000610352</ele>
        <time>2022-03-19T15:27:13.000Z</time>
      </trkpt>
      <trkpt lat="43.61954" lon="5.35299">
        <ele>319.39999389648</ele>
        <time>2022-03-19T15:27:15.000Z</time>
      </trkpt>
      <trkpt lat="43.61964" lon="5.35282">
        <ele>319</ele>
        <time>2022-03-19T15:27:19.000Z</time>
      </trkpt>
      <trkpt lat="43.61965" lon="5.35276">
        <ele>319</ele>
        <time>2022-03-19T15:27:20.000Z</time>
      </trkpt>
      <trkpt lat="43.61966" lon="5.35271">
        <ele>318.79998779297</ele>
        <time>2022-03-19T15:27:21.000Z</time>
      </trkpt>
      <trkpt lat="43.61966" lon="5.35266">
        <ele>318.39999389648</ele>
        <time>2022-03-19T15:27:22.000Z</time>
      </trkpt>
      <trkpt lat="43.61966" lon="5.35261">
        <ele>318.20001220703</ele>
        <time>2022-03-19T15:27:23.000Z</time>
      </trkpt>
      <trkpt lat="43.61967" lon="5.35255">
        <ele>318.39999389648</ele>
        <time>2022-03-19T15:27:24.000Z</time>
      </trkpt>
      <trkpt lat="43.61967" lon="5.35249">
        <ele>318.60000610352</ele>
        <time>2022-03-19T15:27:25.000Z</time>
      </trkpt>
      <trkpt lat="43.61968" lon="5.35243">
        <ele>318.39999389648</ele>
        <time>2022-03-19T15:27:26.000Z</time>
      </trkpt>
      <trkpt lat="43.61969" lon="5.35221">
        <ele>318.60000610352</ele>
        <time>2022-03-19T15:27:29.000Z</time>
      </trkpt>
      <trkpt lat="43.6197" lon="5.35214">
        <ele>318.60000610352</ele>
        <time>2022-03-19T15:27:30.000Z</time>
      </trkpt>
      <trkpt lat="43.61973" lon="5.3519">
        <ele>319.39999389648</ele>
        <time>2022-03-19T15:27:33.000Z</time>
      </trkpt>
      <trkpt lat="43.61978" lon="5.35143">
        <ele>318.60000610352</ele>
        <time>2022-03-19T15:27:39.000Z</time>
      </trkpt>
      <trkpt lat="43.61978" lon="5.35136">
        <ele>318.39999389648</ele>
        <time>2022-03-19T15:27:40.000Z</time>
      </trkpt>
      <trkpt lat="43.61981" lon="5.35106">
        <ele>319.79998779297</ele>
        <time>2022-03-19T15:27:44.000Z</time>
      </trkpt>
      <trkpt lat="43.61983" lon="5.35083">
        <ele>320.20001220703</ele>
        <time>2022-03-19T15:27:47.000Z</time>
      </trkpt>
      <trkpt lat="43.61983" lon="5.35058">
        <ele>318.20001220703</ele>
        <time>2022-03-19T15:27:50.000Z</time>
      </trkpt>
      <trkpt lat="43.61984" lon="5.35005">
        <ele>315.39999389648</ele>
        <time>2022-03-19T15:27:56.000Z</time>
      </trkpt>
      <trkpt lat="43.61982" lon="5.34986">
        <ele>314.20001220703</ele>
        <time>2022-03-19T15:27:58.000Z</time>
      </trkpt>
      <trkpt lat="43.61981" lon="5.34977">
        <ele>314</ele>
        <time>2022-03-19T15:27:59.000Z</time>
      </trkpt>
      <trkpt lat="43.6198" lon="5.34968">
        <ele>313.79998779297</ele>
        <time>2022-03-19T15:28:00.000Z</time>
      </trkpt>
      <trkpt lat="43.61979" lon="5.34958">
        <ele>314</ele>
        <time>2022-03-19T15:28:01.000Z</time>
      </trkpt>
      <trkpt lat="43.61979" lon="5.34949">
        <ele>314.39999389648</ele>
        <time>2022-03-19T15:28:02.000Z</time>
      </trkpt>
      <trkpt lat="43.61982" lon="5.34894">
        <ele>316.79998779297</ele>
        <time>2022-03-19T15:28:08.000Z</time>
      </trkpt>
      <trkpt lat="43.61983" lon="5.34885">
        <ele>317</ele>
        <time>2022-03-19T15:28:09.000Z</time>
      </trkpt>
      <trkpt lat="43.61988" lon="5.34857">
        <ele>316.39999389648</ele>
        <time>2022-03-19T15:28:12.000Z</time>
      </trkpt>
      <trkpt lat="43.62002" lon="5.34798">
        <ele>315.60000610352</ele>
        <time>2022-03-19T15:28:18.000Z</time>
      </trkpt>
      <trkpt lat="43.62011" lon="5.34772">
        <ele>314.39999389648</ele>
        <time>2022-03-19T15:28:21.000Z</time>
      </trkpt>
      <trkpt lat="43.62014" lon="5.34764">
        <ele>314</ele>
        <time>2022-03-19T15:28:22.000Z</time>
      </trkpt>
      <trkpt lat="43.62017" lon="5.34757">
        <ele>313.60000610352</ele>
        <time>2022-03-19T15:28:23.000Z</time>
      </trkpt>
      <trkpt lat="43.6202" lon="5.34749">
        <ele>313</ele>
        <time>2022-03-19T15:28:24.000Z</time>
      </trkpt>
      <trkpt lat="43.62023" lon="5.34742">
        <ele>312.39999389648</ele>
        <time>2022-03-19T15:28:25.000Z</time>
      </trkpt>
      <trkpt lat="43.62032" lon="5.34723">
        <ele>312.20001220703</ele>
        <time>2022-03-19T15:28:28.000Z</time>
      </trkpt>
      <trkpt lat="43.62034" lon="5.34716">
        <ele>312.60000610352</ele>
        <time>2022-03-19T15:28:29.000Z</time>
      </trkpt>
      <trkpt lat="43.62036" lon="5.34709">
        <ele>313</ele>
        <time>2022-03-19T15:28:30.000Z</time>
      </trkpt>
      <trkpt lat="43.6204" lon="5.34688">
        <ele>314.39999389648</ele>
        <time>2022-03-19T15:28:33.000Z</time>
      </trkpt>
      <trkpt lat="43.62044" lon="5.34669">
        <ele>315.60000610352</ele>
        <time>2022-03-19T15:28:36.000Z</time>
      </trkpt>
      <trkpt lat="43.62045" lon="5.34663">
        <ele>316</ele>
        <time>2022-03-19T15:28:37.000Z</time>
      </trkpt>
      <trkpt lat="43.62047" lon="5.34657">
        <ele>316</ele>
        <time>2022-03-19T15:28:38.000Z</time>
      </trkpt>
      <trkpt lat="43.62049" lon="5.34652">
        <ele>316.20001220703</ele>
        <time>2022-03-19T15:28:39.000Z</time>
      </trkpt>
      <trkpt lat="43.62051" lon="5.34646">
        <ele>316.20001220703</ele>
        <time>2022-03-19T15:28:40.000Z</time>
      </trkpt>
      <trkpt lat="43.62052" lon="5.3464">
        <ele>316.20001220703</ele>
        <time>2022-03-19T15:28:41.000Z</time>
      </trkpt>
      <trkpt lat="43.62054" lon="5.34633">
        <ele>316.20001220703</ele>
        <time>2022-03-19T15:28:42.000Z</time>
      </trkpt>
      <trkpt lat="43.6206" lon="5.34599">
        <ele>315.20001220703</ele>
        <time>2022-03-19T15:28:46.000Z</time>
      </trkpt>
      <trkpt lat="43.62065" lon="5.34572">
        <ele>313.39999389648</ele>
        <time>2022-03-19T15:28:49.000Z</time>
      </trkpt>
      <trkpt lat="43.62066" lon="5.34562">
        <ele>312.79998779297</ele>
        <time>2022-03-19T15:28:50.000Z</time>
      </trkpt>
      <trkpt lat="43.62067" lon="5.34552">
        <ele>312.39999389648</ele>
        <time>2022-03-19T15:28:51.000Z</time>
      </trkpt>
      <trkpt lat="43.62069" lon="5.34543">
        <ele>312.60000610352</ele>
        <time>2022-03-19T15:28:52.000Z</time>
      </trkpt>
      <trkpt lat="43.62074" lon="5.34521">
        <ele>313.20001220703</ele>
        <time>2022-03-19T15:28:55.000Z</time>
      </trkpt>
      <trkpt lat="43.62077" lon="5.34512">
        <ele>313</ele>
        <time>2022-03-19T15:28:56.000Z</time>
      </trkpt>
      <trkpt lat="43.62079" lon="5.34503">
        <ele>313.39999389648</ele>
        <time>2022-03-19T15:28:57.000Z</time>
      </trkpt>
      <trkpt lat="43.6208" lon="5.34495">
        <ele>313.39999389648</ele>
        <time>2022-03-19T15:28:58.000Z</time>
      </trkpt>
      <trkpt lat="43.62081" lon="5.34485">
        <ele>313.20001220703</ele>
        <time>2022-03-19T15:28:59.000Z</time>
      </trkpt>
      <trkpt lat="43.62082" lon="5.34475">
        <ele>313</ele>
        <time>2022-03-19T15:29:00.000Z</time>
      </trkpt>
      <trkpt lat="43.62084" lon="5.34454">
        <ele>312.60000610352</ele>
        <time>2022-03-19T15:29:02.000Z</time>
      </trkpt>
      <trkpt lat="43.62086" lon="5.34444">
        <ele>312</ele>
        <time>2022-03-19T15:29:03.000Z</time>
      </trkpt>
      <trkpt lat="43.62087" lon="5.34434">
        <ele>311.79998779297</ele>
        <time>2022-03-19T15:29:04.000Z</time>
      </trkpt>
      <trkpt lat="43.62089" lon="5.34424">
        <ele>311.79998779297</ele>
        <time>2022-03-19T15:29:05.000Z</time>
      </trkpt>
      <trkpt lat="43.6209" lon="5.34414">
        <ele>311.60000610352</ele>
        <time>2022-03-19T15:29:06.000Z</time>
      </trkpt>
      <trkpt lat="43.62094" lon="5.34367">
        <ele>310.20001220703</ele>
        <time>2022-03-19T15:29:11.000Z</time>
      </trkpt>
      <trkpt lat="43.62095" lon="5.34359">
        <ele>310</ele>
        <time>2022-03-19T15:29:12.000Z</time>
      </trkpt>
      <trkpt lat="43.62099" lon="5.34334">
        <ele>308.60000610352</ele>
        <time>2022-03-19T15:29:15.000Z</time>
      </trkpt>
      <trkpt lat="43.62097" lon="5.34315">
        <ele>307</ele>
        <time>2022-03-19T15:29:17.000Z</time>
      </trkpt>
      <trkpt lat="43.62097" lon="5.34306">
        <ele>306</ele>
        <time>2022-03-19T15:29:18.000Z</time>
      </trkpt>
      <trkpt lat="43.62097" lon="5.34297">
        <ele>305.20001220703</ele>
        <time>2022-03-19T15:29:19.000Z</time>
      </trkpt>
      <trkpt lat="43.62097" lon="5.34288">
        <ele>304.60000610352</ele>
        <time>2022-03-19T15:29:20.000Z</time>
      </trkpt>
      <trkpt lat="43.62098" lon="5.34278">
        <ele>303.79998779297</ele>
        <time>2022-03-19T15:29:21.000Z</time>
      </trkpt>
      <trkpt lat="43.621" lon="5.34269">
        <ele>303.20001220703</ele>
        <time>2022-03-19T15:29:22.000Z</time>
      </trkpt>
      <trkpt lat="43.62102" lon="5.3426">
        <ele>302.79998779297</ele>
        <time>2022-03-19T15:29:23.000Z</time>
      </trkpt>
      <trkpt lat="43.62104" lon="5.34251">
        <ele>302.20001220703</ele>
        <time>2022-03-19T15:29:24.000Z</time>
      </trkpt>
      <trkpt lat="43.62106" lon="5.34242">
        <ele>302</ele>
        <time>2022-03-19T15:29:25.000Z</time>
      </trkpt>
      <trkpt lat="43.62108" lon="5.34226">
        <ele>301.20001220703</ele>
        <time>2022-03-19T15:29:27.000Z</time>
      </trkpt>
      <trkpt lat="43.62109" lon="5.34219">
        <ele>300.60000610352</ele>
        <time>2022-03-19T15:29:28.000Z</time>
      </trkpt>
      <trkpt lat="43.62107" lon="5.34213">
        <ele>300.20001220703</ele>
        <time>2022-03-19T15:29:29.000Z</time>
      </trkpt>
      <trkpt lat="43.62105" lon="5.34208">
        <ele>300</ele>
        <time>2022-03-19T15:29:30.000Z</time>
      </trkpt>
      <trkpt lat="43.62102" lon="5.34204">
        <ele>299.60000610352</ele>
        <time>2022-03-19T15:29:31.000Z</time>
      </trkpt>
      <trkpt lat="43.62091" lon="5.34188">
        <ele>298.20001220703</ele>
        <time>2022-03-19T15:29:35.000Z</time>
      </trkpt>
      <trkpt lat="43.6209" lon="5.34184">
        <ele>298</ele>
        <time>2022-03-19T15:29:36.000Z</time>
      </trkpt>
      <trkpt lat="43.6209" lon="5.34179">
        <ele>297.79998779297</ele>
        <time>2022-03-19T15:29:37.000Z</time>
      </trkpt>
      <trkpt lat="43.62089" lon="5.34176">
        <ele>297.60000610352</ele>
        <time>2022-03-19T15:29:38.000Z</time>
      </trkpt>
      <trkpt lat="43.62088" lon="5.34173">
        <ele>297.39999389648</ele>
        <time>2022-03-19T15:29:39.000Z</time>
      </trkpt>
      <trkpt lat="43.62087" lon="5.34168">
        <ele>297.20001220703</ele>
        <time>2022-03-19T15:29:41.000Z</time>
      </trkpt>
      <trkpt lat="43.62087" lon="5.34165">
        <ele>297</ele>
        <time>2022-03-19T15:29:44.000Z</time>
      </trkpt>
      <trkpt lat="43.62087" lon="5.34165">
        <ele>297</ele>
        <time>2022-03-19T15:29:51.000Z</time>
      </trkpt>
      <trkpt lat="43.62087" lon="5.34165">
        <ele>297</ele>
        <time>2022-03-19T15:29:59.000Z</time>
      </trkpt>
      <trkpt lat="43.62087" lon="5.34165">
        <ele>297</ele>
        <time>2022-03-19T15:30:10.000Z</time>
      </trkpt>
      <trkpt lat="43.62087" lon="5.34165">
        <ele>297</ele>
        <time>2022-03-19T15:30:19.000Z</time>
      </trkpt>
      <trkpt lat="43.62086" lon="5.34164">
        <ele>297</ele>
        <time>2022-03-19T15:30:28.000Z</time>
      </trkpt>
      <trkpt lat="43.62085" lon="5.34163">
        <ele>296.79998779297</ele>
        <time>2022-03-19T15:30:37.000Z</time>
      </trkpt>
      <trkpt lat="43.62085" lon="5.34163">
        <ele>296.79998779297</ele>
        <time>2022-03-19T15:30:47.000Z</time>
      </trkpt>
      <trkpt lat="43.62085" lon="5.34163">
        <ele>296.79998779297</ele>
        <time>2022-03-19T15:30:58.000Z</time>
      </trkpt>
      <trkpt lat="43.62088" lon="5.34157">
        <ele>296.79998779297</ele>
        <time>2022-03-19T15:31:02.000Z</time>
      </trkpt>
      <trkpt lat="43.62097" lon="5.34143">
        <ele>297</ele>
        <time>2022-03-19T15:31:06.000Z</time>
      </trkpt>
      <trkpt lat="43.621" lon="5.34137">
        <ele>296.60000610352</ele>
        <time>2022-03-19T15:31:07.000Z</time>
      </trkpt>
      <trkpt lat="43.62102" lon="5.3413">
        <ele>296.20001220703</ele>
        <time>2022-03-19T15:31:08.000Z</time>
      </trkpt>
      <trkpt lat="43.62105" lon="5.34124">
        <ele>296</ele>
        <time>2022-03-19T15:31:09.000Z</time>
      </trkpt>
      <trkpt lat="43.62108" lon="5.34117">
        <ele>296</ele>
        <time>2022-03-19T15:31:10.000Z</time>
      </trkpt>
      <trkpt lat="43.62111" lon="5.34111">
        <ele>295.79998779297</ele>
        <time>2022-03-19T15:31:11.000Z</time>
      </trkpt>
      <trkpt lat="43.62113" lon="5.34104">
        <ele>295.79998779297</ele>
        <time>2022-03-19T15:31:12.000Z</time>
      </trkpt>
      <trkpt lat="43.62115" lon="5.34098">
        <ele>295.79998779297</ele>
        <time>2022-03-19T15:31:13.000Z</time>
      </trkpt>
      <trkpt lat="43.62118" lon="5.34091">
        <ele>295.60000610352</ele>
        <time>2022-03-19T15:31:14.000Z</time>
      </trkpt>
      <trkpt lat="43.62121" lon="5.34085">
        <ele>295.39999389648</ele>
        <time>2022-03-19T15:31:15.000Z</time>
      </trkpt>
      <trkpt lat="43.62124" lon="5.34078">
        <ele>295.20001220703</ele>
        <time>2022-03-19T15:31:16.000Z</time>
      </trkpt>
      <trkpt lat="43.62127" lon="5.34071">
        <ele>294.79998779297</ele>
        <time>2022-03-19T15:31:17.000Z</time>
      </trkpt>
      <trkpt lat="43.62133" lon="5.34058">
        <ele>294.20001220703</ele>
        <time>2022-03-19T15:31:19.000Z</time>
      </trkpt>
      <trkpt lat="43.62143" lon="5.34036">
        <ele>292.39999389648</ele>
        <time>2022-03-19T15:31:23.000Z</time>
      </trkpt>
      <trkpt lat="43.62152" lon="5.34014">
        <ele>291</ele>
        <time>2022-03-19T15:31:29.000Z</time>
      </trkpt>
      <trkpt lat="43.62156" lon="5.34003">
        <ele>290.60000610352</ele>
        <time>2022-03-19T15:31:34.000Z</time>
      </trkpt>
      <trkpt lat="43.62158" lon="5.33996">
        <ele>290.20001220703</ele>
        <time>2022-03-19T15:31:40.000Z</time>
      </trkpt>
      <trkpt lat="43.62158" lon="5.33996">
        <ele>290.20001220703</ele>
        <time>2022-03-19T15:31:53.000Z</time>
      </trkpt>
      <trkpt lat="43.62158" lon="5.33995">
        <ele>290.20001220703</ele>
        <time>2022-03-19T15:32:06.000Z</time>
      </trkpt>
      <trkpt lat="43.6216" lon="5.33977">
        <ele>289.60000610352</ele>
        <time>2022-03-19T15:32:12.000Z</time>
      </trkpt>
      <trkpt lat="43.62166" lon="5.3396">
        <ele>289.79998779297</ele>
        <time>2022-03-19T15:32:17.000Z</time>
      </trkpt>
      <trkpt lat="43.62173" lon="5.33944">
        <ele>290.39999389648</ele>
        <time>2022-03-19T15:32:22.000Z</time>
      </trkpt>
      <trkpt lat="43.62178" lon="5.33929">
        <ele>290.60000610352</ele>
        <time>2022-03-19T15:32:26.000Z</time>
      </trkpt>
      <trkpt lat="43.62179" lon="5.33925">
        <ele>290.60000610352</ele>
        <time>2022-03-19T15:32:27.000Z</time>
      </trkpt>
      <trkpt lat="43.62181" lon="5.33921">
        <ele>290.79998779297</ele>
        <time>2022-03-19T15:32:28.000Z</time>
      </trkpt>
      <trkpt lat="43.62182" lon="5.33917">
        <ele>290.79998779297</ele>
        <time>2022-03-19T15:32:29.000Z</time>
      </trkpt>
      <trkpt lat="43.62184" lon="5.33913">
        <ele>291</ele>
        <time>2022-03-19T15:32:30.000Z</time>
      </trkpt>
      <trkpt lat="43.62193" lon="5.33895">
        <ele>291</ele>
        <time>2022-03-19T15:32:34.000Z</time>
      </trkpt>
      <trkpt lat="43.62204" lon="5.33869">
        <ele>290.79998779297</ele>
        <time>2022-03-19T15:32:39.000Z</time>
      </trkpt>
      <trkpt lat="43.62206" lon="5.33863">
        <ele>290.79998779297</ele>
        <time>2022-03-19T15:32:40.000Z</time>
      </trkpt>
      <trkpt lat="43.62207" lon="5.33857">
        <ele>290.39999389648</ele>
        <time>2022-03-19T15:32:41.000Z</time>
      </trkpt>
      <trkpt lat="43.62206" lon="5.33851">
        <ele>289.79998779297</ele>
        <time>2022-03-19T15:32:42.000Z</time>
      </trkpt>
      <trkpt lat="43.62206" lon="5.33844">
        <ele>289.39999389648</ele>
        <time>2022-03-19T15:32:43.000Z</time>
      </trkpt>
      <trkpt lat="43.62205" lon="5.33838">
        <ele>288.79998779297</ele>
        <time>2022-03-19T15:32:44.000Z</time>
      </trkpt>
      <trkpt lat="43.62203" lon="5.33832">
        <ele>288.39999389648</ele>
        <time>2022-03-19T15:32:45.000Z</time>
      </trkpt>
      <trkpt lat="43.62198" lon="5.33802">
        <ele>288</ele>
        <time>2022-03-19T15:32:50.000Z</time>
      </trkpt>
      <trkpt lat="43.62192" lon="5.33771">
        <ele>288</ele>
        <time>2022-03-19T15:32:55.000Z</time>
      </trkpt>
      <trkpt lat="43.62192" lon="5.33765">
        <ele>287.60000610352</ele>
        <time>2022-03-19T15:32:56.000Z</time>
      </trkpt>
      <trkpt lat="43.62196" lon="5.33726">
        <ele>286.39999389648</ele>
        <time>2022-03-19T15:33:03.000Z</time>
      </trkpt>
      <trkpt lat="43.62201" lon="5.33686">
        <ele>284.79998779297</ele>
        <time>2022-03-19T15:33:11.000Z</time>
      </trkpt>
      <trkpt lat="43.62203" lon="5.33665">
        <ele>284</ele>
        <time>2022-03-19T15:33:15.000Z</time>
      </trkpt>
      <trkpt lat="43.62204" lon="5.33658">
        <ele>284</ele>
        <time>2022-03-19T15:33:16.000Z</time>
      </trkpt>
      <trkpt lat="43.62207" lon="5.33639">
        <ele>283.79998779297</ele>
        <time>2022-03-19T15:33:19.000Z</time>
      </trkpt>
      <trkpt lat="43.62208" lon="5.33632">
        <ele>283.60000610352</ele>
        <time>2022-03-19T15:33:20.000Z</time>
      </trkpt>
      <trkpt lat="43.62209" lon="5.33626">
        <ele>283.60000610352</ele>
        <time>2022-03-19T15:33:21.000Z</time>
      </trkpt>
      <trkpt lat="43.6221" lon="5.33618">
        <ele>283.60000610352</ele>
        <time>2022-03-19T15:33:22.000Z</time>
      </trkpt>
      <trkpt lat="43.62212" lon="5.33611">
        <ele>283.60000610352</ele>
        <time>2022-03-19T15:33:23.000Z</time>
      </trkpt>
      <trkpt lat="43.62219" lon="5.33559">
        <ele>282.60000610352</ele>
        <time>2022-03-19T15:33:30.000Z</time>
      </trkpt>
      <trkpt lat="43.62219" lon="5.33551">
        <ele>282.20001220703</ele>
        <time>2022-03-19T15:33:31.000Z</time>
      </trkpt>
      <trkpt lat="43.62219" lon="5.33543">
        <ele>282.20001220703</ele>
        <time>2022-03-19T15:33:32.000Z</time>
      </trkpt>
      <trkpt lat="43.62218" lon="5.33535">
        <ele>282.20001220703</ele>
        <time>2022-03-19T15:33:33.000Z</time>
      </trkpt>
      <trkpt lat="43.62218" lon="5.33528">
        <ele>282.20001220703</ele>
        <time>2022-03-19T15:33:34.000Z</time>
      </trkpt>
      <trkpt lat="43.62215" lon="5.33512">
        <ele>282.79998779297</ele>
        <time>2022-03-19T15:33:36.000Z</time>
      </trkpt>
      <trkpt lat="43.6221" lon="5.33475">
        <ele>283.79998779297</ele>
        <time>2022-03-19T15:33:41.000Z</time>
      </trkpt>
      <trkpt lat="43.62209" lon="5.33461">
        <ele>283.79998779297</ele>
        <time>2022-03-19T15:33:43.000Z</time>
      </trkpt>
      <trkpt lat="43.6221" lon="5.33455">
        <ele>283.60000610352</ele>
        <time>2022-03-19T15:33:44.000Z</time>
      </trkpt>
      <trkpt lat="43.62214" lon="5.33431">
        <ele>283.60000610352</ele>
        <time>2022-03-19T15:33:48.000Z</time>
      </trkpt>
      <trkpt lat="43.62216" lon="5.3342">
        <ele>283.60000610352</ele>
        <time>2022-03-19T15:33:50.000Z</time>
      </trkpt>
      <trkpt lat="43.6222" lon="5.33409">
        <ele>283.79998779297</ele>
        <time>2022-03-19T15:33:52.000Z</time>
      </trkpt>
      <trkpt lat="43.62223" lon="5.33397">
        <ele>284.39999389648</ele>
        <time>2022-03-19T15:33:54.000Z</time>
      </trkpt>
      <trkpt lat="43.62229" lon="5.33368">
        <ele>285.79998779297</ele>
        <time>2022-03-19T15:33:59.000Z</time>
      </trkpt>
      <trkpt lat="43.6224" lon="5.33328">
        <ele>285.39999389648</ele>
        <time>2022-03-19T15:34:06.000Z</time>
      </trkpt>
      <trkpt lat="43.6225" lon="5.33294">
        <ele>284.79998779297</ele>
        <time>2022-03-19T15:34:12.000Z</time>
      </trkpt>
      <trkpt lat="43.62254" lon="5.33282">
        <ele>285</ele>
        <time>2022-03-19T15:34:14.000Z</time>
      </trkpt>
      <trkpt lat="43.62259" lon="5.33263">
        <ele>284.60000610352</ele>
        <time>2022-03-19T15:34:17.000Z</time>
      </trkpt>
      <trkpt lat="43.62264" lon="5.33254">
        <ele>284.20001220703</ele>
        <time>2022-03-19T15:34:19.000Z</time>
      </trkpt>
      <trkpt lat="43.62274" lon="5.33255">
        <ele>284</ele>
        <time>2022-03-19T15:34:22.000Z</time>
      </trkpt>
      <trkpt lat="43.62281" lon="5.3326">
        <ele>284.20001220703</ele>
        <time>2022-03-19T15:34:24.000Z</time>
      </trkpt>
      <trkpt lat="43.62292" lon="5.33266">
        <ele>284.39999389648</ele>
        <time>2022-03-19T15:34:27.000Z</time>
      </trkpt>
      <trkpt lat="43.62316" lon="5.33278">
        <ele>285.39999389648</ele>
        <time>2022-03-19T15:34:34.000Z</time>
      </trkpt>
      <trkpt lat="43.6232" lon="5.3328">
        <ele>285.60000610352</ele>
        <time>2022-03-19T15:34:35.000Z</time>
      </trkpt>
      <trkpt lat="43.62323" lon="5.33282">
        <ele>285.79998779297</ele>
        <time>2022-03-19T15:34:36.000Z</time>
      </trkpt>
      <trkpt lat="43.62326" lon="5.33283">
        <ele>286</ele>
        <time>2022-03-19T15:34:37.000Z</time>
      </trkpt>
      <trkpt lat="43.62329" lon="5.33285">
        <ele>286.20001220703</ele>
        <time>2022-03-19T15:34:38.000Z</time>
      </trkpt>
      <trkpt lat="43.62331" lon="5.33286">
        <ele>286.20001220703</ele>
        <time>2022-03-19T15:34:39.000Z</time>
      </trkpt>
      <trkpt lat="43.62334" lon="5.33287">
        <ele>286.39999389648</ele>
        <time>2022-03-19T15:34:40.000Z</time>
      </trkpt>
      <trkpt lat="43.62347" lon="5.33294">
        <ele>287.20001220703</ele>
        <time>2022-03-19T15:34:45.000Z</time>
      </trkpt>
      <trkpt lat="43.6235" lon="5.33296">
        <ele>287.39999389648</ele>
        <time>2022-03-19T15:34:46.000Z</time>
      </trkpt>
      <trkpt lat="43.62353" lon="5.33298">
        <ele>287.39999389648</ele>
        <time>2022-03-19T15:34:47.000Z</time>
      </trkpt>
      <trkpt lat="43.62356" lon="5.33299">
        <ele>287.60000610352</ele>
        <time>2022-03-19T15:34:48.000Z</time>
      </trkpt>
      <trkpt lat="43.62359" lon="5.333">
        <ele>287.79998779297</ele>
        <time>2022-03-19T15:34:49.000Z</time>
      </trkpt>
      <trkpt lat="43.62376" lon="5.33309">
        <ele>288</ele>
        <time>2022-03-19T15:34:54.000Z</time>
      </trkpt>
      <trkpt lat="43.62399" lon="5.3332">
        <ele>288</ele>
        <time>2022-03-19T15:35:00.000Z</time>
      </trkpt>
      <trkpt lat="43.62431" lon="5.33334">
        <ele>288.20001220703</ele>
        <time>2022-03-19T15:35:09.000Z</time>
      </trkpt>
      <trkpt lat="43.62434" lon="5.33335">
        <ele>288.20001220703</ele>
        <time>2022-03-19T15:35:10.000Z</time>
      </trkpt>
      <trkpt lat="43.62438" lon="5.33337">
        <ele>288.39999389648</ele>
        <time>2022-03-19T15:35:11.000Z</time>
      </trkpt>
      <trkpt lat="43.62441" lon="5.33338">
        <ele>288.39999389648</ele>
        <time>2022-03-19T15:35:12.000Z</time>
      </trkpt>
      <trkpt lat="43.62444" lon="5.33338">
        <ele>288.60000610352</ele>
        <time>2022-03-19T15:35:13.000Z</time>
      </trkpt>
      <trkpt lat="43.62447" lon="5.33339">
        <ele>288.60000610352</ele>
        <time>2022-03-19T15:35:14.000Z</time>
      </trkpt>
      <trkpt lat="43.6245" lon="5.3334">
        <ele>288.79998779297</ele>
        <time>2022-03-19T15:35:15.000Z</time>
      </trkpt>
      <trkpt lat="43.62457" lon="5.33347">
        <ele>289.20001220703</ele>
        <time>2022-03-19T15:35:18.000Z</time>
      </trkpt>
      <trkpt lat="43.62457" lon="5.33351">
        <ele>289.20001220703</ele>
        <time>2022-03-19T15:35:19.000Z</time>
      </trkpt>
      <trkpt lat="43.62457" lon="5.33359">
        <ele>289</ele>
        <time>2022-03-19T15:35:21.000Z</time>
      </trkpt>
      <trkpt lat="43.62456" lon="5.33364">
        <ele>289</ele>
        <time>2022-03-19T15:35:22.000Z</time>
      </trkpt>
      <trkpt lat="43.62454" lon="5.33368">
        <ele>289</ele>
        <time>2022-03-19T15:35:23.000Z</time>
      </trkpt>
      <trkpt lat="43.62453" lon="5.33373">
        <ele>289</ele>
        <time>2022-03-19T15:35:24.000Z</time>
      </trkpt>
      <trkpt lat="43.62445" lon="5.33402">
        <ele>290.20001220703</ele>
        <time>2022-03-19T15:35:30.000Z</time>
      </trkpt>
      <trkpt lat="43.62439" lon="5.33448">
        <ele>293.39999389648</ele>
        <time>2022-03-19T15:35:39.000Z</time>
      </trkpt>
      <trkpt lat="43.62444" lon="5.33464">
        <ele>295.39999389648</ele>
        <time>2022-03-19T15:35:43.000Z</time>
      </trkpt>
      <trkpt lat="43.62457" lon="5.33468">
        <ele>296.60000610352</ele>
        <time>2022-03-19T15:35:47.000Z</time>
      </trkpt>
      <trkpt lat="43.62473" lon="5.33475">
        <ele>298</ele>
        <time>2022-03-19T15:35:52.000Z</time>
      </trkpt>
      <trkpt lat="43.62477" lon="5.33482">
        <ele>298.60000610352</ele>
        <time>2022-03-19T15:35:54.000Z</time>
      </trkpt>
      <trkpt lat="43.6248" lon="5.33485">
        <ele>298.60000610352</ele>
        <time>2022-03-19T15:35:55.000Z</time>
      </trkpt>
      <trkpt lat="43.62483" lon="5.33485">
        <ele>298.60000610352</ele>
        <time>2022-03-19T15:35:56.000Z</time>
      </trkpt>
      <trkpt lat="43.62486" lon="5.33485">
        <ele>298.60000610352</ele>
        <time>2022-03-19T15:35:57.000Z</time>
      </trkpt>
      <trkpt lat="43.62489" lon="5.33483">
        <ele>298.60000610352</ele>
        <time>2022-03-19T15:35:58.000Z</time>
      </trkpt>
      <trkpt lat="43.62495" lon="5.33479">
        <ele>298.39999389648</ele>
        <time>2022-03-19T15:36:00.000Z</time>
      </trkpt>
      <trkpt lat="43.62507" lon="5.33476">
        <ele>298.60000610352</ele>
        <time>2022-03-19T15:36:04.000Z</time>
      </trkpt>
      <trkpt lat="43.62511" lon="5.33475">
        <ele>298.79998779297</ele>
        <time>2022-03-19T15:36:05.000Z</time>
      </trkpt>
      <trkpt lat="43.62514" lon="5.33475">
        <ele>299</ele>
        <time>2022-03-19T15:36:06.000Z</time>
      </trkpt>
      <trkpt lat="43.62517" lon="5.33475">
        <ele>299</ele>
        <time>2022-03-19T15:36:07.000Z</time>
      </trkpt>
      <trkpt lat="43.6252" lon="5.33474">
        <ele>299</ele>
        <time>2022-03-19T15:36:08.000Z</time>
      </trkpt>
      <trkpt lat="43.62527" lon="5.33473">
        <ele>299.20001220703</ele>
        <time>2022-03-19T15:36:10.000Z</time>
      </trkpt>
      <trkpt lat="43.62539" lon="5.33474">
        <ele>300</ele>
        <time>2022-03-19T15:36:14.000Z</time>
      </trkpt>
      <trkpt lat="43.62542" lon="5.33474">
        <ele>300.20001220703</ele>
        <time>2022-03-19T15:36:15.000Z</time>
      </trkpt>
      <trkpt lat="43.62546" lon="5.33474">
        <ele>300.60000610352</ele>
        <time>2022-03-19T15:36:16.000Z</time>
      </trkpt>
      <trkpt lat="43.62548" lon="5.33475">
        <ele>300.79998779297</ele>
        <time>2022-03-19T15:36:17.000Z</time>
      </trkpt>
      <trkpt lat="43.62558" lon="5.33471">
        <ele>301.20001220703</ele>
        <time>2022-03-19T15:36:20.000Z</time>
      </trkpt>
      <trkpt lat="43.62566" lon="5.33469">
        <ele>301.79998779297</ele>
        <time>2022-03-19T15:36:23.000Z</time>
      </trkpt>
      <trkpt lat="43.62569" lon="5.3347">
        <ele>302.20001220703</ele>
        <time>2022-03-19T15:36:24.000Z</time>
      </trkpt>
      <trkpt lat="43.62572" lon="5.33469">
        <ele>302.60000610352</ele>
        <time>2022-03-19T15:36:25.000Z</time>
      </trkpt>
      <trkpt lat="43.62575" lon="5.33468">
        <ele>302.79998779297</ele>
        <time>2022-03-19T15:36:26.000Z</time>
      </trkpt>
      <trkpt lat="43.62578" lon="5.33468">
        <ele>303</ele>
        <time>2022-03-19T15:36:27.000Z</time>
      </trkpt>
      <trkpt lat="43.62582" lon="5.33468">
        <ele>303.39999389648</ele>
        <time>2022-03-19T15:36:29.000Z</time>
      </trkpt>
      <trkpt lat="43.62584" lon="5.33469">
        <ele>303.79998779297</ele>
        <time>2022-03-19T15:36:30.000Z</time>
      </trkpt>
      <trkpt lat="43.62588" lon="5.33471">
        <ele>304.39999389648</ele>
        <time>2022-03-19T15:36:32.000Z</time>
      </trkpt>
      <trkpt lat="43.62591" lon="5.33473">
        <ele>304.60000610352</ele>
        <time>2022-03-19T15:36:33.000Z</time>
      </trkpt>
      <trkpt lat="43.62593" lon="5.33475">
        <ele>305</ele>
        <time>2022-03-19T15:36:34.000Z</time>
      </trkpt>
      <trkpt lat="43.62595" lon="5.33477">
        <ele>305.20001220703</ele>
        <time>2022-03-19T15:36:35.000Z</time>
      </trkpt>
      <trkpt lat="43.62598" lon="5.33479">
        <ele>305.60000610352</ele>
        <time>2022-03-19T15:36:36.000Z</time>
      </trkpt>
      <trkpt lat="43.62604" lon="5.33481">
        <ele>306.20001220703</ele>
        <time>2022-03-19T15:36:39.000Z</time>
      </trkpt>
      <trkpt lat="43.62608" lon="5.33478">
        <ele>306.20001220703</ele>
        <time>2022-03-19T15:36:41.000Z</time>
      </trkpt>
      <trkpt lat="43.6261" lon="5.33476">
        <ele>306.20001220703</ele>
        <time>2022-03-19T15:36:42.000Z</time>
      </trkpt>
      <trkpt lat="43.62613" lon="5.33475">
        <ele>306.39999389648</ele>
        <time>2022-03-19T15:36:43.000Z</time>
      </trkpt>
      <trkpt lat="43.62615" lon="5.33475">
        <ele>306.39999389648</ele>
        <time>2022-03-19T15:36:44.000Z</time>
      </trkpt>
      <trkpt lat="43.62616" lon="5.33473">
        <ele>306.60000610352</ele>
        <time>2022-03-19T15:36:45.000Z</time>
      </trkpt>
      <trkpt lat="43.6262" lon="5.33473">
        <ele>307</ele>
        <time>2022-03-19T15:36:47.000Z</time>
      </trkpt>
      <trkpt lat="43.62622" lon="5.33473">
        <ele>307.20001220703</ele>
        <time>2022-03-19T15:36:48.000Z</time>
      </trkpt>
      <trkpt lat="43.62633" lon="5.33469">
        <ele>308.60000610352</ele>
        <time>2022-03-19T15:36:53.000Z</time>
      </trkpt>
      <trkpt lat="43.6264" lon="5.33453">
        <ele>308.60000610352</ele>
        <time>2022-03-19T15:36:58.000Z</time>
      </trkpt>
      <trkpt lat="43.62647" lon="5.3344">
        <ele>309.20001220703</ele>
        <time>2022-03-19T15:37:02.000Z</time>
      </trkpt>
      <trkpt lat="43.62647" lon="5.33438">
        <ele>309.20001220703</ele>
        <time>2022-03-19T15:37:03.000Z</time>
      </trkpt>
      <trkpt lat="43.62649" lon="5.3343">
        <ele>309</ele>
        <time>2022-03-19T15:37:06.000Z</time>
      </trkpt>
      <trkpt lat="43.62651" lon="5.33422">
        <ele>308.79998779297</ele>
        <time>2022-03-19T15:37:08.000Z</time>
      </trkpt>
      <trkpt lat="43.62651" lon="5.33405">
        <ele>307</ele>
        <time>2022-03-19T15:37:12.000Z</time>
      </trkpt>
      <trkpt lat="43.62648" lon="5.33367">
        <ele>304.20001220703</ele>
        <time>2022-03-19T15:37:20.000Z</time>
      </trkpt>
      <trkpt lat="43.62651" lon="5.33342">
        <ele>303.79998779297</ele>
        <time>2022-03-19T15:37:25.000Z</time>
      </trkpt>
      <trkpt lat="43.62661" lon="5.33327">
        <ele>305.20001220703</ele>
        <time>2022-03-19T15:37:29.000Z</time>
      </trkpt>
      <trkpt lat="43.6267" lon="5.33316">
        <ele>306.60000610352</ele>
        <time>2022-03-19T15:37:34.000Z</time>
      </trkpt>
      <trkpt lat="43.62684" lon="5.33302">
        <ele>308</ele>
        <time>2022-03-19T15:37:39.000Z</time>
      </trkpt>
      <trkpt lat="43.62694" lon="5.33286">
        <ele>307.79998779297</ele>
        <time>2022-03-19T15:37:43.000Z</time>
      </trkpt>
      <trkpt lat="43.62703" lon="5.33268">
        <ele>306.39999389648</ele>
        <time>2022-03-19T15:37:48.000Z</time>
      </trkpt>
      <trkpt lat="43.6271" lon="5.33262">
        <ele>305.79998779297</ele>
        <time>2022-03-19T15:37:52.000Z</time>
      </trkpt>
      <trkpt lat="43.62713" lon="5.33261">
        <ele>305.79998779297</ele>
        <time>2022-03-19T15:37:54.000Z</time>
      </trkpt>
      <trkpt lat="43.62716" lon="5.33256">
        <ele>305.60000610352</ele>
        <time>2022-03-19T15:37:56.000Z</time>
      </trkpt>
      <trkpt lat="43.62718" lon="5.33254">
        <ele>305.39999389648</ele>
        <time>2022-03-19T15:37:57.000Z</time>
      </trkpt>
      <trkpt lat="43.6272" lon="5.33251">
        <ele>305.20001220703</ele>
        <time>2022-03-19T15:37:58.000Z</time>
      </trkpt>
      <trkpt lat="43.62721" lon="5.33248">
        <ele>305</ele>
        <time>2022-03-19T15:37:59.000Z</time>
      </trkpt>
      <trkpt lat="43.62723" lon="5.33243">
        <ele>304.60000610352</ele>
        <time>2022-03-19T15:38:01.000Z</time>
      </trkpt>
      <trkpt lat="43.62729" lon="5.33237">
        <ele>304.60000610352</ele>
        <time>2022-03-19T15:38:03.000Z</time>
      </trkpt>
      <trkpt lat="43.62731" lon="5.33237">
        <ele>304.60000610352</ele>
        <time>2022-03-19T15:38:04.000Z</time>
      </trkpt>
      <trkpt lat="43.62733" lon="5.33236">
        <ele>304.60000610352</ele>
        <time>2022-03-19T15:38:05.000Z</time>
      </trkpt>
      <trkpt lat="43.62736" lon="5.33235">
        <ele>304.60000610352</ele>
        <time>2022-03-19T15:38:06.000Z</time>
      </trkpt>
      <trkpt lat="43.6274" lon="5.33235">
        <ele>304.79998779297</ele>
        <time>2022-03-19T15:38:07.000Z</time>
      </trkpt>
      <trkpt lat="43.62743" lon="5.33234">
        <ele>304.79998779297</ele>
        <time>2022-03-19T15:38:08.000Z</time>
      </trkpt>
      <trkpt lat="43.62758" lon="5.3323">
        <ele>305.20001220703</ele>
        <time>2022-03-19T15:38:12.000Z</time>
      </trkpt>
      <trkpt lat="43.62775" lon="5.33226">
        <ele>305.60000610352</ele>
        <time>2022-03-19T15:38:18.000Z</time>
      </trkpt>
      <trkpt lat="43.62787" lon="5.33225">
        <ele>306.20001220703</ele>
        <time>2022-03-19T15:38:22.000Z</time>
      </trkpt>
      <trkpt lat="43.6279" lon="5.33225">
        <ele>306.39999389648</ele>
        <time>2022-03-19T15:38:23.000Z</time>
      </trkpt>
      <trkpt lat="43.62804" lon="5.33223">
        <ele>308.60000610352</ele>
        <time>2022-03-19T15:38:28.000Z</time>
      </trkpt>
      <trkpt lat="43.62817" lon="5.33224">
        <ele>310</ele>
        <time>2022-03-19T15:38:33.000Z</time>
      </trkpt>
      <trkpt lat="43.62829" lon="5.33236">
        <ele>311.79998779297</ele>
        <time>2022-03-19T15:38:38.000Z</time>
      </trkpt>
      <trkpt lat="43.62832" lon="5.33237">
        <ele>312</ele>
        <time>2022-03-19T15:38:39.000Z</time>
      </trkpt>
      <trkpt lat="43.62835" lon="5.33238">
        <ele>312.39999389648</ele>
        <time>2022-03-19T15:38:40.000Z</time>
      </trkpt>
      <trkpt lat="43.62839" lon="5.3324">
        <ele>312.60000610352</ele>
        <time>2022-03-19T15:38:41.000Z</time>
      </trkpt>
      <trkpt lat="43.62842" lon="5.33242">
        <ele>312.79998779297</ele>
        <time>2022-03-19T15:38:42.000Z</time>
      </trkpt>
      <trkpt lat="43.62846" lon="5.33243">
        <ele>312.79998779297</ele>
        <time>2022-03-19T15:38:43.000Z</time>
      </trkpt>
      <trkpt lat="43.62849" lon="5.33245">
        <ele>313</ele>
        <time>2022-03-19T15:38:44.000Z</time>
      </trkpt>
      <trkpt lat="43.62851" lon="5.33247">
        <ele>313.20001220703</ele>
        <time>2022-03-19T15:38:45.000Z</time>
      </trkpt>
      <trkpt lat="43.62854" lon="5.33249">
        <ele>313.20001220703</ele>
        <time>2022-03-19T15:38:46.000Z</time>
      </trkpt>
      <trkpt lat="43.62857" lon="5.33249">
        <ele>313.20001220703</ele>
        <time>2022-03-19T15:38:47.000Z</time>
      </trkpt>
      <trkpt lat="43.6286" lon="5.33251">
        <ele>313.39999389648</ele>
        <time>2022-03-19T15:38:48.000Z</time>
      </trkpt>
      <trkpt lat="43.62866" lon="5.33258">
        <ele>313.79998779297</ele>
        <time>2022-03-19T15:38:51.000Z</time>
      </trkpt>
      <trkpt lat="43.62868" lon="5.3326">
        <ele>313.79998779297</ele>
        <time>2022-03-19T15:38:52.000Z</time>
      </trkpt>
      <trkpt lat="43.6287" lon="5.33264">
        <ele>314</ele>
        <time>2022-03-19T15:38:53.000Z</time>
      </trkpt>
      <trkpt lat="43.62873" lon="5.33267">
        <ele>314</ele>
        <time>2022-03-19T15:38:54.000Z</time>
      </trkpt>
      <trkpt lat="43.62875" lon="5.33272">
        <ele>314.20001220703</ele>
        <time>2022-03-19T15:38:55.000Z</time>
      </trkpt>
      <trkpt lat="43.62881" lon="5.33283">
        <ele>314.60000610352</ele>
        <time>2022-03-19T15:38:58.000Z</time>
      </trkpt>
      <trkpt lat="43.62884" lon="5.33287">
        <ele>314.60000610352</ele>
        <time>2022-03-19T15:38:59.000Z</time>
      </trkpt>
      <trkpt lat="43.62887" lon="5.33291">
        <ele>314.60000610352</ele>
        <time>2022-03-19T15:39:00.000Z</time>
      </trkpt>
      <trkpt lat="43.62889" lon="5.33296">
        <ele>314.79998779297</ele>
        <time>2022-03-19T15:39:01.000Z</time>
      </trkpt>
      <trkpt lat="43.6289" lon="5.33301">
        <ele>315.20001220703</ele>
        <time>2022-03-19T15:39:02.000Z</time>
      </trkpt>
      <trkpt lat="43.6289" lon="5.33306">
        <ele>315.60000610352</ele>
        <time>2022-03-19T15:39:03.000Z</time>
      </trkpt>
      <trkpt lat="43.6289" lon="5.33324">
        <ele>316.79998779297</ele>
        <time>2022-03-19T15:39:07.000Z</time>
      </trkpt>
      <trkpt lat="43.62889" lon="5.33328">
        <ele>317.20001220703</ele>
        <time>2022-03-19T15:39:08.000Z</time>
      </trkpt>
      <trkpt lat="43.62888" lon="5.33332">
        <ele>317.20001220703</ele>
        <time>2022-03-19T15:39:09.000Z</time>
      </trkpt>
      <trkpt lat="43.62888" lon="5.33336">
        <ele>317.39999389648</ele>
        <time>2022-03-19T15:39:10.000Z</time>
      </trkpt>
      <trkpt lat="43.62882" lon="5.33363">
        <ele>318.39999389648</ele>
        <time>2022-03-19T15:39:16.000Z</time>
      </trkpt>
      <trkpt lat="43.62882" lon="5.33368">
        <ele>318.60000610352</ele>
        <time>2022-03-19T15:39:17.000Z</time>
      </trkpt>
      <trkpt lat="43.62881" lon="5.33372">
        <ele>318.79998779297</ele>
        <time>2022-03-19T15:39:18.000Z</time>
      </trkpt>
      <trkpt lat="43.62881" lon="5.33378">
        <ele>319</ele>
        <time>2022-03-19T15:39:19.000Z</time>
      </trkpt>
      <trkpt lat="43.62881" lon="5.33382">
        <ele>319.20001220703</ele>
        <time>2022-03-19T15:39:20.000Z</time>
      </trkpt>
      <trkpt lat="43.62881" lon="5.33386">
        <ele>319.20001220703</ele>
        <time>2022-03-19T15:39:21.000Z</time>
      </trkpt>
      <trkpt lat="43.62881" lon="5.33395">
        <ele>319.20001220703</ele>
        <time>2022-03-19T15:39:23.000Z</time>
      </trkpt>
      <trkpt lat="43.62883" lon="5.33429">
        <ele>319.60000610352</ele>
        <time>2022-03-19T15:39:30.000Z</time>
      </trkpt>
      <trkpt lat="43.62884" lon="5.33444">
        <ele>319.79998779297</ele>
        <time>2022-03-19T15:39:33.000Z</time>
      </trkpt>
      <trkpt lat="43.62884" lon="5.33449">
        <ele>320.20001220703</ele>
        <time>2022-03-19T15:39:34.000Z</time>
      </trkpt>
      <trkpt lat="43.62884" lon="5.33453">
        <ele>320.60000610352</ele>
        <time>2022-03-19T15:39:35.000Z</time>
      </trkpt>
      <trkpt lat="43.62885" lon="5.33458">
        <ele>320.79998779297</ele>
        <time>2022-03-19T15:39:36.000Z</time>
      </trkpt>
      <trkpt lat="43.62884" lon="5.33463">
        <ele>321.20001220703</ele>
        <time>2022-03-19T15:39:37.000Z</time>
      </trkpt>
      <trkpt lat="43.62886" lon="5.33475">
        <ele>322</ele>
        <time>2022-03-19T15:39:40.000Z</time>
      </trkpt>
      <trkpt lat="43.62886" lon="5.3348">
        <ele>322.39999389648</ele>
        <time>2022-03-19T15:39:41.000Z</time>
      </trkpt>
      <trkpt lat="43.62886" lon="5.33484">
        <ele>322.60000610352</ele>
        <time>2022-03-19T15:39:42.000Z</time>
      </trkpt>
      <trkpt lat="43.62887" lon="5.33488">
        <ele>322.79998779297</ele>
        <time>2022-03-19T15:39:43.000Z</time>
      </trkpt>
      <trkpt lat="43.62887" lon="5.33492">
        <ele>323.20001220703</ele>
        <time>2022-03-19T15:39:44.000Z</time>
      </trkpt>
      <trkpt lat="43.62889" lon="5.33501">
        <ele>324</ele>
        <time>2022-03-19T15:39:47.000Z</time>
      </trkpt>
      <trkpt lat="43.6289" lon="5.33504">
        <ele>324.39999389648</ele>
        <time>2022-03-19T15:39:48.000Z</time>
      </trkpt>
      <trkpt lat="43.62891" lon="5.33507">
        <ele>324.79998779297</ele>
        <time>2022-03-19T15:39:49.000Z</time>
      </trkpt>
      <trkpt lat="43.62892" lon="5.3351">
        <ele>325.20001220703</ele>
        <time>2022-03-19T15:39:50.000Z</time>
      </trkpt>
      <trkpt lat="43.62892" lon="5.33513">
        <ele>325.39999389648</ele>
        <time>2022-03-19T15:39:51.000Z</time>
      </trkpt>
      <trkpt lat="43.62893" lon="5.33518">
        <ele>326.39999389648</ele>
        <time>2022-03-19T15:39:53.000Z</time>
      </trkpt>
      <trkpt lat="43.62893" lon="5.33522">
        <ele>327</ele>
        <time>2022-03-19T15:39:55.000Z</time>
      </trkpt>
      <trkpt lat="43.62891" lon="5.33522">
        <ele>327</ele>
        <time>2022-03-19T15:39:56.000Z</time>
      </trkpt>
      <trkpt lat="43.62889" lon="5.33522">
        <ele>327</ele>
        <time>2022-03-19T15:39:57.000Z</time>
      </trkpt>
      <trkpt lat="43.62887" lon="5.33521">
        <ele>326.79998779297</ele>
        <time>2022-03-19T15:39:58.000Z</time>
      </trkpt>
      <trkpt lat="43.62882" lon="5.3352">
        <ele>326.79998779297</ele>
        <time>2022-03-19T15:40:00.000Z</time>
      </trkpt>
      <trkpt lat="43.62879" lon="5.33519">
        <ele>326.60000610352</ele>
        <time>2022-03-19T15:40:01.000Z</time>
      </trkpt>
      <trkpt lat="43.6287" lon="5.33518">
        <ele>326.60000610352</ele>
        <time>2022-03-19T15:40:05.000Z</time>
      </trkpt>
      <trkpt lat="43.62868" lon="5.3352">
        <ele>326.79998779297</ele>
        <time>2022-03-19T15:40:06.000Z</time>
      </trkpt>
      <trkpt lat="43.62867" lon="5.33521">
        <ele>326.79998779297</ele>
        <time>2022-03-19T15:40:07.000Z</time>
      </trkpt>
      <trkpt lat="43.62866" lon="5.33525">
        <ele>327.20001220703</ele>
        <time>2022-03-19T15:40:08.000Z</time>
      </trkpt>
      <trkpt lat="43.62866" lon="5.33529">
        <ele>327.39999389648</ele>
        <time>2022-03-19T15:40:09.000Z</time>
      </trkpt>
      <trkpt lat="43.62867" lon="5.33533">
        <ele>327.60000610352</ele>
        <time>2022-03-19T15:40:10.000Z</time>
      </trkpt>
      <trkpt lat="43.62868" lon="5.33536">
        <ele>328</ele>
        <time>2022-03-19T15:40:11.000Z</time>
      </trkpt>
      <trkpt lat="43.6287" lon="5.3355">
        <ele>329</ele>
        <time>2022-03-19T15:40:15.000Z</time>
      </trkpt>
      <trkpt lat="43.62871" lon="5.33561">
        <ele>328.79998779297</ele>
        <time>2022-03-19T15:40:18.000Z</time>
      </trkpt>
      <trkpt lat="43.62872" lon="5.33564">
        <ele>328.79998779297</ele>
        <time>2022-03-19T15:40:19.000Z</time>
      </trkpt>
      <trkpt lat="43.62874" lon="5.33567">
        <ele>328.79998779297</ele>
        <time>2022-03-19T15:40:20.000Z</time>
      </trkpt>
      <trkpt lat="43.62876" lon="5.33571">
        <ele>328.60000610352</ele>
        <time>2022-03-19T15:40:21.000Z</time>
      </trkpt>
      <trkpt lat="43.62882" lon="5.33583">
        <ele>328.60000610352</ele>
        <time>2022-03-19T15:40:25.000Z</time>
      </trkpt>
      <trkpt lat="43.62882" lon="5.33586">
        <ele>328.60000610352</ele>
        <time>2022-03-19T15:40:26.000Z</time>
      </trkpt>
      <trkpt lat="43.62885" lon="5.33597">
        <ele>328.79998779297</ele>
        <time>2022-03-19T15:40:29.000Z</time>
      </trkpt>
      <trkpt lat="43.62889" lon="5.33605">
        <ele>328.79998779297</ele>
        <time>2022-03-19T15:40:33.000Z</time>
      </trkpt>
      <trkpt lat="43.62891" lon="5.33606">
        <ele>329</ele>
        <time>2022-03-19T15:40:34.000Z</time>
      </trkpt>
      <trkpt lat="43.62892" lon="5.33607">
        <ele>329</ele>
        <time>2022-03-19T15:40:35.000Z</time>
      </trkpt>
      <trkpt lat="43.62894" lon="5.33609">
        <ele>329</ele>
        <time>2022-03-19T15:40:36.000Z</time>
      </trkpt>
      <trkpt lat="43.62895" lon="5.33611">
        <ele>329</ele>
        <time>2022-03-19T15:40:37.000Z</time>
      </trkpt>
      <trkpt lat="43.62896" lon="5.33616">
        <ele>329.20001220703</ele>
        <time>2022-03-19T15:40:39.000Z</time>
      </trkpt>
      <trkpt lat="43.629" lon="5.33621">
        <ele>329.20001220703</ele>
        <time>2022-03-19T15:40:42.000Z</time>
      </trkpt>
      <trkpt lat="43.62905" lon="5.33622">
        <ele>329.39999389648</ele>
        <time>2022-03-19T15:40:44.000Z</time>
      </trkpt>
      <trkpt lat="43.6291" lon="5.33623">
        <ele>329.60000610352</ele>
        <time>2022-03-19T15:40:48.000Z</time>
      </trkpt>
      <trkpt lat="43.62911" lon="5.33624">
        <ele>329.60000610352</ele>
        <time>2022-03-19T15:40:49.000Z</time>
      </trkpt>
      <trkpt lat="43.62917" lon="5.33624">
        <ele>329.79998779297</ele>
        <time>2022-03-19T15:40:53.000Z</time>
      </trkpt>
      <trkpt lat="43.62918" lon="5.33625">
        <ele>330</ele>
        <time>2022-03-19T15:40:58.000Z</time>
      </trkpt>
      <trkpt lat="43.62918" lon="5.33625">
        <ele>330</ele>
        <time>2022-03-19T15:41:06.000Z</time>
      </trkpt>
      <trkpt lat="43.62918" lon="5.33625">
        <ele>330</ele>
        <time>2022-03-19T15:41:16.000Z</time>
      </trkpt>
      <trkpt lat="43.62918" lon="5.33625">
        <ele>330</ele>
        <time>2022-03-19T15:41:29.000Z</time>
      </trkpt>
      <trkpt lat="43.62918" lon="5.33625">
        <ele>330</ele>
        <time>2022-03-19T15:41:33.000Z</time>
      </trkpt>
      <trkpt lat="43.62918" lon="5.33625">
        <ele>330</ele>
        <time>2022-03-19T15:41:41.000Z</time>
      </trkpt>
      <trkpt lat="43.62918" lon="5.33625">
        <ele>330</ele>
        <time>2022-03-19T15:41:50.000Z</time>
      </trkpt>
      <trkpt lat="43.62918" lon="5.33625">
        <ele>330</ele>
        <time>2022-03-19T15:41:56.000Z</time>
      </trkpt>
      <trkpt lat="43.62918" lon="5.33625">
        <ele>330</ele>
        <time>2022-03-19T15:41:57.000Z</time>
      </trkpt>
      <trkpt lat="43.62918" lon="5.33625">
        <ele>330</ele>
        <time>2022-03-19T15:41:58.000Z</time>
      </trkpt>
      <trkpt lat="43.62918" lon="5.33625">
        <ele>330</ele>
        <time>2022-03-19T15:41:59.000Z</time>
      </trkpt>
      <trkpt lat="43.62918" lon="5.33624">
        <ele>330</ele>
        <time>2022-03-19T15:42:00.000Z</time>
      </trkpt>
      <trkpt lat="43.62918" lon="5.33624">
        <ele>330</ele>
        <time>2022-03-19T15:42:01.000Z</time>
      </trkpt>
      <trkpt lat="43.62918" lon="5.33624">
        <ele>330</ele>
        <time>2022-03-19T15:42:11.000Z</time>
      </trkpt>
      <trkpt lat="43.62918" lon="5.33624">
        <ele>330</ele>
        <time>2022-03-19T15:42:22.000Z</time>
      </trkpt>
      <trkpt lat="43.62918" lon="5.33624">
        <ele>330</ele>
        <time>2022-03-19T15:42:35.000Z</time>
      </trkpt>
      <trkpt lat="43.62918" lon="5.33624">
        <ele>330</ele>
        <time>2022-03-19T15:42:44.000Z</time>
      </trkpt>
      <trkpt lat="43.62918" lon="5.33624">
        <ele>330</ele>
        <time>2022-03-19T15:42:58.000Z</time>
      </trkpt>
      <trkpt lat="43.62918" lon="5.33624">
        <ele>330</ele>
        <time>2022-03-19T15:43:09.000Z</time>
      </trkpt>
      <trkpt lat="43.62919" lon="5.33624">
        <ele>330</ele>
        <time>2022-03-19T15:43:21.000Z</time>
      </trkpt>
      <trkpt lat="43.62919" lon="5.33624">
        <ele>330</ele>
        <time>2022-03-19T15:43:34.000Z</time>
      </trkpt>
      <trkpt lat="43.62919" lon="5.33624">
        <ele>330</ele>
        <time>2022-03-19T15:43:42.000Z</time>
      </trkpt>
      <trkpt lat="43.62919" lon="5.33624">
        <ele>330</ele>
        <time>2022-03-19T15:43:54.000Z</time>
      </trkpt>
      <trkpt lat="43.62924" lon="5.33626">
        <ele>330.39999389648</ele>
        <time>2022-03-19T15:43:59.000Z</time>
      </trkpt>
      <trkpt lat="43.62935" lon="5.33622">
        <ele>331.60000610352</ele>
        <time>2022-03-19T15:44:04.000Z</time>
      </trkpt>
      <trkpt lat="43.62944" lon="5.33617">
        <ele>332</ele>
        <time>2022-03-19T15:44:09.000Z</time>
      </trkpt>
      <trkpt lat="43.62945" lon="5.33617">
        <ele>332.20001220703</ele>
        <time>2022-03-19T15:44:10.000Z</time>
      </trkpt>
      <trkpt lat="43.62946" lon="5.33616">
        <ele>332.20001220703</ele>
        <time>2022-03-19T15:44:11.000Z</time>
      </trkpt>
      <trkpt lat="43.62948" lon="5.33616">
        <ele>332.20001220703</ele>
        <time>2022-03-19T15:44:12.000Z</time>
      </trkpt>
      <trkpt lat="43.6295" lon="5.33614">
        <ele>332.39999389648</ele>
        <time>2022-03-19T15:44:13.000Z</time>
      </trkpt>
      <trkpt lat="43.62952" lon="5.33612">
        <ele>332.39999389648</ele>
        <time>2022-03-19T15:44:14.000Z</time>
      </trkpt>
      <trkpt lat="43.62962" lon="5.33602">
        <ele>333.39999389648</ele>
        <time>2022-03-19T15:44:19.000Z</time>
      </trkpt>
      <trkpt lat="43.62964" lon="5.336">
        <ele>333.60000610352</ele>
        <time>2022-03-19T15:44:20.000Z</time>
      </trkpt>
      <trkpt lat="43.62965" lon="5.33597">
        <ele>333.79998779297</ele>
        <time>2022-03-19T15:44:21.000Z</time>
      </trkpt>
      <trkpt lat="43.62968" lon="5.33596">
        <ele>334</ele>
        <time>2022-03-19T15:44:22.000Z</time>
      </trkpt>
      <trkpt lat="43.62971" lon="5.33594">
        <ele>334.20001220703</ele>
        <time>2022-03-19T15:44:23.000Z</time>
      </trkpt>
      <trkpt lat="43.62973" lon="5.33593">
        <ele>334.39999389648</ele>
        <time>2022-03-19T15:44:24.000Z</time>
      </trkpt>
      <trkpt lat="43.62975" lon="5.33589">
        <ele>334.39999389648</ele>
        <time>2022-03-19T15:44:25.000Z</time>
      </trkpt>
      <trkpt lat="43.62977" lon="5.33581">
        <ele>334.20001220703</ele>
        <time>2022-03-19T15:44:27.000Z</time>
      </trkpt>
      <trkpt lat="43.62981" lon="5.33561">
        <ele>334.60000610352</ele>
        <time>2022-03-19T15:44:31.000Z</time>
      </trkpt>
      <trkpt lat="43.62982" lon="5.33555">
        <ele>334.60000610352</ele>
        <time>2022-03-19T15:44:32.000Z</time>
      </trkpt>
      <trkpt lat="43.6299" lon="5.33532">
        <ele>334.60000610352</ele>
        <time>2022-03-19T15:44:37.000Z</time>
      </trkpt>
      <trkpt lat="43.63002" lon="5.33505">
        <ele>334.60000610352</ele>
        <time>2022-03-19T15:44:42.000Z</time>
      </trkpt>
      <trkpt lat="43.63019" lon="5.33478">
        <ele>334.39999389648</ele>
        <time>2022-03-19T15:44:48.000Z</time>
      </trkpt>
      <trkpt lat="43.63027" lon="5.33466">
        <ele>334.39999389648</ele>
        <time>2022-03-19T15:44:51.000Z</time>
      </trkpt>
      <trkpt lat="43.63034" lon="5.33457">
        <ele>334.60000610352</ele>
        <time>2022-03-19T15:44:53.000Z</time>
      </trkpt>
      <trkpt lat="43.63057" lon="5.33429">
        <ele>335.79998779297</ele>
        <time>2022-03-19T15:44:59.000Z</time>
      </trkpt>
      <trkpt lat="43.63079" lon="5.33394">
        <ele>335</ele>
        <time>2022-03-19T15:45:05.000Z</time>
      </trkpt>
      <trkpt lat="43.63099" lon="5.33364">
        <ele>334.79998779297</ele>
        <time>2022-03-19T15:45:10.000Z</time>
      </trkpt>
      <trkpt lat="43.63102" lon="5.33358">
        <ele>334.79998779297</ele>
        <time>2022-03-19T15:45:11.000Z</time>
      </trkpt>
      <trkpt lat="43.63106" lon="5.33352">
        <ele>334.60000610352</ele>
        <time>2022-03-19T15:45:12.000Z</time>
      </trkpt>
      <trkpt lat="43.63109" lon="5.33346">
        <ele>334.79998779297</ele>
        <time>2022-03-19T15:45:13.000Z</time>
      </trkpt>
      <trkpt lat="43.63113" lon="5.33339">
        <ele>335</ele>
        <time>2022-03-19T15:45:14.000Z</time>
      </trkpt>
      <trkpt lat="43.63125" lon="5.33311">
        <ele>334.39999389648</ele>
        <time>2022-03-19T15:45:18.000Z</time>
      </trkpt>
      <trkpt lat="43.63131" lon="5.33287">
        <ele>334.39999389648</ele>
        <time>2022-03-19T15:45:21.000Z</time>
      </trkpt>
      <trkpt lat="43.63134" lon="5.33281">
        <ele>334.79998779297</ele>
        <time>2022-03-19T15:45:22.000Z</time>
      </trkpt>
      <trkpt lat="43.63137" lon="5.33276">
        <ele>335.20001220703</ele>
        <time>2022-03-19T15:45:23.000Z</time>
      </trkpt>
      <trkpt lat="43.63148" lon="5.33257">
        <ele>336.20001220703</ele>
        <time>2022-03-19T15:45:26.000Z</time>
      </trkpt>
      <trkpt lat="43.63162" lon="5.33235">
        <ele>335.60000610352</ele>
        <time>2022-03-19T15:45:30.000Z</time>
      </trkpt>
      <trkpt lat="43.63165" lon="5.33229">
        <ele>335.79998779297</ele>
        <time>2022-03-19T15:45:31.000Z</time>
      </trkpt>
      <trkpt lat="43.63169" lon="5.33223">
        <ele>336</ele>
        <time>2022-03-19T15:45:32.000Z</time>
      </trkpt>
      <trkpt lat="43.63185" lon="5.33199">
        <ele>333.79998779297</ele>
        <time>2022-03-19T15:45:36.000Z</time>
      </trkpt>
      <trkpt lat="43.63194" lon="5.33188">
        <ele>333.60000610352</ele>
        <time>2022-03-19T15:45:38.000Z</time>
      </trkpt>
      <trkpt lat="43.63198" lon="5.33182">
        <ele>333.39999389648</ele>
        <time>2022-03-19T15:45:39.000Z</time>
      </trkpt>
      <trkpt lat="43.63202" lon="5.33176">
        <ele>333.20001220703</ele>
        <time>2022-03-19T15:45:40.000Z</time>
      </trkpt>
      <trkpt lat="43.63204" lon="5.33168">
        <ele>333</ele>
        <time>2022-03-19T15:45:41.000Z</time>
      </trkpt>
      <trkpt lat="43.63207" lon="5.33159">
        <ele>332.60000610352</ele>
        <time>2022-03-19T15:45:42.000Z</time>
      </trkpt>
      <trkpt lat="43.6321" lon="5.33149">
        <ele>332.39999389648</ele>
        <time>2022-03-19T15:45:43.000Z</time>
      </trkpt>
      <trkpt lat="43.63213" lon="5.3314">
        <ele>332.39999389648</ele>
        <time>2022-03-19T15:45:44.000Z</time>
      </trkpt>
      <trkpt lat="43.63216" lon="5.3313">
        <ele>332.39999389648</ele>
        <time>2022-03-19T15:45:45.000Z</time>
      </trkpt>
      <trkpt lat="43.6322" lon="5.33121">
        <ele>332.39999389648</ele>
        <time>2022-03-19T15:45:46.000Z</time>
      </trkpt>
      <trkpt lat="43.63225" lon="5.33114">
        <ele>332.39999389648</ele>
        <time>2022-03-19T15:45:47.000Z</time>
      </trkpt>
      <trkpt lat="43.63231" lon="5.33107">
        <ele>332.60000610352</ele>
        <time>2022-03-19T15:45:48.000Z</time>
      </trkpt>
      <trkpt lat="43.63235" lon="5.33099">
        <ele>332.39999389648</ele>
        <time>2022-03-19T15:45:49.000Z</time>
      </trkpt>
      <trkpt lat="43.63239" lon="5.33092">
        <ele>332.39999389648</ele>
        <time>2022-03-19T15:45:50.000Z</time>
      </trkpt>
      <trkpt lat="43.6324" lon="5.33083">
        <ele>332.20001220703</ele>
        <time>2022-03-19T15:45:51.000Z</time>
      </trkpt>
      <trkpt lat="43.63233" lon="5.33062">
        <ele>330.39999389648</ele>
        <time>2022-03-19T15:45:54.000Z</time>
      </trkpt>
      <trkpt lat="43.63224" lon="5.33051">
        <ele>329</ele>
        <time>2022-03-19T15:45:56.000Z</time>
      </trkpt>
      <trkpt lat="43.63211" lon="5.33033">
        <ele>329.20001220703</ele>
        <time>2022-03-19T15:45:59.000Z</time>
      </trkpt>
      <trkpt lat="43.6319" lon="5.33012">
        <ele>329.79998779297</ele>
        <time>2022-03-19T15:46:04.000Z</time>
      </trkpt>
      <trkpt lat="43.63172" lon="5.32995">
        <ele>331</ele>
        <time>2022-03-19T15:46:09.000Z</time>
      </trkpt>
      <trkpt lat="43.63165" lon="5.32987">
        <ele>331.20001220703</ele>
        <time>2022-03-19T15:46:11.000Z</time>
      </trkpt>
      <trkpt lat="43.63159" lon="5.32979">
        <ele>331.20001220703</ele>
        <time>2022-03-19T15:46:13.000Z</time>
      </trkpt>
      <trkpt lat="43.63157" lon="5.32976">
        <ele>331.20001220703</ele>
        <time>2022-03-19T15:46:14.000Z</time>
      </trkpt>
      <trkpt lat="43.63156" lon="5.32974">
        <ele>331.20001220703</ele>
        <time>2022-03-19T15:46:15.000Z</time>
      </trkpt>
      <trkpt lat="43.63154" lon="5.3297">
        <ele>331.39999389648</ele>
        <time>2022-03-19T15:46:16.000Z</time>
      </trkpt>
      <trkpt lat="43.63154" lon="5.32968">
        <ele>331.39999389648</ele>
        <time>2022-03-19T15:46:17.000Z</time>
      </trkpt>
      <trkpt lat="43.63152" lon="5.32966">
        <ele>331.39999389648</ele>
        <time>2022-03-19T15:46:18.000Z</time>
      </trkpt>
      <trkpt lat="43.6315" lon="5.32964">
        <ele>331.20001220703</ele>
        <time>2022-03-19T15:46:19.000Z</time>
      </trkpt>
      <trkpt lat="43.63148" lon="5.3296">
        <ele>331</ele>
        <time>2022-03-19T15:46:20.000Z</time>
      </trkpt>
      <trkpt lat="43.63148" lon="5.32952">
        <ele>330.60000610352</ele>
        <time>2022-03-19T15:46:22.000Z</time>
      </trkpt>
      <trkpt lat="43.63152" lon="5.32938">
        <ele>330.60000610352</ele>
        <time>2022-03-19T15:46:25.000Z</time>
      </trkpt>
      <trkpt lat="43.63153" lon="5.32934">
        <ele>330.79998779297</ele>
        <time>2022-03-19T15:46:26.000Z</time>
      </trkpt>
      <trkpt lat="43.63161" lon="5.32915">
        <ele>331.39999389648</ele>
        <time>2022-03-19T15:46:30.000Z</time>
      </trkpt>
      <trkpt lat="43.63164" lon="5.32911">
        <ele>331.60000610352</ele>
        <time>2022-03-19T15:46:31.000Z</time>
      </trkpt>
      <trkpt lat="43.63167" lon="5.32907">
        <ele>331.60000610352</ele>
        <time>2022-03-19T15:46:32.000Z</time>
      </trkpt>
      <trkpt lat="43.63169" lon="5.32903">
        <ele>331.79998779297</ele>
        <time>2022-03-19T15:46:33.000Z</time>
      </trkpt>
      <trkpt lat="43.63176" lon="5.32888">
        <ele>332.39999389648</ele>
        <time>2022-03-19T15:46:36.000Z</time>
      </trkpt>
      <trkpt lat="43.63186" lon="5.32868">
        <ele>332.79998779297</ele>
        <time>2022-03-19T15:46:41.000Z</time>
      </trkpt>
      <trkpt lat="43.6319" lon="5.32843">
        <ele>332.39999389648</ele>
        <time>2022-03-19T15:46:46.000Z</time>
      </trkpt>
      <trkpt lat="43.63188" lon="5.32841">
        <ele>332</ele>
        <time>2022-03-19T15:46:47.000Z</time>
      </trkpt>
      <trkpt lat="43.63187" lon="5.32838">
        <ele>331.79998779297</ele>
        <time>2022-03-19T15:46:48.000Z</time>
      </trkpt>
      <trkpt lat="43.63187" lon="5.32833">
        <ele>331.60000610352</ele>
        <time>2022-03-19T15:46:49.000Z</time>
      </trkpt>
      <trkpt lat="43.63187" lon="5.32828">
        <ele>331.39999389648</ele>
        <time>2022-03-19T15:46:50.000Z</time>
      </trkpt>
      <trkpt lat="43.63187" lon="5.32822">
        <ele>331</ele>
        <time>2022-03-19T15:46:51.000Z</time>
      </trkpt>
      <trkpt lat="43.6319" lon="5.32806">
        <ele>331.39999389648</ele>
        <time>2022-03-19T15:46:54.000Z</time>
      </trkpt>
      <trkpt lat="43.63195" lon="5.32795">
        <ele>331.79998779297</ele>
        <time>2022-03-19T15:46:56.000Z</time>
      </trkpt>
      <trkpt lat="43.63205" lon="5.32768">
        <ele>330.60000610352</ele>
        <time>2022-03-19T15:47:01.000Z</time>
      </trkpt>
      <trkpt lat="43.63209" lon="5.32759">
        <ele>330.60000610352</ele>
        <time>2022-03-19T15:47:03.000Z</time>
      </trkpt>
      <trkpt lat="43.63214" lon="5.32749">
        <ele>330.39999389648</ele>
        <time>2022-03-19T15:47:07.000Z</time>
      </trkpt>
      <trkpt lat="43.63215" lon="5.32748">
        <ele>330.60000610352</ele>
        <time>2022-03-19T15:47:08.000Z</time>
      </trkpt>
      <trkpt lat="43.63218" lon="5.32745">
        <ele>330.79998779297</ele>
        <time>2022-03-19T15:47:11.000Z</time>
      </trkpt>
      <trkpt lat="43.63218" lon="5.32739">
        <ele>330.20001220703</ele>
        <time>2022-03-19T15:47:13.000Z</time>
      </trkpt>
      <trkpt lat="43.63218" lon="5.32734">
        <ele>330</ele>
        <time>2022-03-19T15:47:14.000Z</time>
      </trkpt>
      <trkpt lat="43.63217" lon="5.32726">
        <ele>329.39999389648</ele>
        <time>2022-03-19T15:47:15.000Z</time>
      </trkpt>
      <trkpt lat="43.63216" lon="5.32717">
        <ele>329</ele>
        <time>2022-03-19T15:47:16.000Z</time>
      </trkpt>
      <trkpt lat="43.63215" lon="5.32707">
        <ele>328.20001220703</ele>
        <time>2022-03-19T15:47:17.000Z</time>
      </trkpt>
      <trkpt lat="43.63213" lon="5.32697">
        <ele>327.20001220703</ele>
        <time>2022-03-19T15:47:18.000Z</time>
      </trkpt>
      <trkpt lat="43.63213" lon="5.32687">
        <ele>326.60000610352</ele>
        <time>2022-03-19T15:47:19.000Z</time>
      </trkpt>
      <trkpt lat="43.63213" lon="5.32679">
        <ele>326.20001220703</ele>
        <time>2022-03-19T15:47:20.000Z</time>
      </trkpt>
      <trkpt lat="43.63211" lon="5.32672">
        <ele>325.60000610352</ele>
        <time>2022-03-19T15:47:21.000Z</time>
      </trkpt>
      <trkpt lat="43.63208" lon="5.32666">
        <ele>324.60000610352</ele>
        <time>2022-03-19T15:47:22.000Z</time>
      </trkpt>
      <trkpt lat="43.63204" lon="5.3266">
        <ele>323.79998779297</ele>
        <time>2022-03-19T15:47:25.000Z</time>
      </trkpt>
      <trkpt lat="43.63203" lon="5.32659">
        <ele>323.60000610352</ele>
        <time>2022-03-19T15:47:26.000Z</time>
      </trkpt>
      <trkpt lat="43.63197" lon="5.32654">
        <ele>322.79998779297</ele>
        <time>2022-03-19T15:47:30.000Z</time>
      </trkpt>
      <trkpt lat="43.63193" lon="5.32648">
        <ele>322.39999389648</ele>
        <time>2022-03-19T15:47:32.000Z</time>
      </trkpt>
      <trkpt lat="43.63192" lon="5.32642">
        <ele>322.39999389648</ele>
        <time>2022-03-19T15:47:34.000Z</time>
      </trkpt>
      <trkpt lat="43.6319" lon="5.32624">
        <ele>322.39999389648</ele>
        <time>2022-03-19T15:47:40.000Z</time>
      </trkpt>
      <trkpt lat="43.63189" lon="5.32621">
        <ele>322.60000610352</ele>
        <time>2022-03-19T15:47:41.000Z</time>
      </trkpt>
      <trkpt lat="43.63191" lon="5.32618">
        <ele>322.79998779297</ele>
        <time>2022-03-19T15:47:42.000Z</time>
      </trkpt>
      <trkpt lat="43.63192" lon="5.32615">
        <ele>323</ele>
        <time>2022-03-19T15:47:43.000Z</time>
      </trkpt>
      <trkpt lat="43.63194" lon="5.32612">
        <ele>323.39999389648</ele>
        <time>2022-03-19T15:47:44.000Z</time>
      </trkpt>
      <trkpt lat="43.63195" lon="5.32608">
        <ele>323.60000610352</ele>
        <time>2022-03-19T15:47:45.000Z</time>
      </trkpt>
      <trkpt lat="43.632" lon="5.32591">
        <ele>324.20001220703</ele>
        <time>2022-03-19T15:47:50.000Z</time>
      </trkpt>
      <trkpt lat="43.63206" lon="5.32574">
        <ele>325</ele>
        <time>2022-03-19T15:47:55.000Z</time>
      </trkpt>
      <trkpt lat="43.63216" lon="5.32556">
        <ele>325.39999389648</ele>
        <time>2022-03-19T15:48:00.000Z</time>
      </trkpt>
      <trkpt lat="43.63224" lon="5.3253">
        <ele>324.39999389648</ele>
        <time>2022-03-19T15:48:06.000Z</time>
      </trkpt>
      <trkpt lat="43.63227" lon="5.32522">
        <ele>324</ele>
        <time>2022-03-19T15:48:08.000Z</time>
      </trkpt>
      <trkpt lat="43.6323" lon="5.32514">
        <ele>324</ele>
        <time>2022-03-19T15:48:10.000Z</time>
      </trkpt>
      <trkpt lat="43.63233" lon="5.32501">
        <ele>323.60000610352</ele>
        <time>2022-03-19T15:48:14.000Z</time>
      </trkpt>
      <trkpt lat="43.63234" lon="5.32499">
        <ele>323.39999389648</ele>
        <time>2022-03-19T15:48:15.000Z</time>
      </trkpt>
      <trkpt lat="43.63234" lon="5.32492">
        <ele>323</ele>
        <time>2022-03-19T15:48:17.000Z</time>
      </trkpt>
      <trkpt lat="43.63236" lon="5.32487">
        <ele>323.20001220703</ele>
        <time>2022-03-19T15:48:19.000Z</time>
      </trkpt>
      <trkpt lat="43.6324" lon="5.32477">
        <ele>323.60000610352</ele>
        <time>2022-03-19T15:48:23.000Z</time>
      </trkpt>
      <trkpt lat="43.63246" lon="5.32474">
        <ele>324.60000610352</ele>
        <time>2022-03-19T15:48:25.000Z</time>
      </trkpt>
      <trkpt lat="43.63255" lon="5.3247">
        <ele>326</ele>
        <time>2022-03-19T15:48:28.000Z</time>
      </trkpt>
      <trkpt lat="43.63268" lon="5.32458">
        <ele>327.20001220703</ele>
        <time>2022-03-19T15:48:33.000Z</time>
      </trkpt>
      <trkpt lat="43.63277" lon="5.32436">
        <ele>327.60000610352</ele>
        <time>2022-03-19T15:48:38.000Z</time>
      </trkpt>
      <trkpt lat="43.6328" lon="5.32432">
        <ele>327.79998779297</ele>
        <time>2022-03-19T15:48:39.000Z</time>
      </trkpt>
      <trkpt lat="43.63287" lon="5.3243">
        <ele>328.39999389648</ele>
        <time>2022-03-19T15:48:41.000Z</time>
      </trkpt>
      <trkpt lat="43.6329" lon="5.3243">
        <ele>328.60000610352</ele>
        <time>2022-03-19T15:48:42.000Z</time>
      </trkpt>
      <trkpt lat="43.63293" lon="5.3243">
        <ele>328.79998779297</ele>
        <time>2022-03-19T15:48:43.000Z</time>
      </trkpt>
      <trkpt lat="43.63297" lon="5.32427">
        <ele>329</ele>
        <time>2022-03-19T15:48:44.000Z</time>
      </trkpt>
      <trkpt lat="43.63299" lon="5.32422">
        <ele>328.79998779297</ele>
        <time>2022-03-19T15:48:45.000Z</time>
      </trkpt>
      <trkpt lat="43.63316" lon="5.32401">
        <ele>327</ele>
        <time>2022-03-19T15:48:50.000Z</time>
      </trkpt>
      <trkpt lat="43.63333" lon="5.32386">
        <ele>326</ele>
        <time>2022-03-19T15:48:54.000Z</time>
      </trkpt>
      <trkpt lat="43.63337" lon="5.32382">
        <ele>326</ele>
        <time>2022-03-19T15:48:55.000Z</time>
      </trkpt>
      <trkpt lat="43.6336" lon="5.32354">
        <ele>325</ele>
        <time>2022-03-19T15:49:00.000Z</time>
      </trkpt>
      <trkpt lat="43.63365" lon="5.32347">
        <ele>324.60000610352</ele>
        <time>2022-03-19T15:49:01.000Z</time>
      </trkpt>
      <trkpt lat="43.63369" lon="5.3234">
        <ele>324.60000610352</ele>
        <time>2022-03-19T15:49:02.000Z</time>
      </trkpt>
      <trkpt lat="43.63374" lon="5.32334">
        <ele>324.60000610352</ele>
        <time>2022-03-19T15:49:03.000Z</time>
      </trkpt>
      <trkpt lat="43.63379" lon="5.32328">
        <ele>324.39999389648</ele>
        <time>2022-03-19T15:49:04.000Z</time>
      </trkpt>
      <trkpt lat="43.63384" lon="5.32323">
        <ele>324.20001220703</ele>
        <time>2022-03-19T15:49:05.000Z</time>
      </trkpt>
      <trkpt lat="43.63389" lon="5.32317">
        <ele>323.79998779297</ele>
        <time>2022-03-19T15:49:06.000Z</time>
      </trkpt>
      <trkpt lat="43.63395" lon="5.32313">
        <ele>323.20001220703</ele>
        <time>2022-03-19T15:49:07.000Z</time>
      </trkpt>
      <trkpt lat="43.63401" lon="5.32309">
        <ele>323</ele>
        <time>2022-03-19T15:49:08.000Z</time>
      </trkpt>
      <trkpt lat="43.63416" lon="5.32296">
        <ele>323.20001220703</ele>
        <time>2022-03-19T15:49:11.000Z</time>
      </trkpt>
      <trkpt lat="43.6342" lon="5.3229">
        <ele>322.79998779297</ele>
        <time>2022-03-19T15:49:12.000Z</time>
      </trkpt>
      <trkpt lat="43.63424" lon="5.32285">
        <ele>322.39999389648</ele>
        <time>2022-03-19T15:49:13.000Z</time>
      </trkpt>
      <trkpt lat="43.63427" lon="5.32278">
        <ele>321.79998779297</ele>
        <time>2022-03-19T15:49:14.000Z</time>
      </trkpt>
      <trkpt lat="43.63431" lon="5.32272">
        <ele>321.60000610352</ele>
        <time>2022-03-19T15:49:15.000Z</time>
      </trkpt>
      <trkpt lat="43.63434" lon="5.32264">
        <ele>321.39999389648</ele>
        <time>2022-03-19T15:49:16.000Z</time>
      </trkpt>
      <trkpt lat="43.63455" lon="5.32228">
        <ele>320.20001220703</ele>
        <time>2022-03-19T15:49:22.000Z</time>
      </trkpt>
      <trkpt lat="43.63467" lon="5.32228">
        <ele>321.20001220703</ele>
        <time>2022-03-19T15:49:25.000Z</time>
      </trkpt>
      <trkpt lat="43.6348" lon="5.32223">
        <ele>321.60000610352</ele>
        <time>2022-03-19T15:49:29.000Z</time>
      </trkpt>
      <trkpt lat="43.63495" lon="5.32208">
        <ele>322.39999389648</ele>
        <time>2022-03-19T15:49:33.000Z</time>
      </trkpt>
      <trkpt lat="43.63509" lon="5.32182">
        <ele>322.20001220703</ele>
        <time>2022-03-19T15:49:38.000Z</time>
      </trkpt>
      <trkpt lat="43.63522" lon="5.32165">
        <ele>322.39999389648</ele>
        <time>2022-03-19T15:49:43.000Z</time>
      </trkpt>
      <trkpt lat="43.63535" lon="5.32147">
        <ele>323</ele>
        <time>2022-03-19T15:49:48.000Z</time>
      </trkpt>
      <trkpt lat="43.63539" lon="5.32124">
        <ele>323</ele>
        <time>2022-03-19T15:49:52.000Z</time>
      </trkpt>
      <trkpt lat="43.63541" lon="5.3212">
        <ele>322.79998779297</ele>
        <time>2022-03-19T15:49:53.000Z</time>
      </trkpt>
      <trkpt lat="43.63547" lon="5.32103">
        <ele>323.20001220703</ele>
        <time>2022-03-19T15:49:57.000Z</time>
      </trkpt>
      <trkpt lat="43.6355" lon="5.32085">
        <ele>323.79998779297</ele>
        <time>2022-03-19T15:50:00.000Z</time>
      </trkpt>
      <trkpt lat="43.63549" lon="5.32078">
        <ele>324</ele>
        <time>2022-03-19T15:50:01.000Z</time>
      </trkpt>
      <trkpt lat="43.63549" lon="5.32071">
        <ele>323.60000610352</ele>
        <time>2022-03-19T15:50:02.000Z</time>
      </trkpt>
      <trkpt lat="43.63548" lon="5.32048">
        <ele>323.39999389648</ele>
        <time>2022-03-19T15:50:06.000Z</time>
      </trkpt>
      <trkpt lat="43.63548" lon="5.32006">
        <ele>323.60000610352</ele>
        <time>2022-03-19T15:50:13.000Z</time>
      </trkpt>
      <trkpt lat="43.63548" lon="5.31978">
        <ele>323.20001220703</ele>
        <time>2022-03-19T15:50:18.000Z</time>
      </trkpt>
      <trkpt lat="43.63545" lon="5.31957">
        <ele>323.39999389648</ele>
        <time>2022-03-19T15:50:22.000Z</time>
      </trkpt>
      <trkpt lat="43.63542" lon="5.31954">
        <ele>323.20001220703</ele>
        <time>2022-03-19T15:50:23.000Z</time>
      </trkpt>
      <trkpt lat="43.63532" lon="5.31946">
        <ele>322.79998779297</ele>
        <time>2022-03-19T15:50:27.000Z</time>
      </trkpt>
      <trkpt lat="43.63531" lon="5.31942">
        <ele>322.79998779297</ele>
        <time>2022-03-19T15:50:28.000Z</time>
      </trkpt>
      <trkpt lat="43.6353" lon="5.31939">
        <ele>323</ele>
        <time>2022-03-19T15:50:29.000Z</time>
      </trkpt>
      <trkpt lat="43.6353" lon="5.31933">
        <ele>323.20001220703</ele>
        <time>2022-03-19T15:50:30.000Z</time>
      </trkpt>
      <trkpt lat="43.63531" lon="5.31929">
        <ele>323.39999389648</ele>
        <time>2022-03-19T15:50:31.000Z</time>
      </trkpt>
      <trkpt lat="43.63533" lon="5.31925">
        <ele>323.60000610352</ele>
        <time>2022-03-19T15:50:32.000Z</time>
      </trkpt>
      <trkpt lat="43.63534" lon="5.31904">
        <ele>324</ele>
        <time>2022-03-19T15:50:36.000Z</time>
      </trkpt>
      <trkpt lat="43.63538" lon="5.31883">
        <ele>324.20001220703</ele>
        <time>2022-03-19T15:50:41.000Z</time>
      </trkpt>
      <trkpt lat="43.63543" lon="5.31857">
        <ele>323.39999389648</ele>
        <time>2022-03-19T15:50:46.000Z</time>
      </trkpt>
      <trkpt lat="43.63544" lon="5.31851">
        <ele>323.20001220703</ele>
        <time>2022-03-19T15:50:47.000Z</time>
      </trkpt>
      <trkpt lat="43.63546" lon="5.31845">
        <ele>323</ele>
        <time>2022-03-19T15:50:48.000Z</time>
      </trkpt>
      <trkpt lat="43.63547" lon="5.31838">
        <ele>323</ele>
        <time>2022-03-19T15:50:49.000Z</time>
      </trkpt>
      <trkpt lat="43.63547" lon="5.31833">
        <ele>322.79998779297</ele>
        <time>2022-03-19T15:50:50.000Z</time>
      </trkpt>
      <trkpt lat="43.63548" lon="5.31827">
        <ele>322.60000610352</ele>
        <time>2022-03-19T15:50:51.000Z</time>
      </trkpt>
      <trkpt lat="43.63549" lon="5.31821">
        <ele>321.79998779297</ele>
        <time>2022-03-19T15:50:52.000Z</time>
      </trkpt>
      <trkpt lat="43.63551" lon="5.31814">
        <ele>321.39999389648</ele>
        <time>2022-03-19T15:50:53.000Z</time>
      </trkpt>
      <trkpt lat="43.63551" lon="5.31808">
        <ele>320.79998779297</ele>
        <time>2022-03-19T15:50:54.000Z</time>
      </trkpt>
      <trkpt lat="43.63552" lon="5.31801">
        <ele>320.39999389648</ele>
        <time>2022-03-19T15:50:55.000Z</time>
      </trkpt>
      <trkpt lat="43.63553" lon="5.31794">
        <ele>320.39999389648</ele>
        <time>2022-03-19T15:50:56.000Z</time>
      </trkpt>
      <trkpt lat="43.63553" lon="5.31789">
        <ele>319.79998779297</ele>
        <time>2022-03-19T15:50:57.000Z</time>
      </trkpt>
      <trkpt lat="43.63554" lon="5.31782">
        <ele>319</ele>
        <time>2022-03-19T15:50:58.000Z</time>
      </trkpt>
      <trkpt lat="43.63554" lon="5.31776">
        <ele>318.39999389648</ele>
        <time>2022-03-19T15:50:59.000Z</time>
      </trkpt>
      <trkpt lat="43.63555" lon="5.3177">
        <ele>317.79998779297</ele>
        <time>2022-03-19T15:51:00.000Z</time>
      </trkpt>
      <trkpt lat="43.63556" lon="5.31755">
        <ele>317.39999389648</ele>
        <time>2022-03-19T15:51:02.000Z</time>
      </trkpt>
      <trkpt lat="43.63557" lon="5.31747">
        <ele>317</ele>
        <time>2022-03-19T15:51:03.000Z</time>
      </trkpt>
      <trkpt lat="43.63558" lon="5.31742">
        <ele>317</ele>
        <time>2022-03-19T15:51:04.000Z</time>
      </trkpt>
      <trkpt lat="43.63559" lon="5.31736">
        <ele>317</ele>
        <time>2022-03-19T15:51:05.000Z</time>
      </trkpt>
      <trkpt lat="43.63558" lon="5.31717">
        <ele>317</ele>
        <time>2022-03-19T15:51:08.000Z</time>
      </trkpt>
      <trkpt lat="43.63558" lon="5.31711">
        <ele>317.20001220703</ele>
        <time>2022-03-19T15:51:09.000Z</time>
      </trkpt>
      <trkpt lat="43.63557" lon="5.31696">
        <ele>317.60000610352</ele>
        <time>2022-03-19T15:51:13.000Z</time>
      </trkpt>
      <trkpt lat="43.63559" lon="5.3169">
        <ele>318</ele>
        <time>2022-03-19T15:51:14.000Z</time>
      </trkpt>
      <trkpt lat="43.6356" lon="5.31684">
        <ele>317.79998779297</ele>
        <time>2022-03-19T15:51:15.000Z</time>
      </trkpt>
      <trkpt lat="43.63561" lon="5.31677">
        <ele>317.39999389648</ele>
        <time>2022-03-19T15:51:16.000Z</time>
      </trkpt>
      <trkpt lat="43.63562" lon="5.31669">
        <ele>317</ele>
        <time>2022-03-19T15:51:17.000Z</time>
      </trkpt>
      <trkpt lat="43.63563" lon="5.31663">
        <ele>316.79998779297</ele>
        <time>2022-03-19T15:51:18.000Z</time>
      </trkpt>
      <trkpt lat="43.63566" lon="5.3164">
        <ele>315</ele>
        <time>2022-03-19T15:51:21.000Z</time>
      </trkpt>
      <trkpt lat="43.6357" lon="5.31616">
        <ele>313.60000610352</ele>
        <time>2022-03-19T15:51:25.000Z</time>
      </trkpt>
      <trkpt lat="43.63571" lon="5.3161">
        <ele>313.20001220703</ele>
        <time>2022-03-19T15:51:26.000Z</time>
      </trkpt>
      <trkpt lat="43.63576" lon="5.31592">
        <ele>312.20001220703</ele>
        <time>2022-03-19T15:51:29.000Z</time>
      </trkpt>
      <trkpt lat="43.63576" lon="5.31586">
        <ele>311.79998779297</ele>
        <time>2022-03-19T15:51:30.000Z</time>
      </trkpt>
      <trkpt lat="43.63582" lon="5.31554">
        <ele>309.39999389648</ele>
        <time>2022-03-19T15:51:35.000Z</time>
      </trkpt>
      <trkpt lat="43.63585" lon="5.31547">
        <ele>309</ele>
        <time>2022-03-19T15:51:36.000Z</time>
      </trkpt>
      <trkpt lat="43.63591" lon="5.31533">
        <ele>308.79998779297</ele>
        <time>2022-03-19T15:51:39.000Z</time>
      </trkpt>
      <trkpt lat="43.63598" lon="5.31519">
        <ele>307.60000610352</ele>
        <time>2022-03-19T15:51:42.000Z</time>
      </trkpt>
      <trkpt lat="43.63601" lon="5.31511">
        <ele>307.20001220703</ele>
        <time>2022-03-19T15:51:43.000Z</time>
      </trkpt>
      <trkpt lat="43.63602" lon="5.31502">
        <ele>307</ele>
        <time>2022-03-19T15:51:44.000Z</time>
      </trkpt>
      <trkpt lat="43.63603" lon="5.31492">
        <ele>306.79998779297</ele>
        <time>2022-03-19T15:51:45.000Z</time>
      </trkpt>
      <trkpt lat="43.63604" lon="5.31483">
        <ele>306.79998779297</ele>
        <time>2022-03-19T15:51:46.000Z</time>
      </trkpt>
      <trkpt lat="43.63605" lon="5.31474">
        <ele>306.79998779297</ele>
        <time>2022-03-19T15:51:47.000Z</time>
      </trkpt>
      <trkpt lat="43.63607" lon="5.31465">
        <ele>306.60000610352</ele>
        <time>2022-03-19T15:51:48.000Z</time>
      </trkpt>
      <trkpt lat="43.63608" lon="5.31457">
        <ele>306.60000610352</ele>
        <time>2022-03-19T15:51:49.000Z</time>
      </trkpt>
      <trkpt lat="43.63611" lon="5.31448">
        <ele>306.79998779297</ele>
        <time>2022-03-19T15:51:50.000Z</time>
      </trkpt>
      <trkpt lat="43.63613" lon="5.31435">
        <ele>307</ele>
        <time>2022-03-19T15:51:52.000Z</time>
      </trkpt>
      <trkpt lat="43.63618" lon="5.31409">
        <ele>307</ele>
        <time>2022-03-19T15:51:56.000Z</time>
      </trkpt>
      <trkpt lat="43.63617" lon="5.31398">
        <ele>307.39999389648</ele>
        <time>2022-03-19T15:51:58.000Z</time>
      </trkpt>
      <trkpt lat="43.63617" lon="5.31385">
        <ele>308</ele>
        <time>2022-03-19T15:52:00.000Z</time>
      </trkpt>
      <trkpt lat="43.63617" lon="5.31374">
        <ele>308</ele>
        <time>2022-03-19T15:52:02.000Z</time>
      </trkpt>
      <trkpt lat="43.63618" lon="5.31366">
        <ele>308</ele>
        <time>2022-03-19T15:52:03.000Z</time>
      </trkpt>
      <trkpt lat="43.6362" lon="5.31351">
        <ele>308.20001220703</ele>
        <time>2022-03-19T15:52:05.000Z</time>
      </trkpt>
      <trkpt lat="43.63621" lon="5.31343">
        <ele>308.20001220703</ele>
        <time>2022-03-19T15:52:06.000Z</time>
      </trkpt>
      <trkpt lat="43.63622" lon="5.31335">
        <ele>308.20001220703</ele>
        <time>2022-03-19T15:52:07.000Z</time>
      </trkpt>
      <trkpt lat="43.63622" lon="5.31328">
        <ele>308.20001220703</ele>
        <time>2022-03-19T15:52:08.000Z</time>
      </trkpt>
      <trkpt lat="43.63623" lon="5.3132">
        <ele>308</ele>
        <time>2022-03-19T15:52:09.000Z</time>
      </trkpt>
      <trkpt lat="43.63625" lon="5.31312">
        <ele>307.79998779297</ele>
        <time>2022-03-19T15:52:10.000Z</time>
      </trkpt>
      <trkpt lat="43.63626" lon="5.31304">
        <ele>307.60000610352</ele>
        <time>2022-03-19T15:52:11.000Z</time>
      </trkpt>
      <trkpt lat="43.63627" lon="5.31296">
        <ele>307.20001220703</ele>
        <time>2022-03-19T15:52:12.000Z</time>
      </trkpt>
      <trkpt lat="43.63628" lon="5.3129">
        <ele>306.79998779297</ele>
        <time>2022-03-19T15:52:13.000Z</time>
      </trkpt>
      <trkpt lat="43.63631" lon="5.31283">
        <ele>306.39999389648</ele>
        <time>2022-03-19T15:52:14.000Z</time>
      </trkpt>
      <trkpt lat="43.63633" lon="5.31276">
        <ele>306</ele>
        <time>2022-03-19T15:52:15.000Z</time>
      </trkpt>
      <trkpt lat="43.63638" lon="5.3126">
        <ele>304</ele>
        <time>2022-03-19T15:52:17.000Z</time>
      </trkpt>
      <trkpt lat="43.63641" lon="5.31251">
        <ele>302.79998779297</ele>
        <time>2022-03-19T15:52:18.000Z</time>
      </trkpt>
      <trkpt lat="43.63645" lon="5.31242">
        <ele>301.60000610352</ele>
        <time>2022-03-19T15:52:19.000Z</time>
      </trkpt>
      <trkpt lat="43.63648" lon="5.31232">
        <ele>300.60000610352</ele>
        <time>2022-03-19T15:52:20.000Z</time>
      </trkpt>
      <trkpt lat="43.63651" lon="5.31224">
        <ele>299.79998779297</ele>
        <time>2022-03-19T15:52:21.000Z</time>
      </trkpt>
      <trkpt lat="43.63652" lon="5.31215">
        <ele>298.79998779297</ele>
        <time>2022-03-19T15:52:22.000Z</time>
      </trkpt>
      <trkpt lat="43.63653" lon="5.31204">
        <ele>298</ele>
        <time>2022-03-19T15:52:23.000Z</time>
      </trkpt>
      <trkpt lat="43.63655" lon="5.31194">
        <ele>297.39999389648</ele>
        <time>2022-03-19T15:52:24.000Z</time>
      </trkpt>
      <trkpt lat="43.63657" lon="5.31184">
        <ele>297</ele>
        <time>2022-03-19T15:52:25.000Z</time>
      </trkpt>
      <trkpt lat="43.63663" lon="5.31148">
        <ele>296.20001220703</ele>
        <time>2022-03-19T15:52:29.000Z</time>
      </trkpt>
      <trkpt lat="43.63665" lon="5.31131">
        <ele>296.20001220703</ele>
        <time>2022-03-19T15:52:31.000Z</time>
      </trkpt>
      <trkpt lat="43.63669" lon="5.31108">
        <ele>296</ele>
        <time>2022-03-19T15:52:34.000Z</time>
      </trkpt>
      <trkpt lat="43.63672" lon="5.311">
        <ele>295.79998779297</ele>
        <time>2022-03-19T15:52:35.000Z</time>
      </trkpt>
      <trkpt lat="43.63676" lon="5.31084">
        <ele>295.60000610352</ele>
        <time>2022-03-19T15:52:37.000Z</time>
      </trkpt>
      <trkpt lat="43.63679" lon="5.31076">
        <ele>295.79998779297</ele>
        <time>2022-03-19T15:52:38.000Z</time>
      </trkpt>
      <trkpt lat="43.63681" lon="5.31068">
        <ele>296</ele>
        <time>2022-03-19T15:52:39.000Z</time>
      </trkpt>
      <trkpt lat="43.63683" lon="5.31059">
        <ele>296.20001220703</ele>
        <time>2022-03-19T15:52:40.000Z</time>
      </trkpt>
      <trkpt lat="43.63686" lon="5.31051">
        <ele>296.39999389648</ele>
        <time>2022-03-19T15:52:41.000Z</time>
      </trkpt>
      <trkpt lat="43.6369" lon="5.31033">
        <ele>296.60000610352</ele>
        <time>2022-03-19T15:52:43.000Z</time>
      </trkpt>
      <trkpt lat="43.63699" lon="5.31001">
        <ele>297.79998779297</ele>
        <time>2022-03-19T15:52:47.000Z</time>
      </trkpt>
      <trkpt lat="43.63705" lon="5.30974">
        <ele>297.60000610352</ele>
        <time>2022-03-19T15:52:50.000Z</time>
      </trkpt>
      <trkpt lat="43.63709" lon="5.30958">
        <ele>297.79998779297</ele>
        <time>2022-03-19T15:52:52.000Z</time>
      </trkpt>
      <trkpt lat="43.63717" lon="5.30927">
        <ele>297.79998779297</ele>
        <time>2022-03-19T15:52:56.000Z</time>
      </trkpt>
      <trkpt lat="43.63719" lon="5.30919">
        <ele>298.20001220703</ele>
        <time>2022-03-19T15:52:57.000Z</time>
      </trkpt>
      <trkpt lat="43.63725" lon="5.30903">
        <ele>298.39999389648</ele>
        <time>2022-03-19T15:52:59.000Z</time>
      </trkpt>
      <trkpt lat="43.63729" lon="5.30888">
        <ele>298.39999389648</ele>
        <time>2022-03-19T15:53:01.000Z</time>
      </trkpt>
      <trkpt lat="43.63734" lon="5.30859">
        <ele>298.79998779297</ele>
        <time>2022-03-19T15:53:05.000Z</time>
      </trkpt>
      <trkpt lat="43.6374" lon="5.30837">
        <ele>298.20001220703</ele>
        <time>2022-03-19T15:53:08.000Z</time>
      </trkpt>
      <trkpt lat="43.63746" lon="5.30827">
        <ele>297.79998779297</ele>
        <time>2022-03-19T15:53:10.000Z</time>
      </trkpt>
      <trkpt lat="43.63758" lon="5.3082">
        <ele>296.79998779297</ele>
        <time>2022-03-19T15:53:13.000Z</time>
      </trkpt>
      <trkpt lat="43.63763" lon="5.30816">
        <ele>296.39999389648</ele>
        <time>2022-03-19T15:53:14.000Z</time>
      </trkpt>
      <trkpt lat="43.63773" lon="5.30812">
        <ele>295.39999389648</ele>
        <time>2022-03-19T15:53:16.000Z</time>
      </trkpt>
      <trkpt lat="43.63778" lon="5.30811">
        <ele>294.79998779297</ele>
        <time>2022-03-19T15:53:17.000Z</time>
      </trkpt>
      <trkpt lat="43.63783" lon="5.30815">
        <ele>294.39999389648</ele>
        <time>2022-03-19T15:53:18.000Z</time>
      </trkpt>
      <trkpt lat="43.63787" lon="5.30819">
        <ele>294.39999389648</ele>
        <time>2022-03-19T15:53:19.000Z</time>
      </trkpt>
      <trkpt lat="43.63791" lon="5.30823">
        <ele>294.39999389648</ele>
        <time>2022-03-19T15:53:20.000Z</time>
      </trkpt>
      <trkpt lat="43.63796" lon="5.30826">
        <ele>294.39999389648</ele>
        <time>2022-03-19T15:53:21.000Z</time>
      </trkpt>
      <trkpt lat="43.63801" lon="5.3083">
        <ele>294.20001220703</ele>
        <time>2022-03-19T15:53:22.000Z</time>
      </trkpt>
      <trkpt lat="43.63807" lon="5.30838">
        <ele>294</ele>
        <time>2022-03-19T15:53:23.000Z</time>
      </trkpt>
      <trkpt lat="43.63812" lon="5.30844">
        <ele>293.79998779297</ele>
        <time>2022-03-19T15:53:24.000Z</time>
      </trkpt>
      <trkpt lat="43.63817" lon="5.30851">
        <ele>293.39999389648</ele>
        <time>2022-03-19T15:53:25.000Z</time>
      </trkpt>
      <trkpt lat="43.63831" lon="5.3087">
        <ele>293</ele>
        <time>2022-03-19T15:53:28.000Z</time>
      </trkpt>
      <trkpt lat="43.63834" lon="5.30875">
        <ele>293</ele>
        <time>2022-03-19T15:53:29.000Z</time>
      </trkpt>
      <trkpt lat="43.6384" lon="5.30882">
        <ele>292.60000610352</ele>
        <time>2022-03-19T15:53:30.000Z</time>
      </trkpt>
      <trkpt lat="43.63844" lon="5.30887">
        <ele>292.39999389648</ele>
        <time>2022-03-19T15:53:31.000Z</time>
      </trkpt>
      <trkpt lat="43.63867" lon="5.30907">
        <ele>290.79998779297</ele>
        <time>2022-03-19T15:53:36.000Z</time>
      </trkpt>
      <trkpt lat="43.63872" lon="5.3091">
        <ele>290.39999389648</ele>
        <time>2022-03-19T15:53:37.000Z</time>
      </trkpt>
      <trkpt lat="43.63886" lon="5.30923">
        <ele>289.79998779297</ele>
        <time>2022-03-19T15:53:40.000Z</time>
      </trkpt>
      <trkpt lat="43.63891" lon="5.30926">
        <ele>289.60000610352</ele>
        <time>2022-03-19T15:53:41.000Z</time>
      </trkpt>
      <trkpt lat="43.63895" lon="5.30928">
        <ele>289.39999389648</ele>
        <time>2022-03-19T15:53:42.000Z</time>
      </trkpt>
      <trkpt lat="43.63904" lon="5.30925">
        <ele>288.60000610352</ele>
        <time>2022-03-19T15:53:44.000Z</time>
      </trkpt>
      <trkpt lat="43.63908" lon="5.30922">
        <ele>288</ele>
        <time>2022-03-19T15:53:47.000Z</time>
      </trkpt>
      <trkpt lat="43.63922" lon="5.30921">
        <ele>286.60000610352</ele>
        <time>2022-03-19T15:53:52.000Z</time>
      </trkpt>
      <trkpt lat="43.63936" lon="5.30935">
        <ele>286.60000610352</ele>
        <time>2022-03-19T15:53:56.000Z</time>
      </trkpt>
      <trkpt lat="43.63957" lon="5.30952">
        <ele>285.79998779297</ele>
        <time>2022-03-19T15:54:02.000Z</time>
      </trkpt>
      <trkpt lat="43.63959" lon="5.30954">
        <ele>285.79998779297</ele>
        <time>2022-03-19T15:54:03.000Z</time>
      </trkpt>
      <trkpt lat="43.63961" lon="5.30955">
        <ele>285.60000610352</ele>
        <time>2022-03-19T15:54:04.000Z</time>
      </trkpt>
      <trkpt lat="43.6396" lon="5.30955">
        <ele>285.60000610352</ele>
        <time>2022-03-19T15:54:05.000Z</time>
      </trkpt>
      <trkpt lat="43.6396" lon="5.30955">
        <ele>285.60000610352</ele>
        <time>2022-03-19T15:54:06.000Z</time>
      </trkpt>
      <trkpt lat="43.6396" lon="5.30955">
        <ele>285.60000610352</ele>
        <time>2022-03-19T15:54:17.000Z</time>
      </trkpt>
      <trkpt lat="43.6396" lon="5.30955">
        <ele>285.60000610352</ele>
        <time>2022-03-19T15:54:23.000Z</time>
      </trkpt>
      <trkpt lat="43.6396" lon="5.30955">
        <ele>285.60000610352</ele>
        <time>2022-03-19T15:54:34.000Z</time>
      </trkpt>
      <trkpt lat="43.6396" lon="5.30955">
        <ele>285.60000610352</ele>
        <time>2022-03-19T15:54:44.000Z</time>
      </trkpt>
      <trkpt lat="43.6396" lon="5.30954">
        <ele>285.60000610352</ele>
        <time>2022-03-19T15:54:54.000Z</time>
      </trkpt>
      <trkpt lat="43.6396" lon="5.30954">
        <ele>285.60000610352</ele>
        <time>2022-03-19T15:55:01.000Z</time>
      </trkpt>
      <trkpt lat="43.6396" lon="5.30954">
        <ele>285.60000610352</ele>
        <time>2022-03-19T15:55:14.000Z</time>
      </trkpt>
      <trkpt lat="43.63961" lon="5.30954">
        <ele>285.60000610352</ele>
        <time>2022-03-19T15:55:28.000Z</time>
      </trkpt>
      <trkpt lat="43.63961" lon="5.30954">
        <ele>285.60000610352</ele>
        <time>2022-03-19T15:55:42.000Z</time>
      </trkpt>
      <trkpt lat="43.63961" lon="5.30954">
        <ele>285.60000610352</ele>
        <time>2022-03-19T15:55:56.000Z</time>
      </trkpt>
      <trkpt lat="43.63961" lon="5.30954">
        <ele>285.60000610352</ele>
        <time>2022-03-19T15:56:10.000Z</time>
      </trkpt>
      <trkpt lat="43.63961" lon="5.30954">
        <ele>285.60000610352</ele>
        <time>2022-03-19T15:56:24.000Z</time>
      </trkpt>
      <trkpt lat="43.63963" lon="5.30952">
        <ele>285.39999389648</ele>
        <time>2022-03-19T15:56:33.000Z</time>
      </trkpt>
      <trkpt lat="43.63963" lon="5.3095">
        <ele>285.39999389648</ele>
        <time>2022-03-19T15:56:34.000Z</time>
      </trkpt>
      <trkpt lat="43.63959" lon="5.30941">
        <ele>285.60000610352</ele>
        <time>2022-03-19T15:56:38.000Z</time>
      </trkpt>
      <trkpt lat="43.63961" lon="5.30922">
        <ele>284.39999389648</ele>
        <time>2022-03-19T15:56:42.000Z</time>
      </trkpt>
      <trkpt lat="43.63962" lon="5.30907">
        <ele>283.60000610352</ele>
        <time>2022-03-19T15:56:44.000Z</time>
      </trkpt>
      <trkpt lat="43.63963" lon="5.30899">
        <ele>283</ele>
        <time>2022-03-19T15:56:45.000Z</time>
      </trkpt>
      <trkpt lat="43.63965" lon="5.30891">
        <ele>282.60000610352</ele>
        <time>2022-03-19T15:56:46.000Z</time>
      </trkpt>
      <trkpt lat="43.63966" lon="5.30882">
        <ele>281.79998779297</ele>
        <time>2022-03-19T15:56:47.000Z</time>
      </trkpt>
      <trkpt lat="43.63968" lon="5.30873">
        <ele>281.39999389648</ele>
        <time>2022-03-19T15:56:48.000Z</time>
      </trkpt>
      <trkpt lat="43.6397" lon="5.30862">
        <ele>281</ele>
        <time>2022-03-19T15:56:49.000Z</time>
      </trkpt>
      <trkpt lat="43.63972" lon="5.30851">
        <ele>280.60000610352</ele>
        <time>2022-03-19T15:56:50.000Z</time>
      </trkpt>
      <trkpt lat="43.63974" lon="5.30841">
        <ele>280</ele>
        <time>2022-03-19T15:56:51.000Z</time>
      </trkpt>
      <trkpt lat="43.63976" lon="5.30832">
        <ele>279.20001220703</ele>
        <time>2022-03-19T15:56:52.000Z</time>
      </trkpt>
      <trkpt lat="43.63978" lon="5.30822">
        <ele>278.39999389648</ele>
        <time>2022-03-19T15:56:53.000Z</time>
      </trkpt>
      <trkpt lat="43.6398" lon="5.30812">
        <ele>277.39999389648</ele>
        <time>2022-03-19T15:56:54.000Z</time>
      </trkpt>
      <trkpt lat="43.6398" lon="5.30803">
        <ele>276.39999389648</ele>
        <time>2022-03-19T15:56:55.000Z</time>
      </trkpt>
      <trkpt lat="43.63982" lon="5.30792">
        <ele>275.60000610352</ele>
        <time>2022-03-19T15:56:56.000Z</time>
      </trkpt>
      <trkpt lat="43.63984" lon="5.30782">
        <ele>275</ele>
        <time>2022-03-19T15:56:57.000Z</time>
      </trkpt>
      <trkpt lat="43.63986" lon="5.30771">
        <ele>274</ele>
        <time>2022-03-19T15:56:58.000Z</time>
      </trkpt>
      <trkpt lat="43.63988" lon="5.30761">
        <ele>273.20001220703</ele>
        <time>2022-03-19T15:56:59.000Z</time>
      </trkpt>
      <trkpt lat="43.6399" lon="5.3075">
        <ele>272</ele>
        <time>2022-03-19T15:57:00.000Z</time>
      </trkpt>
      <trkpt lat="43.63992" lon="5.30739">
        <ele>271</ele>
        <time>2022-03-19T15:57:01.000Z</time>
      </trkpt>
      <trkpt lat="43.63994" lon="5.30729">
        <ele>270</ele>
        <time>2022-03-19T15:57:02.000Z</time>
      </trkpt>
      <trkpt lat="43.63997" lon="5.30719">
        <ele>268.79998779297</ele>
        <time>2022-03-19T15:57:03.000Z</time>
      </trkpt>
      <trkpt lat="43.64" lon="5.30709">
        <ele>267.60000610352</ele>
        <time>2022-03-19T15:57:04.000Z</time>
      </trkpt>
      <trkpt lat="43.64004" lon="5.30699">
        <ele>266.79998779297</ele>
        <time>2022-03-19T15:57:05.000Z</time>
      </trkpt>
      <trkpt lat="43.64008" lon="5.3069">
        <ele>266</ele>
        <time>2022-03-19T15:57:06.000Z</time>
      </trkpt>
      <trkpt lat="43.64012" lon="5.3068">
        <ele>265.60000610352</ele>
        <time>2022-03-19T15:57:07.000Z</time>
      </trkpt>
      <trkpt lat="43.64015" lon="5.3067">
        <ele>265.20001220703</ele>
        <time>2022-03-19T15:57:08.000Z</time>
      </trkpt>
      <trkpt lat="43.64017" lon="5.3066">
        <ele>264.60000610352</ele>
        <time>2022-03-19T15:57:09.000Z</time>
      </trkpt>
      <trkpt lat="43.6402" lon="5.3064">
        <ele>264.79998779297</ele>
        <time>2022-03-19T15:57:11.000Z</time>
      </trkpt>
      <trkpt lat="43.64022" lon="5.3063">
        <ele>265.20001220703</ele>
        <time>2022-03-19T15:57:12.000Z</time>
      </trkpt>
      <trkpt lat="43.64023" lon="5.30621">
        <ele>265.39999389648</ele>
        <time>2022-03-19T15:57:13.000Z</time>
      </trkpt>
      <trkpt lat="43.64024" lon="5.30612">
        <ele>265.20001220703</ele>
        <time>2022-03-19T15:57:14.000Z</time>
      </trkpt>
      <trkpt lat="43.64025" lon="5.30603">
        <ele>265.39999389648</ele>
        <time>2022-03-19T15:57:15.000Z</time>
      </trkpt>
      <trkpt lat="43.64029" lon="5.30576">
        <ele>265.20001220703</ele>
        <time>2022-03-19T15:57:18.000Z</time>
      </trkpt>
      <trkpt lat="43.64038" lon="5.30522">
        <ele>264.39999389648</ele>
        <time>2022-03-19T15:57:24.000Z</time>
      </trkpt>
      <trkpt lat="43.6404" lon="5.30513">
        <ele>264.79998779297</ele>
        <time>2022-03-19T15:57:25.000Z</time>
      </trkpt>
      <trkpt lat="43.64044" lon="5.30489">
        <ele>266.39999389648</ele>
        <time>2022-03-19T15:57:28.000Z</time>
      </trkpt>
      <trkpt lat="43.64048" lon="5.30475">
        <ele>267.60000610352</ele>
        <time>2022-03-19T15:57:30.000Z</time>
      </trkpt>
      <trkpt lat="43.64055" lon="5.30455">
        <ele>268.39999389648</ele>
        <time>2022-03-19T15:57:33.000Z</time>
      </trkpt>
      <trkpt lat="43.64063" lon="5.30446">
        <ele>267.79998779297</ele>
        <time>2022-03-19T15:57:35.000Z</time>
      </trkpt>
      <trkpt lat="43.64075" lon="5.30438">
        <ele>267.39999389648</ele>
        <time>2022-03-19T15:57:37.000Z</time>
      </trkpt>
      <trkpt lat="43.64086" lon="5.3043">
        <ele>266.79998779297</ele>
        <time>2022-03-19T15:57:39.000Z</time>
      </trkpt>
      <trkpt lat="43.64105" lon="5.30417">
        <ele>265</ele>
        <time>2022-03-19T15:57:42.000Z</time>
      </trkpt>
      <trkpt lat="43.64112" lon="5.30412">
        <ele>264.39999389648</ele>
        <time>2022-03-19T15:57:43.000Z</time>
      </trkpt>
      <trkpt lat="43.64119" lon="5.30407">
        <ele>263.79998779297</ele>
        <time>2022-03-19T15:57:44.000Z</time>
      </trkpt>
      <trkpt lat="43.64126" lon="5.30402">
        <ele>263</ele>
        <time>2022-03-19T15:57:45.000Z</time>
      </trkpt>
      <trkpt lat="43.64133" lon="5.30396">
        <ele>262.60000610352</ele>
        <time>2022-03-19T15:57:46.000Z</time>
      </trkpt>
      <trkpt lat="43.6414" lon="5.30391">
        <ele>262.60000610352</ele>
        <time>2022-03-19T15:57:47.000Z</time>
      </trkpt>
      <trkpt lat="43.64147" lon="5.30385">
        <ele>262.20001220703</ele>
        <time>2022-03-19T15:57:48.000Z</time>
      </trkpt>
      <trkpt lat="43.64153" lon="5.3038">
        <ele>261.79998779297</ele>
        <time>2022-03-19T15:57:49.000Z</time>
      </trkpt>
      <trkpt lat="43.64158" lon="5.30374">
        <ele>261.20001220703</ele>
        <time>2022-03-19T15:57:50.000Z</time>
      </trkpt>
      <trkpt lat="43.64161" lon="5.30367">
        <ele>261.20001220703</ele>
        <time>2022-03-19T15:57:51.000Z</time>
      </trkpt>
      <trkpt lat="43.64163" lon="5.30359">
        <ele>261.60000610352</ele>
        <time>2022-03-19T15:57:52.000Z</time>
      </trkpt>
      <trkpt lat="43.64163" lon="5.3035">
        <ele>261.79998779297</ele>
        <time>2022-03-19T15:57:53.000Z</time>
      </trkpt>
      <trkpt lat="43.64161" lon="5.30333">
        <ele>262</ele>
        <time>2022-03-19T15:57:56.000Z</time>
      </trkpt>
      <trkpt lat="43.64161" lon="5.30318">
        <ele>261.39999389648</ele>
        <time>2022-03-19T15:57:59.000Z</time>
      </trkpt>
      <trkpt lat="43.64165" lon="5.30312">
        <ele>260.79998779297</ele>
        <time>2022-03-19T15:58:00.000Z</time>
      </trkpt>
      <trkpt lat="43.64169" lon="5.30307">
        <ele>260.39999389648</ele>
        <time>2022-03-19T15:58:01.000Z</time>
      </trkpt>
      <trkpt lat="43.64174" lon="5.30301">
        <ele>259.79998779297</ele>
        <time>2022-03-19T15:58:02.000Z</time>
      </trkpt>
      <trkpt lat="43.64178" lon="5.30295">
        <ele>259</ele>
        <time>2022-03-19T15:58:03.000Z</time>
      </trkpt>
      <trkpt lat="43.64183" lon="5.30289">
        <ele>257.79998779297</ele>
        <time>2022-03-19T15:58:04.000Z</time>
      </trkpt>
      <trkpt lat="43.64188" lon="5.30283">
        <ele>257.20001220703</ele>
        <time>2022-03-19T15:58:05.000Z</time>
      </trkpt>
      <trkpt lat="43.64193" lon="5.30277">
        <ele>256.60000610352</ele>
        <time>2022-03-19T15:58:06.000Z</time>
      </trkpt>
      <trkpt lat="43.64198" lon="5.3027">
        <ele>256</ele>
        <time>2022-03-19T15:58:07.000Z</time>
      </trkpt>
      <trkpt lat="43.64202" lon="5.30263">
        <ele>255.60000610352</ele>
        <time>2022-03-19T15:58:08.000Z</time>
      </trkpt>
      <trkpt lat="43.64207" lon="5.30258">
        <ele>255.39999389648</ele>
        <time>2022-03-19T15:58:09.000Z</time>
      </trkpt>
      <trkpt lat="43.64211" lon="5.30253">
        <ele>255.39999389648</ele>
        <time>2022-03-19T15:58:10.000Z</time>
      </trkpt>
      <trkpt lat="43.64215" lon="5.3025">
        <ele>255.19999694824</ele>
        <time>2022-03-19T15:58:11.000Z</time>
      </trkpt>
      <trkpt lat="43.64219" lon="5.30246">
        <ele>255</ele>
        <time>2022-03-19T15:58:13.000Z</time>
      </trkpt>
      <trkpt lat="43.64231" lon="5.30238">
        <ele>254.80000305176</ele>
        <time>2022-03-19T15:58:17.000Z</time>
      </trkpt>
      <trkpt lat="43.64238" lon="5.30233">
        <ele>254.60000610352</ele>
        <time>2022-03-19T15:58:19.000Z</time>
      </trkpt>
      <trkpt lat="43.64246" lon="5.30225">
        <ele>254.80000305176</ele>
        <time>2022-03-19T15:58:21.000Z</time>
      </trkpt>
      <trkpt lat="43.64249" lon="5.30221">
        <ele>254.80000305176</ele>
        <time>2022-03-19T15:58:22.000Z</time>
      </trkpt>
      <trkpt lat="43.64264" lon="5.30197">
        <ele>255</ele>
        <time>2022-03-19T15:58:27.000Z</time>
      </trkpt>
      <trkpt lat="43.64281" lon="5.3017">
        <ele>256.60000610352</ele>
        <time>2022-03-19T15:58:32.000Z</time>
      </trkpt>
      <trkpt lat="43.64287" lon="5.30167">
        <ele>256.39999389648</ele>
        <time>2022-03-19T15:58:33.000Z</time>
      </trkpt>
      <trkpt lat="43.6431" lon="5.30153">
        <ele>257.20001220703</ele>
        <time>2022-03-19T15:58:38.000Z</time>
      </trkpt>
      <trkpt lat="43.64315" lon="5.30151">
        <ele>256.60000610352</ele>
        <time>2022-03-19T15:58:39.000Z</time>
      </trkpt>
      <trkpt lat="43.6432" lon="5.3015">
        <ele>255.80000305176</ele>
        <time>2022-03-19T15:58:40.000Z</time>
      </trkpt>
      <trkpt lat="43.64331" lon="5.30137">
        <ele>255.39999389648</ele>
        <time>2022-03-19T15:58:43.000Z</time>
      </trkpt>
      <trkpt lat="43.64342" lon="5.30123">
        <ele>255.19999694824</ele>
        <time>2022-03-19T15:58:46.000Z</time>
      </trkpt>
      <trkpt lat="43.6435" lon="5.30114">
        <ele>254.80000305176</ele>
        <time>2022-03-19T15:58:48.000Z</time>
      </trkpt>
      <trkpt lat="43.64363" lon="5.30093">
        <ele>255.19999694824</ele>
        <time>2022-03-19T15:58:52.000Z</time>
      </trkpt>
      <trkpt lat="43.64365" lon="5.30086">
        <ele>255.80000305176</ele>
        <time>2022-03-19T15:58:53.000Z</time>
      </trkpt>
      <trkpt lat="43.64377" lon="5.30065">
        <ele>257.20001220703</ele>
        <time>2022-03-19T15:58:57.000Z</time>
      </trkpt>
      <trkpt lat="43.64391" lon="5.30046">
        <ele>257</ele>
        <time>2022-03-19T15:59:00.000Z</time>
      </trkpt>
      <trkpt lat="43.64398" lon="5.30034">
        <ele>256.60000610352</ele>
        <time>2022-03-19T15:59:02.000Z</time>
      </trkpt>
      <trkpt lat="43.64415" lon="5.30012">
        <ele>255</ele>
        <time>2022-03-19T15:59:06.000Z</time>
      </trkpt>
      <trkpt lat="43.64419" lon="5.30006">
        <ele>254.60000610352</ele>
        <time>2022-03-19T15:59:07.000Z</time>
      </trkpt>
      <trkpt lat="43.64424" lon="5.3">
        <ele>254.39999389648</ele>
        <time>2022-03-19T15:59:08.000Z</time>
      </trkpt>
      <trkpt lat="43.64428" lon="5.29994">
        <ele>254.39999389648</ele>
        <time>2022-03-19T15:59:09.000Z</time>
      </trkpt>
      <trkpt lat="43.64431" lon="5.29987">
        <ele>255</ele>
        <time>2022-03-19T15:59:10.000Z</time>
      </trkpt>
      <trkpt lat="43.64433" lon="5.2998">
        <ele>255.39999389648</ele>
        <time>2022-03-19T15:59:11.000Z</time>
      </trkpt>
      <trkpt lat="43.64444" lon="5.29946">
        <ele>256</ele>
        <time>2022-03-19T15:59:16.000Z</time>
      </trkpt>
      <trkpt lat="43.64453" lon="5.29915">
        <ele>255.80000305176</ele>
        <time>2022-03-19T15:59:21.000Z</time>
      </trkpt>
      <trkpt lat="43.64455" lon="5.29909">
        <ele>255.60000610352</ele>
        <time>2022-03-19T15:59:22.000Z</time>
      </trkpt>
      <trkpt lat="43.64455" lon="5.29901">
        <ele>255.19999694824</ele>
        <time>2022-03-19T15:59:23.000Z</time>
      </trkpt>
      <trkpt lat="43.64457" lon="5.29895">
        <ele>254.60000610352</ele>
        <time>2022-03-19T15:59:24.000Z</time>
      </trkpt>
      <trkpt lat="43.64458" lon="5.29889">
        <ele>254.19999694824</ele>
        <time>2022-03-19T15:59:25.000Z</time>
      </trkpt>
      <trkpt lat="43.6446" lon="5.29882">
        <ele>253.80000305176</ele>
        <time>2022-03-19T15:59:26.000Z</time>
      </trkpt>
      <trkpt lat="43.64468" lon="5.29845">
        <ele>250.19999694824</ele>
        <time>2022-03-19T15:59:31.000Z</time>
      </trkpt>
      <trkpt lat="43.6447" lon="5.29837">
        <ele>249.19999694824</ele>
        <time>2022-03-19T15:59:32.000Z</time>
      </trkpt>
      <trkpt lat="43.64471" lon="5.29828">
        <ele>248.60000610352</ele>
        <time>2022-03-19T15:59:33.000Z</time>
      </trkpt>
      <trkpt lat="43.64474" lon="5.29821">
        <ele>248</ele>
        <time>2022-03-19T15:59:34.000Z</time>
      </trkpt>
      <trkpt lat="43.64477" lon="5.29813">
        <ele>247.39999389648</ele>
        <time>2022-03-19T15:59:35.000Z</time>
      </trkpt>
      <trkpt lat="43.64481" lon="5.29806">
        <ele>246.60000610352</ele>
        <time>2022-03-19T15:59:36.000Z</time>
      </trkpt>
      <trkpt lat="43.64493" lon="5.29783">
        <ele>244.60000610352</ele>
        <time>2022-03-19T15:59:40.000Z</time>
      </trkpt>
      <trkpt lat="43.64492" lon="5.29775">
        <ele>244.39999389648</ele>
        <time>2022-03-19T15:59:41.000Z</time>
      </trkpt>
      <trkpt lat="43.64492" lon="5.29768">
        <ele>244.19999694824</ele>
        <time>2022-03-19T15:59:42.000Z</time>
      </trkpt>
      <trkpt lat="43.64493" lon="5.2976">
        <ele>243.80000305176</ele>
        <time>2022-03-19T15:59:43.000Z</time>
      </trkpt>
      <trkpt lat="43.64495" lon="5.29752">
        <ele>243.19999694824</ele>
        <time>2022-03-19T15:59:44.000Z</time>
      </trkpt>
      <trkpt lat="43.64504" lon="5.29703">
        <ele>242</ele>
        <time>2022-03-19T15:59:50.000Z</time>
      </trkpt>
      <trkpt lat="43.64518" lon="5.29647">
        <ele>241.39999389648</ele>
        <time>2022-03-19T15:59:57.000Z</time>
      </trkpt>
      <trkpt lat="43.64521" lon="5.29639">
        <ele>241.80000305176</ele>
        <time>2022-03-19T15:59:58.000Z</time>
      </trkpt>
      <trkpt lat="43.64523" lon="5.29631">
        <ele>242</ele>
        <time>2022-03-19T15:59:59.000Z</time>
      </trkpt>
      <trkpt lat="43.64525" lon="5.29622">
        <ele>242.19999694824</ele>
        <time>2022-03-19T16:00:00.000Z</time>
      </trkpt>
      <trkpt lat="43.64527" lon="5.29614">
        <ele>242.60000610352</ele>
        <time>2022-03-19T16:00:01.000Z</time>
      </trkpt>
      <trkpt lat="43.64531" lon="5.29602">
        <ele>243</ele>
        <time>2022-03-19T16:00:03.000Z</time>
      </trkpt>
      <trkpt lat="43.64543" lon="5.29547">
        <ele>244.39999389648</ele>
        <time>2022-03-19T16:00:11.000Z</time>
      </trkpt>
      <trkpt lat="43.64547" lon="5.29521">
        <ele>244.60000610352</ele>
        <time>2022-03-19T16:00:15.000Z</time>
      </trkpt>
      <trkpt lat="43.64547" lon="5.29514">
        <ele>244.80000305176</ele>
        <time>2022-03-19T16:00:16.000Z</time>
      </trkpt>
      <trkpt lat="43.64546" lon="5.29508">
        <ele>245</ele>
        <time>2022-03-19T16:00:17.000Z</time>
      </trkpt>
      <trkpt lat="43.64546" lon="5.29503">
        <ele>245.39999389648</ele>
        <time>2022-03-19T16:00:18.000Z</time>
      </trkpt>
      <trkpt lat="43.64545" lon="5.29498">
        <ele>245.80000305176</ele>
        <time>2022-03-19T16:00:19.000Z</time>
      </trkpt>
      <trkpt lat="43.64543" lon="5.29486">
        <ele>246.39999389648</ele>
        <time>2022-03-19T16:00:21.000Z</time>
      </trkpt>
      <trkpt lat="43.64541" lon="5.29473">
        <ele>247.19999694824</ele>
        <time>2022-03-19T16:00:23.000Z</time>
      </trkpt>
      <trkpt lat="43.64536" lon="5.29441">
        <ele>249</ele>
        <time>2022-03-19T16:00:28.000Z</time>
      </trkpt>
      <trkpt lat="43.64535" lon="5.29435">
        <ele>249.60000610352</ele>
        <time>2022-03-19T16:00:29.000Z</time>
      </trkpt>
      <trkpt lat="43.64534" lon="5.29429">
        <ele>250.19999694824</ele>
        <time>2022-03-19T16:00:30.000Z</time>
      </trkpt>
      <trkpt lat="43.64533" lon="5.29423">
        <ele>250.80000305176</ele>
        <time>2022-03-19T16:00:31.000Z</time>
      </trkpt>
      <trkpt lat="43.64532" lon="5.29418">
        <ele>251.19999694824</ele>
        <time>2022-03-19T16:00:32.000Z</time>
      </trkpt>
      <trkpt lat="43.64531" lon="5.29414">
        <ele>251.60000610352</ele>
        <time>2022-03-19T16:00:33.000Z</time>
      </trkpt>
      <trkpt lat="43.6453" lon="5.29408">
        <ele>252.19999694824</ele>
        <time>2022-03-19T16:00:34.000Z</time>
      </trkpt>
      <trkpt lat="43.64529" lon="5.29404">
        <ele>252.60000610352</ele>
        <time>2022-03-19T16:00:35.000Z</time>
      </trkpt>
      <trkpt lat="43.64528" lon="5.29399">
        <ele>253</ele>
        <time>2022-03-19T16:00:36.000Z</time>
      </trkpt>
      <trkpt lat="43.64524" lon="5.29384">
        <ele>254.39999389648</ele>
        <time>2022-03-19T16:00:39.000Z</time>
      </trkpt>
      <trkpt lat="43.64523" lon="5.29379">
        <ele>254.60000610352</ele>
        <time>2022-03-19T16:00:40.000Z</time>
      </trkpt>
      <trkpt lat="43.64521" lon="5.29375">
        <ele>254.80000305176</ele>
        <time>2022-03-19T16:00:41.000Z</time>
      </trkpt>
      <trkpt lat="43.6452" lon="5.2937">
        <ele>255</ele>
        <time>2022-03-19T16:00:42.000Z</time>
      </trkpt>
      <trkpt lat="43.64519" lon="5.29364">
        <ele>255.19999694824</ele>
        <time>2022-03-19T16:00:43.000Z</time>
      </trkpt>
      <trkpt lat="43.64518" lon="5.29358">
        <ele>255.39999389648</ele>
        <time>2022-03-19T16:00:44.000Z</time>
      </trkpt>
      <trkpt lat="43.64518" lon="5.29352">
        <ele>255.60000610352</ele>
        <time>2022-03-19T16:00:45.000Z</time>
      </trkpt>
      <trkpt lat="43.64519" lon="5.29342">
        <ele>256</ele>
        <time>2022-03-19T16:00:47.000Z</time>
      </trkpt>
      <trkpt lat="43.64521" lon="5.29337">
        <ele>256</ele>
        <time>2022-03-19T16:00:48.000Z</time>
      </trkpt>
      <trkpt lat="43.64522" lon="5.29334">
        <ele>256</ele>
        <time>2022-03-19T16:00:49.000Z</time>
      </trkpt>
      <trkpt lat="43.64524" lon="5.29331">
        <ele>256</ele>
        <time>2022-03-19T16:00:50.000Z</time>
      </trkpt>
      <trkpt lat="43.64526" lon="5.29331">
        <ele>256</ele>
        <time>2022-03-19T16:00:51.000Z</time>
      </trkpt>
      <trkpt lat="43.64528" lon="5.29328">
        <ele>256</ele>
        <time>2022-03-19T16:00:52.000Z</time>
      </trkpt>
      <trkpt lat="43.6453" lon="5.29323">
        <ele>256</ele>
        <time>2022-03-19T16:00:53.000Z</time>
      </trkpt>
      <trkpt lat="43.64531" lon="5.29317">
        <ele>256</ele>
        <time>2022-03-19T16:00:54.000Z</time>
      </trkpt>
      <trkpt lat="43.64532" lon="5.29311">
        <ele>256</ele>
        <time>2022-03-19T16:00:55.000Z</time>
      </trkpt>
      <trkpt lat="43.64535" lon="5.29298">
        <ele>255.80000305176</ele>
        <time>2022-03-19T16:00:57.000Z</time>
      </trkpt>
      <trkpt lat="43.64539" lon="5.29283">
        <ele>255.39999389648</ele>
        <time>2022-03-19T16:00:59.000Z</time>
      </trkpt>
      <trkpt lat="43.64541" lon="5.29275">
        <ele>255.39999389648</ele>
        <time>2022-03-19T16:01:00.000Z</time>
      </trkpt>
      <trkpt lat="43.64543" lon="5.29267">
        <ele>255</ele>
        <time>2022-03-19T16:01:01.000Z</time>
      </trkpt>
      <trkpt lat="43.64545" lon="5.29259">
        <ele>254.60000610352</ele>
        <time>2022-03-19T16:01:02.000Z</time>
      </trkpt>
      <trkpt lat="43.64548" lon="5.29252">
        <ele>254.39999389648</ele>
        <time>2022-03-19T16:01:03.000Z</time>
      </trkpt>
      <trkpt lat="43.6455" lon="5.29243">
        <ele>254.39999389648</ele>
        <time>2022-03-19T16:01:04.000Z</time>
      </trkpt>
      <trkpt lat="43.64555" lon="5.29227">
        <ele>253.60000610352</ele>
        <time>2022-03-19T16:01:06.000Z</time>
      </trkpt>
      <trkpt lat="43.64561" lon="5.29211">
        <ele>253</ele>
        <time>2022-03-19T16:01:08.000Z</time>
      </trkpt>
      <trkpt lat="43.64578" lon="5.29174">
        <ele>253.39999389648</ele>
        <time>2022-03-19T16:01:14.000Z</time>
      </trkpt>
      <trkpt lat="43.6458" lon="5.29168">
        <ele>253.39999389648</ele>
        <time>2022-03-19T16:01:15.000Z</time>
      </trkpt>
      <trkpt lat="43.64585" lon="5.29156">
        <ele>254</ele>
        <time>2022-03-19T16:01:17.000Z</time>
      </trkpt>
      <trkpt lat="43.64589" lon="5.29142">
        <ele>254.80000305176</ele>
        <time>2022-03-19T16:01:19.000Z</time>
      </trkpt>
      <trkpt lat="43.64597" lon="5.29105">
        <ele>255</ele>
        <time>2022-03-19T16:01:24.000Z</time>
      </trkpt>
      <trkpt lat="43.646" lon="5.29098">
        <ele>254.80000305176</ele>
        <time>2022-03-19T16:01:25.000Z</time>
      </trkpt>
      <trkpt lat="43.64619" lon="5.2906">
        <ele>253.19999694824</ele>
        <time>2022-03-19T16:01:31.000Z</time>
      </trkpt>
      <trkpt lat="43.64639" lon="5.29031">
        <ele>253.60000610352</ele>
        <time>2022-03-19T16:01:37.000Z</time>
      </trkpt>
      <trkpt lat="43.64643" lon="5.29026">
        <ele>253.80000305176</ele>
        <time>2022-03-19T16:01:38.000Z</time>
      </trkpt>
      <trkpt lat="43.64662" lon="5.29009">
        <ele>254.19999694824</ele>
        <time>2022-03-19T16:01:42.000Z</time>
      </trkpt>
      <trkpt lat="43.64672" lon="5.29">
        <ele>254.80000305176</ele>
        <time>2022-03-19T16:01:44.000Z</time>
      </trkpt>
      <trkpt lat="43.6468" lon="5.28989">
        <ele>254.60000610352</ele>
        <time>2022-03-19T16:01:46.000Z</time>
      </trkpt>
      <trkpt lat="43.64684" lon="5.28983">
        <ele>254.60000610352</ele>
        <time>2022-03-19T16:01:47.000Z</time>
      </trkpt>
      <trkpt lat="43.64709" lon="5.28943">
        <ele>255.19999694824</ele>
        <time>2022-03-19T16:01:54.000Z</time>
      </trkpt>
      <trkpt lat="43.6472" lon="5.28926">
        <ele>254.19999694824</ele>
        <time>2022-03-19T16:01:57.000Z</time>
      </trkpt>
      <trkpt lat="43.6473" lon="5.28909">
        <ele>253.80000305176</ele>
        <time>2022-03-19T16:02:00.000Z</time>
      </trkpt>
      <trkpt lat="43.64746" lon="5.28881">
        <ele>253.19999694824</ele>
        <time>2022-03-19T16:02:05.000Z</time>
      </trkpt>
      <trkpt lat="43.64772" lon="5.28838">
        <ele>254.19999694824</ele>
        <time>2022-03-19T16:02:13.000Z</time>
      </trkpt>
      <trkpt lat="43.64783" lon="5.2882">
        <ele>255.19999694824</ele>
        <time>2022-03-19T16:02:17.000Z</time>
      </trkpt>
      <trkpt lat="43.64786" lon="5.28815">
        <ele>255.39999389648</ele>
        <time>2022-03-19T16:02:18.000Z</time>
      </trkpt>
      <trkpt lat="43.6479" lon="5.28809">
        <ele>255.60000610352</ele>
        <time>2022-03-19T16:02:19.000Z</time>
      </trkpt>
      <trkpt lat="43.64793" lon="5.28803">
        <ele>255.80000305176</ele>
        <time>2022-03-19T16:02:20.000Z</time>
      </trkpt>
      <trkpt lat="43.64796" lon="5.28798">
        <ele>256</ele>
        <time>2022-03-19T16:02:21.000Z</time>
      </trkpt>
      <trkpt lat="43.64808" lon="5.28782">
        <ele>256.60000610352</ele>
        <time>2022-03-19T16:02:24.000Z</time>
      </trkpt>
      <trkpt lat="43.64825" lon="5.28763">
        <ele>256.60000610352</ele>
        <time>2022-03-19T16:02:28.000Z</time>
      </trkpt>
      <trkpt lat="43.64829" lon="5.28759">
        <ele>256.60000610352</ele>
        <time>2022-03-19T16:02:29.000Z</time>
      </trkpt>
      <trkpt lat="43.64845" lon="5.28738">
        <ele>256.39999389648</ele>
        <time>2022-03-19T16:02:33.000Z</time>
      </trkpt>
      <trkpt lat="43.64849" lon="5.28733">
        <ele>256.20001220703</ele>
        <time>2022-03-19T16:02:34.000Z</time>
      </trkpt>
      <trkpt lat="43.64871" lon="5.28708">
        <ele>256</ele>
        <time>2022-03-19T16:02:39.000Z</time>
      </trkpt>
      <trkpt lat="43.64879" lon="5.28697">
        <ele>256</ele>
        <time>2022-03-19T16:02:41.000Z</time>
      </trkpt>
      <trkpt lat="43.64891" lon="5.2868">
        <ele>256</ele>
        <time>2022-03-19T16:02:44.000Z</time>
      </trkpt>
      <trkpt lat="43.64905" lon="5.28658">
        <ele>256.39999389648</ele>
        <time>2022-03-19T16:02:48.000Z</time>
      </trkpt>
      <trkpt lat="43.64907" lon="5.28651">
        <ele>256.60000610352</ele>
        <time>2022-03-19T16:02:49.000Z</time>
      </trkpt>
      <trkpt lat="43.64909" lon="5.28644">
        <ele>256.60000610352</ele>
        <time>2022-03-19T16:02:50.000Z</time>
      </trkpt>
      <trkpt lat="43.6491" lon="5.28636">
        <ele>256.60000610352</ele>
        <time>2022-03-19T16:02:51.000Z</time>
      </trkpt>
      <trkpt lat="43.6491" lon="5.28629">
        <ele>256.60000610352</ele>
        <time>2022-03-19T16:02:52.000Z</time>
      </trkpt>
      <trkpt lat="43.6491" lon="5.28613">
        <ele>256.60000610352</ele>
        <time>2022-03-19T16:02:54.000Z</time>
      </trkpt>
      <trkpt lat="43.64908" lon="5.28606">
        <ele>256.60000610352</ele>
        <time>2022-03-19T16:02:55.000Z</time>
      </trkpt>
      <trkpt lat="43.64904" lon="5.28561">
        <ele>256.20001220703</ele>
        <time>2022-03-19T16:03:01.000Z</time>
      </trkpt>
      <trkpt lat="43.64903" lon="5.28499">
        <ele>253.80000305176</ele>
        <time>2022-03-19T16:03:09.000Z</time>
      </trkpt>
      <trkpt lat="43.64903" lon="5.28491">
        <ele>253.60000610352</ele>
        <time>2022-03-19T16:03:10.000Z</time>
      </trkpt>
      <trkpt lat="43.64904" lon="5.28483">
        <ele>253</ele>
        <time>2022-03-19T16:03:11.000Z</time>
      </trkpt>
      <trkpt lat="43.64904" lon="5.28475">
        <ele>252.60000610352</ele>
        <time>2022-03-19T16:03:12.000Z</time>
      </trkpt>
      <trkpt lat="43.64905" lon="5.28467">
        <ele>252.19999694824</ele>
        <time>2022-03-19T16:03:13.000Z</time>
      </trkpt>
      <trkpt lat="43.64905" lon="5.28452">
        <ele>251.80000305176</ele>
        <time>2022-03-19T16:03:15.000Z</time>
      </trkpt>
      <trkpt lat="43.64909" lon="5.28405">
        <ele>251.39999389648</ele>
        <time>2022-03-19T16:03:21.000Z</time>
      </trkpt>
      <trkpt lat="43.64911" lon="5.28365">
        <ele>251</ele>
        <time>2022-03-19T16:03:27.000Z</time>
      </trkpt>
      <trkpt lat="43.64909" lon="5.28323">
        <ele>252.19999694824</ele>
        <time>2022-03-19T16:03:33.000Z</time>
      </trkpt>
      <trkpt lat="43.64909" lon="5.28316">
        <ele>252.39999389648</ele>
        <time>2022-03-19T16:03:34.000Z</time>
      </trkpt>
      <trkpt lat="43.64911" lon="5.28292">
        <ele>252</ele>
        <time>2022-03-19T16:03:38.000Z</time>
      </trkpt>
      <trkpt lat="43.64912" lon="5.28286">
        <ele>252</ele>
        <time>2022-03-19T16:03:39.000Z</time>
      </trkpt>
      <trkpt lat="43.64913" lon="5.28279">
        <ele>252</ele>
        <time>2022-03-19T16:03:40.000Z</time>
      </trkpt>
      <trkpt lat="43.64914" lon="5.28272">
        <ele>252</ele>
        <time>2022-03-19T16:03:41.000Z</time>
      </trkpt>
      <trkpt lat="43.64914" lon="5.28265">
        <ele>251.80000305176</ele>
        <time>2022-03-19T16:03:42.000Z</time>
      </trkpt>
      <trkpt lat="43.64914" lon="5.28258">
        <ele>251.39999389648</ele>
        <time>2022-03-19T16:03:43.000Z</time>
      </trkpt>
      <trkpt lat="43.64914" lon="5.28243">
        <ele>251</ele>
        <time>2022-03-19T16:03:45.000Z</time>
      </trkpt>
      <trkpt lat="43.64914" lon="5.28228">
        <ele>250.19999694824</ele>
        <time>2022-03-19T16:03:47.000Z</time>
      </trkpt>
      <trkpt lat="43.64914" lon="5.2822">
        <ele>249.80000305176</ele>
        <time>2022-03-19T16:03:48.000Z</time>
      </trkpt>
      <trkpt lat="43.64914" lon="5.28213">
        <ele>249.60000610352</ele>
        <time>2022-03-19T16:03:49.000Z</time>
      </trkpt>
      <trkpt lat="43.64914" lon="5.28206">
        <ele>249.19999694824</ele>
        <time>2022-03-19T16:03:50.000Z</time>
      </trkpt>
      <trkpt lat="43.64914" lon="5.282">
        <ele>249</ele>
        <time>2022-03-19T16:03:51.000Z</time>
      </trkpt>
      <trkpt lat="43.64914" lon="5.28173">
        <ele>248.80000305176</ele>
        <time>2022-03-19T16:03:56.000Z</time>
      </trkpt>
      <trkpt lat="43.64921" lon="5.28167">
        <ele>249.80000305176</ele>
        <time>2022-03-19T16:04:00.000Z</time>
      </trkpt>
      <trkpt lat="43.64938" lon="5.28167">
        <ele>250</ele>
        <time>2022-03-19T16:04:05.000Z</time>
      </trkpt>
      <trkpt lat="43.64946" lon="5.28151">
        <ele>250.19999694824</ele>
        <time>2022-03-19T16:04:09.000Z</time>
      </trkpt>
      <trkpt lat="43.64953" lon="5.28145">
        <ele>250.60000610352</ele>
        <time>2022-03-19T16:04:11.000Z</time>
      </trkpt>
      <trkpt lat="43.64956" lon="5.28143">
        <ele>250.60000610352</ele>
        <time>2022-03-19T16:04:12.000Z</time>
      </trkpt>
      <trkpt lat="43.6496" lon="5.28141">
        <ele>250.80000305176</ele>
        <time>2022-03-19T16:04:13.000Z</time>
      </trkpt>
      <trkpt lat="43.64963" lon="5.28138">
        <ele>250.80000305176</ele>
        <time>2022-03-19T16:04:14.000Z</time>
      </trkpt>
      <trkpt lat="43.6497" lon="5.28133">
        <ele>251</ele>
        <time>2022-03-19T16:04:16.000Z</time>
      </trkpt>
      <trkpt lat="43.64977" lon="5.28133">
        <ele>251</ele>
        <time>2022-03-19T16:04:18.000Z</time>
      </trkpt>
      <trkpt lat="43.64986" lon="5.2813">
        <ele>250.39999389648</ele>
        <time>2022-03-19T16:04:21.000Z</time>
      </trkpt>
      <trkpt lat="43.64994" lon="5.28121">
        <ele>249.80000305176</ele>
        <time>2022-03-19T16:04:24.000Z</time>
      </trkpt>
      <trkpt lat="43.65004" lon="5.28111">
        <ele>249</ele>
        <time>2022-03-19T16:04:27.000Z</time>
      </trkpt>
      <trkpt lat="43.65017" lon="5.28107">
        <ele>248.60000610352</ele>
        <time>2022-03-19T16:04:30.000Z</time>
      </trkpt>
      <trkpt lat="43.65025" lon="5.28106">
        <ele>248.19999694824</ele>
        <time>2022-03-19T16:04:32.000Z</time>
      </trkpt>
      <trkpt lat="43.65035" lon="5.28106">
        <ele>248</ele>
        <time>2022-03-19T16:04:35.000Z</time>
      </trkpt>
      <trkpt lat="43.65037" lon="5.28104">
        <ele>247.80000305176</ele>
        <time>2022-03-19T16:04:36.000Z</time>
      </trkpt>
      <trkpt lat="43.65053" lon="5.28091">
        <ele>247.19999694824</ele>
        <time>2022-03-19T16:04:40.000Z</time>
      </trkpt>
      <trkpt lat="43.65061" lon="5.28087">
        <ele>246.80000305176</ele>
        <time>2022-03-19T16:04:42.000Z</time>
      </trkpt>
      <trkpt lat="43.65077" lon="5.28087">
        <ele>246</ele>
        <time>2022-03-19T16:04:45.000Z</time>
      </trkpt>
      <trkpt lat="43.65082" lon="5.28088">
        <ele>245.80000305176</ele>
        <time>2022-03-19T16:04:46.000Z</time>
      </trkpt>
      <trkpt lat="43.65086" lon="5.28088">
        <ele>245.60000610352</ele>
        <time>2022-03-19T16:04:47.000Z</time>
      </trkpt>
      <trkpt lat="43.65089" lon="5.28089">
        <ele>245.39999389648</ele>
        <time>2022-03-19T16:04:48.000Z</time>
      </trkpt>
      <trkpt lat="43.65091" lon="5.28089">
        <ele>245.19999694824</ele>
        <time>2022-03-19T16:04:49.000Z</time>
      </trkpt>
      <trkpt lat="43.65093" lon="5.28089">
        <ele>245</ele>
        <time>2022-03-19T16:04:50.000Z</time>
      </trkpt>
      <trkpt lat="43.65097" lon="5.28087">
        <ele>244.60000610352</ele>
        <time>2022-03-19T16:04:52.000Z</time>
      </trkpt>
      <trkpt lat="43.65099" lon="5.28084">
        <ele>244.60000610352</ele>
        <time>2022-03-19T16:04:53.000Z</time>
      </trkpt>
      <trkpt lat="43.65098" lon="5.28075">
        <ele>244.80000305176</ele>
        <time>2022-03-19T16:04:56.000Z</time>
      </trkpt>
      <trkpt lat="43.65096" lon="5.28064">
        <ele>245.19999694824</ele>
        <time>2022-03-19T16:04:59.000Z</time>
      </trkpt>
      <trkpt lat="43.65097" lon="5.2806">
        <ele>245</ele>
        <time>2022-03-19T16:05:00.000Z</time>
      </trkpt>
      <trkpt lat="43.65101" lon="5.28038">
        <ele>245</ele>
        <time>2022-03-19T16:05:05.000Z</time>
      </trkpt>
      <trkpt lat="43.65102" lon="5.28032">
        <ele>245</ele>
        <time>2022-03-19T16:05:06.000Z</time>
      </trkpt>
      <trkpt lat="43.65102" lon="5.28025">
        <ele>245</ele>
        <time>2022-03-19T16:05:07.000Z</time>
      </trkpt>
      <trkpt lat="43.65101" lon="5.28019">
        <ele>245</ele>
        <time>2022-03-19T16:05:08.000Z</time>
      </trkpt>
      <trkpt lat="43.651" lon="5.28013">
        <ele>245</ele>
        <time>2022-03-19T16:05:09.000Z</time>
      </trkpt>
      <trkpt lat="43.65098" lon="5.27998">
        <ele>245</ele>
        <time>2022-03-19T16:05:12.000Z</time>
      </trkpt>
      <trkpt lat="43.65097" lon="5.27989">
        <ele>244.80000305176</ele>
        <time>2022-03-19T16:05:14.000Z</time>
      </trkpt>
      <trkpt lat="43.65098" lon="5.27982">
        <ele>244.39999389648</ele>
        <time>2022-03-19T16:05:16.000Z</time>
      </trkpt>
      <trkpt lat="43.65105" lon="5.27963">
        <ele>244.39999389648</ele>
        <time>2022-03-19T16:05:20.000Z</time>
      </trkpt>
      <trkpt lat="43.65113" lon="5.27951">
        <ele>244</ele>
        <time>2022-03-19T16:05:23.000Z</time>
      </trkpt>
      <trkpt lat="43.65114" lon="5.27946">
        <ele>244</ele>
        <time>2022-03-19T16:05:24.000Z</time>
      </trkpt>
      <trkpt lat="43.65112" lon="5.27922">
        <ele>243.60000610352</ele>
        <time>2022-03-19T16:05:28.000Z</time>
      </trkpt>
      <trkpt lat="43.65107" lon="5.27902">
        <ele>243</ele>
        <time>2022-03-19T16:05:32.000Z</time>
      </trkpt>
      <trkpt lat="43.65106" lon="5.27896">
        <ele>242.80000305176</ele>
        <time>2022-03-19T16:05:33.000Z</time>
      </trkpt>
      <trkpt lat="43.65105" lon="5.27884">
        <ele>242.39999389648</ele>
        <time>2022-03-19T16:05:35.000Z</time>
      </trkpt>
      <trkpt lat="43.65104" lon="5.27879">
        <ele>242.19999694824</ele>
        <time>2022-03-19T16:05:36.000Z</time>
      </trkpt>
      <trkpt lat="43.65101" lon="5.27875">
        <ele>242</ele>
        <time>2022-03-19T16:05:37.000Z</time>
      </trkpt>
      <trkpt lat="43.65098" lon="5.27871">
        <ele>241.80000305176</ele>
        <time>2022-03-19T16:05:38.000Z</time>
      </trkpt>
      <trkpt lat="43.65094" lon="5.27868">
        <ele>241.60000610352</ele>
        <time>2022-03-19T16:05:39.000Z</time>
      </trkpt>
      <trkpt lat="43.6509" lon="5.27865">
        <ele>241.60000610352</ele>
        <time>2022-03-19T16:05:40.000Z</time>
      </trkpt>
      <trkpt lat="43.65086" lon="5.27863">
        <ele>241.80000305176</ele>
        <time>2022-03-19T16:05:41.000Z</time>
      </trkpt>
      <trkpt lat="43.6508" lon="5.27859">
        <ele>242.39999389648</ele>
        <time>2022-03-19T16:05:44.000Z</time>
      </trkpt>
      <trkpt lat="43.65081" lon="5.27851">
        <ele>241.60000610352</ele>
        <time>2022-03-19T16:05:48.000Z</time>
      </trkpt>
      <trkpt lat="43.65077" lon="5.27843">
        <ele>241.60000610352</ele>
        <time>2022-03-19T16:05:51.000Z</time>
      </trkpt>
      <trkpt lat="43.65076" lon="5.27838">
        <ele>241.39999389648</ele>
        <time>2022-03-19T16:05:52.000Z</time>
      </trkpt>
      <trkpt lat="43.65073" lon="5.27832">
        <ele>241.39999389648</ele>
        <time>2022-03-19T16:05:53.000Z</time>
      </trkpt>
      <trkpt lat="43.65071" lon="5.27826">
        <ele>241.39999389648</ele>
        <time>2022-03-19T16:05:54.000Z</time>
      </trkpt>
      <trkpt lat="43.65069" lon="5.27819">
        <ele>241.39999389648</ele>
        <time>2022-03-19T16:05:55.000Z</time>
      </trkpt>
      <trkpt lat="43.65064" lon="5.27808">
        <ele>241.60000610352</ele>
        <time>2022-03-19T16:05:57.000Z</time>
      </trkpt>
      <trkpt lat="43.6506" lon="5.27797">
        <ele>241.80000305176</ele>
        <time>2022-03-19T16:05:59.000Z</time>
      </trkpt>
      <trkpt lat="43.65057" lon="5.27775">
        <ele>241.39999389648</ele>
        <time>2022-03-19T16:06:04.000Z</time>
      </trkpt>
      <trkpt lat="43.65056" lon="5.27766">
        <ele>241.19999694824</ele>
        <time>2022-03-19T16:06:07.000Z</time>
      </trkpt>
      <trkpt lat="43.65057" lon="5.27753">
        <ele>241.60000610352</ele>
        <time>2022-03-19T16:06:10.000Z</time>
      </trkpt>
      <trkpt lat="43.65057" lon="5.2774">
        <ele>241.80000305176</ele>
        <time>2022-03-19T16:06:13.000Z</time>
      </trkpt>
      <trkpt lat="43.65057" lon="5.27735">
        <ele>241.80000305176</ele>
        <time>2022-03-19T16:06:14.000Z</time>
      </trkpt>
      <trkpt lat="43.65053" lon="5.27722">
        <ele>241.80000305176</ele>
        <time>2022-03-19T16:06:17.000Z</time>
      </trkpt>
      <trkpt lat="43.6505" lon="5.2772">
        <ele>241.60000610352</ele>
        <time>2022-03-19T16:06:18.000Z</time>
      </trkpt>
      <trkpt lat="43.65033" lon="5.27719">
        <ele>241</ele>
        <time>2022-03-19T16:06:23.000Z</time>
      </trkpt>
      <trkpt lat="43.65029" lon="5.27714">
        <ele>240.80000305176</ele>
        <time>2022-03-19T16:06:25.000Z</time>
      </trkpt>
      <trkpt lat="43.65031" lon="5.27707">
        <ele>241</ele>
        <time>2022-03-19T16:06:26.000Z</time>
      </trkpt>
      <trkpt lat="43.65038" lon="5.27695">
        <ele>241.19999694824</ele>
        <time>2022-03-19T16:06:30.000Z</time>
      </trkpt>
      <trkpt lat="43.6504" lon="5.27692">
        <ele>241.19999694824</ele>
        <time>2022-03-19T16:06:31.000Z</time>
      </trkpt>
      <trkpt lat="43.65048" lon="5.27679">
        <ele>240.60000610352</ele>
        <time>2022-03-19T16:06:34.000Z</time>
      </trkpt>
      <trkpt lat="43.65054" lon="5.27668">
        <ele>240.19999694824</ele>
        <time>2022-03-19T16:06:36.000Z</time>
      </trkpt>
      <trkpt lat="43.65062" lon="5.27653">
        <ele>239.39999389648</ele>
        <time>2022-03-19T16:06:39.000Z</time>
      </trkpt>
      <trkpt lat="43.65064" lon="5.27647">
        <ele>239</ele>
        <time>2022-03-19T16:06:40.000Z</time>
      </trkpt>
      <trkpt lat="43.65066" lon="5.27642">
        <ele>238.60000610352</ele>
        <time>2022-03-19T16:06:41.000Z</time>
      </trkpt>
      <trkpt lat="43.65069" lon="5.27636">
        <ele>238.39999389648</ele>
        <time>2022-03-19T16:06:42.000Z</time>
      </trkpt>
      <trkpt lat="43.65073" lon="5.27625">
        <ele>238</ele>
        <time>2022-03-19T16:06:44.000Z</time>
      </trkpt>
      <trkpt lat="43.65077" lon="5.27608">
        <ele>236.80000305176</ele>
        <time>2022-03-19T16:06:47.000Z</time>
      </trkpt>
      <trkpt lat="43.65078" lon="5.27595">
        <ele>235.60000610352</ele>
        <time>2022-03-19T16:06:49.000Z</time>
      </trkpt>
      <trkpt lat="43.6508" lon="5.27589">
        <ele>235.39999389648</ele>
        <time>2022-03-19T16:06:50.000Z</time>
      </trkpt>
      <trkpt lat="43.65082" lon="5.27584">
        <ele>235.19999694824</ele>
        <time>2022-03-19T16:06:51.000Z</time>
      </trkpt>
      <trkpt lat="43.65085" lon="5.2758">
        <ele>235</ele>
        <time>2022-03-19T16:06:52.000Z</time>
      </trkpt>
      <trkpt lat="43.65088" lon="5.27575">
        <ele>234.80000305176</ele>
        <time>2022-03-19T16:06:53.000Z</time>
      </trkpt>
      <trkpt lat="43.65092" lon="5.27566">
        <ele>234.19999694824</ele>
        <time>2022-03-19T16:06:55.000Z</time>
      </trkpt>
      <trkpt lat="43.65093" lon="5.2755">
        <ele>233.19999694824</ele>
        <time>2022-03-19T16:06:58.000Z</time>
      </trkpt>
      <trkpt lat="43.65099" lon="5.27508">
        <ele>232.39999389648</ele>
        <time>2022-03-19T16:07:04.000Z</time>
      </trkpt>
      <trkpt lat="43.65099" lon="5.27502">
        <ele>232.19999694824</ele>
        <time>2022-03-19T16:07:05.000Z</time>
      </trkpt>
      <trkpt lat="43.65105" lon="5.2748">
        <ele>231.39999389648</ele>
        <time>2022-03-19T16:07:09.000Z</time>
      </trkpt>
      <trkpt lat="43.65112" lon="5.27468">
        <ele>231.60000610352</ele>
        <time>2022-03-19T16:07:12.000Z</time>
      </trkpt>
      <trkpt lat="43.65112" lon="5.27462">
        <ele>231.60000610352</ele>
        <time>2022-03-19T16:07:13.000Z</time>
      </trkpt>
      <trkpt lat="43.65113" lon="5.27456">
        <ele>231.39999389648</ele>
        <time>2022-03-19T16:07:14.000Z</time>
      </trkpt>
      <trkpt lat="43.65115" lon="5.2745">
        <ele>231.39999389648</ele>
        <time>2022-03-19T16:07:15.000Z</time>
      </trkpt>
      <trkpt lat="43.65117" lon="5.27444">
        <ele>231.19999694824</ele>
        <time>2022-03-19T16:07:16.000Z</time>
      </trkpt>
      <trkpt lat="43.65122" lon="5.27433">
        <ele>230.39999389648</ele>
        <time>2022-03-19T16:07:18.000Z</time>
      </trkpt>
      <trkpt lat="43.65123" lon="5.27428">
        <ele>230</ele>
        <time>2022-03-19T16:07:19.000Z</time>
      </trkpt>
      <trkpt lat="43.65125" lon="5.27424">
        <ele>229.60000610352</ele>
        <time>2022-03-19T16:07:20.000Z</time>
      </trkpt>
      <trkpt lat="43.65129" lon="5.27421">
        <ele>229.19999694824</ele>
        <time>2022-03-19T16:07:21.000Z</time>
      </trkpt>
      <trkpt lat="43.65132" lon="5.27418">
        <ele>229</ele>
        <time>2022-03-19T16:07:22.000Z</time>
      </trkpt>
      <trkpt lat="43.65136" lon="5.27416">
        <ele>228.60000610352</ele>
        <time>2022-03-19T16:07:23.000Z</time>
      </trkpt>
      <trkpt lat="43.65139" lon="5.27413">
        <ele>228.39999389648</ele>
        <time>2022-03-19T16:07:24.000Z</time>
      </trkpt>
      <trkpt lat="43.65142" lon="5.2741">
        <ele>228</ele>
        <time>2022-03-19T16:07:25.000Z</time>
      </trkpt>
      <trkpt lat="43.65145" lon="5.27408">
        <ele>227.60000610352</ele>
        <time>2022-03-19T16:07:26.000Z</time>
      </trkpt>
      <trkpt lat="43.65147" lon="5.27406">
        <ele>227</ele>
        <time>2022-03-19T16:07:27.000Z</time>
      </trkpt>
      <trkpt lat="43.6515" lon="5.27404">
        <ele>226.60000610352</ele>
        <time>2022-03-19T16:07:28.000Z</time>
      </trkpt>
      <trkpt lat="43.65152" lon="5.27402">
        <ele>226.19999694824</ele>
        <time>2022-03-19T16:07:29.000Z</time>
      </trkpt>
      <trkpt lat="43.65153" lon="5.27401">
        <ele>225.80000305176</ele>
        <time>2022-03-19T16:07:30.000Z</time>
      </trkpt>
      <trkpt lat="43.65156" lon="5.27399">
        <ele>225.39999389648</ele>
        <time>2022-03-19T16:07:31.000Z</time>
      </trkpt>
      <trkpt lat="43.65158" lon="5.27397">
        <ele>224.80000305176</ele>
        <time>2022-03-19T16:07:32.000Z</time>
      </trkpt>
      <trkpt lat="43.65161" lon="5.27394">
        <ele>224.39999389648</ele>
        <time>2022-03-19T16:07:33.000Z</time>
      </trkpt>
      <trkpt lat="43.65164" lon="5.27392">
        <ele>223.80000305176</ele>
        <time>2022-03-19T16:07:34.000Z</time>
      </trkpt>
      <trkpt lat="43.65167" lon="5.2739">
        <ele>223.19999694824</ele>
        <time>2022-03-19T16:07:35.000Z</time>
      </trkpt>
      <trkpt lat="43.65169" lon="5.27388">
        <ele>222.60000610352</ele>
        <time>2022-03-19T16:07:36.000Z</time>
      </trkpt>
      <trkpt lat="43.65172" lon="5.27386">
        <ele>222.19999694824</ele>
        <time>2022-03-19T16:07:37.000Z</time>
      </trkpt>
      <trkpt lat="43.65174" lon="5.27385">
        <ele>221.60000610352</ele>
        <time>2022-03-19T16:07:38.000Z</time>
      </trkpt>
      <trkpt lat="43.65177" lon="5.27384">
        <ele>221.19999694824</ele>
        <time>2022-03-19T16:07:39.000Z</time>
      </trkpt>
      <trkpt lat="43.65179" lon="5.27383">
        <ele>220.80000305176</ele>
        <time>2022-03-19T16:07:40.000Z</time>
      </trkpt>
      <trkpt lat="43.65181" lon="5.27381">
        <ele>220.39999389648</ele>
        <time>2022-03-19T16:07:41.000Z</time>
      </trkpt>
      <trkpt lat="43.65184" lon="5.27379">
        <ele>220</ele>
        <time>2022-03-19T16:07:42.000Z</time>
      </trkpt>
      <trkpt lat="43.65186" lon="5.27377">
        <ele>219.60000610352</ele>
        <time>2022-03-19T16:07:43.000Z</time>
      </trkpt>
      <trkpt lat="43.65189" lon="5.27375">
        <ele>219.19999694824</ele>
        <time>2022-03-19T16:07:44.000Z</time>
      </trkpt>
      <trkpt lat="43.65192" lon="5.27374">
        <ele>218.60000610352</ele>
        <time>2022-03-19T16:07:45.000Z</time>
      </trkpt>
      <trkpt lat="43.65195" lon="5.27374">
        <ele>218.19999694824</ele>
        <time>2022-03-19T16:07:46.000Z</time>
      </trkpt>
      <trkpt lat="43.65197" lon="5.27373">
        <ele>218</ele>
        <time>2022-03-19T16:07:47.000Z</time>
      </trkpt>
      <trkpt lat="43.65199" lon="5.27371">
        <ele>217.60000610352</ele>
        <time>2022-03-19T16:07:48.000Z</time>
      </trkpt>
      <trkpt lat="43.65199" lon="5.27369">
        <ele>217.39999389648</ele>
        <time>2022-03-19T16:07:49.000Z</time>
      </trkpt>
      <trkpt lat="43.652" lon="5.27367">
        <ele>217.39999389648</ele>
        <time>2022-03-19T16:07:50.000Z</time>
      </trkpt>
      <trkpt lat="43.652" lon="5.27365">
        <ele>217.19999694824</ele>
        <time>2022-03-19T16:07:51.000Z</time>
      </trkpt>
      <trkpt lat="43.65201" lon="5.2736">
        <ele>217</ele>
        <time>2022-03-19T16:07:53.000Z</time>
      </trkpt>
      <trkpt lat="43.65201" lon="5.27357">
        <ele>216.80000305176</ele>
        <time>2022-03-19T16:07:54.000Z</time>
      </trkpt>
      <trkpt lat="43.65202" lon="5.27354">
        <ele>216.60000610352</ele>
        <time>2022-03-19T16:07:55.000Z</time>
      </trkpt>
      <trkpt lat="43.65203" lon="5.27351">
        <ele>216.19999694824</ele>
        <time>2022-03-19T16:07:56.000Z</time>
      </trkpt>
      <trkpt lat="43.65207" lon="5.27351">
        <ele>215.80000305176</ele>
        <time>2022-03-19T16:07:58.000Z</time>
      </trkpt>
      <trkpt lat="43.65207" lon="5.27353">
        <ele>216</ele>
        <time>2022-03-19T16:07:59.000Z</time>
      </trkpt>
      <trkpt lat="43.65207" lon="5.27356">
        <ele>216.19999694824</ele>
        <time>2022-03-19T16:08:00.000Z</time>
      </trkpt>
      <trkpt lat="43.65208" lon="5.27357">
        <ele>216.19999694824</ele>
        <time>2022-03-19T16:08:01.000Z</time>
      </trkpt>
      <trkpt lat="43.65209" lon="5.27359">
        <ele>216.19999694824</ele>
        <time>2022-03-19T16:08:02.000Z</time>
      </trkpt>
      <trkpt lat="43.65212" lon="5.27361">
        <ele>216</ele>
        <time>2022-03-19T16:08:07.000Z</time>
      </trkpt>
      <trkpt lat="43.65212" lon="5.27361">
        <ele>216</ele>
        <time>2022-03-19T16:08:15.000Z</time>
      </trkpt>
      <trkpt lat="43.65212" lon="5.27361">
        <ele>216</ele>
        <time>2022-03-19T16:08:23.000Z</time>
      </trkpt>
      <trkpt lat="43.65212" lon="5.27361">
        <ele>216</ele>
        <time>2022-03-19T16:08:34.000Z</time>
      </trkpt>
      <trkpt lat="43.65212" lon="5.27361">
        <ele>216</ele>
        <time>2022-03-19T16:08:44.000Z</time>
      </trkpt>
      <trkpt lat="43.65211" lon="5.27361">
        <ele>216</ele>
        <time>2022-03-19T16:08:54.000Z</time>
      </trkpt>
      <trkpt lat="43.65211" lon="5.27361">
        <ele>216.19999694824</ele>
        <time>2022-03-19T16:09:00.000Z</time>
      </trkpt>
      <trkpt lat="43.65211" lon="5.27361">
        <ele>216.19999694824</ele>
        <time>2022-03-19T16:09:08.000Z</time>
      </trkpt>
      <trkpt lat="43.65211" lon="5.27361">
        <ele>216.19999694824</ele>
        <time>2022-03-19T16:09:18.000Z</time>
      </trkpt>
      <trkpt lat="43.65211" lon="5.27361">
        <ele>216.19999694824</ele>
        <time>2022-03-19T16:09:30.000Z</time>
      </trkpt>
      <trkpt lat="43.65211" lon="5.27361">
        <ele>216.19999694824</ele>
        <time>2022-03-19T16:09:37.000Z</time>
      </trkpt>
      <trkpt lat="43.65211" lon="5.27361">
        <ele>216.19999694824</ele>
        <time>2022-03-19T16:09:45.000Z</time>
      </trkpt>
      <trkpt lat="43.65211" lon="5.27361">
        <ele>216.19999694824</ele>
        <time>2022-03-19T16:09:54.000Z</time>
      </trkpt>
      <trkpt lat="43.65211" lon="5.27362">
        <ele>216.19999694824</ele>
        <time>2022-03-19T16:10:02.000Z</time>
      </trkpt>
      <trkpt lat="43.65211" lon="5.27362">
        <ele>216.19999694824</ele>
        <time>2022-03-19T16:10:10.000Z</time>
      </trkpt>
      <trkpt lat="43.65211" lon="5.27362">
        <ele>216.19999694824</ele>
        <time>2022-03-19T16:10:21.000Z</time>
      </trkpt>
      <trkpt lat="43.65211" lon="5.27362">
        <ele>216.19999694824</ele>
        <time>2022-03-19T16:10:32.000Z</time>
      </trkpt>
      <trkpt lat="43.65211" lon="5.27361">
        <ele>216.19999694824</ele>
        <time>2022-03-19T16:10:40.000Z</time>
      </trkpt>
      <trkpt lat="43.65211" lon="5.27361">
        <ele>216.19999694824</ele>
        <time>2022-03-19T16:10:50.000Z</time>
      </trkpt>
      <trkpt lat="43.65212" lon="5.27361">
        <ele>216</ele>
        <time>2022-03-19T16:10:59.000Z</time>
      </trkpt>
      <trkpt lat="43.65212" lon="5.27361">
        <ele>216</ele>
        <time>2022-03-19T16:11:11.000Z</time>
      </trkpt>
      <trkpt lat="43.65212" lon="5.27361">
        <ele>216</ele>
        <time>2022-03-19T16:11:22.000Z</time>
      </trkpt>
      <trkpt lat="43.65212" lon="5.27361">
        <ele>216</ele>
        <time>2022-03-19T16:11:33.000Z</time>
      </trkpt>
      <trkpt lat="43.65212" lon="5.27361">
        <ele>216</ele>
        <time>2022-03-19T16:11:44.000Z</time>
      </trkpt>
      <trkpt lat="43.65212" lon="5.27361">
        <ele>216</ele>
        <time>2022-03-19T16:11:53.000Z</time>
      </trkpt>
      <trkpt lat="43.65212" lon="5.27361">
        <ele>216</ele>
        <time>2022-03-19T16:11:59.000Z</time>
      </trkpt>
      <trkpt lat="43.65212" lon="5.27361">
        <ele>216</ele>
        <time>2022-03-19T16:12:09.000Z</time>
      </trkpt>
      <trkpt lat="43.65212" lon="5.27361">
        <ele>216</ele>
        <time>2022-03-19T16:12:24.000Z</time>
      </trkpt>
      <trkpt lat="43.65212" lon="5.27361">
        <ele>216</ele>
        <time>2022-03-19T16:12:36.000Z</time>
      </trkpt>
      <trkpt lat="43.65212" lon="5.27361">
        <ele>216</ele>
        <time>2022-03-19T16:12:44.000Z</time>
      </trkpt>
      <trkpt lat="43.65212" lon="5.27361">
        <ele>216</ele>
        <time>2022-03-19T16:12:54.000Z</time>
      </trkpt>
      <trkpt lat="43.65212" lon="5.27361">
        <ele>216</ele>
        <time>2022-03-19T16:13:06.000Z</time>
      </trkpt>
      <trkpt lat="43.65212" lon="5.27361">
        <ele>216</ele>
        <time>2022-03-19T16:13:16.000Z</time>
      </trkpt>
      <trkpt lat="43.65212" lon="5.27361">
        <ele>216</ele>
        <time>2022-03-19T16:13:27.000Z</time>
      </trkpt>
      <trkpt lat="43.65212" lon="5.27361">
        <ele>216</ele>
        <time>2022-03-19T16:13:41.000Z</time>
      </trkpt>
      <trkpt lat="43.65212" lon="5.27361">
        <ele>216</ele>
        <time>2022-03-19T16:13:54.000Z</time>
      </trkpt>
      <trkpt lat="43.65214" lon="5.27361">
        <ele>215.80000305176</ele>
        <time>2022-03-19T16:14:00.000Z</time>
      </trkpt>
      <trkpt lat="43.65215" lon="5.27361">
        <ele>215.80000305176</ele>
        <time>2022-03-19T16:14:08.000Z</time>
      </trkpt>
      <trkpt lat="43.65215" lon="5.27361">
        <ele>215.80000305176</ele>
        <time>2022-03-19T16:14:20.000Z</time>
      </trkpt>
      <trkpt lat="43.65215" lon="5.27361">
        <ele>215.80000305176</ele>
        <time>2022-03-19T16:14:30.000Z</time>
      </trkpt>
      <trkpt lat="43.65215" lon="5.27361">
        <ele>215.80000305176</ele>
        <time>2022-03-19T16:14:43.000Z</time>
      </trkpt>
      <trkpt lat="43.65215" lon="5.27361">
        <ele>215.80000305176</ele>
        <time>2022-03-19T16:14:56.000Z</time>
      </trkpt>
      <trkpt lat="43.65215" lon="5.27361">
        <ele>215.80000305176</ele>
        <time>2022-03-19T16:15:06.000Z</time>
      </trkpt>
      <trkpt lat="43.65215" lon="5.27361">
        <ele>215.80000305176</ele>
        <time>2022-03-19T16:15:19.000Z</time>
      </trkpt>
      <trkpt lat="43.65215" lon="5.2736">
        <ele>215.60000610352</ele>
        <time>2022-03-19T16:15:33.000Z</time>
      </trkpt>
      <trkpt lat="43.65215" lon="5.2736">
        <ele>215.60000610352</ele>
        <time>2022-03-19T16:15:50.000Z</time>
      </trkpt>
      <trkpt lat="43.65215" lon="5.2736">
        <ele>215.60000610352</ele>
        <time>2022-03-19T16:15:51.000Z</time>
      </trkpt>
      <trkpt lat="43.65215" lon="5.2736">
        <ele>215.60000610352</ele>
        <time>2022-03-19T16:16:01.000Z</time>
      </trkpt>
      <trkpt lat="43.65215" lon="5.2736">
        <ele>215.60000610352</ele>
        <time>2022-03-19T16:16:13.000Z</time>
      </trkpt>
      <trkpt lat="43.65215" lon="5.2736">
        <ele>215.60000610352</ele>
        <time>2022-03-19T16:16:27.000Z</time>
      </trkpt>
      <trkpt lat="43.65215" lon="5.2736">
        <ele>215.60000610352</ele>
        <time>2022-03-19T16:16:37.000Z</time>
      </trkpt>
      <trkpt lat="43.65215" lon="5.2736">
        <ele>215.60000610352</ele>
        <time>2022-03-19T16:16:44.000Z</time>
      </trkpt>
      <trkpt lat="43.65215" lon="5.2736">
        <ele>215.60000610352</ele>
        <time>2022-03-19T16:16:52.000Z</time>
      </trkpt>
      <trkpt lat="43.65215" lon="5.2736">
        <ele>215.60000610352</ele>
        <time>2022-03-19T16:17:04.000Z</time>
      </trkpt>
      <trkpt lat="43.65215" lon="5.2736">
        <ele>215.60000610352</ele>
        <time>2022-03-19T16:17:14.000Z</time>
      </trkpt>
      <trkpt lat="43.65221" lon="5.27368">
        <ele>215.60000610352</ele>
        <time>2022-03-19T16:17:19.000Z</time>
      </trkpt>
      <trkpt lat="43.65229" lon="5.27379">
        <ele>215.39999389648</ele>
        <time>2022-03-19T16:17:24.000Z</time>
      </trkpt>
      <trkpt lat="43.65243" lon="5.27397">
        <ele>214.80000305176</ele>
        <time>2022-03-19T16:17:31.000Z</time>
      </trkpt>
      <trkpt lat="43.65248" lon="5.27414">
        <ele>215</ele>
        <time>2022-03-19T16:17:36.000Z</time>
      </trkpt>
      <trkpt lat="43.65251" lon="5.27431">
        <ele>216</ele>
        <time>2022-03-19T16:17:41.000Z</time>
      </trkpt>
      <trkpt lat="43.65254" lon="5.27451">
        <ele>216.39999389648</ele>
        <time>2022-03-19T16:17:46.000Z</time>
      </trkpt>
      <trkpt lat="43.65256" lon="5.27478">
        <ele>217.19999694824</ele>
        <time>2022-03-19T16:17:52.000Z</time>
      </trkpt>
      <trkpt lat="43.65254" lon="5.27499">
        <ele>218</ele>
        <time>2022-03-19T16:17:57.000Z</time>
      </trkpt>
      <trkpt lat="43.65252" lon="5.27524">
        <ele>218.60000610352</ele>
        <time>2022-03-19T16:18:03.000Z</time>
      </trkpt>
      <trkpt lat="43.65248" lon="5.27549">
        <ele>219.19999694824</ele>
        <time>2022-03-19T16:18:09.000Z</time>
      </trkpt>
      <trkpt lat="43.65246" lon="5.27572">
        <ele>219.39999389648</ele>
        <time>2022-03-19T16:18:15.000Z</time>
      </trkpt>
      <trkpt lat="43.65248" lon="5.27575">
        <ele>219</ele>
        <time>2022-03-19T16:18:16.000Z</time>
      </trkpt>
      <trkpt lat="43.65257" lon="5.27576">
        <ele>217.80000305176</ele>
        <time>2022-03-19T16:18:20.000Z</time>
      </trkpt>
      <trkpt lat="43.65262" lon="5.27571">
        <ele>217.19999694824</ele>
        <time>2022-03-19T16:18:22.000Z</time>
      </trkpt>
      <trkpt lat="43.65271" lon="5.2756">
        <ele>216.19999694824</ele>
        <time>2022-03-19T16:18:26.000Z</time>
      </trkpt>
      <trkpt lat="43.65283" lon="5.27549">
        <ele>215</ele>
        <time>2022-03-19T16:18:30.000Z</time>
      </trkpt>
      <trkpt lat="43.65288" lon="5.27545">
        <ele>214.60000610352</ele>
        <time>2022-03-19T16:18:31.000Z</time>
      </trkpt>
      <trkpt lat="43.65297" lon="5.27538">
        <ele>214</ele>
        <time>2022-03-19T16:18:33.000Z</time>
      </trkpt>
      <trkpt lat="43.65301" lon="5.27535">
        <ele>214</ele>
        <time>2022-03-19T16:18:34.000Z</time>
      </trkpt>
      <trkpt lat="43.65304" lon="5.27531">
        <ele>214</ele>
        <time>2022-03-19T16:18:35.000Z</time>
      </trkpt>
      <trkpt lat="43.65308" lon="5.27527">
        <ele>214</ele>
        <time>2022-03-19T16:18:36.000Z</time>
      </trkpt>
      <trkpt lat="43.65311" lon="5.27524">
        <ele>214</ele>
        <time>2022-03-19T16:18:37.000Z</time>
      </trkpt>
      <trkpt lat="43.65329" lon="5.27505">
        <ele>215</ele>
        <time>2022-03-19T16:18:43.000Z</time>
      </trkpt>
      <trkpt lat="43.65349" lon="5.27488">
        <ele>216.39999389648</ele>
        <time>2022-03-19T16:18:49.000Z</time>
      </trkpt>
      <trkpt lat="43.65352" lon="5.27485">
        <ele>216.60000610352</ele>
        <time>2022-03-19T16:18:50.000Z</time>
      </trkpt>
      <trkpt lat="43.65356" lon="5.27482">
        <ele>216.80000305176</ele>
        <time>2022-03-19T16:18:51.000Z</time>
      </trkpt>
      <trkpt lat="43.65359" lon="5.2748">
        <ele>217</ele>
        <time>2022-03-19T16:18:52.000Z</time>
      </trkpt>
      <trkpt lat="43.65363" lon="5.27477">
        <ele>217.39999389648</ele>
        <time>2022-03-19T16:18:53.000Z</time>
      </trkpt>
      <trkpt lat="43.65369" lon="5.27473">
        <ele>217.80000305176</ele>
        <time>2022-03-19T16:18:55.000Z</time>
      </trkpt>
      <trkpt lat="43.65375" lon="5.27472">
        <ele>217.60000610352</ele>
        <time>2022-03-19T16:18:57.000Z</time>
      </trkpt>
      <trkpt lat="43.65382" lon="5.27473">
        <ele>217.39999389648</ele>
        <time>2022-03-19T16:18:59.000Z</time>
      </trkpt>
      <trkpt lat="43.65385" lon="5.27473">
        <ele>217.19999694824</ele>
        <time>2022-03-19T16:19:00.000Z</time>
      </trkpt>
      <trkpt lat="43.65389" lon="5.27474">
        <ele>217.19999694824</ele>
        <time>2022-03-19T16:19:01.000Z</time>
      </trkpt>
      <trkpt lat="43.65394" lon="5.27474">
        <ele>217</ele>
        <time>2022-03-19T16:19:02.000Z</time>
      </trkpt>
      <trkpt lat="43.65401" lon="5.27476">
        <ele>217</ele>
        <time>2022-03-19T16:19:04.000Z</time>
      </trkpt>
      <trkpt lat="43.65422" lon="5.27479">
        <ele>216.39999389648</ele>
        <time>2022-03-19T16:19:10.000Z</time>
      </trkpt>
      <trkpt lat="43.65428" lon="5.2747">
        <ele>216</ele>
        <time>2022-03-19T16:19:14.000Z</time>
      </trkpt>
      <trkpt lat="43.6543" lon="5.2745">
        <ele>216</ele>
        <time>2022-03-19T16:19:18.000Z</time>
      </trkpt>
      <trkpt lat="43.65428" lon="5.27425">
        <ele>215.60000610352</ele>
        <time>2022-03-19T16:19:23.000Z</time>
      </trkpt>
      <trkpt lat="43.6543" lon="5.27415">
        <ele>215.39999389648</ele>
        <time>2022-03-19T16:19:27.000Z</time>
      </trkpt>
      <trkpt lat="43.65433" lon="5.27409">
        <ele>215.39999389648</ele>
        <time>2022-03-19T16:19:31.000Z</time>
      </trkpt>
      <trkpt lat="43.65433" lon="5.27408">
        <ele>215.39999389648</ele>
        <time>2022-03-19T16:19:38.000Z</time>
      </trkpt>
      <trkpt lat="43.65435" lon="5.27407">
        <ele>215.39999389648</ele>
        <time>2022-03-19T16:19:41.000Z</time>
      </trkpt>
      <trkpt lat="43.65437" lon="5.27401">
        <ele>215.19999694824</ele>
        <time>2022-03-19T16:19:43.000Z</time>
      </trkpt>
      <trkpt lat="43.65435" lon="5.27392">
        <ele>214.80000305176</ele>
        <time>2022-03-19T16:19:45.000Z</time>
      </trkpt>
      <trkpt lat="43.65434" lon="5.27386">
        <ele>214.60000610352</ele>
        <time>2022-03-19T16:19:46.000Z</time>
      </trkpt>
      <trkpt lat="43.65424" lon="5.2735">
        <ele>214.19999694824</ele>
        <time>2022-03-19T16:19:52.000Z</time>
      </trkpt>
      <trkpt lat="43.65417" lon="5.27319">
        <ele>215.39999389648</ele>
        <time>2022-03-19T16:19:57.000Z</time>
      </trkpt>
      <trkpt lat="43.65415" lon="5.27308">
        <ele>216</ele>
        <time>2022-03-19T16:19:59.000Z</time>
      </trkpt>
      <trkpt lat="43.65405" lon="5.27261">
        <ele>216.60000610352</ele>
        <time>2022-03-19T16:20:07.000Z</time>
      </trkpt>
      <trkpt lat="43.65404" lon="5.27221">
        <ele>216.19999694824</ele>
        <time>2022-03-19T16:20:14.000Z</time>
      </trkpt>
      <trkpt lat="43.65404" lon="5.27208">
        <ele>216.19999694824</ele>
        <time>2022-03-19T16:20:16.000Z</time>
      </trkpt>
      <trkpt lat="43.65404" lon="5.27201">
        <ele>216.19999694824</ele>
        <time>2022-03-19T16:20:17.000Z</time>
      </trkpt>
      <trkpt lat="43.65404" lon="5.27195">
        <ele>216.19999694824</ele>
        <time>2022-03-19T16:20:18.000Z</time>
      </trkpt>
      <trkpt lat="43.65405" lon="5.27188">
        <ele>216.19999694824</ele>
        <time>2022-03-19T16:20:19.000Z</time>
      </trkpt>
      <trkpt lat="43.65405" lon="5.27181">
        <ele>216.19999694824</ele>
        <time>2022-03-19T16:20:20.000Z</time>
      </trkpt>
      <trkpt lat="43.65405" lon="5.27175">
        <ele>216.19999694824</ele>
        <time>2022-03-19T16:20:21.000Z</time>
      </trkpt>
      <trkpt lat="43.65407" lon="5.27117">
        <ele>214</ele>
        <time>2022-03-19T16:20:30.000Z</time>
      </trkpt>
      <trkpt lat="43.65409" lon="5.27076">
        <ele>212.80000305176</ele>
        <time>2022-03-19T16:20:37.000Z</time>
      </trkpt>
      <trkpt lat="43.6541" lon="5.2707">
        <ele>212.80000305176</ele>
        <time>2022-03-19T16:20:38.000Z</time>
      </trkpt>
      <trkpt lat="43.65411" lon="5.27063">
        <ele>212.80000305176</ele>
        <time>2022-03-19T16:20:39.000Z</time>
      </trkpt>
      <trkpt lat="43.65412" lon="5.27057">
        <ele>212.60000610352</ele>
        <time>2022-03-19T16:20:40.000Z</time>
      </trkpt>
      <trkpt lat="43.65413" lon="5.27052">
        <ele>212.60000610352</ele>
        <time>2022-03-19T16:20:41.000Z</time>
      </trkpt>
      <trkpt lat="43.65414" lon="5.27047">
        <ele>212.39999389648</ele>
        <time>2022-03-19T16:20:42.000Z</time>
      </trkpt>
      <trkpt lat="43.65419" lon="5.27037">
        <ele>212</ele>
        <time>2022-03-19T16:20:44.000Z</time>
      </trkpt>
      <trkpt lat="43.65425" lon="5.27018">
        <ele>211.80000305176</ele>
        <time>2022-03-19T16:20:49.000Z</time>
      </trkpt>
      <trkpt lat="43.65428" lon="5.2701">
        <ele>211.60000610352</ele>
        <time>2022-03-19T16:20:52.000Z</time>
      </trkpt>
      <trkpt lat="43.6543" lon="5.27008">
        <ele>211.60000610352</ele>
        <time>2022-03-19T16:20:53.000Z</time>
      </trkpt>
      <trkpt lat="43.65435" lon="5.27001">
        <ele>211.19999694824</ele>
        <time>2022-03-19T16:20:56.000Z</time>
      </trkpt>
      <trkpt lat="43.65435" lon="5.26999">
        <ele>211.19999694824</ele>
        <time>2022-03-19T16:20:57.000Z</time>
      </trkpt>
      <trkpt lat="43.65434" lon="5.26992">
        <ele>211</ele>
        <time>2022-03-19T16:21:04.000Z</time>
      </trkpt>
      <trkpt lat="43.65434" lon="5.26992">
        <ele>211</ele>
        <time>2022-03-19T16:21:15.000Z</time>
      </trkpt>
      <trkpt lat="43.65434" lon="5.26992">
        <ele>211</ele>
        <time>2022-03-19T16:21:23.000Z</time>
      </trkpt>
      <trkpt lat="43.65433" lon="5.26992">
        <ele>211</ele>
        <time>2022-03-19T16:21:29.000Z</time>
      </trkpt>
      <trkpt lat="43.65433" lon="5.26992">
        <ele>211</ele>
        <time>2022-03-19T16:21:38.000Z</time>
      </trkpt>
      <trkpt lat="43.65433" lon="5.26992">
        <ele>211</ele>
        <time>2022-03-19T16:21:49.000Z</time>
      </trkpt>
      <trkpt lat="43.65433" lon="5.26992">
        <ele>211</ele>
        <time>2022-03-19T16:21:59.000Z</time>
      </trkpt>
      <trkpt lat="43.65433" lon="5.26992">
        <ele>211</ele>
        <time>2022-03-19T16:22:09.000Z</time>
      </trkpt>
      <trkpt lat="43.65433" lon="5.26992">
        <ele>211</ele>
        <time>2022-03-19T16:22:17.000Z</time>
      </trkpt>
      <trkpt lat="43.65433" lon="5.26992">
        <ele>211</ele>
        <time>2022-03-19T16:22:28.000Z</time>
      </trkpt>
      <trkpt lat="43.65433" lon="5.26991">
        <ele>211</ele>
        <time>2022-03-19T16:22:31.000Z</time>
      </trkpt>
      <trkpt lat="43.65435" lon="5.26986">
        <ele>211</ele>
        <time>2022-03-19T16:22:33.000Z</time>
      </trkpt>
      <trkpt lat="43.65442" lon="5.26964">
        <ele>211</ele>
        <time>2022-03-19T16:22:38.000Z</time>
      </trkpt>
      <trkpt lat="43.65442" lon="5.26944">
        <ele>211.80000305176</ele>
        <time>2022-03-19T16:22:42.000Z</time>
      </trkpt>
      <trkpt lat="43.65441" lon="5.2694">
        <ele>212</ele>
        <time>2022-03-19T16:22:43.000Z</time>
      </trkpt>
      <trkpt lat="43.65437" lon="5.26935">
        <ele>212.19999694824</ele>
        <time>2022-03-19T16:22:45.000Z</time>
      </trkpt>
      <trkpt lat="43.65428" lon="5.2693">
        <ele>212.60000610352</ele>
        <time>2022-03-19T16:22:50.000Z</time>
      </trkpt>
      <trkpt lat="43.65418" lon="5.26939">
        <ele>212</ele>
        <time>2022-03-19T16:22:54.000Z</time>
      </trkpt>
      <trkpt lat="43.65415" lon="5.26941">
        <ele>212.19999694824</ele>
        <time>2022-03-19T16:22:55.000Z</time>
      </trkpt>
      <trkpt lat="43.65403" lon="5.2694">
        <ele>212.60000610352</ele>
        <time>2022-03-19T16:22:58.000Z</time>
      </trkpt>
      <trkpt lat="43.65389" lon="5.26931">
        <ele>213.19999694824</ele>
        <time>2022-03-19T16:23:02.000Z</time>
      </trkpt>
      <trkpt lat="43.65386" lon="5.26927">
        <ele>213.39999389648</ele>
        <time>2022-03-19T16:23:03.000Z</time>
      </trkpt>
      <trkpt lat="43.65372" lon="5.26908">
        <ele>214</ele>
        <time>2022-03-19T16:23:07.000Z</time>
      </trkpt>
      <trkpt lat="43.65369" lon="5.26902">
        <ele>214</ele>
        <time>2022-03-19T16:23:08.000Z</time>
      </trkpt>
      <trkpt lat="43.65363" lon="5.26881">
        <ele>214</ele>
        <time>2022-03-19T16:23:11.000Z</time>
      </trkpt>
      <trkpt lat="43.65359" lon="5.26868">
        <ele>213.80000305176</ele>
        <time>2022-03-19T16:23:13.000Z</time>
      </trkpt>
      <trkpt lat="43.65353" lon="5.26826">
        <ele>212.39999389648</ele>
        <time>2022-03-19T16:23:19.000Z</time>
      </trkpt>
      <trkpt lat="43.65352" lon="5.26805">
        <ele>212.19999694824</ele>
        <time>2022-03-19T16:23:22.000Z</time>
      </trkpt>
      <trkpt lat="43.65349" lon="5.26782">
        <ele>211.60000610352</ele>
        <time>2022-03-19T16:23:25.000Z</time>
      </trkpt>
      <trkpt lat="43.65346" lon="5.26751">
        <ele>212</ele>
        <time>2022-03-19T16:23:29.000Z</time>
      </trkpt>
      <trkpt lat="43.65345" lon="5.26742">
        <ele>212.19999694824</ele>
        <time>2022-03-19T16:23:30.000Z</time>
      </trkpt>
      <trkpt lat="43.65345" lon="5.26734">
        <ele>212.19999694824</ele>
        <time>2022-03-19T16:23:31.000Z</time>
      </trkpt>
      <trkpt lat="43.65344" lon="5.26726">
        <ele>212.39999389648</ele>
        <time>2022-03-19T16:23:32.000Z</time>
      </trkpt>
      <trkpt lat="43.65343" lon="5.26718">
        <ele>212.60000610352</ele>
        <time>2022-03-19T16:23:33.000Z</time>
      </trkpt>
      <trkpt lat="43.65338" lon="5.26663">
        <ele>212</ele>
        <time>2022-03-19T16:23:40.000Z</time>
      </trkpt>
      <trkpt lat="43.65335" lon="5.26633">
        <ele>211.19999694824</ele>
        <time>2022-03-19T16:23:44.000Z</time>
      </trkpt>
      <trkpt lat="43.65333" lon="5.26619">
        <ele>210.80000305176</ele>
        <time>2022-03-19T16:23:46.000Z</time>
      </trkpt>
      <trkpt lat="43.65329" lon="5.26571">
        <ele>210.19999694824</ele>
        <time>2022-03-19T16:23:53.000Z</time>
      </trkpt>
      <trkpt lat="43.65328" lon="5.26543">
        <ele>210.39999389648</ele>
        <time>2022-03-19T16:23:58.000Z</time>
      </trkpt>
      <trkpt lat="43.65326" lon="5.26538">
        <ele>210.39999389648</ele>
        <time>2022-03-19T16:23:59.000Z</time>
      </trkpt>
      <trkpt lat="43.65322" lon="5.26535">
        <ele>210.60000610352</ele>
        <time>2022-03-19T16:24:00.000Z</time>
      </trkpt>
      <trkpt lat="43.65317" lon="5.26534">
        <ele>210.80000305176</ele>
        <time>2022-03-19T16:24:01.000Z</time>
      </trkpt>
      <trkpt lat="43.65313" lon="5.26533">
        <ele>210.80000305176</ele>
        <time>2022-03-19T16:24:02.000Z</time>
      </trkpt>
      <trkpt lat="43.65309" lon="5.26534">
        <ele>211</ele>
        <time>2022-03-19T16:24:03.000Z</time>
      </trkpt>
      <trkpt lat="43.65305" lon="5.26534">
        <ele>211.19999694824</ele>
        <time>2022-03-19T16:24:04.000Z</time>
      </trkpt>
      <trkpt lat="43.653" lon="5.26535">
        <ele>211.39999389648</ele>
        <time>2022-03-19T16:24:05.000Z</time>
      </trkpt>
      <trkpt lat="43.65296" lon="5.26535">
        <ele>211.39999389648</ele>
        <time>2022-03-19T16:24:06.000Z</time>
      </trkpt>
      <trkpt lat="43.65292" lon="5.26536">
        <ele>211.60000610352</ele>
        <time>2022-03-19T16:24:07.000Z</time>
      </trkpt>
      <trkpt lat="43.65287" lon="5.26537">
        <ele>211.80000305176</ele>
        <time>2022-03-19T16:24:08.000Z</time>
      </trkpt>
      <trkpt lat="43.65283" lon="5.26539">
        <ele>212</ele>
        <time>2022-03-19T16:24:09.000Z</time>
      </trkpt>
      <trkpt lat="43.65274" lon="5.2654">
        <ele>212.19999694824</ele>
        <time>2022-03-19T16:24:11.000Z</time>
      </trkpt>
      <trkpt lat="43.65271" lon="5.26541">
        <ele>212.60000610352</ele>
        <time>2022-03-19T16:24:12.000Z</time>
      </trkpt>
      <trkpt lat="43.65266" lon="5.26541">
        <ele>212.80000305176</ele>
        <time>2022-03-19T16:24:13.000Z</time>
      </trkpt>
      <trkpt lat="43.65262" lon="5.26541">
        <ele>213.19999694824</ele>
        <time>2022-03-19T16:24:14.000Z</time>
      </trkpt>
      <trkpt lat="43.65258" lon="5.26541">
        <ele>213.39999389648</ele>
        <time>2022-03-19T16:24:15.000Z</time>
      </trkpt>
      <trkpt lat="43.6525" lon="5.26542">
        <ele>214</ele>
        <time>2022-03-19T16:24:17.000Z</time>
      </trkpt>
      <trkpt lat="43.65246" lon="5.26542">
        <ele>214.39999389648</ele>
        <time>2022-03-19T16:24:18.000Z</time>
      </trkpt>
      <trkpt lat="43.65243" lon="5.26543">
        <ele>214.80000305176</ele>
        <time>2022-03-19T16:24:19.000Z</time>
      </trkpt>
      <trkpt lat="43.65239" lon="5.26544">
        <ele>215.19999694824</ele>
        <time>2022-03-19T16:24:20.000Z</time>
      </trkpt>
      <trkpt lat="43.65236" lon="5.26545">
        <ele>215.80000305176</ele>
        <time>2022-03-19T16:24:21.000Z</time>
      </trkpt>
      <trkpt lat="43.65229" lon="5.26547">
        <ele>216.60000610352</ele>
        <time>2022-03-19T16:24:23.000Z</time>
      </trkpt>
      <trkpt lat="43.65226" lon="5.26548">
        <ele>217</ele>
        <time>2022-03-19T16:24:24.000Z</time>
      </trkpt>
      <trkpt lat="43.65222" lon="5.26548">
        <ele>217.39999389648</ele>
        <time>2022-03-19T16:24:25.000Z</time>
      </trkpt>
      <trkpt lat="43.65219" lon="5.2655">
        <ele>217.80000305176</ele>
        <time>2022-03-19T16:24:26.000Z</time>
      </trkpt>
      <trkpt lat="43.65216" lon="5.26551">
        <ele>218.19999694824</ele>
        <time>2022-03-19T16:24:27.000Z</time>
      </trkpt>
      <trkpt lat="43.65212" lon="5.26551">
        <ele>218.60000610352</ele>
        <time>2022-03-19T16:24:28.000Z</time>
      </trkpt>
      <trkpt lat="43.65208" lon="5.26552">
        <ele>219</ele>
        <time>2022-03-19T16:24:29.000Z</time>
      </trkpt>
      <trkpt lat="43.65205" lon="5.26552">
        <ele>219.39999389648</ele>
        <time>2022-03-19T16:24:30.000Z</time>
      </trkpt>
      <trkpt lat="43.65202" lon="5.26553">
        <ele>219.60000610352</ele>
        <time>2022-03-19T16:24:31.000Z</time>
      </trkpt>
      <trkpt lat="43.65195" lon="5.26554">
        <ele>220.60000610352</ele>
        <time>2022-03-19T16:24:33.000Z</time>
      </trkpt>
      <trkpt lat="43.65192" lon="5.26555">
        <ele>221</ele>
        <time>2022-03-19T16:24:34.000Z</time>
      </trkpt>
      <trkpt lat="43.65189" lon="5.26555">
        <ele>221.39999389648</ele>
        <time>2022-03-19T16:24:35.000Z</time>
      </trkpt>
      <trkpt lat="43.65186" lon="5.26554">
        <ele>221.80000305176</ele>
        <time>2022-03-19T16:24:36.000Z</time>
      </trkpt>
      <trkpt lat="43.65184" lon="5.2655">
        <ele>222</ele>
        <time>2022-03-19T16:24:37.000Z</time>
      </trkpt>
      <trkpt lat="43.65182" lon="5.26547">
        <ele>222.19999694824</ele>
        <time>2022-03-19T16:24:38.000Z</time>
      </trkpt>
      <trkpt lat="43.65176" lon="5.26547">
        <ele>223.19999694824</ele>
        <time>2022-03-19T16:24:40.000Z</time>
      </trkpt>
      <trkpt lat="43.65173" lon="5.26548">
        <ele>223.60000610352</ele>
        <time>2022-03-19T16:24:41.000Z</time>
      </trkpt>
      <trkpt lat="43.6517" lon="5.26549">
        <ele>224</ele>
        <time>2022-03-19T16:24:42.000Z</time>
      </trkpt>
      <trkpt lat="43.65167" lon="5.26549">
        <ele>224.19999694824</ele>
        <time>2022-03-19T16:24:43.000Z</time>
      </trkpt>
      <trkpt lat="43.65165" lon="5.26549">
        <ele>224.19999694824</ele>
        <time>2022-03-19T16:24:44.000Z</time>
      </trkpt>
      <trkpt lat="43.65162" lon="5.2655">
        <ele>224.39999389648</ele>
        <time>2022-03-19T16:24:45.000Z</time>
      </trkpt>
      <trkpt lat="43.65159" lon="5.2655">
        <ele>224.39999389648</ele>
        <time>2022-03-19T16:24:46.000Z</time>
      </trkpt>
      <trkpt lat="43.65156" lon="5.26551">
        <ele>224.60000610352</ele>
        <time>2022-03-19T16:24:47.000Z</time>
      </trkpt>
      <trkpt lat="43.65153" lon="5.26552">
        <ele>224.60000610352</ele>
        <time>2022-03-19T16:24:48.000Z</time>
      </trkpt>
      <trkpt lat="43.65143" lon="5.26554">
        <ele>225.39999389648</ele>
        <time>2022-03-19T16:24:51.000Z</time>
      </trkpt>
      <trkpt lat="43.6514" lon="5.26555">
        <ele>225.80000305176</ele>
        <time>2022-03-19T16:24:52.000Z</time>
      </trkpt>
      <trkpt lat="43.65136" lon="5.26556">
        <ele>226.19999694824</ele>
        <time>2022-03-19T16:24:53.000Z</time>
      </trkpt>
      <trkpt lat="43.65131" lon="5.26557">
        <ele>226.80000305176</ele>
        <time>2022-03-19T16:24:54.000Z</time>
      </trkpt>
      <trkpt lat="43.65127" lon="5.26558">
        <ele>227.39999389648</ele>
        <time>2022-03-19T16:24:55.000Z</time>
      </trkpt>
      <trkpt lat="43.65107" lon="5.26561">
        <ele>229.80000305176</ele>
        <time>2022-03-19T16:24:59.000Z</time>
      </trkpt>
      <trkpt lat="43.6509" lon="5.26565">
        <ele>231.80000305176</ele>
        <time>2022-03-19T16:25:03.000Z</time>
      </trkpt>
      <trkpt lat="43.65087" lon="5.26566">
        <ele>232.19999694824</ele>
        <time>2022-03-19T16:25:04.000Z</time>
      </trkpt>
      <trkpt lat="43.65083" lon="5.26567">
        <ele>232.39999389648</ele>
        <time>2022-03-19T16:25:05.000Z</time>
      </trkpt>
      <trkpt lat="43.6508" lon="5.26567">
        <ele>232.60000610352</ele>
        <time>2022-03-19T16:25:06.000Z</time>
      </trkpt>
      <trkpt lat="43.65076" lon="5.26568">
        <ele>232.80000305176</ele>
        <time>2022-03-19T16:25:07.000Z</time>
      </trkpt>
      <trkpt lat="43.65073" lon="5.26571">
        <ele>233</ele>
        <time>2022-03-19T16:25:08.000Z</time>
      </trkpt>
      <trkpt lat="43.65071" lon="5.26573">
        <ele>233.39999389648</ele>
        <time>2022-03-19T16:25:09.000Z</time>
      </trkpt>
      <trkpt lat="43.65068" lon="5.26574">
        <ele>233.60000610352</ele>
        <time>2022-03-19T16:25:10.000Z</time>
      </trkpt>
      <trkpt lat="43.65065" lon="5.26575">
        <ele>233.80000305176</ele>
        <time>2022-03-19T16:25:11.000Z</time>
      </trkpt>
      <trkpt lat="43.65061" lon="5.26578">
        <ele>234</ele>
        <time>2022-03-19T16:25:12.000Z</time>
      </trkpt>
      <trkpt lat="43.65058" lon="5.2658">
        <ele>234.19999694824</ele>
        <time>2022-03-19T16:25:13.000Z</time>
      </trkpt>
      <trkpt lat="43.65051" lon="5.26584">
        <ele>233.80000305176</ele>
        <time>2022-03-19T16:25:15.000Z</time>
      </trkpt>
      <trkpt lat="43.65047" lon="5.26582">
        <ele>233.39999389648</ele>
        <time>2022-03-19T16:25:16.000Z</time>
      </trkpt>
      <trkpt lat="43.6503" lon="5.26584">
        <ele>232.80000305176</ele>
        <time>2022-03-19T16:25:20.000Z</time>
      </trkpt>
      <trkpt lat="43.65025" lon="5.26586">
        <ele>233</ele>
        <time>2022-03-19T16:25:21.000Z</time>
      </trkpt>
      <trkpt lat="43.65009" lon="5.26599">
        <ele>233.80000305176</ele>
        <time>2022-03-19T16:25:26.000Z</time>
      </trkpt>
      <trkpt lat="43.65005" lon="5.26601">
        <ele>233.80000305176</ele>
        <time>2022-03-19T16:25:27.000Z</time>
      </trkpt>
      <trkpt lat="43.64991" lon="5.26607">
        <ele>234.60000610352</ele>
        <time>2022-03-19T16:25:30.000Z</time>
      </trkpt>
      <trkpt lat="43.6497" lon="5.26616">
        <ele>235.80000305176</ele>
        <time>2022-03-19T16:25:36.000Z</time>
      </trkpt>
      <trkpt lat="43.64967" lon="5.26617">
        <ele>235.80000305176</ele>
        <time>2022-03-19T16:25:37.000Z</time>
      </trkpt>
      <trkpt lat="43.64964" lon="5.26617">
        <ele>236</ele>
        <time>2022-03-19T16:25:38.000Z</time>
      </trkpt>
      <trkpt lat="43.64962" lon="5.26617">
        <ele>235.80000305176</ele>
        <time>2022-03-19T16:25:39.000Z</time>
      </trkpt>
      <trkpt lat="43.64954" lon="5.26616">
        <ele>235.80000305176</ele>
        <time>2022-03-19T16:25:42.000Z</time>
      </trkpt>
      <trkpt lat="43.64946" lon="5.26612">
        <ele>235.60000610352</ele>
        <time>2022-03-19T16:25:47.000Z</time>
      </trkpt>
      <trkpt lat="43.64938" lon="5.2661">
        <ele>235.39999389648</ele>
        <time>2022-03-19T16:25:52.000Z</time>
      </trkpt>
      <trkpt lat="43.64938" lon="5.2661">
        <ele>235.39999389648</ele>
        <time>2022-03-19T16:25:53.000Z</time>
      </trkpt>
      <trkpt lat="43.64938" lon="5.2661">
        <ele>235.39999389648</ele>
        <time>2022-03-19T16:25:58.000Z</time>
      </trkpt>
      <trkpt lat="43.64938" lon="5.2661">
        <ele>235.39999389648</ele>
        <time>2022-03-19T16:26:06.000Z</time>
      </trkpt>
      <trkpt lat="43.64938" lon="5.2661">
        <ele>235.39999389648</ele>
        <time>2022-03-19T16:26:22.000Z</time>
      </trkpt>
      <trkpt lat="43.64938" lon="5.2661">
        <ele>235.39999389648</ele>
        <time>2022-03-19T16:26:24.000Z</time>
      </trkpt>
      <trkpt lat="43.64938" lon="5.26611">
        <ele>235.39999389648</ele>
        <time>2022-03-19T16:26:25.000Z</time>
      </trkpt>
      <trkpt lat="43.64938" lon="5.26611">
        <ele>235.39999389648</ele>
        <time>2022-03-19T16:26:26.000Z</time>
      </trkpt>
      <trkpt lat="43.64938" lon="5.26611">
        <ele>235.39999389648</ele>
        <time>2022-03-19T16:26:27.000Z</time>
      </trkpt>
      <trkpt lat="43.64938" lon="5.26611">
        <ele>235.39999389648</ele>
        <time>2022-03-19T16:26:29.000Z</time>
      </trkpt>
      <trkpt lat="43.64938" lon="5.26611">
        <ele>235.39999389648</ele>
        <time>2022-03-19T16:26:42.000Z</time>
      </trkpt>
      <trkpt lat="43.64938" lon="5.26611">
        <ele>235.39999389648</ele>
        <time>2022-03-19T16:26:55.000Z</time>
      </trkpt>
      <trkpt lat="43.64938" lon="5.26611">
        <ele>235.39999389648</ele>
        <time>2022-03-19T16:27:01.000Z</time>
      </trkpt>
      <trkpt lat="43.64938" lon="5.2661">
        <ele>235.39999389648</ele>
        <time>2022-03-19T16:27:10.000Z</time>
      </trkpt>
      <trkpt lat="43.64938" lon="5.2661">
        <ele>235.39999389648</ele>
        <time>2022-03-19T16:27:19.000Z</time>
      </trkpt>
      <trkpt lat="43.64938" lon="5.2661">
        <ele>235.39999389648</ele>
        <time>2022-03-19T16:27:28.000Z</time>
      </trkpt>
      <trkpt lat="43.64938" lon="5.2661">
        <ele>235.39999389648</ele>
        <time>2022-03-19T16:27:37.000Z</time>
      </trkpt>
      <trkpt lat="43.64938" lon="5.2661">
        <ele>235.39999389648</ele>
        <time>2022-03-19T16:27:48.000Z</time>
      </trkpt>
      <trkpt lat="43.64938" lon="5.2661">
        <ele>235.39999389648</ele>
        <time>2022-03-19T16:27:57.000Z</time>
      </trkpt>
      <trkpt lat="43.64938" lon="5.2661">
        <ele>235.39999389648</ele>
        <time>2022-03-19T16:28:06.000Z</time>
      </trkpt>
      <trkpt lat="43.64938" lon="5.2661">
        <ele>235.39999389648</ele>
        <time>2022-03-19T16:28:18.000Z</time>
      </trkpt>
      <trkpt lat="43.64938" lon="5.26609">
        <ele>235.39999389648</ele>
        <time>2022-03-19T16:28:30.000Z</time>
      </trkpt>
      <trkpt lat="43.64938" lon="5.26609">
        <ele>235.39999389648</ele>
        <time>2022-03-19T16:28:40.000Z</time>
      </trkpt>
      <trkpt lat="43.64938" lon="5.26609">
        <ele>235.39999389648</ele>
        <time>2022-03-19T16:28:53.000Z</time>
      </trkpt>
      <trkpt lat="43.64938" lon="5.26609">
        <ele>235.39999389648</ele>
        <time>2022-03-19T16:29:00.000Z</time>
      </trkpt>
      <trkpt lat="43.64938" lon="5.26609">
        <ele>235.39999389648</ele>
        <time>2022-03-19T16:29:13.000Z</time>
      </trkpt>
      <trkpt lat="43.64938" lon="5.26609">
        <ele>235.39999389648</ele>
        <time>2022-03-19T16:29:19.000Z</time>
      </trkpt>
      <trkpt lat="43.64938" lon="5.26609">
        <ele>235.39999389648</ele>
        <time>2022-03-19T16:29:30.000Z</time>
      </trkpt>
      <trkpt lat="43.64938" lon="5.26609">
        <ele>235.39999389648</ele>
        <time>2022-03-19T16:29:44.000Z</time>
      </trkpt>
      <trkpt lat="43.64938" lon="5.26609">
        <ele>235.39999389648</ele>
        <time>2022-03-19T16:29:55.000Z</time>
      </trkpt>
      <trkpt lat="43.64938" lon="5.26609">
        <ele>235.39999389648</ele>
        <time>2022-03-19T16:30:06.000Z</time>
      </trkpt>
      <trkpt lat="43.64938" lon="5.26609">
        <ele>235.39999389648</ele>
        <time>2022-03-19T16:30:21.000Z</time>
      </trkpt>
      <trkpt lat="43.64938" lon="5.26609">
        <ele>235.39999389648</ele>
        <time>2022-03-19T16:30:30.000Z</time>
      </trkpt>
      <trkpt lat="43.64938" lon="5.26609">
        <ele>235.39999389648</ele>
        <time>2022-03-19T16:30:38.000Z</time>
      </trkpt>
      <trkpt lat="43.64938" lon="5.26609">
        <ele>235.19999694824</ele>
        <time>2022-03-19T16:30:43.000Z</time>
      </trkpt>
      <trkpt lat="43.64933" lon="5.26605">
        <ele>235</ele>
        <time>2022-03-19T16:30:49.000Z</time>
      </trkpt>
      <trkpt lat="43.64924" lon="5.26598">
        <ele>234.39999389648</ele>
        <time>2022-03-19T16:30:53.000Z</time>
      </trkpt>
      <trkpt lat="43.64922" lon="5.26596">
        <ele>234</ele>
        <time>2022-03-19T16:30:54.000Z</time>
      </trkpt>
      <trkpt lat="43.64917" lon="5.26593">
        <ele>234</ele>
        <time>2022-03-19T16:30:58.000Z</time>
      </trkpt>
      <trkpt lat="43.64915" lon="5.26582">
        <ele>232.80000305176</ele>
        <time>2022-03-19T16:31:02.000Z</time>
      </trkpt>
      <trkpt lat="43.64908" lon="5.26557">
        <ele>231.80000305176</ele>
        <time>2022-03-19T16:31:08.000Z</time>
      </trkpt>
      <trkpt lat="43.64903" lon="5.26536">
        <ele>231.19999694824</ele>
        <time>2022-03-19T16:31:12.000Z</time>
      </trkpt>
      <trkpt lat="43.64902" lon="5.2653">
        <ele>231</ele>
        <time>2022-03-19T16:31:13.000Z</time>
      </trkpt>
      <trkpt lat="43.64901" lon="5.26525">
        <ele>230.80000305176</ele>
        <time>2022-03-19T16:31:14.000Z</time>
      </trkpt>
      <trkpt lat="43.649" lon="5.26519">
        <ele>230.60000610352</ele>
        <time>2022-03-19T16:31:15.000Z</time>
      </trkpt>
      <trkpt lat="43.649" lon="5.26512">
        <ele>230.39999389648</ele>
        <time>2022-03-19T16:31:16.000Z</time>
      </trkpt>
      <trkpt lat="43.64901" lon="5.26498">
        <ele>230</ele>
        <time>2022-03-19T16:31:18.000Z</time>
      </trkpt>
      <trkpt lat="43.64903" lon="5.26485">
        <ele>230</ele>
        <time>2022-03-19T16:31:20.000Z</time>
      </trkpt>
      <trkpt lat="43.64903" lon="5.26472">
        <ele>230.19999694824</ele>
        <time>2022-03-19T16:31:22.000Z</time>
      </trkpt>
      <trkpt lat="43.64901" lon="5.26466">
        <ele>230.19999694824</ele>
        <time>2022-03-19T16:31:23.000Z</time>
      </trkpt>
      <trkpt lat="43.64898" lon="5.26461">
        <ele>230.39999389648</ele>
        <time>2022-03-19T16:31:24.000Z</time>
      </trkpt>
      <trkpt lat="43.64894" lon="5.26457">
        <ele>230.39999389648</ele>
        <time>2022-03-19T16:31:25.000Z</time>
      </trkpt>
      <trkpt lat="43.64889" lon="5.26455">
        <ele>230.39999389648</ele>
        <time>2022-03-19T16:31:26.000Z</time>
      </trkpt>
      <trkpt lat="43.64881" lon="5.26453">
        <ele>230.39999389648</ele>
        <time>2022-03-19T16:31:28.000Z</time>
      </trkpt>
      <trkpt lat="43.64871" lon="5.26447">
        <ele>230.80000305176</ele>
        <time>2022-03-19T16:31:31.000Z</time>
      </trkpt>
      <trkpt lat="43.64864" lon="5.26434">
        <ele>231.19999694824</ele>
        <time>2022-03-19T16:31:35.000Z</time>
      </trkpt>
      <trkpt lat="43.6486" lon="5.26429">
        <ele>231.60000610352</ele>
        <time>2022-03-19T16:31:37.000Z</time>
      </trkpt>
      <trkpt lat="43.64855" lon="5.26428">
        <ele>231.80000305176</ele>
        <time>2022-03-19T16:31:39.000Z</time>
      </trkpt>
      <trkpt lat="43.64845" lon="5.26418">
        <ele>232.39999389648</ele>
        <time>2022-03-19T16:31:44.000Z</time>
      </trkpt>
      <trkpt lat="43.64837" lon="5.26417">
        <ele>233</ele>
        <time>2022-03-19T16:31:47.000Z</time>
      </trkpt>
      <trkpt lat="43.64832" lon="5.26416">
        <ele>233</ele>
        <time>2022-03-19T16:31:49.000Z</time>
      </trkpt>
      <trkpt lat="43.64811" lon="5.26418">
        <ele>233</ele>
        <time>2022-03-19T16:31:56.000Z</time>
      </trkpt>
      <trkpt lat="43.6479" lon="5.26423">
        <ele>232.39999389648</ele>
        <time>2022-03-19T16:32:03.000Z</time>
      </trkpt>
      <trkpt lat="43.64764" lon="5.26428">
        <ele>232</ele>
        <time>2022-03-19T16:32:10.000Z</time>
      </trkpt>
      <trkpt lat="43.6476" lon="5.2643">
        <ele>232</ele>
        <time>2022-03-19T16:32:11.000Z</time>
      </trkpt>
      <trkpt lat="43.64751" lon="5.26433">
        <ele>231.80000305176</ele>
        <time>2022-03-19T16:32:13.000Z</time>
      </trkpt>
      <trkpt lat="43.64746" lon="5.26435">
        <ele>231.39999389648</ele>
        <time>2022-03-19T16:32:14.000Z</time>
      </trkpt>
      <trkpt lat="43.64741" lon="5.26438">
        <ele>231</ele>
        <time>2022-03-19T16:32:15.000Z</time>
      </trkpt>
      <trkpt lat="43.64736" lon="5.2644">
        <ele>230.60000610352</ele>
        <time>2022-03-19T16:32:16.000Z</time>
      </trkpt>
      <trkpt lat="43.64729" lon="5.26442">
        <ele>230</ele>
        <time>2022-03-19T16:32:17.000Z</time>
      </trkpt>
      <trkpt lat="43.64711" lon="5.26447">
        <ele>228</ele>
        <time>2022-03-19T16:32:20.000Z</time>
      </trkpt>
      <trkpt lat="43.64704" lon="5.2645">
        <ele>227.39999389648</ele>
        <time>2022-03-19T16:32:21.000Z</time>
      </trkpt>
      <trkpt lat="43.64698" lon="5.26454">
        <ele>227</ele>
        <time>2022-03-19T16:32:22.000Z</time>
      </trkpt>
      <trkpt lat="43.64692" lon="5.26457">
        <ele>226.80000305176</ele>
        <time>2022-03-19T16:32:23.000Z</time>
      </trkpt>
      <trkpt lat="43.64686" lon="5.2646">
        <ele>226.19999694824</ele>
        <time>2022-03-19T16:32:24.000Z</time>
      </trkpt>
      <trkpt lat="43.64673" lon="5.26467">
        <ele>225.19999694824</ele>
        <time>2022-03-19T16:32:26.000Z</time>
      </trkpt>
      <trkpt lat="43.6466" lon="5.2647">
        <ele>225</ele>
        <time>2022-03-19T16:32:28.000Z</time>
      </trkpt>
      <trkpt lat="43.64653" lon="5.26471">
        <ele>225</ele>
        <time>2022-03-19T16:32:29.000Z</time>
      </trkpt>
      <trkpt lat="43.64647" lon="5.26472">
        <ele>225</ele>
        <time>2022-03-19T16:32:30.000Z</time>
      </trkpt>
      <trkpt lat="43.6464" lon="5.26473">
        <ele>225</ele>
        <time>2022-03-19T16:32:31.000Z</time>
      </trkpt>
      <trkpt lat="43.64633" lon="5.26475">
        <ele>225</ele>
        <time>2022-03-19T16:32:32.000Z</time>
      </trkpt>
      <trkpt lat="43.64627" lon="5.26478">
        <ele>225</ele>
        <time>2022-03-19T16:32:33.000Z</time>
      </trkpt>
      <trkpt lat="43.64608" lon="5.26486">
        <ele>224</ele>
        <time>2022-03-19T16:32:36.000Z</time>
      </trkpt>
      <trkpt lat="43.64601" lon="5.26488">
        <ele>223.80000305176</ele>
        <time>2022-03-19T16:32:37.000Z</time>
      </trkpt>
      <trkpt lat="43.64583" lon="5.26494">
        <ele>223</ele>
        <time>2022-03-19T16:32:40.000Z</time>
      </trkpt>
      <trkpt lat="43.64577" lon="5.26497">
        <ele>222.80000305176</ele>
        <time>2022-03-19T16:32:41.000Z</time>
      </trkpt>
      <trkpt lat="43.64572" lon="5.26498">
        <ele>222.80000305176</ele>
        <time>2022-03-19T16:32:42.000Z</time>
      </trkpt>
      <trkpt lat="43.64566" lon="5.265">
        <ele>222.80000305176</ele>
        <time>2022-03-19T16:32:43.000Z</time>
      </trkpt>
      <trkpt lat="43.64561" lon="5.26501">
        <ele>222.80000305176</ele>
        <time>2022-03-19T16:32:44.000Z</time>
      </trkpt>
      <trkpt lat="43.64526" lon="5.26512">
        <ele>221.80000305176</ele>
        <time>2022-03-19T16:32:51.000Z</time>
      </trkpt>
      <trkpt lat="43.64516" lon="5.26518">
        <ele>221.39999389648</ele>
        <time>2022-03-19T16:32:53.000Z</time>
      </trkpt>
      <trkpt lat="43.64507" lon="5.26518">
        <ele>221</ele>
        <time>2022-03-19T16:32:55.000Z</time>
      </trkpt>
      <trkpt lat="43.64487" lon="5.26527">
        <ele>221.19999694824</ele>
        <time>2022-03-19T16:32:59.000Z</time>
      </trkpt>
      <trkpt lat="43.64481" lon="5.26527">
        <ele>221.19999694824</ele>
        <time>2022-03-19T16:33:00.000Z</time>
      </trkpt>
      <trkpt lat="43.64471" lon="5.26528">
        <ele>221</ele>
        <time>2022-03-19T16:33:02.000Z</time>
      </trkpt>
      <trkpt lat="43.64466" lon="5.26531">
        <ele>221</ele>
        <time>2022-03-19T16:33:03.000Z</time>
      </trkpt>
      <trkpt lat="43.64461" lon="5.26534">
        <ele>220.80000305176</ele>
        <time>2022-03-19T16:33:04.000Z</time>
      </trkpt>
      <trkpt lat="43.64456" lon="5.26536">
        <ele>221</ele>
        <time>2022-03-19T16:33:05.000Z</time>
      </trkpt>
      <trkpt lat="43.6445" lon="5.26539">
        <ele>221.19999694824</ele>
        <time>2022-03-19T16:33:06.000Z</time>
      </trkpt>
      <trkpt lat="43.64444" lon="5.2654">
        <ele>221.19999694824</ele>
        <time>2022-03-19T16:33:07.000Z</time>
      </trkpt>
      <trkpt lat="43.64431" lon="5.26545">
        <ele>220.60000610352</ele>
        <time>2022-03-19T16:33:09.000Z</time>
      </trkpt>
      <trkpt lat="43.64425" lon="5.26548">
        <ele>220.19999694824</ele>
        <time>2022-03-19T16:33:10.000Z</time>
      </trkpt>
      <trkpt lat="43.64418" lon="5.26549">
        <ele>219.60000610352</ele>
        <time>2022-03-19T16:33:11.000Z</time>
      </trkpt>
      <trkpt lat="43.6441" lon="5.26549">
        <ele>218.80000305176</ele>
        <time>2022-03-19T16:33:12.000Z</time>
      </trkpt>
      <trkpt lat="43.64403" lon="5.26547">
        <ele>218</ele>
        <time>2022-03-19T16:33:13.000Z</time>
      </trkpt>
      <trkpt lat="43.64396" lon="5.26547">
        <ele>217.19999694824</ele>
        <time>2022-03-19T16:33:14.000Z</time>
      </trkpt>
      <trkpt lat="43.6439" lon="5.26548">
        <ele>216.60000610352</ele>
        <time>2022-03-19T16:33:15.000Z</time>
      </trkpt>
      <trkpt lat="43.64383" lon="5.26549">
        <ele>216</ele>
        <time>2022-03-19T16:33:16.000Z</time>
      </trkpt>
      <trkpt lat="43.64376" lon="5.26551">
        <ele>215.19999694824</ele>
        <time>2022-03-19T16:33:17.000Z</time>
      </trkpt>
      <trkpt lat="43.64369" lon="5.26553">
        <ele>214.39999389648</ele>
        <time>2022-03-19T16:33:18.000Z</time>
      </trkpt>
      <trkpt lat="43.64361" lon="5.26555">
        <ele>213.80000305176</ele>
        <time>2022-03-19T16:33:19.000Z</time>
      </trkpt>
      <trkpt lat="43.64354" lon="5.26558">
        <ele>213.60000610352</ele>
        <time>2022-03-19T16:33:20.000Z</time>
      </trkpt>
      <trkpt lat="43.64346" lon="5.26561">
        <ele>213.39999389648</ele>
        <time>2022-03-19T16:33:21.000Z</time>
      </trkpt>
      <trkpt lat="43.64339" lon="5.26564">
        <ele>213</ele>
        <time>2022-03-19T16:33:22.000Z</time>
      </trkpt>
      <trkpt lat="43.64332" lon="5.26568">
        <ele>212.80000305176</ele>
        <time>2022-03-19T16:33:23.000Z</time>
      </trkpt>
      <trkpt lat="43.64304" lon="5.26582">
        <ele>212</ele>
        <time>2022-03-19T16:33:27.000Z</time>
      </trkpt>
      <trkpt lat="43.64296" lon="5.26585">
        <ele>212</ele>
        <time>2022-03-19T16:33:28.000Z</time>
      </trkpt>
      <trkpt lat="43.64289" lon="5.2659">
        <ele>211.80000305176</ele>
        <time>2022-03-19T16:33:29.000Z</time>
      </trkpt>
      <trkpt lat="43.64283" lon="5.26596">
        <ele>211.39999389648</ele>
        <time>2022-03-19T16:33:30.000Z</time>
      </trkpt>
      <trkpt lat="43.64276" lon="5.26602">
        <ele>211.19999694824</ele>
        <time>2022-03-19T16:33:31.000Z</time>
      </trkpt>
      <trkpt lat="43.64266" lon="5.26607">
        <ele>211</ele>
        <time>2022-03-19T16:33:33.000Z</time>
      </trkpt>
      <trkpt lat="43.6426" lon="5.26601">
        <ele>211.19999694824</ele>
        <time>2022-03-19T16:33:36.000Z</time>
      </trkpt>
      <trkpt lat="43.64259" lon="5.26601">
        <ele>211.19999694824</ele>
        <time>2022-03-19T16:33:39.000Z</time>
      </trkpt>
      <trkpt lat="43.64259" lon="5.26601">
        <ele>211.19999694824</ele>
        <time>2022-03-19T16:33:45.000Z</time>
      </trkpt>
      <trkpt lat="43.64259" lon="5.26601">
        <ele>211.19999694824</ele>
        <time>2022-03-19T16:33:58.000Z</time>
      </trkpt>
      <trkpt lat="43.64259" lon="5.26601">
        <ele>211.19999694824</ele>
        <time>2022-03-19T16:34:12.000Z</time>
      </trkpt>
      <trkpt lat="43.64259" lon="5.26601">
        <ele>211.19999694824</ele>
        <time>2022-03-19T16:34:13.000Z</time>
      </trkpt>
      <trkpt lat="43.64256" lon="5.26593">
        <ele>211.39999389648</ele>
        <time>2022-03-19T16:34:16.000Z</time>
      </trkpt>
      <trkpt lat="43.64254" lon="5.26588">
        <ele>211.60000610352</ele>
        <time>2022-03-19T16:34:18.000Z</time>
      </trkpt>
      <trkpt lat="43.64254" lon="5.26581">
        <ele>211.80000305176</ele>
        <time>2022-03-19T16:34:20.000Z</time>
      </trkpt>
      <trkpt lat="43.64251" lon="5.26563">
        <ele>212.39999389648</ele>
        <time>2022-03-19T16:34:24.000Z</time>
      </trkpt>
      <trkpt lat="43.64254" lon="5.26549">
        <ele>213</ele>
        <time>2022-03-19T16:34:27.000Z</time>
      </trkpt>
      <trkpt lat="43.64265" lon="5.26543">
        <ele>212.60000610352</ele>
        <time>2022-03-19T16:34:31.000Z</time>
      </trkpt>
      <trkpt lat="43.64274" lon="5.26539">
        <ele>212.39999389648</ele>
        <time>2022-03-19T16:34:35.000Z</time>
      </trkpt>
      <trkpt lat="43.64279" lon="5.26529">
        <ele>212.80000305176</ele>
        <time>2022-03-19T16:34:39.000Z</time>
      </trkpt>
      <trkpt lat="43.64279" lon="5.26525">
        <ele>212.80000305176</ele>
        <time>2022-03-19T16:34:43.000Z</time>
      </trkpt>
      <trkpt lat="43.64279" lon="5.26521">
        <ele>213</ele>
        <time>2022-03-19T16:34:51.000Z</time>
      </trkpt>
      <trkpt lat="43.64279" lon="5.26521">
        <ele>213</ele>
        <time>2022-03-19T16:34:57.000Z</time>
      </trkpt>
      <trkpt lat="43.64279" lon="5.26521">
        <ele>213</ele>
        <time>2022-03-19T16:35:03.000Z</time>
      </trkpt>
      <trkpt lat="43.64279" lon="5.26521">
        <ele>213</ele>
        <time>2022-03-19T16:35:11.000Z</time>
      </trkpt>
      <trkpt lat="43.64279" lon="5.26521">
        <ele>213</ele>
        <time>2022-03-19T16:35:23.000Z</time>
      </trkpt>
      <trkpt lat="43.64279" lon="5.26521">
        <ele>213</ele>
        <time>2022-03-19T16:35:36.000Z</time>
      </trkpt>
      <trkpt lat="43.64279" lon="5.26521">
        <ele>213</ele>
        <time>2022-03-19T16:35:53.000Z</time>
      </trkpt>
      <trkpt lat="43.64279" lon="5.26521">
        <ele>213</ele>
        <time>2022-03-19T16:36:09.000Z</time>
      </trkpt>
      <trkpt lat="43.64279" lon="5.26521">
        <ele>213</ele>
        <time>2022-03-19T16:36:23.000Z</time>
      </trkpt>
      <trkpt lat="43.64279" lon="5.26521">
        <ele>213</ele>
        <time>2022-03-19T16:36:39.000Z</time>
      </trkpt>
      <trkpt lat="43.64279" lon="5.26521">
        <ele>213</ele>
        <time>2022-03-19T16:36:55.000Z</time>
      </trkpt>
      <trkpt lat="43.64279" lon="5.26521">
        <ele>213</ele>
        <time>2022-03-19T16:37:10.000Z</time>
      </trkpt>
      <trkpt lat="43.64279" lon="5.26521">
        <ele>213</ele>
        <time>2022-03-19T16:37:14.000Z</time>
      </trkpt>
      <trkpt lat="43.64279" lon="5.26521">
        <ele>213</ele>
        <time>2022-03-19T16:37:15.000Z</time>
      </trkpt>
      <trkpt lat="43.64279" lon="5.26521">
        <ele>213</ele>
        <time>2022-03-19T16:37:16.000Z</time>
      </trkpt>
      <trkpt lat="43.64279" lon="5.26521">
        <ele>213</ele>
        <time>2022-03-19T16:37:17.000Z</time>
      </trkpt>
    </trkseg>
  </trk>
</gpx>